<?xml version="1.0" encoding="UTF-8" standalone="no" ?>
<gpx xmlns="http://www.topografix.com/GPX/1/1" xmlns:xsi="http://www.w3.org/2001/XMLSchema-instance" xsi:schemaLocation="http://www.topografix.com/GPX/1/1 http://www.topografix.com/GPX/1/1/gpx.xsd" version="1.1" creator="VisuGPX - https://www.visugpx.com">
  <metadata>
    <name>Session ski 10/02</name>
    <desc><![CDATA[Session de ski à villard de lans dans le vercors avec de bons skieurs]]></desc>
  </metadata>
  <trk>
    <name><![CDATA[Tracé actuel: 10 FEV 2010 09:53]]></name>
    <trkseg>
      <trkpt lat="45.01524" lon="5.57099">
        <ele>1346.46</ele>
        <time>2010-02-10T08:53:58Z</time>
      </trkpt>
      <trkpt lat="45.01524" lon="5.57099">
        <ele>1349.35</ele>
        <time>2010-02-10T08:54:00Z</time>
      </trkpt>
      <trkpt lat="45.01524" lon="5.57099">
        <ele>1351.75</ele>
        <time>2010-02-10T08:54:02Z</time>
      </trkpt>
      <trkpt lat="45.01524" lon="5.57099">
        <ele>1354.15</ele>
        <time>2010-02-10T08:54:03Z</time>
      </trkpt>
      <trkpt lat="45.01524" lon="5.57099">
        <ele>1358</ele>
        <time>2010-02-10T08:54:06Z</time>
      </trkpt>
      <trkpt lat="45.01524" lon="5.57099">
        <ele>1360.88</ele>
        <time>2010-02-10T08:54:08Z</time>
      </trkpt>
      <trkpt lat="45.01524" lon="5.57099">
        <ele>1363.77</ele>
        <time>2010-02-10T08:54:10Z</time>
      </trkpt>
      <trkpt lat="45.01524" lon="5.57099">
        <ele>1365.69</ele>
        <time>2010-02-10T08:54:11Z</time>
      </trkpt>
      <trkpt lat="45.01524" lon="5.57099">
        <ele>1366.65</ele>
        <time>2010-02-10T08:54:12Z</time>
      </trkpt>
      <trkpt lat="45.01524" lon="5.57099">
        <ele>1369.05</ele>
        <time>2010-02-10T08:54:13Z</time>
      </trkpt>
      <trkpt lat="45.01524" lon="5.57099">
        <ele>1372.42</ele>
        <time>2010-02-10T08:54:15Z</time>
      </trkpt>
      <trkpt lat="45.01524" lon="5.57099">
        <ele>1373.86</ele>
        <time>2010-02-10T08:54:16Z</time>
      </trkpt>
      <trkpt lat="45.01524" lon="5.57099">
        <ele>1377.23</ele>
        <time>2010-02-10T08:54:18Z</time>
      </trkpt>
      <trkpt lat="45.01524" lon="5.57099">
        <ele>1380.59</ele>
        <time>2010-02-10T08:54:19Z</time>
      </trkpt>
      <trkpt lat="45.01524" lon="5.57099">
        <ele>1380.11</ele>
        <time>2010-02-10T08:54:20Z</time>
      </trkpt>
      <trkpt lat="45.01524" lon="5.57099">
        <ele>1382.51</ele>
        <time>2010-02-10T08:54:21Z</time>
      </trkpt>
      <trkpt lat="45.01524" lon="5.57099">
        <ele>1383.96</ele>
        <time>2010-02-10T08:54:22Z</time>
      </trkpt>
      <trkpt lat="45.01524" lon="5.57099">
        <ele>1387.8</ele>
        <time>2010-02-10T08:54:24Z</time>
      </trkpt>
      <trkpt lat="45.01524" lon="5.57099">
        <ele>1390.2</ele>
        <time>2010-02-10T08:54:25Z</time>
      </trkpt>
      <trkpt lat="45.01524" lon="5.57099">
        <ele>1392.13</ele>
        <time>2010-02-10T08:54:26Z</time>
      </trkpt>
      <trkpt lat="45.01524" lon="5.57099">
        <ele>1394.05</ele>
        <time>2010-02-10T08:54:27Z</time>
      </trkpt>
      <trkpt lat="45.01524" lon="5.57099">
        <ele>1395.97</ele>
        <time>2010-02-10T08:54:28Z</time>
      </trkpt>
      <trkpt lat="45.01524" lon="5.57099">
        <ele>1398.37</ele>
        <time>2010-02-10T08:54:30Z</time>
      </trkpt>
      <trkpt lat="45.01524" lon="5.57099">
        <ele>1402.7</ele>
        <time>2010-02-10T08:54:31Z</time>
      </trkpt>
      <trkpt lat="45.01524" lon="5.57099">
        <ele>1405.1</ele>
        <time>2010-02-10T08:54:33Z</time>
      </trkpt>
      <trkpt lat="45.01524" lon="5.57099">
        <ele>1407.99</ele>
        <time>2010-02-10T08:54:34Z</time>
      </trkpt>
      <trkpt lat="45.01524" lon="5.57099">
        <ele>1410.39</ele>
        <time>2010-02-10T08:54:35Z</time>
      </trkpt>
      <trkpt lat="45.01524" lon="5.57099">
        <ele>1412.31</ele>
        <time>2010-02-10T08:54:36Z</time>
      </trkpt>
      <trkpt lat="45.01524" lon="5.57099">
        <ele>1414.24</ele>
        <time>2010-02-10T08:54:37Z</time>
      </trkpt>
      <trkpt lat="45.01524" lon="5.57099">
        <ele>1415.68</ele>
        <time>2010-02-10T08:54:38Z</time>
      </trkpt>
      <trkpt lat="45.01524" lon="5.57099">
        <ele>1419.04</ele>
        <time>2010-02-10T08:54:40Z</time>
      </trkpt>
      <trkpt lat="45.01524" lon="5.57099">
        <ele>1422.41</ele>
        <time>2010-02-10T08:54:43Z</time>
      </trkpt>
      <trkpt lat="45.01524" lon="5.57099">
        <ele>1423.85</ele>
        <time>2010-02-10T08:54:44Z</time>
      </trkpt>
      <trkpt lat="45.01524" lon="5.57099">
        <ele>1427.7</ele>
        <time>2010-02-10T08:54:46Z</time>
      </trkpt>
      <trkpt lat="45.01524" lon="5.57099">
        <ele>1428.18</ele>
        <time>2010-02-10T08:54:47Z</time>
      </trkpt>
      <trkpt lat="45.01524" lon="5.57099">
        <ele>1431.06</ele>
        <time>2010-02-10T08:54:48Z</time>
      </trkpt>
      <trkpt lat="45.01524" lon="5.57099">
        <ele>1432.98</ele>
        <time>2010-02-10T08:54:50Z</time>
      </trkpt>
      <trkpt lat="45.01524" lon="5.57099">
        <ele>1434.42</ele>
        <time>2010-02-10T08:54:51Z</time>
      </trkpt>
      <trkpt lat="45.01524" lon="5.57099">
        <ele>1435.87</ele>
        <time>2010-02-10T08:54:52Z</time>
      </trkpt>
      <trkpt lat="45.01524" lon="5.57099">
        <ele>1439.71</ele>
        <time>2010-02-10T08:54:54Z</time>
      </trkpt>
      <trkpt lat="45.01524" lon="5.57099">
        <ele>1444.52</ele>
        <time>2010-02-10T08:54:57Z</time>
      </trkpt>
      <trkpt lat="45.01524" lon="5.57099">
        <ele>1446.44</ele>
        <time>2010-02-10T08:54:58Z</time>
      </trkpt>
      <trkpt lat="45.01524" lon="5.57099">
        <ele>1448.36</ele>
        <time>2010-02-10T08:54:59Z</time>
      </trkpt>
      <trkpt lat="45.01524" lon="5.57099">
        <ele>1453.17</ele>
        <time>2010-02-10T08:55:01Z</time>
      </trkpt>
      <trkpt lat="45.01524" lon="5.57099">
        <ele>1453.17</ele>
        <time>2010-02-10T08:55:03Z</time>
      </trkpt>
      <trkpt lat="45.01524" lon="5.57099">
        <ele>1456.53</ele>
        <time>2010-02-10T08:55:04Z</time>
      </trkpt>
      <trkpt lat="45.01524" lon="5.57099">
        <ele>1458.46</ele>
        <time>2010-02-10T08:55:05Z</time>
      </trkpt>
      <trkpt lat="45.01524" lon="5.57099">
        <ele>1460.38</ele>
        <time>2010-02-10T08:55:06Z</time>
      </trkpt>
      <trkpt lat="45.04081" lon="5.56229">
        <ele>1464.71</ele>
        <time>2010-02-10T08:55:07Z</time>
      </trkpt>
      <trkpt lat="45.04075" lon="5.56233">
        <ele>1469.03</ele>
        <time>2010-02-10T08:55:09Z</time>
      </trkpt>
      <trkpt lat="45.04067" lon="5.56241">
        <ele>1474.32</ele>
        <time>2010-02-10T08:55:12Z</time>
      </trkpt>
      <trkpt lat="45.04058" lon="5.56247">
        <ele>1479.13</ele>
        <time>2010-02-10T08:55:15Z</time>
      </trkpt>
      <trkpt lat="45.0405" lon="5.56253">
        <ele>1482.97</ele>
        <time>2010-02-10T08:55:18Z</time>
      </trkpt>
      <trkpt lat="45.04041" lon="5.5626">
        <ele>1487.3</ele>
        <time>2010-02-10T08:55:21Z</time>
      </trkpt>
      <trkpt lat="45.04035" lon="5.56265">
        <ele>1491.14</ele>
        <time>2010-02-10T08:55:23Z</time>
      </trkpt>
      <trkpt lat="45.04025" lon="5.56271">
        <ele>1495.47</ele>
        <time>2010-02-10T08:55:26Z</time>
      </trkpt>
      <trkpt lat="45.04018" lon="5.56275">
        <ele>1498.83</ele>
        <time>2010-02-10T08:55:28Z</time>
      </trkpt>
      <trkpt lat="45.04008" lon="5.56281">
        <ele>1503.64</ele>
        <time>2010-02-10T08:55:31Z</time>
      </trkpt>
      <trkpt lat="45.04001" lon="5.56286">
        <ele>1506.52</ele>
        <time>2010-02-10T08:55:33Z</time>
      </trkpt>
      <trkpt lat="45.03995" lon="5.5629">
        <ele>1509.89</ele>
        <time>2010-02-10T08:55:35Z</time>
      </trkpt>
      <trkpt lat="45.03988" lon="5.56294">
        <ele>1513.73</ele>
        <time>2010-02-10T08:55:37Z</time>
      </trkpt>
      <trkpt lat="45.03982" lon="5.56298">
        <ele>1517.1</ele>
        <time>2010-02-10T08:55:39Z</time>
      </trkpt>
      <trkpt lat="45.03977" lon="5.56303">
        <ele>1521.42</ele>
        <time>2010-02-10T08:55:41Z</time>
      </trkpt>
      <trkpt lat="45.03971" lon="5.56307">
        <ele>1525.27</ele>
        <time>2010-02-10T08:55:43Z</time>
      </trkpt>
      <trkpt lat="45.03965" lon="5.56311">
        <ele>1528.15</ele>
        <time>2010-02-10T08:55:45Z</time>
      </trkpt>
      <trkpt lat="45.03959" lon="5.56314">
        <ele>1531.04</ele>
        <time>2010-02-10T08:55:47Z</time>
      </trkpt>
      <trkpt lat="45.03948" lon="5.56321">
        <ele>1533.92</ele>
        <time>2010-02-10T08:55:51Z</time>
      </trkpt>
      <trkpt lat="45.03939" lon="5.56326">
        <ele>1536.8</ele>
        <time>2010-02-10T08:55:54Z</time>
      </trkpt>
      <trkpt lat="45.03934" lon="5.5633">
        <ele>1538.73</ele>
        <time>2010-02-10T08:55:56Z</time>
      </trkpt>
      <trkpt lat="45.03928" lon="5.56334">
        <ele>1542.09</ele>
        <time>2010-02-10T08:55:58Z</time>
      </trkpt>
      <trkpt lat="45.03925" lon="5.56336">
        <ele>1542.09</ele>
        <time>2010-02-10T08:55:59Z</time>
      </trkpt>
      <trkpt lat="45.03917" lon="5.56341">
        <ele>1546.42</ele>
        <time>2010-02-10T08:56:02Z</time>
      </trkpt>
      <trkpt lat="45.03909" lon="5.56347">
        <ele>1549.78</ele>
        <time>2010-02-10T08:56:05Z</time>
      </trkpt>
      <trkpt lat="45.039" lon="5.56352">
        <ele>1552.67</ele>
        <time>2010-02-10T08:56:08Z</time>
      </trkpt>
      <trkpt lat="45.03894" lon="5.56355">
        <ele>1556.03</ele>
        <time>2010-02-10T08:56:10Z</time>
      </trkpt>
      <trkpt lat="45.03885" lon="5.56362">
        <ele>1559.88</ele>
        <time>2010-02-10T08:56:13Z</time>
      </trkpt>
      <trkpt lat="45.03876" lon="5.56367">
        <ele>1564.2</ele>
        <time>2010-02-10T08:56:16Z</time>
      </trkpt>
      <trkpt lat="45.03866" lon="5.56373">
        <ele>1568.53</ele>
        <time>2010-02-10T08:56:19Z</time>
      </trkpt>
      <trkpt lat="45.03857" lon="5.56378">
        <ele>1572.85</ele>
        <time>2010-02-10T08:56:22Z</time>
      </trkpt>
      <trkpt lat="45.03848" lon="5.56385">
        <ele>1576.7</ele>
        <time>2010-02-10T08:56:25Z</time>
      </trkpt>
      <trkpt lat="45.03842" lon="5.56389">
        <ele>1580.06</ele>
        <time>2010-02-10T08:56:27Z</time>
      </trkpt>
      <trkpt lat="45.03836" lon="5.56394">
        <ele>1583.43</ele>
        <time>2010-02-10T08:56:29Z</time>
      </trkpt>
      <trkpt lat="45.0383" lon="5.56399">
        <ele>1586.79</ele>
        <time>2010-02-10T08:56:31Z</time>
      </trkpt>
      <trkpt lat="45.03824" lon="5.56405">
        <ele>1590.16</ele>
        <time>2010-02-10T08:56:33Z</time>
      </trkpt>
      <trkpt lat="45.03818" lon="5.5641">
        <ele>1593.52</ele>
        <time>2010-02-10T08:56:35Z</time>
      </trkpt>
      <trkpt lat="45.03813" lon="5.56415">
        <ele>1596.89</ele>
        <time>2010-02-10T08:56:37Z</time>
      </trkpt>
      <trkpt lat="45.03805" lon="5.56423">
        <ele>1599.77</ele>
        <time>2010-02-10T08:56:40Z</time>
      </trkpt>
      <trkpt lat="45.03795" lon="5.5643">
        <ele>1603.14</ele>
        <time>2010-02-10T08:56:43Z</time>
      </trkpt>
      <trkpt lat="45.03786" lon="5.56436">
        <ele>1607.46</ele>
        <time>2010-02-10T08:56:46Z</time>
      </trkpt>
      <trkpt lat="45.03779" lon="5.5644">
        <ele>1610.35</ele>
        <time>2010-02-10T08:56:48Z</time>
      </trkpt>
      <trkpt lat="45.03776" lon="5.56442">
        <ele>1610.35</ele>
        <time>2010-02-10T08:56:49Z</time>
      </trkpt>
      <trkpt lat="45.0377" lon="5.56446">
        <ele>1613.71</ele>
        <time>2010-02-10T08:56:51Z</time>
      </trkpt>
      <trkpt lat="45.03757" lon="5.56452">
        <ele>1617.07</ele>
        <time>2010-02-10T08:56:55Z</time>
      </trkpt>
      <trkpt lat="45.03745" lon="5.56457">
        <ele>1620.92</ele>
        <time>2010-02-10T08:56:59Z</time>
      </trkpt>
      <trkpt lat="45.03734" lon="5.56467">
        <ele>1625.25</ele>
        <time>2010-02-10T08:57:03Z</time>
      </trkpt>
      <trkpt lat="45.03723" lon="5.56475">
        <ele>1628.61</ele>
        <time>2010-02-10T08:57:06Z</time>
      </trkpt>
      <trkpt lat="45.03713" lon="5.5648">
        <ele>1631.49</ele>
        <time>2010-02-10T08:57:09Z</time>
      </trkpt>
      <trkpt lat="45.03709" lon="5.56482">
        <ele>1631.98</ele>
        <time>2010-02-10T08:57:10Z</time>
      </trkpt>
      <trkpt lat="45.03699" lon="5.5649">
        <ele>1635.82</ele>
        <time>2010-02-10T08:57:13Z</time>
      </trkpt>
      <trkpt lat="45.03689" lon="5.56496">
        <ele>1639.19</ele>
        <time>2010-02-10T08:57:16Z</time>
      </trkpt>
      <trkpt lat="45.03678" lon="5.56506">
        <ele>1643.51</ele>
        <time>2010-02-10T08:57:19Z</time>
      </trkpt>
      <trkpt lat="45.03666" lon="5.56514">
        <ele>1646.88</ele>
        <time>2010-02-10T08:57:22Z</time>
      </trkpt>
      <trkpt lat="45.03656" lon="5.56521">
        <ele>1650.24</ele>
        <time>2010-02-10T08:57:25Z</time>
      </trkpt>
      <trkpt lat="45.03646" lon="5.56528">
        <ele>1654.57</ele>
        <time>2010-02-10T08:57:28Z</time>
      </trkpt>
      <trkpt lat="45.03635" lon="5.56536">
        <ele>1658.41</ele>
        <time>2010-02-10T08:57:31Z</time>
      </trkpt>
      <trkpt lat="45.03628" lon="5.56543">
        <ele>1661.78</ele>
        <time>2010-02-10T08:57:33Z</time>
      </trkpt>
      <trkpt lat="45.03621" lon="5.56549">
        <ele>1665.14</ele>
        <time>2010-02-10T08:57:35Z</time>
      </trkpt>
      <trkpt lat="45.03611" lon="5.56556">
        <ele>1668.99</ele>
        <time>2010-02-10T08:57:38Z</time>
      </trkpt>
      <trkpt lat="45.03604" lon="5.56561">
        <ele>1672.35</ele>
        <time>2010-02-10T08:57:40Z</time>
      </trkpt>
      <trkpt lat="45.03597" lon="5.56568">
        <ele>1675.72</ele>
        <time>2010-02-10T08:57:42Z</time>
      </trkpt>
      <trkpt lat="45.0359" lon="5.56573">
        <ele>1679.08</ele>
        <time>2010-02-10T08:57:44Z</time>
      </trkpt>
      <trkpt lat="45.0358" lon="5.5658">
        <ele>1683.89</ele>
        <time>2010-02-10T08:57:47Z</time>
      </trkpt>
      <trkpt lat="45.0357" lon="5.56586">
        <ele>1686.77</ele>
        <time>2010-02-10T08:57:50Z</time>
      </trkpt>
      <trkpt lat="45.03556" lon="5.56596">
        <ele>1690.14</ele>
        <time>2010-02-10T08:57:54Z</time>
      </trkpt>
      <trkpt lat="45.03545" lon="5.56602">
        <ele>1693.98</ele>
        <time>2010-02-10T08:57:57Z</time>
      </trkpt>
      <trkpt lat="45.03537" lon="5.56607">
        <ele>1696.86</ele>
        <time>2010-02-10T08:57:59Z</time>
      </trkpt>
      <trkpt lat="45.03526" lon="5.56614">
        <ele>1700.23</ele>
        <time>2010-02-10T08:58:02Z</time>
      </trkpt>
      <trkpt lat="45.03516" lon="5.56621">
        <ele>1703.59</ele>
        <time>2010-02-10T08:58:05Z</time>
      </trkpt>
      <trkpt lat="45.03506" lon="5.56628">
        <ele>1705.04</ele>
        <time>2010-02-10T08:58:08Z</time>
      </trkpt>
      <trkpt lat="45.03503" lon="5.5663">
        <ele>1708.4</ele>
        <time>2010-02-10T08:58:09Z</time>
      </trkpt>
      <trkpt lat="45.03493" lon="5.56637">
        <ele>1712.25</ele>
        <time>2010-02-10T08:58:12Z</time>
      </trkpt>
      <trkpt lat="45.03486" lon="5.56642">
        <ele>1715.61</ele>
        <time>2010-02-10T08:58:14Z</time>
      </trkpt>
      <trkpt lat="45.03475" lon="5.56649">
        <ele>1719.46</ele>
        <time>2010-02-10T08:58:17Z</time>
      </trkpt>
      <trkpt lat="45.03467" lon="5.56656">
        <ele>1723.78</ele>
        <time>2010-02-10T08:58:20Z</time>
      </trkpt>
      <trkpt lat="45.03451" lon="5.56673">
        <ele>1727.63</ele>
        <time>2010-02-10T08:58:24Z</time>
      </trkpt>
      <trkpt lat="45.03449" lon="5.56678">
        <ele>1731.47</ele>
        <time>2010-02-10T08:58:25Z</time>
      </trkpt>
      <trkpt lat="45.03439" lon="5.56686">
        <ele>1725.22</ele>
        <time>2010-02-10T08:58:28Z</time>
      </trkpt>
      <trkpt lat="45.0343" lon="5.56692">
        <ele>1718.97</ele>
        <time>2010-02-10T08:58:30Z</time>
      </trkpt>
      <trkpt lat="45.03427" lon="5.56695">
        <ele>1715.61</ele>
        <time>2010-02-10T08:58:31Z</time>
      </trkpt>
      <trkpt lat="45.03421" lon="5.567">
        <ele>1711.28</ele>
        <time>2010-02-10T08:58:33Z</time>
      </trkpt>
      <trkpt lat="45.03417" lon="5.56706">
        <ele>1707.44</ele>
        <time>2010-02-10T08:58:35Z</time>
      </trkpt>
      <trkpt lat="45.03411" lon="5.56708">
        <ele>1702.15</ele>
        <time>2010-02-10T08:58:37Z</time>
      </trkpt>
      <trkpt lat="45.0341" lon="5.56713">
        <ele>1695.9</ele>
        <time>2010-02-10T08:58:39Z</time>
      </trkpt>
      <trkpt lat="45.034" lon="5.56717">
        <ele>1692.06</ele>
        <time>2010-02-10T08:58:41Z</time>
      </trkpt>
      <trkpt lat="45.03394" lon="5.5672">
        <ele>1687.73</ele>
        <time>2010-02-10T08:58:43Z</time>
      </trkpt>
      <trkpt lat="45.03388" lon="5.56725">
        <ele>1683.41</ele>
        <time>2010-02-10T08:58:45Z</time>
      </trkpt>
      <trkpt lat="45.03379" lon="5.56735">
        <ele>1679.56</ele>
        <time>2010-02-10T08:58:48Z</time>
      </trkpt>
      <trkpt lat="45.03374" lon="5.56741">
        <ele>1676.2</ele>
        <time>2010-02-10T08:58:50Z</time>
      </trkpt>
      <trkpt lat="45.03356" lon="5.56751">
        <ele>1671.87</ele>
        <time>2010-02-10T08:58:54Z</time>
      </trkpt>
      <trkpt lat="45.03347" lon="5.56761">
        <ele>1668.51</ele>
        <time>2010-02-10T08:58:58Z</time>
      </trkpt>
      <trkpt lat="45.03345" lon="5.56764">
        <ele>1668.51</ele>
        <time>2010-02-10T08:58:59Z</time>
      </trkpt>
      <trkpt lat="45.03339" lon="5.56772">
        <ele>1667.06</ele>
        <time>2010-02-10T08:59:02Z</time>
      </trkpt>
      <trkpt lat="45.03268" lon="5.56799">
        <ele>1667.54</ele>
        <time>2010-02-10T08:59:20Z</time>
      </trkpt>
      <trkpt lat="45.03232" lon="5.56826">
        <ele>1671.87</ele>
        <time>2010-02-10T08:59:32Z</time>
      </trkpt>
      <trkpt lat="45.03225" lon="5.56831">
        <ele>1672.35</ele>
        <time>2010-02-10T08:59:34Z</time>
      </trkpt>
      <trkpt lat="45.03212" lon="5.5684">
        <ele>1674.75</ele>
        <time>2010-02-10T08:59:38Z</time>
      </trkpt>
      <trkpt lat="45.03199" lon="5.56849">
        <ele>1678.12</ele>
        <time>2010-02-10T08:59:42Z</time>
      </trkpt>
      <trkpt lat="45.03185" lon="5.56858">
        <ele>1681.48</ele>
        <time>2010-02-10T08:59:46Z</time>
      </trkpt>
      <trkpt lat="45.03176" lon="5.56865">
        <ele>1684.37</ele>
        <time>2010-02-10T08:59:49Z</time>
      </trkpt>
      <trkpt lat="45.03166" lon="5.56874">
        <ele>1686.29</ele>
        <time>2010-02-10T08:59:53Z</time>
      </trkpt>
      <trkpt lat="45.03151" lon="5.56885">
        <ele>1689.17</ele>
        <time>2010-02-10T08:59:58Z</time>
      </trkpt>
      <trkpt lat="45.03137" lon="5.56894">
        <ele>1692.54</ele>
        <time>2010-02-10T09:00:02Z</time>
      </trkpt>
      <trkpt lat="45.03134" lon="5.56896">
        <ele>1692.54</ele>
        <time>2010-02-10T09:00:03Z</time>
      </trkpt>
      <trkpt lat="45.03124" lon="5.56903">
        <ele>1695.9</ele>
        <time>2010-02-10T09:00:06Z</time>
      </trkpt>
      <trkpt lat="45.0311" lon="5.56912">
        <ele>1700.23</ele>
        <time>2010-02-10T09:00:10Z</time>
      </trkpt>
      <trkpt lat="45.03097" lon="5.56921">
        <ele>1703.59</ele>
        <time>2010-02-10T09:00:14Z</time>
      </trkpt>
      <trkpt lat="45.03087" lon="5.56928">
        <ele>1706.96</ele>
        <time>2010-02-10T09:00:17Z</time>
      </trkpt>
      <trkpt lat="45.03077" lon="5.56935">
        <ele>1709.84</ele>
        <time>2010-02-10T09:00:20Z</time>
      </trkpt>
      <trkpt lat="45.03067" lon="5.56942">
        <ele>1713.69</ele>
        <time>2010-02-10T09:00:23Z</time>
      </trkpt>
      <trkpt lat="45.03058" lon="5.56949">
        <ele>1717.05</ele>
        <time>2010-02-10T09:00:26Z</time>
      </trkpt>
      <trkpt lat="45.03049" lon="5.56956">
        <ele>1720.42</ele>
        <time>2010-02-10T09:00:29Z</time>
      </trkpt>
      <trkpt lat="45.03029" lon="5.56972">
        <ele>1722.34</ele>
        <time>2010-02-10T09:00:38Z</time>
      </trkpt>
      <trkpt lat="45.03028" lon="5.56968">
        <ele>1726.18</ele>
        <time>2010-02-10T09:00:54Z</time>
      </trkpt>
      <trkpt lat="45.03028" lon="5.56967">
        <ele>1721.86</ele>
        <time>2010-02-10T09:00:55Z</time>
      </trkpt>
      <trkpt lat="45.03029" lon="5.56966">
        <ele>1722.82</ele>
        <time>2010-02-10T09:00:57Z</time>
      </trkpt>
      <trkpt lat="45.0306" lon="5.56932">
        <ele>1724.26</ele>
        <time>2010-02-10T09:01:30Z</time>
      </trkpt>
      <trkpt lat="45.0306" lon="5.56932">
        <ele>1724.26</ele>
        <time>2010-02-10T09:01:35Z</time>
      </trkpt>
      <trkpt lat="45.02978" lon="5.5699">
        <ele>1721.86</ele>
        <time>2010-02-10T09:01:51Z</time>
      </trkpt>
      <trkpt lat="45.02978" lon="5.5699">
        <ele>1726.18</ele>
        <time>2010-02-10T09:01:52Z</time>
      </trkpt>
      <trkpt lat="45.02978" lon="5.5699">
        <ele>1724.26</ele>
        <time>2010-02-10T09:01:53Z</time>
      </trkpt>
      <trkpt lat="45.0298" lon="5.56992">
        <ele>1723.78</ele>
        <time>2010-02-10T09:01:57Z</time>
      </trkpt>
      <trkpt lat="45.02976" lon="5.57012">
        <ele>1724.74</ele>
        <time>2010-02-10T09:02:28Z</time>
      </trkpt>
      <trkpt lat="45.02977" lon="5.5702">
        <ele>1723.78</ele>
        <time>2010-02-10T09:02:40Z</time>
      </trkpt>
      <trkpt lat="45.0298" lon="5.57023">
        <ele>1722.82</ele>
        <time>2010-02-10T09:02:42Z</time>
      </trkpt>
      <trkpt lat="45.02995" lon="5.57026">
        <ele>1719.46</ele>
        <time>2010-02-10T09:02:48Z</time>
      </trkpt>
      <trkpt lat="45.03" lon="5.57026">
        <ele>1717.53</ele>
        <time>2010-02-10T09:02:49Z</time>
      </trkpt>
      <trkpt lat="45.03016" lon="5.57018">
        <ele>1713.69</ele>
        <time>2010-02-10T09:02:52Z</time>
      </trkpt>
      <trkpt lat="45.03022" lon="5.57013">
        <ele>1711.28</ele>
        <time>2010-02-10T09:02:53Z</time>
      </trkpt>
      <trkpt lat="45.03045" lon="5.56994">
        <ele>1706.48</ele>
        <time>2010-02-10T09:02:57Z</time>
      </trkpt>
      <trkpt lat="45.03051" lon="5.56985">
        <ele>1706.96</ele>
        <time>2010-02-10T09:03:09Z</time>
      </trkpt>
      <trkpt lat="45.03056" lon="5.56989">
        <ele>1700.71</ele>
        <time>2010-02-10T09:03:11Z</time>
      </trkpt>
      <trkpt lat="45.03061" lon="5.56989">
        <ele>1697.34</ele>
        <time>2010-02-10T09:03:12Z</time>
      </trkpt>
      <trkpt lat="45.03068" lon="5.56989">
        <ele>1693.02</ele>
        <time>2010-02-10T09:03:13Z</time>
      </trkpt>
      <trkpt lat="45.03075" lon="5.56989">
        <ele>1687.25</ele>
        <time>2010-02-10T09:03:14Z</time>
      </trkpt>
      <trkpt lat="45.03091" lon="5.56992">
        <ele>1681.48</ele>
        <time>2010-02-10T09:03:16Z</time>
      </trkpt>
      <trkpt lat="45.03101" lon="5.56994">
        <ele>1676.2</ele>
        <time>2010-02-10T09:03:17Z</time>
      </trkpt>
      <trkpt lat="45.03112" lon="5.56996">
        <ele>1673.31</ele>
        <time>2010-02-10T09:03:18Z</time>
      </trkpt>
      <trkpt lat="45.03123" lon="5.56999">
        <ele>1667.54</ele>
        <time>2010-02-10T09:03:19Z</time>
      </trkpt>
      <trkpt lat="45.03133" lon="5.57002">
        <ele>1665.62</ele>
        <time>2010-02-10T09:03:20Z</time>
      </trkpt>
      <trkpt lat="45.03151" lon="5.57011">
        <ele>1661.3</ele>
        <time>2010-02-10T09:03:22Z</time>
      </trkpt>
      <trkpt lat="45.03172" lon="5.57016">
        <ele>1654.57</ele>
        <time>2010-02-10T09:03:25Z</time>
      </trkpt>
      <trkpt lat="45.03179" lon="5.57017">
        <ele>1650.24</ele>
        <time>2010-02-10T09:03:26Z</time>
      </trkpt>
      <trkpt lat="45.03186" lon="5.57015">
        <ele>1646.4</ele>
        <time>2010-02-10T09:03:27Z</time>
      </trkpt>
      <trkpt lat="45.03193" lon="5.57014">
        <ele>1643.51</ele>
        <time>2010-02-10T09:03:28Z</time>
      </trkpt>
      <trkpt lat="45.03199" lon="5.57013">
        <ele>1640.15</ele>
        <time>2010-02-10T09:03:29Z</time>
      </trkpt>
      <trkpt lat="45.03206" lon="5.57013">
        <ele>1635.34</ele>
        <time>2010-02-10T09:03:30Z</time>
      </trkpt>
      <trkpt lat="45.03222" lon="5.57012">
        <ele>1629.09</ele>
        <time>2010-02-10T09:03:32Z</time>
      </trkpt>
      <trkpt lat="45.03233" lon="5.57013">
        <ele>1624.77</ele>
        <time>2010-02-10T09:03:33Z</time>
      </trkpt>
      <trkpt lat="45.03245" lon="5.57012">
        <ele>1624.77</ele>
        <time>2010-02-10T09:03:34Z</time>
      </trkpt>
      <trkpt lat="45.0327" lon="5.57009">
        <ele>1618.04</ele>
        <time>2010-02-10T09:03:36Z</time>
      </trkpt>
      <trkpt lat="45.03291" lon="5.57008">
        <ele>1613.71</ele>
        <time>2010-02-10T09:03:38Z</time>
      </trkpt>
      <trkpt lat="45.03323" lon="5.57021">
        <ele>1616.11</ele>
        <time>2010-02-10T09:03:42Z</time>
      </trkpt>
      <trkpt lat="45.03334" lon="5.57028">
        <ele>1615.15</ele>
        <time>2010-02-10T09:03:44Z</time>
      </trkpt>
      <trkpt lat="45.03365" lon="5.57037">
        <ele>1610.35</ele>
        <time>2010-02-10T09:03:50Z</time>
      </trkpt>
      <trkpt lat="45.0337" lon="5.57037">
        <ele>1610.35</ele>
        <time>2010-02-10T09:03:51Z</time>
      </trkpt>
      <trkpt lat="45.03389" lon="5.5704">
        <ele>1608.42</ele>
        <time>2010-02-10T09:03:54Z</time>
      </trkpt>
      <trkpt lat="45.03402" lon="5.57041">
        <ele>1604.58</ele>
        <time>2010-02-10T09:03:56Z</time>
      </trkpt>
      <trkpt lat="45.0341" lon="5.57042">
        <ele>1602.17</ele>
        <time>2010-02-10T09:03:57Z</time>
      </trkpt>
      <trkpt lat="45.03435" lon="5.57048">
        <ele>1597.85</ele>
        <time>2010-02-10T09:04:00Z</time>
      </trkpt>
      <trkpt lat="45.03443" lon="5.57051">
        <ele>1594.48</ele>
        <time>2010-02-10T09:04:01Z</time>
      </trkpt>
      <trkpt lat="45.03461" lon="5.57051">
        <ele>1592.56</ele>
        <time>2010-02-10T09:04:03Z</time>
      </trkpt>
      <trkpt lat="45.03487" lon="5.57047">
        <ele>1586.31</ele>
        <time>2010-02-10T09:04:06Z</time>
      </trkpt>
      <trkpt lat="45.03504" lon="5.57045">
        <ele>1581.99</ele>
        <time>2010-02-10T09:04:08Z</time>
      </trkpt>
      <trkpt lat="45.03511" lon="5.57044">
        <ele>1582.47</ele>
        <time>2010-02-10T09:04:09Z</time>
      </trkpt>
      <trkpt lat="45.03528" lon="5.57045">
        <ele>1578.14</ele>
        <time>2010-02-10T09:04:11Z</time>
      </trkpt>
      <trkpt lat="45.03536" lon="5.57044">
        <ele>1577.18</ele>
        <time>2010-02-10T09:04:12Z</time>
      </trkpt>
      <trkpt lat="45.03552" lon="5.57039">
        <ele>1574.3</ele>
        <time>2010-02-10T09:04:14Z</time>
      </trkpt>
      <trkpt lat="45.03568" lon="5.57039">
        <ele>1573.33</ele>
        <time>2010-02-10T09:04:16Z</time>
      </trkpt>
      <trkpt lat="45.0359" lon="5.57045">
        <ele>1569.01</ele>
        <time>2010-02-10T09:04:19Z</time>
      </trkpt>
      <trkpt lat="45.03597" lon="5.57047">
        <ele>1569.49</ele>
        <time>2010-02-10T09:04:20Z</time>
      </trkpt>
      <trkpt lat="45.03619" lon="5.57052">
        <ele>1555.55</ele>
        <time>2010-02-10T09:04:23Z</time>
      </trkpt>
      <trkpt lat="45.03627" lon="5.57054">
        <ele>1562.28</ele>
        <time>2010-02-10T09:04:24Z</time>
      </trkpt>
      <trkpt lat="45.03636" lon="5.57056">
        <ele>1564.2</ele>
        <time>2010-02-10T09:04:25Z</time>
      </trkpt>
      <trkpt lat="45.03664" lon="5.57054">
        <ele>1551.71</ele>
        <time>2010-02-10T09:04:28Z</time>
      </trkpt>
      <trkpt lat="45.03684" lon="5.57051">
        <ele>1545.94</ele>
        <time>2010-02-10T09:04:30Z</time>
      </trkpt>
      <trkpt lat="45.03705" lon="5.57046">
        <ele>1542.57</ele>
        <time>2010-02-10T09:04:32Z</time>
      </trkpt>
      <trkpt lat="45.03717" lon="5.57044">
        <ele>1537.77</ele>
        <time>2010-02-10T09:04:33Z</time>
      </trkpt>
      <trkpt lat="45.03728" lon="5.57041">
        <ele>1532.96</ele>
        <time>2010-02-10T09:04:34Z</time>
      </trkpt>
      <trkpt lat="45.03739" lon="5.57038">
        <ele>1529.59</ele>
        <time>2010-02-10T09:04:35Z</time>
      </trkpt>
      <trkpt lat="45.03786" lon="5.57035">
        <ele>1519.02</ele>
        <time>2010-02-10T09:04:39Z</time>
      </trkpt>
      <trkpt lat="45.03794" lon="5.57036">
        <ele>1519.98</ele>
        <time>2010-02-10T09:04:40Z</time>
      </trkpt>
      <trkpt lat="45.03821" lon="5.5704">
        <ele>1516.62</ele>
        <time>2010-02-10T09:04:44Z</time>
      </trkpt>
      <trkpt lat="45.03832" lon="5.57043">
        <ele>1507</ele>
        <time>2010-02-10T09:04:46Z</time>
      </trkpt>
      <trkpt lat="45.03837" lon="5.57044">
        <ele>1517.1</ele>
        <time>2010-02-10T09:04:47Z</time>
      </trkpt>
      <trkpt lat="45.03849" lon="5.57044">
        <ele>1519.02</ele>
        <time>2010-02-10T09:04:49Z</time>
      </trkpt>
      <trkpt lat="45.03854" lon="5.57046">
        <ele>1512.77</ele>
        <time>2010-02-10T09:04:50Z</time>
      </trkpt>
      <trkpt lat="45.03863" lon="5.57047">
        <ele>1510.85</ele>
        <time>2010-02-10T09:04:52Z</time>
      </trkpt>
      <trkpt lat="45.03868" lon="5.57046">
        <ele>1510.37</ele>
        <time>2010-02-10T09:04:53Z</time>
      </trkpt>
      <trkpt lat="45.03894" lon="5.57039">
        <ele>1508.45</ele>
        <time>2010-02-10T09:04:59Z</time>
      </trkpt>
      <trkpt lat="45.03923" lon="5.57046">
        <ele>1508.45</ele>
        <time>2010-02-10T09:05:06Z</time>
      </trkpt>
      <trkpt lat="45.03921" lon="5.5706">
        <ele>1508.45</ele>
        <time>2010-02-10T09:05:17Z</time>
      </trkpt>
      <trkpt lat="45.03918" lon="5.57064">
        <ele>1509.41</ele>
        <time>2010-02-10T09:05:36Z</time>
      </trkpt>
      <trkpt lat="45.03918" lon="5.57064">
        <ele>1509.41</ele>
        <time>2010-02-10T09:05:37Z</time>
      </trkpt>
      <trkpt lat="45.03913" lon="5.57064">
        <ele>1507.97</ele>
        <time>2010-02-10T09:05:48Z</time>
      </trkpt>
      <trkpt lat="45.0391" lon="5.57065">
        <ele>1507.48</ele>
        <time>2010-02-10T09:05:58Z</time>
      </trkpt>
      <trkpt lat="45.03909" lon="5.57065">
        <ele>1507.97</ele>
        <time>2010-02-10T09:06:00Z</time>
      </trkpt>
      <trkpt lat="45.03906" lon="5.57068">
        <ele>1512.29</ele>
        <time>2010-02-10T09:06:06Z</time>
      </trkpt>
      <trkpt lat="45.03907" lon="5.57067">
        <ele>1507.97</ele>
        <time>2010-02-10T09:06:07Z</time>
      </trkpt>
      <trkpt lat="45.03907" lon="5.57068">
        <ele>1503.16</ele>
        <time>2010-02-10T09:06:16Z</time>
      </trkpt>
      <trkpt lat="45.03906" lon="5.57068">
        <ele>1507.48</ele>
        <time>2010-02-10T09:06:17Z</time>
      </trkpt>
      <trkpt lat="45.03861" lon="5.57061">
        <ele>1510.85</ele>
        <time>2010-02-10T09:06:25Z</time>
      </trkpt>
      <trkpt lat="45.03851" lon="5.5706">
        <ele>1515.18</ele>
        <time>2010-02-10T09:06:28Z</time>
      </trkpt>
      <trkpt lat="45.03842" lon="5.5706">
        <ele>1518.54</ele>
        <time>2010-02-10T09:06:31Z</time>
      </trkpt>
      <trkpt lat="45.03826" lon="5.57059">
        <ele>1521.42</ele>
        <time>2010-02-10T09:06:35Z</time>
      </trkpt>
      <trkpt lat="45.03815" lon="5.57057">
        <ele>1523.35</ele>
        <time>2010-02-10T09:06:38Z</time>
      </trkpt>
      <trkpt lat="45.03804" lon="5.57055">
        <ele>1526.23</ele>
        <time>2010-02-10T09:06:41Z</time>
      </trkpt>
      <trkpt lat="45.03788" lon="5.57053">
        <ele>1530.56</ele>
        <time>2010-02-10T09:06:45Z</time>
      </trkpt>
      <trkpt lat="45.03778" lon="5.57053">
        <ele>1533.92</ele>
        <time>2010-02-10T09:06:48Z</time>
      </trkpt>
      <trkpt lat="45.03756" lon="5.57053">
        <ele>1536.32</ele>
        <time>2010-02-10T09:06:54Z</time>
      </trkpt>
      <trkpt lat="45.03741" lon="5.57052">
        <ele>1539.69</ele>
        <time>2010-02-10T09:06:58Z</time>
      </trkpt>
      <trkpt lat="45.03733" lon="5.57051">
        <ele>1540.65</ele>
        <time>2010-02-10T09:07:00Z</time>
      </trkpt>
      <trkpt lat="45.03718" lon="5.57049">
        <ele>1544.01</ele>
        <time>2010-02-10T09:07:04Z</time>
      </trkpt>
      <trkpt lat="45.03703" lon="5.57048">
        <ele>1547.38</ele>
        <time>2010-02-10T09:07:08Z</time>
      </trkpt>
      <trkpt lat="45.03693" lon="5.57046">
        <ele>1550.26</ele>
        <time>2010-02-10T09:07:11Z</time>
      </trkpt>
      <trkpt lat="45.03676" lon="5.57043">
        <ele>1554.11</ele>
        <time>2010-02-10T09:07:15Z</time>
      </trkpt>
      <trkpt lat="45.03665" lon="5.57041">
        <ele>1557.47</ele>
        <time>2010-02-10T09:07:18Z</time>
      </trkpt>
      <trkpt lat="45.0365" lon="5.57037">
        <ele>1560.84</ele>
        <time>2010-02-10T09:07:21Z</time>
      </trkpt>
      <trkpt lat="45.03648" lon="5.57041">
        <ele>1562.28</ele>
        <time>2010-02-10T09:07:23Z</time>
      </trkpt>
      <trkpt lat="45.03634" lon="5.57036">
        <ele>1563.72</ele>
        <time>2010-02-10T09:07:25Z</time>
      </trkpt>
      <trkpt lat="45.03624" lon="5.57036">
        <ele>1567.09</ele>
        <time>2010-02-10T09:07:29Z</time>
      </trkpt>
      <trkpt lat="45.03605" lon="5.57038">
        <ele>1569.97</ele>
        <time>2010-02-10T09:07:34Z</time>
      </trkpt>
      <trkpt lat="45.03593" lon="5.57036">
        <ele>1573.33</ele>
        <time>2010-02-10T09:07:37Z</time>
      </trkpt>
      <trkpt lat="45.03577" lon="5.57033">
        <ele>1576.7</ele>
        <time>2010-02-10T09:07:41Z</time>
      </trkpt>
      <trkpt lat="45.03566" lon="5.57032">
        <ele>1580.06</ele>
        <time>2010-02-10T09:07:44Z</time>
      </trkpt>
      <trkpt lat="45.03562" lon="5.57032">
        <ele>1581.03</ele>
        <time>2010-02-10T09:07:45Z</time>
      </trkpt>
      <trkpt lat="45.0353" lon="5.57033">
        <ele>1584.87</ele>
        <time>2010-02-10T09:07:54Z</time>
      </trkpt>
      <trkpt lat="45.03522" lon="5.57033">
        <ele>1585.35</ele>
        <time>2010-02-10T09:07:56Z</time>
      </trkpt>
      <trkpt lat="45.03499" lon="5.57031">
        <ele>1589.2</ele>
        <time>2010-02-10T09:08:02Z</time>
      </trkpt>
      <trkpt lat="45.03476" lon="5.57029">
        <ele>1593.04</ele>
        <time>2010-02-10T09:08:08Z</time>
      </trkpt>
      <trkpt lat="45.03464" lon="5.57033">
        <ele>1595.93</ele>
        <time>2010-02-10T09:08:12Z</time>
      </trkpt>
      <trkpt lat="45.0346" lon="5.57033">
        <ele>1596.41</ele>
        <time>2010-02-10T09:08:13Z</time>
      </trkpt>
      <trkpt lat="45.03435" lon="5.57042">
        <ele>1599.77</ele>
        <time>2010-02-10T09:08:21Z</time>
      </trkpt>
      <trkpt lat="45.03415" lon="5.57049">
        <ele>1604.1</ele>
        <time>2010-02-10T09:08:28Z</time>
      </trkpt>
      <trkpt lat="45.03401" lon="5.57048">
        <ele>1606.02</ele>
        <time>2010-02-10T09:08:32Z</time>
      </trkpt>
      <trkpt lat="45.03391" lon="5.57047">
        <ele>1609.38</ele>
        <time>2010-02-10T09:08:35Z</time>
      </trkpt>
      <trkpt lat="45.03381" lon="5.57046">
        <ele>1612.27</ele>
        <time>2010-02-10T09:08:38Z</time>
      </trkpt>
      <trkpt lat="45.03375" lon="5.57046">
        <ele>1613.23</ele>
        <time>2010-02-10T09:08:40Z</time>
      </trkpt>
      <trkpt lat="45.03351" lon="5.57045">
        <ele>1616.59</ele>
        <time>2010-02-10T09:08:47Z</time>
      </trkpt>
      <trkpt lat="45.03333" lon="5.57049">
        <ele>1619.96</ele>
        <time>2010-02-10T09:08:52Z</time>
      </trkpt>
      <trkpt lat="45.0333" lon="5.57049">
        <ele>1619.96</ele>
        <time>2010-02-10T09:08:53Z</time>
      </trkpt>
      <trkpt lat="45.03315" lon="5.5705">
        <ele>1623.8</ele>
        <time>2010-02-10T09:08:58Z</time>
      </trkpt>
      <trkpt lat="45.03305" lon="5.57059">
        <ele>1626.21</ele>
        <time>2010-02-10T09:09:02Z</time>
      </trkpt>
      <trkpt lat="45.03296" lon="5.57058">
        <ele>1630.05</ele>
        <time>2010-02-10T09:09:06Z</time>
      </trkpt>
      <trkpt lat="45.03286" lon="5.57061">
        <ele>1631.98</ele>
        <time>2010-02-10T09:09:09Z</time>
      </trkpt>
      <trkpt lat="45.03269" lon="5.57059">
        <ele>1633.9</ele>
        <time>2010-02-10T09:09:12Z</time>
      </trkpt>
      <trkpt lat="45.03246" lon="5.5706">
        <ele>1637.74</ele>
        <time>2010-02-10T09:09:19Z</time>
      </trkpt>
      <trkpt lat="45.03236" lon="5.57062">
        <ele>1639.67</ele>
        <time>2010-02-10T09:09:22Z</time>
      </trkpt>
      <trkpt lat="45.03226" lon="5.57064">
        <ele>1643.03</ele>
        <time>2010-02-10T09:09:27Z</time>
      </trkpt>
      <trkpt lat="45.03226" lon="5.57064">
        <ele>1642.55</ele>
        <time>2010-02-10T09:09:40Z</time>
      </trkpt>
      <trkpt lat="45.03212" lon="5.57061">
        <ele>1645.43</ele>
        <time>2010-02-10T09:10:27Z</time>
      </trkpt>
      <trkpt lat="45.03201" lon="5.57057">
        <ele>1648.8</ele>
        <time>2010-02-10T09:10:36Z</time>
      </trkpt>
      <trkpt lat="45.03187" lon="5.57057">
        <ele>1651.68</ele>
        <time>2010-02-10T09:10:45Z</time>
      </trkpt>
      <trkpt lat="45.03172" lon="5.57054">
        <ele>1655.53</ele>
        <time>2010-02-10T09:10:53Z</time>
      </trkpt>
      <trkpt lat="45.0316" lon="5.57055">
        <ele>1658.41</ele>
        <time>2010-02-10T09:10:57Z</time>
      </trkpt>
      <trkpt lat="45.03147" lon="5.57054">
        <ele>1662.26</ele>
        <time>2010-02-10T09:11:01Z</time>
      </trkpt>
      <trkpt lat="45.03141" lon="5.57048">
        <ele>1665.62</ele>
        <time>2010-02-10T09:11:04Z</time>
      </trkpt>
      <trkpt lat="45.03129" lon="5.57058">
        <ele>1669.47</ele>
        <time>2010-02-10T09:11:07Z</time>
      </trkpt>
      <trkpt lat="45.03114" lon="5.5706">
        <ele>1673.79</ele>
        <time>2010-02-10T09:11:11Z</time>
      </trkpt>
      <trkpt lat="45.03105" lon="5.57056">
        <ele>1677.16</ele>
        <time>2010-02-10T09:11:14Z</time>
      </trkpt>
      <trkpt lat="45.03095" lon="5.57057">
        <ele>1681</ele>
        <time>2010-02-10T09:11:17Z</time>
      </trkpt>
      <trkpt lat="45.03087" lon="5.57056">
        <ele>1683.89</ele>
        <time>2010-02-10T09:11:19Z</time>
      </trkpt>
      <trkpt lat="45.03082" lon="5.57058">
        <ele>1688.21</ele>
        <time>2010-02-10T09:11:21Z</time>
      </trkpt>
      <trkpt lat="45.03079" lon="5.57059">
        <ele>1688.21</ele>
        <time>2010-02-10T09:11:22Z</time>
      </trkpt>
      <trkpt lat="45.03063" lon="5.57053">
        <ele>1691.58</ele>
        <time>2010-02-10T09:11:26Z</time>
      </trkpt>
      <trkpt lat="45.03045" lon="5.57055">
        <ele>1694.94</ele>
        <time>2010-02-10T09:11:30Z</time>
      </trkpt>
      <trkpt lat="45.03032" lon="5.57052">
        <ele>1698.31</ele>
        <time>2010-02-10T09:11:33Z</time>
      </trkpt>
      <trkpt lat="45.03021" lon="5.57051">
        <ele>1702.15</ele>
        <time>2010-02-10T09:11:37Z</time>
      </trkpt>
      <trkpt lat="45.03009" lon="5.5705">
        <ele>1706</ele>
        <time>2010-02-10T09:11:40Z</time>
      </trkpt>
      <trkpt lat="45.02999" lon="5.57052">
        <ele>1709.36</ele>
        <time>2010-02-10T09:11:43Z</time>
      </trkpt>
      <trkpt lat="45.02989" lon="5.57052">
        <ele>1711.76</ele>
        <time>2010-02-10T09:11:46Z</time>
      </trkpt>
      <trkpt lat="45.02984" lon="5.57052">
        <ele>1715.13</ele>
        <time>2010-02-10T09:11:48Z</time>
      </trkpt>
      <trkpt lat="45.02971" lon="5.57054">
        <ele>1718.97</ele>
        <time>2010-02-10T09:11:52Z</time>
      </trkpt>
      <trkpt lat="45.0296" lon="5.57054">
        <ele>1720.42</ele>
        <time>2010-02-10T09:11:55Z</time>
      </trkpt>
      <trkpt lat="45.02956" lon="5.57057">
        <ele>1723.3</ele>
        <time>2010-02-10T09:11:58Z</time>
      </trkpt>
      <trkpt lat="45.02941" lon="5.57053">
        <ele>1726.18</ele>
        <time>2010-02-10T09:12:01Z</time>
      </trkpt>
      <trkpt lat="45.02934" lon="5.57058">
        <ele>1727.63</ele>
        <time>2010-02-10T09:12:03Z</time>
      </trkpt>
      <trkpt lat="45.02925" lon="5.57057">
        <ele>1731.47</ele>
        <time>2010-02-10T09:12:06Z</time>
      </trkpt>
      <trkpt lat="45.02915" lon="5.57051">
        <ele>1734.84</ele>
        <time>2010-02-10T09:12:09Z</time>
      </trkpt>
      <trkpt lat="45.02906" lon="5.5706">
        <ele>1738.2</ele>
        <time>2010-02-10T09:12:12Z</time>
      </trkpt>
      <trkpt lat="45.02892" lon="5.57061">
        <ele>1741.57</ele>
        <time>2010-02-10T09:12:15Z</time>
      </trkpt>
      <trkpt lat="45.02881" lon="5.57054">
        <ele>1745.41</ele>
        <time>2010-02-10T09:12:18Z</time>
      </trkpt>
      <trkpt lat="45.02874" lon="5.57056">
        <ele>1748.78</ele>
        <time>2010-02-10T09:12:21Z</time>
      </trkpt>
      <trkpt lat="45.02864" lon="5.57066">
        <ele>1752.62</ele>
        <time>2010-02-10T09:12:25Z</time>
      </trkpt>
      <trkpt lat="45.02849" lon="5.57066">
        <ele>1755.5</ele>
        <time>2010-02-10T09:12:29Z</time>
      </trkpt>
      <trkpt lat="45.02839" lon="5.57066">
        <ele>1759.83</ele>
        <time>2010-02-10T09:12:32Z</time>
      </trkpt>
      <trkpt lat="45.02835" lon="5.57066">
        <ele>1758.87</ele>
        <time>2010-02-10T09:12:33Z</time>
      </trkpt>
      <trkpt lat="45.02825" lon="5.57067">
        <ele>1762.71</ele>
        <time>2010-02-10T09:12:36Z</time>
      </trkpt>
      <trkpt lat="45.02814" lon="5.57067">
        <ele>1766.56</ele>
        <time>2010-02-10T09:12:39Z</time>
      </trkpt>
      <trkpt lat="45.02811" lon="5.57067">
        <ele>1766.56</ele>
        <time>2010-02-10T09:12:40Z</time>
      </trkpt>
      <trkpt lat="45.02801" lon="5.57066">
        <ele>1771.37</ele>
        <time>2010-02-10T09:12:43Z</time>
      </trkpt>
      <trkpt lat="45.02798" lon="5.57066">
        <ele>1771.37</ele>
        <time>2010-02-10T09:12:44Z</time>
      </trkpt>
      <trkpt lat="45.02788" lon="5.57068">
        <ele>1774.25</ele>
        <time>2010-02-10T09:12:47Z</time>
      </trkpt>
      <trkpt lat="45.02781" lon="5.57067">
        <ele>1777.13</ele>
        <time>2010-02-10T09:12:49Z</time>
      </trkpt>
      <trkpt lat="45.02774" lon="5.57066">
        <ele>1780.5</ele>
        <time>2010-02-10T09:12:51Z</time>
      </trkpt>
      <trkpt lat="45.02765" lon="5.57064">
        <ele>1783.38</ele>
        <time>2010-02-10T09:12:54Z</time>
      </trkpt>
      <trkpt lat="45.02749" lon="5.57069">
        <ele>1786.27</ele>
        <time>2010-02-10T09:12:58Z</time>
      </trkpt>
      <trkpt lat="45.02736" lon="5.5707">
        <ele>1789.63</ele>
        <time>2010-02-10T09:13:01Z</time>
      </trkpt>
      <trkpt lat="45.02731" lon="5.57065">
        <ele>1793.48</ele>
        <time>2010-02-10T09:13:03Z</time>
      </trkpt>
      <trkpt lat="45.02728" lon="5.57065">
        <ele>1792.03</ele>
        <time>2010-02-10T09:13:04Z</time>
      </trkpt>
      <trkpt lat="45.02725" lon="5.57065">
        <ele>1796.84</ele>
        <time>2010-02-10T09:13:05Z</time>
      </trkpt>
      <trkpt lat="45.02722" lon="5.57064">
        <ele>1794.92</ele>
        <time>2010-02-10T09:13:06Z</time>
      </trkpt>
      <trkpt lat="45.02712" lon="5.57068">
        <ele>1798.28</ele>
        <time>2010-02-10T09:13:09Z</time>
      </trkpt>
      <trkpt lat="45.02704" lon="5.57064">
        <ele>1801.65</ele>
        <time>2010-02-10T09:13:12Z</time>
      </trkpt>
      <trkpt lat="45.02694" lon="5.57066">
        <ele>1805.01</ele>
        <time>2010-02-10T09:13:15Z</time>
      </trkpt>
      <trkpt lat="45.0268" lon="5.57066">
        <ele>1808.38</ele>
        <time>2010-02-10T09:13:18Z</time>
      </trkpt>
      <trkpt lat="45.02673" lon="5.57066">
        <ele>1812.7</ele>
        <time>2010-02-10T09:13:20Z</time>
      </trkpt>
      <trkpt lat="45.02664" lon="5.57066">
        <ele>1816.07</ele>
        <time>2010-02-10T09:13:23Z</time>
      </trkpt>
      <trkpt lat="45.02654" lon="5.57066">
        <ele>1820.39</ele>
        <time>2010-02-10T09:13:26Z</time>
      </trkpt>
      <trkpt lat="45.02645" lon="5.57066">
        <ele>1823.28</ele>
        <time>2010-02-10T09:13:29Z</time>
      </trkpt>
      <trkpt lat="45.02635" lon="5.57068">
        <ele>1825.2</ele>
        <time>2010-02-10T09:13:31Z</time>
      </trkpt>
      <trkpt lat="45.02628" lon="5.57066">
        <ele>1827.6</ele>
        <time>2010-02-10T09:13:34Z</time>
      </trkpt>
      <trkpt lat="45.0262" lon="5.57067">
        <ele>1830.01</ele>
        <time>2010-02-10T09:13:36Z</time>
      </trkpt>
      <trkpt lat="45.02613" lon="5.57066">
        <ele>1833.37</ele>
        <time>2010-02-10T09:13:38Z</time>
      </trkpt>
      <trkpt lat="45.02604" lon="5.57067">
        <ele>1836.26</ele>
        <time>2010-02-10T09:13:41Z</time>
      </trkpt>
      <trkpt lat="45.02593" lon="5.57064">
        <ele>1841.54</ele>
        <time>2010-02-10T09:13:44Z</time>
      </trkpt>
      <trkpt lat="45.0259" lon="5.57065">
        <ele>1840.58</ele>
        <time>2010-02-10T09:13:45Z</time>
      </trkpt>
      <trkpt lat="45.02582" lon="5.57065">
        <ele>1843.95</ele>
        <time>2010-02-10T09:13:47Z</time>
      </trkpt>
      <trkpt lat="45.02569" lon="5.57068">
        <ele>1847.79</ele>
        <time>2010-02-10T09:13:50Z</time>
      </trkpt>
      <trkpt lat="45.02559" lon="5.57069">
        <ele>1852.12</ele>
        <time>2010-02-10T09:13:53Z</time>
      </trkpt>
      <trkpt lat="45.02549" lon="5.57067">
        <ele>1855.48</ele>
        <time>2010-02-10T09:13:56Z</time>
      </trkpt>
      <trkpt lat="45.0254" lon="5.57069">
        <ele>1859.81</ele>
        <time>2010-02-10T09:13:59Z</time>
      </trkpt>
      <trkpt lat="45.02523" lon="5.57067">
        <ele>1862.69</ele>
        <time>2010-02-10T09:14:03Z</time>
      </trkpt>
      <trkpt lat="45.02513" lon="5.57064">
        <ele>1867.02</ele>
        <time>2010-02-10T09:14:07Z</time>
      </trkpt>
      <trkpt lat="45.02508" lon="5.57065">
        <ele>1867.02</ele>
        <time>2010-02-10T09:14:08Z</time>
      </trkpt>
      <trkpt lat="45.02498" lon="5.57069">
        <ele>1870.38</ele>
        <time>2010-02-10T09:14:11Z</time>
      </trkpt>
      <trkpt lat="45.02487" lon="5.57068">
        <ele>1873.75</ele>
        <time>2010-02-10T09:14:14Z</time>
      </trkpt>
      <trkpt lat="45.0248" lon="5.57062">
        <ele>1876.63</ele>
        <time>2010-02-10T09:14:17Z</time>
      </trkpt>
      <trkpt lat="45.02471" lon="5.57066">
        <ele>1879.03</ele>
        <time>2010-02-10T09:14:19Z</time>
      </trkpt>
      <trkpt lat="45.02459" lon="5.57069">
        <ele>1882.88</ele>
        <time>2010-02-10T09:14:22Z</time>
      </trkpt>
      <trkpt lat="45.02447" lon="5.57067">
        <ele>1886.24</ele>
        <time>2010-02-10T09:14:26Z</time>
      </trkpt>
      <trkpt lat="45.02434" lon="5.57067">
        <ele>1888.17</ele>
        <time>2010-02-10T09:14:29Z</time>
      </trkpt>
      <trkpt lat="45.02419" lon="5.57069">
        <ele>1891.53</ele>
        <time>2010-02-10T09:14:33Z</time>
      </trkpt>
      <trkpt lat="45.0241" lon="5.57069">
        <ele>1894.42</ele>
        <time>2010-02-10T09:14:36Z</time>
      </trkpt>
      <trkpt lat="45.02402" lon="5.57066">
        <ele>1897.78</ele>
        <time>2010-02-10T09:14:39Z</time>
      </trkpt>
      <trkpt lat="45.02387" lon="5.5707">
        <ele>1900.66</ele>
        <time>2010-02-10T09:14:42Z</time>
      </trkpt>
      <trkpt lat="45.02385" lon="5.57068">
        <ele>1901.14</ele>
        <time>2010-02-10T09:14:43Z</time>
      </trkpt>
      <trkpt lat="45.02375" lon="5.57068">
        <ele>1904.51</ele>
        <time>2010-02-10T09:14:46Z</time>
      </trkpt>
      <trkpt lat="45.02367" lon="5.57064">
        <ele>1907.87</ele>
        <time>2010-02-10T09:14:49Z</time>
      </trkpt>
      <trkpt lat="45.02357" lon="5.57068">
        <ele>1908.35</ele>
        <time>2010-02-10T09:14:51Z</time>
      </trkpt>
      <trkpt lat="45.02349" lon="5.57068">
        <ele>1912.68</ele>
        <time>2010-02-10T09:14:53Z</time>
      </trkpt>
      <trkpt lat="45.02338" lon="5.57068">
        <ele>1916.04</ele>
        <time>2010-02-10T09:14:56Z</time>
      </trkpt>
      <trkpt lat="45.0233" lon="5.57069">
        <ele>1918.93</ele>
        <time>2010-02-10T09:14:59Z</time>
      </trkpt>
      <trkpt lat="45.02327" lon="5.57069">
        <ele>1919.41</ele>
        <time>2010-02-10T09:15:00Z</time>
      </trkpt>
      <trkpt lat="45.02311" lon="5.57069">
        <ele>1921.81</ele>
        <time>2010-02-10T09:15:04Z</time>
      </trkpt>
      <trkpt lat="45.02295" lon="5.57066">
        <ele>1924.7</ele>
        <time>2010-02-10T09:15:09Z</time>
      </trkpt>
      <trkpt lat="45.02283" lon="5.57064">
        <ele>1927.58</ele>
        <time>2010-02-10T09:15:13Z</time>
      </trkpt>
      <trkpt lat="45.02262" lon="5.57068">
        <ele>1931.43</ele>
        <time>2010-02-10T09:15:18Z</time>
      </trkpt>
      <trkpt lat="45.02248" lon="5.57072">
        <ele>1931.43</ele>
        <time>2010-02-10T09:15:24Z</time>
      </trkpt>
      <trkpt lat="45.02249" lon="5.57069">
        <ele>1929.98</ele>
        <time>2010-02-10T09:15:31Z</time>
      </trkpt>
      <trkpt lat="45.02251" lon="5.5707">
        <ele>1931.91</ele>
        <time>2010-02-10T09:15:48Z</time>
      </trkpt>
      <trkpt lat="45.0225" lon="5.5707">
        <ele>1931.43</ele>
        <time>2010-02-10T09:16:18Z</time>
      </trkpt>
      <trkpt lat="45.02239" lon="5.57064">
        <ele>1929.98</ele>
        <time>2010-02-10T09:16:29Z</time>
      </trkpt>
      <trkpt lat="45.02239" lon="5.57064">
        <ele>1930.46</ele>
        <time>2010-02-10T09:16:31Z</time>
      </trkpt>
      <trkpt lat="45.0226" lon="5.57053">
        <ele>1925.18</ele>
        <time>2010-02-10T09:16:38Z</time>
      </trkpt>
      <trkpt lat="45.02264" lon="5.57053">
        <ele>1927.1</ele>
        <time>2010-02-10T09:16:39Z</time>
      </trkpt>
      <trkpt lat="45.02278" lon="5.57056">
        <ele>1922.77</ele>
        <time>2010-02-10T09:16:44Z</time>
      </trkpt>
      <trkpt lat="45.02289" lon="5.57056">
        <ele>1918.45</ele>
        <time>2010-02-10T09:16:46Z</time>
      </trkpt>
      <trkpt lat="45.02297" lon="5.57055">
        <ele>1914.6</ele>
        <time>2010-02-10T09:16:47Z</time>
      </trkpt>
      <trkpt lat="45.02315" lon="5.57053">
        <ele>1909.8</ele>
        <time>2010-02-10T09:16:49Z</time>
      </trkpt>
      <trkpt lat="45.02325" lon="5.57052">
        <ele>1905.95</ele>
        <time>2010-02-10T09:16:50Z</time>
      </trkpt>
      <trkpt lat="45.02335" lon="5.57051">
        <ele>1903.07</ele>
        <time>2010-02-10T09:16:51Z</time>
      </trkpt>
      <trkpt lat="45.02354" lon="5.57049">
        <ele>1897.78</ele>
        <time>2010-02-10T09:16:53Z</time>
      </trkpt>
      <trkpt lat="45.0238" lon="5.57042">
        <ele>1888.65</ele>
        <time>2010-02-10T09:16:56Z</time>
      </trkpt>
      <trkpt lat="45.02396" lon="5.57036">
        <ele>1883.36</ele>
        <time>2010-02-10T09:16:58Z</time>
      </trkpt>
      <trkpt lat="45.02405" lon="5.57033">
        <ele>1880.48</ele>
        <time>2010-02-10T09:16:59Z</time>
      </trkpt>
      <trkpt lat="45.02413" lon="5.5703">
        <ele>1877.11</ele>
        <time>2010-02-10T09:17:00Z</time>
      </trkpt>
      <trkpt lat="45.0243" lon="5.57021">
        <ele>1871.34</ele>
        <time>2010-02-10T09:17:02Z</time>
      </trkpt>
      <trkpt lat="45.02438" lon="5.57014">
        <ele>1867.98</ele>
        <time>2010-02-10T09:17:03Z</time>
      </trkpt>
      <trkpt lat="45.02457" lon="5.57008">
        <ele>1860.77</ele>
        <time>2010-02-10T09:17:05Z</time>
      </trkpt>
      <trkpt lat="45.02465" lon="5.57004">
        <ele>1857.89</ele>
        <time>2010-02-10T09:17:06Z</time>
      </trkpt>
      <trkpt lat="45.02474" lon="5.57">
        <ele>1853.08</ele>
        <time>2010-02-10T09:17:07Z</time>
      </trkpt>
      <trkpt lat="45.02479" lon="5.56993">
        <ele>1855.48</ele>
        <time>2010-02-10T09:17:08Z</time>
      </trkpt>
      <trkpt lat="45.02476" lon="5.56971">
        <ele>1856.44</ele>
        <time>2010-02-10T09:17:12Z</time>
      </trkpt>
      <trkpt lat="45.02475" lon="5.56966">
        <ele>1855.96</ele>
        <time>2010-02-10T09:17:21Z</time>
      </trkpt>
      <trkpt lat="45.02475" lon="5.56966">
        <ele>1855.48</ele>
        <time>2010-02-10T09:17:25Z</time>
      </trkpt>
      <trkpt lat="45.0248" lon="5.56957">
        <ele>1849.71</ele>
        <time>2010-02-10T09:17:28Z</time>
      </trkpt>
      <trkpt lat="45.02485" lon="5.5695">
        <ele>1845.39</ele>
        <time>2010-02-10T09:17:29Z</time>
      </trkpt>
      <trkpt lat="45.02492" lon="5.56943">
        <ele>1840.1</ele>
        <time>2010-02-10T09:17:30Z</time>
      </trkpt>
      <trkpt lat="45.025" lon="5.56936">
        <ele>1834.81</ele>
        <time>2010-02-10T09:17:31Z</time>
      </trkpt>
      <trkpt lat="45.02529" lon="5.56919">
        <ele>1821.84</ele>
        <time>2010-02-10T09:17:34Z</time>
      </trkpt>
      <trkpt lat="45.02536" lon="5.56912">
        <ele>1821.84</ele>
        <time>2010-02-10T09:17:35Z</time>
      </trkpt>
      <trkpt lat="45.02539" lon="5.56904">
        <ele>1814.63</ele>
        <time>2010-02-10T09:17:36Z</time>
      </trkpt>
      <trkpt lat="45.02542" lon="5.56895">
        <ele>1817.51</ele>
        <time>2010-02-10T09:17:37Z</time>
      </trkpt>
      <trkpt lat="45.02547" lon="5.56891">
        <ele>1814.15</ele>
        <time>2010-02-10T09:17:38Z</time>
      </trkpt>
      <trkpt lat="45.02558" lon="5.56891">
        <ele>1810.3</ele>
        <time>2010-02-10T09:17:40Z</time>
      </trkpt>
      <trkpt lat="45.02569" lon="5.56887">
        <ele>1806.45</ele>
        <time>2010-02-10T09:17:42Z</time>
      </trkpt>
      <trkpt lat="45.02589" lon="5.56884">
        <ele>1799.24</ele>
        <time>2010-02-10T09:17:45Z</time>
      </trkpt>
      <trkpt lat="45.026" lon="5.56882">
        <ele>1795.4</ele>
        <time>2010-02-10T09:17:47Z</time>
      </trkpt>
      <trkpt lat="45.02611" lon="5.56875">
        <ele>1788.19</ele>
        <time>2010-02-10T09:17:49Z</time>
      </trkpt>
      <trkpt lat="45.02616" lon="5.56869">
        <ele>1785.31</ele>
        <time>2010-02-10T09:17:50Z</time>
      </trkpt>
      <trkpt lat="45.02624" lon="5.56855">
        <ele>1780.5</ele>
        <time>2010-02-10T09:17:52Z</time>
      </trkpt>
      <trkpt lat="45.02628" lon="5.56852">
        <ele>1777.13</ele>
        <time>2010-02-10T09:17:53Z</time>
      </trkpt>
      <trkpt lat="45.02638" lon="5.56842">
        <ele>1768</ele>
        <time>2010-02-10T09:17:55Z</time>
      </trkpt>
      <trkpt lat="45.02651" lon="5.56832">
        <ele>1762.71</ele>
        <time>2010-02-10T09:17:57Z</time>
      </trkpt>
      <trkpt lat="45.0266" lon="5.56817">
        <ele>1755.99</ele>
        <time>2010-02-10T09:17:59Z</time>
      </trkpt>
      <trkpt lat="45.02671" lon="5.56796">
        <ele>1743.01</ele>
        <time>2010-02-10T09:18:01Z</time>
      </trkpt>
      <trkpt lat="45.02676" lon="5.56785">
        <ele>1738.68</ele>
        <time>2010-02-10T09:18:02Z</time>
      </trkpt>
      <trkpt lat="45.02684" lon="5.56764">
        <ele>1731.47</ele>
        <time>2010-02-10T09:18:04Z</time>
      </trkpt>
      <trkpt lat="45.02693" lon="5.56744">
        <ele>1721.86</ele>
        <time>2010-02-10T09:18:06Z</time>
      </trkpt>
      <trkpt lat="45.02695" lon="5.56721">
        <ele>1713.69</ele>
        <time>2010-02-10T09:18:08Z</time>
      </trkpt>
      <trkpt lat="45.02701" lon="5.56697">
        <ele>1703.59</ele>
        <time>2010-02-10T09:18:10Z</time>
      </trkpt>
      <trkpt lat="45.02707" lon="5.56686">
        <ele>1700.23</ele>
        <time>2010-02-10T09:18:11Z</time>
      </trkpt>
      <trkpt lat="45.02714" lon="5.56676">
        <ele>1693.98</ele>
        <time>2010-02-10T09:18:12Z</time>
      </trkpt>
      <trkpt lat="45.02721" lon="5.56667">
        <ele>1690.62</ele>
        <time>2010-02-10T09:18:13Z</time>
      </trkpt>
      <trkpt lat="45.02743" lon="5.56646">
        <ele>1678.6</ele>
        <time>2010-02-10T09:18:16Z</time>
      </trkpt>
      <trkpt lat="45.0275" lon="5.56638">
        <ele>1676.68</ele>
        <time>2010-02-10T09:18:17Z</time>
      </trkpt>
      <trkpt lat="45.02767" lon="5.56615">
        <ele>1668.99</ele>
        <time>2010-02-10T09:18:20Z</time>
      </trkpt>
      <trkpt lat="45.02781" lon="5.5661">
        <ele>1665.14</ele>
        <time>2010-02-10T09:18:22Z</time>
      </trkpt>
      <trkpt lat="45.02806" lon="5.56599">
        <ele>1651.68</ele>
        <time>2010-02-10T09:18:25Z</time>
      </trkpt>
      <trkpt lat="45.02828" lon="5.56578">
        <ele>1642.07</ele>
        <time>2010-02-10T09:18:28Z</time>
      </trkpt>
      <trkpt lat="45.02836" lon="5.56551">
        <ele>1636.78</ele>
        <time>2010-02-10T09:18:31Z</time>
      </trkpt>
      <trkpt lat="45.02839" lon="5.56542">
        <ele>1632.46</ele>
        <time>2010-02-10T09:18:32Z</time>
      </trkpt>
      <trkpt lat="45.02843" lon="5.56534">
        <ele>1632.94</ele>
        <time>2010-02-10T09:18:33Z</time>
      </trkpt>
      <trkpt lat="45.02846" lon="5.56525">
        <ele>1627.65</ele>
        <time>2010-02-10T09:18:34Z</time>
      </trkpt>
      <trkpt lat="45.02854" lon="5.56509">
        <ele>1624.28</ele>
        <time>2010-02-10T09:18:36Z</time>
      </trkpt>
      <trkpt lat="45.02865" lon="5.56478">
        <ele>1612.27</ele>
        <time>2010-02-10T09:18:40Z</time>
      </trkpt>
      <trkpt lat="45.02877" lon="5.56463">
        <ele>1608.9</ele>
        <time>2010-02-10T09:18:44Z</time>
      </trkpt>
      <trkpt lat="45.02883" lon="5.56463">
        <ele>1607.94</ele>
        <time>2010-02-10T09:18:46Z</time>
      </trkpt>
      <trkpt lat="45.02875" lon="5.56464">
        <ele>1607.46</ele>
        <time>2010-02-10T09:18:57Z</time>
      </trkpt>
      <trkpt lat="45.02875" lon="5.56462">
        <ele>1606.5</ele>
        <time>2010-02-10T09:20:05Z</time>
      </trkpt>
      <trkpt lat="45.02877" lon="5.56443">
        <ele>1599.77</ele>
        <time>2010-02-10T09:20:09Z</time>
      </trkpt>
      <trkpt lat="45.02882" lon="5.56435">
        <ele>1593.04</ele>
        <time>2010-02-10T09:20:10Z</time>
      </trkpt>
      <trkpt lat="45.02889" lon="5.56425">
        <ele>1586.79</ele>
        <time>2010-02-10T09:20:11Z</time>
      </trkpt>
      <trkpt lat="45.02898" lon="5.56415">
        <ele>1578.62</ele>
        <time>2010-02-10T09:20:12Z</time>
      </trkpt>
      <trkpt lat="45.02923" lon="5.56376">
        <ele>1573.33</ele>
        <time>2010-02-10T09:20:15Z</time>
      </trkpt>
      <trkpt lat="45.02931" lon="5.56362">
        <ele>1562.76</ele>
        <time>2010-02-10T09:20:16Z</time>
      </trkpt>
      <trkpt lat="45.02939" lon="5.56349">
        <ele>1558.43</ele>
        <time>2010-02-10T09:20:17Z</time>
      </trkpt>
      <trkpt lat="45.02962" lon="5.56316">
        <ele>1548.34</ele>
        <time>2010-02-10T09:20:20Z</time>
      </trkpt>
      <trkpt lat="45.02969" lon="5.56307">
        <ele>1543.05</ele>
        <time>2010-02-10T09:20:21Z</time>
      </trkpt>
      <trkpt lat="45.02977" lon="5.56298">
        <ele>1538.25</ele>
        <time>2010-02-10T09:20:22Z</time>
      </trkpt>
      <trkpt lat="45.03005" lon="5.5627">
        <ele>1525.27</ele>
        <time>2010-02-10T09:20:25Z</time>
      </trkpt>
      <trkpt lat="45.03014" lon="5.56261">
        <ele>1520.94</ele>
        <time>2010-02-10T09:20:26Z</time>
      </trkpt>
      <trkpt lat="45.03024" lon="5.56252">
        <ele>1515.18</ele>
        <time>2010-02-10T09:20:27Z</time>
      </trkpt>
      <trkpt lat="45.03045" lon="5.5623">
        <ele>1502.2</ele>
        <time>2010-02-10T09:20:29Z</time>
      </trkpt>
      <trkpt lat="45.03063" lon="5.56205">
        <ele>1491.14</ele>
        <time>2010-02-10T09:20:31Z</time>
      </trkpt>
      <trkpt lat="45.03071" lon="5.56192">
        <ele>1485.37</ele>
        <time>2010-02-10T09:20:32Z</time>
      </trkpt>
      <trkpt lat="45.03078" lon="5.56178">
        <ele>1481.53</ele>
        <time>2010-02-10T09:20:33Z</time>
      </trkpt>
      <trkpt lat="45.03087" lon="5.56167">
        <ele>1474.32</ele>
        <time>2010-02-10T09:20:34Z</time>
      </trkpt>
      <trkpt lat="45.03095" lon="5.56156">
        <ele>1469.51</ele>
        <time>2010-02-10T09:20:35Z</time>
      </trkpt>
      <trkpt lat="45.03101" lon="5.56144">
        <ele>1463.74</ele>
        <time>2010-02-10T09:20:36Z</time>
      </trkpt>
      <trkpt lat="45.03108" lon="5.56135">
        <ele>1459.42</ele>
        <time>2010-02-10T09:20:37Z</time>
      </trkpt>
      <trkpt lat="45.03117" lon="5.5613">
        <ele>1455.57</ele>
        <time>2010-02-10T09:20:38Z</time>
      </trkpt>
      <trkpt lat="45.03134" lon="5.56125">
        <ele>1449.81</ele>
        <time>2010-02-10T09:20:40Z</time>
      </trkpt>
      <trkpt lat="45.03142" lon="5.5612">
        <ele>1446.44</ele>
        <time>2010-02-10T09:20:41Z</time>
      </trkpt>
      <trkpt lat="45.03149" lon="5.56116">
        <ele>1441.63</ele>
        <time>2010-02-10T09:20:42Z</time>
      </trkpt>
      <trkpt lat="45.03166" lon="5.5611">
        <ele>1434.91</ele>
        <time>2010-02-10T09:20:44Z</time>
      </trkpt>
      <trkpt lat="45.03192" lon="5.56108">
        <ele>1424.33</ele>
        <time>2010-02-10T09:20:47Z</time>
      </trkpt>
      <trkpt lat="45.03204" lon="5.56112">
        <ele>1421.45</ele>
        <time>2010-02-10T09:20:49Z</time>
      </trkpt>
      <trkpt lat="45.03211" lon="5.56116">
        <ele>1420.49</ele>
        <time>2010-02-10T09:20:50Z</time>
      </trkpt>
      <trkpt lat="45.03225" lon="5.56124">
        <ele>1415.2</ele>
        <time>2010-02-10T09:20:53Z</time>
      </trkpt>
      <trkpt lat="45.03237" lon="5.56129">
        <ele>1410.87</ele>
        <time>2010-02-10T09:20:55Z</time>
      </trkpt>
      <trkpt lat="45.03244" lon="5.56133">
        <ele>1407.03</ele>
        <time>2010-02-10T09:20:56Z</time>
      </trkpt>
      <trkpt lat="45.03262" lon="5.56141">
        <ele>1402.7</ele>
        <time>2010-02-10T09:20:58Z</time>
      </trkpt>
      <trkpt lat="45.0327" lon="5.56145">
        <ele>1399.82</ele>
        <time>2010-02-10T09:20:59Z</time>
      </trkpt>
      <trkpt lat="45.03297" lon="5.56151">
        <ele>1390.68</ele>
        <time>2010-02-10T09:21:02Z</time>
      </trkpt>
      <trkpt lat="45.03309" lon="5.5615">
        <ele>1383.47</ele>
        <time>2010-02-10T09:21:03Z</time>
      </trkpt>
      <trkpt lat="45.03322" lon="5.56152">
        <ele>1379.63</ele>
        <time>2010-02-10T09:21:04Z</time>
      </trkpt>
      <trkpt lat="45.03334" lon="5.56153">
        <ele>1377.23</ele>
        <time>2010-02-10T09:21:05Z</time>
      </trkpt>
      <trkpt lat="45.03353" lon="5.56151">
        <ele>1376.26</ele>
        <time>2010-02-10T09:21:07Z</time>
      </trkpt>
      <trkpt lat="45.0337" lon="5.56143">
        <ele>1367.61</ele>
        <time>2010-02-10T09:21:09Z</time>
      </trkpt>
      <trkpt lat="45.03378" lon="5.56137">
        <ele>1364.73</ele>
        <time>2010-02-10T09:21:10Z</time>
      </trkpt>
      <trkpt lat="45.03388" lon="5.56132">
        <ele>1361.36</ele>
        <time>2010-02-10T09:21:11Z</time>
      </trkpt>
      <trkpt lat="45.03398" lon="5.56128">
        <ele>1358</ele>
        <time>2010-02-10T09:21:12Z</time>
      </trkpt>
      <trkpt lat="45.03427" lon="5.56116">
        <ele>1350.31</ele>
        <time>2010-02-10T09:21:15Z</time>
      </trkpt>
      <trkpt lat="45.03446" lon="5.56108">
        <ele>1343.58</ele>
        <time>2010-02-10T09:21:17Z</time>
      </trkpt>
      <trkpt lat="45.03476" lon="5.56103">
        <ele>1339.25</ele>
        <time>2010-02-10T09:21:20Z</time>
      </trkpt>
      <trkpt lat="45.03495" lon="5.56101">
        <ele>1333.49</ele>
        <time>2010-02-10T09:21:22Z</time>
      </trkpt>
      <trkpt lat="45.03525" lon="5.56093">
        <ele>1327.24</ele>
        <time>2010-02-10T09:21:25Z</time>
      </trkpt>
      <trkpt lat="45.03546" lon="5.56084">
        <ele>1322.43</ele>
        <time>2010-02-10T09:21:27Z</time>
      </trkpt>
      <trkpt lat="45.03566" lon="5.56069">
        <ele>1317.14</ele>
        <time>2010-02-10T09:21:29Z</time>
      </trkpt>
      <trkpt lat="45.03574" lon="5.56062">
        <ele>1317.14</ele>
        <time>2010-02-10T09:21:30Z</time>
      </trkpt>
      <trkpt lat="45.03582" lon="5.56057">
        <ele>1315.7</ele>
        <time>2010-02-10T09:21:31Z</time>
      </trkpt>
      <trkpt lat="45.03604" lon="5.56036">
        <ele>1309.45</ele>
        <time>2010-02-10T09:21:34Z</time>
      </trkpt>
      <trkpt lat="45.03625" lon="5.56004">
        <ele>1302.24</ele>
        <time>2010-02-10T09:21:37Z</time>
      </trkpt>
      <trkpt lat="45.03633" lon="5.55982">
        <ele>1298.88</ele>
        <time>2010-02-10T09:21:41Z</time>
      </trkpt>
      <trkpt lat="45.03632" lon="5.55983">
        <ele>1300.32</ele>
        <time>2010-02-10T09:21:42Z</time>
      </trkpt>
      <trkpt lat="45.03629" lon="5.55985">
        <ele>1304.17</ele>
        <time>2010-02-10T09:21:43Z</time>
      </trkpt>
      <trkpt lat="45.03627" lon="5.55986">
        <ele>1301.28</ele>
        <time>2010-02-10T09:21:44Z</time>
      </trkpt>
      <trkpt lat="45.03619" lon="5.5598">
        <ele>1299.36</ele>
        <time>2010-02-10T09:21:48Z</time>
      </trkpt>
      <trkpt lat="45.03609" lon="5.5599">
        <ele>1298.4</ele>
        <time>2010-02-10T09:22:14Z</time>
      </trkpt>
      <trkpt lat="45.03608" lon="5.55989">
        <ele>1300.32</ele>
        <time>2010-02-10T09:23:23Z</time>
      </trkpt>
      <trkpt lat="45.03608" lon="5.55981">
        <ele>1298.4</ele>
        <time>2010-02-10T09:23:26Z</time>
      </trkpt>
      <trkpt lat="45.03619" lon="5.55956">
        <ele>1293.59</ele>
        <time>2010-02-10T09:23:30Z</time>
      </trkpt>
      <trkpt lat="45.03634" lon="5.55914">
        <ele>1287.34</ele>
        <time>2010-02-10T09:23:34Z</time>
      </trkpt>
      <trkpt lat="45.03646" lon="5.55893">
        <ele>1279.17</ele>
        <time>2010-02-10T09:23:36Z</time>
      </trkpt>
      <trkpt lat="45.0366" lon="5.55872">
        <ele>1273.88</ele>
        <time>2010-02-10T09:23:38Z</time>
      </trkpt>
      <trkpt lat="45.03673" lon="5.55846">
        <ele>1267.64</ele>
        <time>2010-02-10T09:23:40Z</time>
      </trkpt>
      <trkpt lat="45.0368" lon="5.55833">
        <ele>1265.23</ele>
        <time>2010-02-10T09:23:41Z</time>
      </trkpt>
      <trkpt lat="45.03707" lon="5.55794">
        <ele>1254.66</ele>
        <time>2010-02-10T09:23:44Z</time>
      </trkpt>
      <trkpt lat="45.03717" lon="5.55782">
        <ele>1249.85</ele>
        <time>2010-02-10T09:23:45Z</time>
      </trkpt>
      <trkpt lat="45.03741" lon="5.55748">
        <ele>1246.97</ele>
        <time>2010-02-10T09:23:48Z</time>
      </trkpt>
      <trkpt lat="45.03766" lon="5.55721">
        <ele>1241.68</ele>
        <time>2010-02-10T09:23:51Z</time>
      </trkpt>
      <trkpt lat="45.03774" lon="5.55713">
        <ele>1238.32</ele>
        <time>2010-02-10T09:23:52Z</time>
      </trkpt>
      <trkpt lat="45.03799" lon="5.55697">
        <ele>1236.39</ele>
        <time>2010-02-10T09:23:55Z</time>
      </trkpt>
      <trkpt lat="45.03807" lon="5.55697">
        <ele>1235.43</ele>
        <time>2010-02-10T09:23:56Z</time>
      </trkpt>
      <trkpt lat="45.03822" lon="5.557">
        <ele>1236.39</ele>
        <time>2010-02-10T09:23:58Z</time>
      </trkpt>
      <trkpt lat="45.03863" lon="5.55702">
        <ele>1233.03</ele>
        <time>2010-02-10T09:24:03Z</time>
      </trkpt>
      <trkpt lat="45.03877" lon="5.55705">
        <ele>1231.59</ele>
        <time>2010-02-10T09:24:05Z</time>
      </trkpt>
      <trkpt lat="45.03907" lon="5.55714">
        <ele>1229.18</ele>
        <time>2010-02-10T09:24:11Z</time>
      </trkpt>
      <trkpt lat="45.03927" lon="5.55715">
        <ele>1227.74</ele>
        <time>2010-02-10T09:24:15Z</time>
      </trkpt>
      <trkpt lat="45.03945" lon="5.55713">
        <ele>1225.34</ele>
        <time>2010-02-10T09:24:18Z</time>
      </trkpt>
      <trkpt lat="45.03968" lon="5.55701">
        <ele>1221.97</ele>
        <time>2010-02-10T09:24:22Z</time>
      </trkpt>
      <trkpt lat="45.03984" lon="5.55693">
        <ele>1216.21</ele>
        <time>2010-02-10T09:24:24Z</time>
      </trkpt>
      <trkpt lat="45.03994" lon="5.55688">
        <ele>1212.36</ele>
        <time>2010-02-10T09:24:25Z</time>
      </trkpt>
      <trkpt lat="45.04004" lon="5.55684">
        <ele>1209</ele>
        <time>2010-02-10T09:24:26Z</time>
      </trkpt>
      <trkpt lat="45.04015" lon="5.55679">
        <ele>1204.19</ele>
        <time>2010-02-10T09:24:27Z</time>
      </trkpt>
      <trkpt lat="45.04037" lon="5.55673">
        <ele>1196.5</ele>
        <time>2010-02-10T09:24:29Z</time>
      </trkpt>
      <trkpt lat="45.04063" lon="5.55675">
        <ele>1190.25</ele>
        <time>2010-02-10T09:24:31Z</time>
      </trkpt>
      <trkpt lat="45.04102" lon="5.5569">
        <ele>1186.88</ele>
        <time>2010-02-10T09:24:34Z</time>
      </trkpt>
      <trkpt lat="45.04131" lon="5.55705">
        <ele>1185.44</ele>
        <time>2010-02-10T09:24:37Z</time>
      </trkpt>
      <trkpt lat="45.04148" lon="5.55719">
        <ele>1183.52</ele>
        <time>2010-02-10T09:24:39Z</time>
      </trkpt>
      <trkpt lat="45.04187" lon="5.55751">
        <ele>1177.75</ele>
        <time>2010-02-10T09:24:44Z</time>
      </trkpt>
      <trkpt lat="45.04204" lon="5.55763">
        <ele>1172.95</ele>
        <time>2010-02-10T09:24:46Z</time>
      </trkpt>
      <trkpt lat="45.04222" lon="5.55775">
        <ele>1168.62</ele>
        <time>2010-02-10T09:24:48Z</time>
      </trkpt>
      <trkpt lat="45.0424" lon="5.55785">
        <ele>1168.14</ele>
        <time>2010-02-10T09:24:50Z</time>
      </trkpt>
      <trkpt lat="45.04254" lon="5.55792">
        <ele>1167.18</ele>
        <time>2010-02-10T09:24:52Z</time>
      </trkpt>
      <trkpt lat="45.04278" lon="5.55818">
        <ele>1165.74</ele>
        <time>2010-02-10T09:24:57Z</time>
      </trkpt>
      <trkpt lat="45.04287" lon="5.55829">
        <ele>1165.26</ele>
        <time>2010-02-10T09:24:59Z</time>
      </trkpt>
      <trkpt lat="45.04301" lon="5.55852">
        <ele>1163.33</ele>
        <time>2010-02-10T09:25:03Z</time>
      </trkpt>
      <trkpt lat="45.04314" lon="5.55876">
        <ele>1159.01</ele>
        <time>2010-02-10T09:25:06Z</time>
      </trkpt>
      <trkpt lat="45.04321" lon="5.55894">
        <ele>1155.16</ele>
        <time>2010-02-10T09:25:08Z</time>
      </trkpt>
      <trkpt lat="45.04326" lon="5.55905">
        <ele>1152.28</ele>
        <time>2010-02-10T09:25:09Z</time>
      </trkpt>
      <trkpt lat="45.04348" lon="5.55941">
        <ele>1149.87</ele>
        <time>2010-02-10T09:25:14Z</time>
      </trkpt>
      <trkpt lat="45.04363" lon="5.55966">
        <ele>1145.07</ele>
        <time>2010-02-10T09:25:17Z</time>
      </trkpt>
      <trkpt lat="45.04369" lon="5.55975">
        <ele>1141.22</ele>
        <time>2010-02-10T09:25:18Z</time>
      </trkpt>
      <trkpt lat="45.04383" lon="5.55993">
        <ele>1138.82</ele>
        <time>2010-02-10T09:25:20Z</time>
      </trkpt>
      <trkpt lat="45.04407" lon="5.56007">
        <ele>1133.05</ele>
        <time>2010-02-10T09:25:23Z</time>
      </trkpt>
      <trkpt lat="45.04414" lon="5.5601">
        <ele>1133.05</ele>
        <time>2010-02-10T09:25:24Z</time>
      </trkpt>
      <trkpt lat="45.04446" lon="5.56003">
        <ele>1134.49</ele>
        <time>2010-02-10T09:25:30Z</time>
      </trkpt>
      <trkpt lat="45.04451" lon="5.55997">
        <ele>1132.09</ele>
        <time>2010-02-10T09:25:35Z</time>
      </trkpt>
      <trkpt lat="45.04451" lon="5.55997">
        <ele>1135.45</ele>
        <time>2010-02-10T09:25:36Z</time>
      </trkpt>
      <trkpt lat="45.04451" lon="5.55996">
        <ele>1115.27</ele>
        <time>2010-02-10T09:25:38Z</time>
      </trkpt>
      <trkpt lat="45.04452" lon="5.55995">
        <ele>1139.3</ele>
        <time>2010-02-10T09:25:39Z</time>
      </trkpt>
      <trkpt lat="45.04452" lon="5.55995">
        <ele>1136.42</ele>
        <time>2010-02-10T09:25:40Z</time>
      </trkpt>
      <trkpt lat="45.04458" lon="5.55981">
        <ele>1134.49</ele>
        <time>2010-02-10T09:26:08Z</time>
      </trkpt>
      <trkpt lat="45.04465" lon="5.55962">
        <ele>1134.97</ele>
        <time>2010-02-10T09:26:33Z</time>
      </trkpt>
      <trkpt lat="45.04465" lon="5.55962">
        <ele>1137.86</ele>
        <time>2010-02-10T09:26:34Z</time>
      </trkpt>
      <trkpt lat="45.04465" lon="5.55962">
        <ele>1135.45</ele>
        <time>2010-02-10T09:26:35Z</time>
      </trkpt>
      <trkpt lat="45.04465" lon="5.55962">
        <ele>1132.57</ele>
        <time>2010-02-10T09:26:36Z</time>
      </trkpt>
      <trkpt lat="45.04465" lon="5.55962">
        <ele>1132.57</ele>
        <time>2010-02-10T09:26:37Z</time>
      </trkpt>
      <trkpt lat="45.04465" lon="5.55962">
        <ele>1133.53</ele>
        <time>2010-02-10T09:26:38Z</time>
      </trkpt>
      <trkpt lat="45.0445" lon="5.55985">
        <ele>1134.97</ele>
        <time>2010-02-10T09:28:11Z</time>
      </trkpt>
      <trkpt lat="45.04437" lon="5.55972">
        <ele>1134.49</ele>
        <time>2010-02-10T09:28:58Z</time>
      </trkpt>
      <trkpt lat="45.04447" lon="5.55977">
        <ele>1134.97</ele>
        <time>2010-02-10T09:29:26Z</time>
      </trkpt>
      <trkpt lat="45.04447" lon="5.5598">
        <ele>1134.01</ele>
        <time>2010-02-10T09:29:27Z</time>
      </trkpt>
      <trkpt lat="45.04415" lon="5.56004">
        <ele>1137.38</ele>
        <time>2010-02-10T09:29:32Z</time>
      </trkpt>
      <trkpt lat="45.04406" lon="5.56005">
        <ele>1141.7</ele>
        <time>2010-02-10T09:29:35Z</time>
      </trkpt>
      <trkpt lat="45.04397" lon="5.56007">
        <ele>1145.55</ele>
        <time>2010-02-10T09:29:37Z</time>
      </trkpt>
      <trkpt lat="45.04391" lon="5.56012">
        <ele>1149.39</ele>
        <time>2010-02-10T09:29:39Z</time>
      </trkpt>
      <trkpt lat="45.04385" lon="5.56018">
        <ele>1153.24</ele>
        <time>2010-02-10T09:29:41Z</time>
      </trkpt>
      <trkpt lat="45.04382" lon="5.5602">
        <ele>1153.24</ele>
        <time>2010-02-10T09:29:42Z</time>
      </trkpt>
      <trkpt lat="45.04375" lon="5.56022">
        <ele>1159.01</ele>
        <time>2010-02-10T09:29:44Z</time>
      </trkpt>
      <trkpt lat="45.04371" lon="5.56026">
        <ele>1162.37</ele>
        <time>2010-02-10T09:29:46Z</time>
      </trkpt>
      <trkpt lat="45.04359" lon="5.56032">
        <ele>1165.74</ele>
        <time>2010-02-10T09:29:49Z</time>
      </trkpt>
      <trkpt lat="45.04354" lon="5.56038">
        <ele>1169.58</ele>
        <time>2010-02-10T09:29:51Z</time>
      </trkpt>
      <trkpt lat="45.04349" lon="5.56042">
        <ele>1173.43</ele>
        <time>2010-02-10T09:29:53Z</time>
      </trkpt>
      <trkpt lat="45.04339" lon="5.5605">
        <ele>1177.75</ele>
        <time>2010-02-10T09:29:56Z</time>
      </trkpt>
      <trkpt lat="45.04332" lon="5.56054">
        <ele>1181.6</ele>
        <time>2010-02-10T09:29:58Z</time>
      </trkpt>
      <trkpt lat="45.04327" lon="5.56057">
        <ele>1184.96</ele>
        <time>2010-02-10T09:30:00Z</time>
      </trkpt>
      <trkpt lat="45.04314" lon="5.56067">
        <ele>1189.29</ele>
        <time>2010-02-10T09:30:04Z</time>
      </trkpt>
      <trkpt lat="45.04303" lon="5.56074">
        <ele>1193.13</ele>
        <time>2010-02-10T09:30:07Z</time>
      </trkpt>
      <trkpt lat="45.04294" lon="5.56078">
        <ele>1196.98</ele>
        <time>2010-02-10T09:30:10Z</time>
      </trkpt>
      <trkpt lat="45.04284" lon="5.56089">
        <ele>1200.82</ele>
        <time>2010-02-10T09:30:13Z</time>
      </trkpt>
      <trkpt lat="45.04276" lon="5.56096">
        <ele>1205.15</ele>
        <time>2010-02-10T09:30:16Z</time>
      </trkpt>
      <trkpt lat="45.04267" lon="5.56101">
        <ele>1209</ele>
        <time>2010-02-10T09:30:19Z</time>
      </trkpt>
      <trkpt lat="45.04262" lon="5.56105">
        <ele>1212.84</ele>
        <time>2010-02-10T09:30:21Z</time>
      </trkpt>
      <trkpt lat="45.04251" lon="5.5611">
        <ele>1217.17</ele>
        <time>2010-02-10T09:30:24Z</time>
      </trkpt>
      <trkpt lat="45.04244" lon="5.56116">
        <ele>1220.05</ele>
        <time>2010-02-10T09:30:26Z</time>
      </trkpt>
      <trkpt lat="45.04237" lon="5.56119">
        <ele>1223.42</ele>
        <time>2010-02-10T09:30:28Z</time>
      </trkpt>
      <trkpt lat="45.04231" lon="5.56123">
        <ele>1227.26</ele>
        <time>2010-02-10T09:30:30Z</time>
      </trkpt>
      <trkpt lat="45.04225" lon="5.56129">
        <ele>1230.62</ele>
        <time>2010-02-10T09:30:32Z</time>
      </trkpt>
      <trkpt lat="45.0422" lon="5.56132">
        <ele>1234.47</ele>
        <time>2010-02-10T09:30:34Z</time>
      </trkpt>
      <trkpt lat="45.04214" lon="5.56136">
        <ele>1238.32</ele>
        <time>2010-02-10T09:30:36Z</time>
      </trkpt>
      <trkpt lat="45.04205" lon="5.56144">
        <ele>1243.12</ele>
        <time>2010-02-10T09:30:39Z</time>
      </trkpt>
      <trkpt lat="45.04199" lon="5.56147">
        <ele>1246.49</ele>
        <time>2010-02-10T09:30:41Z</time>
      </trkpt>
      <trkpt lat="45.04192" lon="5.56152">
        <ele>1251.29</ele>
        <time>2010-02-10T09:30:43Z</time>
      </trkpt>
      <trkpt lat="45.04186" lon="5.56156">
        <ele>1255.62</ele>
        <time>2010-02-10T09:30:45Z</time>
      </trkpt>
      <trkpt lat="45.0418" lon="5.56158">
        <ele>1258.98</ele>
        <time>2010-02-10T09:30:47Z</time>
      </trkpt>
      <trkpt lat="45.04175" lon="5.56162">
        <ele>1263.79</ele>
        <time>2010-02-10T09:30:49Z</time>
      </trkpt>
      <trkpt lat="45.04169" lon="5.56169">
        <ele>1268.12</ele>
        <time>2010-02-10T09:30:51Z</time>
      </trkpt>
      <trkpt lat="45.04164" lon="5.56172">
        <ele>1271</ele>
        <time>2010-02-10T09:30:53Z</time>
      </trkpt>
      <trkpt lat="45.04153" lon="5.56179">
        <ele>1274.36</ele>
        <time>2010-02-10T09:30:56Z</time>
      </trkpt>
      <trkpt lat="45.04143" lon="5.56185">
        <ele>1279.17</ele>
        <time>2010-02-10T09:30:59Z</time>
      </trkpt>
      <trkpt lat="45.04135" lon="5.56194">
        <ele>1283.5</ele>
        <time>2010-02-10T09:31:02Z</time>
      </trkpt>
      <trkpt lat="45.04125" lon="5.562">
        <ele>1287.82</ele>
        <time>2010-02-10T09:31:05Z</time>
      </trkpt>
      <trkpt lat="45.0412" lon="5.56203">
        <ele>1292.15</ele>
        <time>2010-02-10T09:31:07Z</time>
      </trkpt>
      <trkpt lat="45.04114" lon="5.56207">
        <ele>1295.03</ele>
        <time>2010-02-10T09:31:09Z</time>
      </trkpt>
      <trkpt lat="45.04108" lon="5.5621">
        <ele>1298.88</ele>
        <time>2010-02-10T09:31:11Z</time>
      </trkpt>
      <trkpt lat="45.04101" lon="5.56216">
        <ele>1301.76</ele>
        <time>2010-02-10T09:31:13Z</time>
      </trkpt>
      <trkpt lat="45.04095" lon="5.5622">
        <ele>1305.13</ele>
        <time>2010-02-10T09:31:15Z</time>
      </trkpt>
      <trkpt lat="45.04087" lon="5.56226">
        <ele>1310.9</ele>
        <time>2010-02-10T09:31:18Z</time>
      </trkpt>
      <trkpt lat="45.0408" lon="5.56229">
        <ele>1313.78</ele>
        <time>2010-02-10T09:31:20Z</time>
      </trkpt>
      <trkpt lat="45.04074" lon="5.56233">
        <ele>1317.62</ele>
        <time>2010-02-10T09:31:22Z</time>
      </trkpt>
      <trkpt lat="45.04067" lon="5.56238">
        <ele>1321.95</ele>
        <time>2010-02-10T09:31:24Z</time>
      </trkpt>
      <trkpt lat="45.04061" lon="5.56242">
        <ele>1326.76</ele>
        <time>2010-02-10T09:31:26Z</time>
      </trkpt>
      <trkpt lat="45.04056" lon="5.56246">
        <ele>1330.6</ele>
        <time>2010-02-10T09:31:28Z</time>
      </trkpt>
      <trkpt lat="45.04048" lon="5.56252">
        <ele>1334.45</ele>
        <time>2010-02-10T09:31:31Z</time>
      </trkpt>
      <trkpt lat="45.04039" lon="5.56259">
        <ele>1338.29</ele>
        <time>2010-02-10T09:31:34Z</time>
      </trkpt>
      <trkpt lat="45.0403" lon="5.56267">
        <ele>1342.62</ele>
        <time>2010-02-10T09:31:37Z</time>
      </trkpt>
      <trkpt lat="45.04021" lon="5.56275">
        <ele>1346.94</ele>
        <time>2010-02-10T09:31:40Z</time>
      </trkpt>
      <trkpt lat="45.04013" lon="5.56279">
        <ele>1350.31</ele>
        <time>2010-02-10T09:31:42Z</time>
      </trkpt>
      <trkpt lat="45.04006" lon="5.56283">
        <ele>1353.67</ele>
        <time>2010-02-10T09:31:44Z</time>
      </trkpt>
      <trkpt lat="45.04" lon="5.56287">
        <ele>1357.04</ele>
        <time>2010-02-10T09:31:46Z</time>
      </trkpt>
      <trkpt lat="45.03992" lon="5.5629">
        <ele>1360.4</ele>
        <time>2010-02-10T09:31:48Z</time>
      </trkpt>
      <trkpt lat="45.03988" lon="5.56295">
        <ele>1364.25</ele>
        <time>2010-02-10T09:31:50Z</time>
      </trkpt>
      <trkpt lat="45.03981" lon="5.56302">
        <ele>1367.61</ele>
        <time>2010-02-10T09:31:52Z</time>
      </trkpt>
      <trkpt lat="45.03975" lon="5.56306">
        <ele>1370.98</ele>
        <time>2010-02-10T09:31:54Z</time>
      </trkpt>
      <trkpt lat="45.03969" lon="5.5631">
        <ele>1374.82</ele>
        <time>2010-02-10T09:31:56Z</time>
      </trkpt>
      <trkpt lat="45.03962" lon="5.56314">
        <ele>1379.15</ele>
        <time>2010-02-10T09:31:58Z</time>
      </trkpt>
      <trkpt lat="45.03956" lon="5.56319">
        <ele>1382.99</ele>
        <time>2010-02-10T09:32:00Z</time>
      </trkpt>
      <trkpt lat="45.03944" lon="5.56327">
        <ele>1386.36</ele>
        <time>2010-02-10T09:32:04Z</time>
      </trkpt>
      <trkpt lat="45.03931" lon="5.56335">
        <ele>1390.2</ele>
        <time>2010-02-10T09:32:08Z</time>
      </trkpt>
      <trkpt lat="45.0392" lon="5.56344">
        <ele>1394.53</ele>
        <time>2010-02-10T09:32:12Z</time>
      </trkpt>
      <trkpt lat="45.0391" lon="5.56351">
        <ele>1397.89</ele>
        <time>2010-02-10T09:32:15Z</time>
      </trkpt>
      <trkpt lat="45.03901" lon="5.56358">
        <ele>1401.26</ele>
        <time>2010-02-10T09:32:18Z</time>
      </trkpt>
      <trkpt lat="45.0389" lon="5.56363">
        <ele>1405.58</ele>
        <time>2010-02-10T09:32:21Z</time>
      </trkpt>
      <trkpt lat="45.0388" lon="5.56372">
        <ele>1408.47</ele>
        <time>2010-02-10T09:32:24Z</time>
      </trkpt>
      <trkpt lat="45.03871" lon="5.56379">
        <ele>1412.31</ele>
        <time>2010-02-10T09:32:27Z</time>
      </trkpt>
      <trkpt lat="45.03864" lon="5.56383">
        <ele>1415.68</ele>
        <time>2010-02-10T09:32:29Z</time>
      </trkpt>
      <trkpt lat="45.03855" lon="5.5639">
        <ele>1419.52</ele>
        <time>2010-02-10T09:32:32Z</time>
      </trkpt>
      <trkpt lat="45.03846" lon="5.56397">
        <ele>1423.85</ele>
        <time>2010-02-10T09:32:35Z</time>
      </trkpt>
      <trkpt lat="45.0384" lon="5.56401">
        <ele>1427.21</ele>
        <time>2010-02-10T09:32:37Z</time>
      </trkpt>
      <trkpt lat="45.03834" lon="5.56405">
        <ele>1430.58</ele>
        <time>2010-02-10T09:32:39Z</time>
      </trkpt>
      <trkpt lat="45.03824" lon="5.56412">
        <ele>1434.91</ele>
        <time>2010-02-10T09:32:42Z</time>
      </trkpt>
      <trkpt lat="45.03818" lon="5.56416">
        <ele>1437.79</ele>
        <time>2010-02-10T09:32:44Z</time>
      </trkpt>
      <trkpt lat="45.03812" lon="5.56421">
        <ele>1441.15</ele>
        <time>2010-02-10T09:32:46Z</time>
      </trkpt>
      <trkpt lat="45.03805" lon="5.56425">
        <ele>1445.48</ele>
        <time>2010-02-10T09:32:48Z</time>
      </trkpt>
      <trkpt lat="45.03799" lon="5.56429">
        <ele>1448.84</ele>
        <time>2010-02-10T09:32:50Z</time>
      </trkpt>
      <trkpt lat="45.03793" lon="5.56434">
        <ele>1452.21</ele>
        <time>2010-02-10T09:32:52Z</time>
      </trkpt>
      <trkpt lat="45.03784" lon="5.56441">
        <ele>1456.05</ele>
        <time>2010-02-10T09:32:55Z</time>
      </trkpt>
      <trkpt lat="45.03775" lon="5.56447">
        <ele>1457.98</ele>
        <time>2010-02-10T09:32:58Z</time>
      </trkpt>
      <trkpt lat="45.03767" lon="5.56454">
        <ele>1462.3</ele>
        <time>2010-02-10T09:33:01Z</time>
      </trkpt>
      <trkpt lat="45.03757" lon="5.56461">
        <ele>1466.15</ele>
        <time>2010-02-10T09:33:04Z</time>
      </trkpt>
      <trkpt lat="45.03748" lon="5.56467">
        <ele>1469.99</ele>
        <time>2010-02-10T09:33:07Z</time>
      </trkpt>
      <trkpt lat="45.03736" lon="5.56476">
        <ele>1472.88</ele>
        <time>2010-02-10T09:33:11Z</time>
      </trkpt>
      <trkpt lat="45.03723" lon="5.56485">
        <ele>1476.72</ele>
        <time>2010-02-10T09:33:15Z</time>
      </trkpt>
      <trkpt lat="45.0371" lon="5.56494">
        <ele>1480.57</ele>
        <time>2010-02-10T09:33:19Z</time>
      </trkpt>
      <trkpt lat="45.037" lon="5.56501">
        <ele>1482.97</ele>
        <time>2010-02-10T09:33:22Z</time>
      </trkpt>
      <trkpt lat="45.03694" lon="5.56506">
        <ele>1486.34</ele>
        <time>2010-02-10T09:33:24Z</time>
      </trkpt>
      <trkpt lat="45.03681" lon="5.56514">
        <ele>1490.66</ele>
        <time>2010-02-10T09:33:28Z</time>
      </trkpt>
      <trkpt lat="45.03675" lon="5.56519">
        <ele>1494.03</ele>
        <time>2010-02-10T09:33:30Z</time>
      </trkpt>
      <trkpt lat="45.03672" lon="5.56521">
        <ele>1494.03</ele>
        <time>2010-02-10T09:33:31Z</time>
      </trkpt>
      <trkpt lat="45.03662" lon="5.56528">
        <ele>1498.35</ele>
        <time>2010-02-10T09:33:34Z</time>
      </trkpt>
      <trkpt lat="45.03652" lon="5.56535">
        <ele>1501.24</ele>
        <time>2010-02-10T09:33:37Z</time>
      </trkpt>
      <trkpt lat="45.03646" lon="5.56539">
        <ele>1504.6</ele>
        <time>2010-02-10T09:33:39Z</time>
      </trkpt>
      <trkpt lat="45.03636" lon="5.56546">
        <ele>1508.45</ele>
        <time>2010-02-10T09:33:42Z</time>
      </trkpt>
      <trkpt lat="45.03627" lon="5.56553">
        <ele>1513.25</ele>
        <time>2010-02-10T09:33:45Z</time>
      </trkpt>
      <trkpt lat="45.03617" lon="5.5656">
        <ele>1517.1</ele>
        <time>2010-02-10T09:33:48Z</time>
      </trkpt>
      <trkpt lat="45.03607" lon="5.56567">
        <ele>1520.94</ele>
        <time>2010-02-10T09:33:51Z</time>
      </trkpt>
      <trkpt lat="45.03601" lon="5.56571">
        <ele>1524.79</ele>
        <time>2010-02-10T09:33:53Z</time>
      </trkpt>
      <trkpt lat="45.03594" lon="5.56576">
        <ele>1528.15</ele>
        <time>2010-02-10T09:33:55Z</time>
      </trkpt>
      <trkpt lat="45.03588" lon="5.5658">
        <ele>1531.04</ele>
        <time>2010-02-10T09:33:57Z</time>
      </trkpt>
      <trkpt lat="45.03578" lon="5.56586">
        <ele>1535.36</ele>
        <time>2010-02-10T09:34:00Z</time>
      </trkpt>
      <trkpt lat="45.03572" lon="5.56591">
        <ele>1538.73</ele>
        <time>2010-02-10T09:34:02Z</time>
      </trkpt>
      <trkpt lat="45.03565" lon="5.56595">
        <ele>1542.09</ele>
        <time>2010-02-10T09:34:04Z</time>
      </trkpt>
      <trkpt lat="45.03552" lon="5.56603">
        <ele>1545.94</ele>
        <time>2010-02-10T09:34:08Z</time>
      </trkpt>
      <trkpt lat="45.03543" lon="5.56611">
        <ele>1548.82</ele>
        <time>2010-02-10T09:34:11Z</time>
      </trkpt>
      <trkpt lat="45.0353" lon="5.5662">
        <ele>1552.67</ele>
        <time>2010-02-10T09:34:15Z</time>
      </trkpt>
      <trkpt lat="45.03524" lon="5.56625">
        <ele>1556.03</ele>
        <time>2010-02-10T09:34:17Z</time>
      </trkpt>
      <trkpt lat="45.03521" lon="5.56627">
        <ele>1556.03</ele>
        <time>2010-02-10T09:34:18Z</time>
      </trkpt>
      <trkpt lat="45.03514" lon="5.56631">
        <ele>1560.36</ele>
        <time>2010-02-10T09:34:20Z</time>
      </trkpt>
      <trkpt lat="45.03511" lon="5.56634">
        <ele>1560.36</ele>
        <time>2010-02-10T09:34:21Z</time>
      </trkpt>
      <trkpt lat="45.03501" lon="5.5664">
        <ele>1564.2</ele>
        <time>2010-02-10T09:34:24Z</time>
      </trkpt>
      <trkpt lat="45.03491" lon="5.56647">
        <ele>1568.53</ele>
        <time>2010-02-10T09:34:27Z</time>
      </trkpt>
      <trkpt lat="45.03481" lon="5.56654">
        <ele>1571.89</ele>
        <time>2010-02-10T09:34:30Z</time>
      </trkpt>
      <trkpt lat="45.03474" lon="5.56658">
        <ele>1575.26</ele>
        <time>2010-02-10T09:34:32Z</time>
      </trkpt>
      <trkpt lat="45.03464" lon="5.56665">
        <ele>1579.1</ele>
        <time>2010-02-10T09:34:35Z</time>
      </trkpt>
      <trkpt lat="45.03458" lon="5.56669">
        <ele>1581.99</ele>
        <time>2010-02-10T09:34:37Z</time>
      </trkpt>
      <trkpt lat="45.03451" lon="5.56674">
        <ele>1585.83</ele>
        <time>2010-02-10T09:34:39Z</time>
      </trkpt>
      <trkpt lat="45.03442" lon="5.5668">
        <ele>1589.2</ele>
        <time>2010-02-10T09:34:42Z</time>
      </trkpt>
      <trkpt lat="45.03435" lon="5.56684">
        <ele>1593.52</ele>
        <time>2010-02-10T09:34:44Z</time>
      </trkpt>
      <trkpt lat="45.03429" lon="5.56689">
        <ele>1596.41</ele>
        <time>2010-02-10T09:34:46Z</time>
      </trkpt>
      <trkpt lat="45.03419" lon="5.56696">
        <ele>1601.21</ele>
        <time>2010-02-10T09:34:49Z</time>
      </trkpt>
      <trkpt lat="45.03413" lon="5.567">
        <ele>1604.58</ele>
        <time>2010-02-10T09:34:51Z</time>
      </trkpt>
      <trkpt lat="45.03401" lon="5.56709">
        <ele>1609.38</ele>
        <time>2010-02-10T09:34:55Z</time>
      </trkpt>
      <trkpt lat="45.03398" lon="5.56711">
        <ele>1609.38</ele>
        <time>2010-02-10T09:34:56Z</time>
      </trkpt>
      <trkpt lat="45.03385" lon="5.56721">
        <ele>1613.23</ele>
        <time>2010-02-10T09:35:00Z</time>
      </trkpt>
      <trkpt lat="45.03372" lon="5.5673">
        <ele>1617.07</ele>
        <time>2010-02-10T09:35:04Z</time>
      </trkpt>
      <trkpt lat="45.03362" lon="5.56737">
        <ele>1620.44</ele>
        <time>2010-02-10T09:35:07Z</time>
      </trkpt>
      <trkpt lat="45.03353" lon="5.56744">
        <ele>1623.32</ele>
        <time>2010-02-10T09:35:10Z</time>
      </trkpt>
      <trkpt lat="45.03346" lon="5.56749">
        <ele>1626.69</ele>
        <time>2010-02-10T09:35:12Z</time>
      </trkpt>
      <trkpt lat="45.03337" lon="5.56755">
        <ele>1630.53</ele>
        <time>2010-02-10T09:35:15Z</time>
      </trkpt>
      <trkpt lat="45.03327" lon="5.56762">
        <ele>1634.86</ele>
        <time>2010-02-10T09:35:18Z</time>
      </trkpt>
      <trkpt lat="45.03317" lon="5.56769">
        <ele>1638.7</ele>
        <time>2010-02-10T09:35:21Z</time>
      </trkpt>
      <trkpt lat="45.03307" lon="5.56776">
        <ele>1642.55</ele>
        <time>2010-02-10T09:35:24Z</time>
      </trkpt>
      <trkpt lat="45.03301" lon="5.5678">
        <ele>1645.91</ele>
        <time>2010-02-10T09:35:26Z</time>
      </trkpt>
      <trkpt lat="45.03293" lon="5.56787">
        <ele>1652.16</ele>
        <time>2010-02-10T09:35:29Z</time>
      </trkpt>
      <trkpt lat="45.03289" lon="5.56789">
        <ele>1650.24</ele>
        <time>2010-02-10T09:35:30Z</time>
      </trkpt>
      <trkpt lat="45.03286" lon="5.56791">
        <ele>1654.09</ele>
        <time>2010-02-10T09:35:31Z</time>
      </trkpt>
      <trkpt lat="45.03273" lon="5.56801">
        <ele>1654.09</ele>
        <time>2010-02-10T09:35:35Z</time>
      </trkpt>
      <trkpt lat="45.03264" lon="5.56808">
        <ele>1655.53</ele>
        <time>2010-02-10T09:35:38Z</time>
      </trkpt>
      <trkpt lat="45.03258" lon="5.56813">
        <ele>1658.89</ele>
        <time>2010-02-10T09:35:40Z</time>
      </trkpt>
      <trkpt lat="45.03248" lon="5.56819">
        <ele>1661.78</ele>
        <time>2010-02-10T09:35:43Z</time>
      </trkpt>
      <trkpt lat="45.03238" lon="5.56826">
        <ele>1665.62</ele>
        <time>2010-02-10T09:35:46Z</time>
      </trkpt>
      <trkpt lat="45.03225" lon="5.56836">
        <ele>1669.47</ele>
        <time>2010-02-10T09:35:50Z</time>
      </trkpt>
      <trkpt lat="45.03215" lon="5.56842">
        <ele>1673.31</ele>
        <time>2010-02-10T09:35:53Z</time>
      </trkpt>
      <trkpt lat="45.03202" lon="5.56852">
        <ele>1677.64</ele>
        <time>2010-02-10T09:35:57Z</time>
      </trkpt>
      <trkpt lat="45.03193" lon="5.56859">
        <ele>1681.96</ele>
        <time>2010-02-10T09:36:00Z</time>
      </trkpt>
      <trkpt lat="45.0318" lon="5.56868">
        <ele>1687.73</ele>
        <time>2010-02-10T09:36:04Z</time>
      </trkpt>
      <trkpt lat="45.03177" lon="5.5687">
        <ele>1686.29</ele>
        <time>2010-02-10T09:36:05Z</time>
      </trkpt>
      <trkpt lat="45.0317" lon="5.56875">
        <ele>1689.17</ele>
        <time>2010-02-10T09:36:07Z</time>
      </trkpt>
      <trkpt lat="45.03154" lon="5.56886">
        <ele>1693.98</ele>
        <time>2010-02-10T09:36:12Z</time>
      </trkpt>
      <trkpt lat="45.03138" lon="5.56898">
        <ele>1697.83</ele>
        <time>2010-02-10T09:36:17Z</time>
      </trkpt>
      <trkpt lat="45.03128" lon="5.56905">
        <ele>1701.19</ele>
        <time>2010-02-10T09:36:20Z</time>
      </trkpt>
      <trkpt lat="45.03114" lon="5.56914">
        <ele>1705.04</ele>
        <time>2010-02-10T09:36:24Z</time>
      </trkpt>
      <trkpt lat="45.03101" lon="5.56924">
        <ele>1709.36</ele>
        <time>2010-02-10T09:36:28Z</time>
      </trkpt>
      <trkpt lat="45.03092" lon="5.5693">
        <ele>1713.21</ele>
        <time>2010-02-10T09:36:31Z</time>
      </trkpt>
      <trkpt lat="45.03081" lon="5.56937">
        <ele>1717.53</ele>
        <time>2010-02-10T09:36:34Z</time>
      </trkpt>
      <trkpt lat="45.03078" lon="5.56939">
        <ele>1717.53</ele>
        <time>2010-02-10T09:36:35Z</time>
      </trkpt>
      <trkpt lat="45.03071" lon="5.56944">
        <ele>1721.38</ele>
        <time>2010-02-10T09:36:37Z</time>
      </trkpt>
      <trkpt lat="45.03065" lon="5.56948">
        <ele>1722.34</ele>
        <time>2010-02-10T09:36:39Z</time>
      </trkpt>
      <trkpt lat="45.03055" lon="5.56955">
        <ele>1727.63</ele>
        <time>2010-02-10T09:36:42Z</time>
      </trkpt>
      <trkpt lat="45.03046" lon="5.56962">
        <ele>1730.99</ele>
        <time>2010-02-10T09:36:45Z</time>
      </trkpt>
      <trkpt lat="45.03032" lon="5.56971">
        <ele>1734.36</ele>
        <time>2010-02-10T09:36:49Z</time>
      </trkpt>
      <trkpt lat="45.03029" lon="5.56973">
        <ele>1732.43</ele>
        <time>2010-02-10T09:36:50Z</time>
      </trkpt>
      <trkpt lat="45.0302" lon="5.56979">
        <ele>1730.99</ele>
        <time>2010-02-10T09:36:53Z</time>
      </trkpt>
      <trkpt lat="45.03017" lon="5.56981">
        <ele>1731.95</ele>
        <time>2010-02-10T09:37:03Z</time>
      </trkpt>
      <trkpt lat="45.03011" lon="5.56978">
        <ele>1732.43</ele>
        <time>2010-02-10T09:37:14Z</time>
      </trkpt>
      <trkpt lat="45.02957" lon="5.57023">
        <ele>1732.43</ele>
        <time>2010-02-10T09:38:18Z</time>
      </trkpt>
      <trkpt lat="45.02974" lon="5.57009">
        <ele>1733.39</ele>
        <time>2010-02-10T09:38:39Z</time>
      </trkpt>
      <trkpt lat="45.02979" lon="5.57006">
        <ele>1731.95</ele>
        <time>2010-02-10T09:40:08Z</time>
      </trkpt>
      <trkpt lat="45.0298" lon="5.57006">
        <ele>1732.91</ele>
        <time>2010-02-10T09:40:10Z</time>
      </trkpt>
      <trkpt lat="45.02988" lon="5.56997">
        <ele>1731.47</ele>
        <time>2010-02-10T09:40:23Z</time>
      </trkpt>
      <trkpt lat="45.02977" lon="5.57006">
        <ele>1731.47</ele>
        <time>2010-02-10T09:40:33Z</time>
      </trkpt>
      <trkpt lat="45.02978" lon="5.57006">
        <ele>1732.91</ele>
        <time>2010-02-10T09:40:41Z</time>
      </trkpt>
      <trkpt lat="45.02978" lon="5.57006">
        <ele>1731.47</ele>
        <time>2010-02-10T09:40:43Z</time>
      </trkpt>
      <trkpt lat="45.02979" lon="5.57004">
        <ele>1731.95</ele>
        <time>2010-02-10T09:41:26Z</time>
      </trkpt>
      <trkpt lat="45.02991" lon="5.56994">
        <ele>1730.99</ele>
        <time>2010-02-10T09:41:37Z</time>
      </trkpt>
      <trkpt lat="45.02977" lon="5.57006">
        <ele>1731.95</ele>
        <time>2010-02-10T09:41:53Z</time>
      </trkpt>
      <trkpt lat="45.02978" lon="5.57005">
        <ele>1726.67</ele>
        <time>2010-02-10T09:42:06Z</time>
      </trkpt>
      <trkpt lat="45.02978" lon="5.57005">
        <ele>1729.07</ele>
        <time>2010-02-10T09:42:07Z</time>
      </trkpt>
      <trkpt lat="45.02978" lon="5.57005">
        <ele>1735.32</ele>
        <time>2010-02-10T09:42:08Z</time>
      </trkpt>
      <trkpt lat="45.02978" lon="5.57004">
        <ele>1731.95</ele>
        <time>2010-02-10T09:42:09Z</time>
      </trkpt>
      <trkpt lat="45.02978" lon="5.57004">
        <ele>1730.99</ele>
        <time>2010-02-10T09:42:11Z</time>
      </trkpt>
      <trkpt lat="45.0298" lon="5.57008">
        <ele>1730.99</ele>
        <time>2010-02-10T09:42:40Z</time>
      </trkpt>
      <trkpt lat="45.02982" lon="5.57012">
        <ele>1730.51</ele>
        <time>2010-02-10T09:42:46Z</time>
      </trkpt>
      <trkpt lat="45.02991" lon="5.57029">
        <ele>1728.59</ele>
        <time>2010-02-10T09:42:52Z</time>
      </trkpt>
      <trkpt lat="45.03004" lon="5.57029">
        <ele>1723.78</ele>
        <time>2010-02-10T09:42:55Z</time>
      </trkpt>
      <trkpt lat="45.03009" lon="5.57027">
        <ele>1722.82</ele>
        <time>2010-02-10T09:42:56Z</time>
      </trkpt>
      <trkpt lat="45.03034" lon="5.57013">
        <ele>1717.05</ele>
        <time>2010-02-10T09:43:00Z</time>
      </trkpt>
      <trkpt lat="45.0305" lon="5.56999">
        <ele>1714.17</ele>
        <time>2010-02-10T09:43:03Z</time>
      </trkpt>
      <trkpt lat="45.0307" lon="5.57">
        <ele>1706</ele>
        <time>2010-02-10T09:43:06Z</time>
      </trkpt>
      <trkpt lat="45.03078" lon="5.56999">
        <ele>1702.15</ele>
        <time>2010-02-10T09:43:07Z</time>
      </trkpt>
      <trkpt lat="45.03095" lon="5.5699">
        <ele>1695.9</ele>
        <time>2010-02-10T09:43:09Z</time>
      </trkpt>
      <trkpt lat="45.03113" lon="5.56987">
        <ele>1689.65</ele>
        <time>2010-02-10T09:43:11Z</time>
      </trkpt>
      <trkpt lat="45.03122" lon="5.56987">
        <ele>1684.85</ele>
        <time>2010-02-10T09:43:12Z</time>
      </trkpt>
      <trkpt lat="45.03138" lon="5.56986">
        <ele>1681.48</ele>
        <time>2010-02-10T09:43:14Z</time>
      </trkpt>
      <trkpt lat="45.03146" lon="5.56988">
        <ele>1677.16</ele>
        <time>2010-02-10T09:43:15Z</time>
      </trkpt>
      <trkpt lat="45.03153" lon="5.56989">
        <ele>1673.79</ele>
        <time>2010-02-10T09:43:16Z</time>
      </trkpt>
      <trkpt lat="45.03169" lon="5.56988">
        <ele>1668.99</ele>
        <time>2010-02-10T09:43:18Z</time>
      </trkpt>
      <trkpt lat="45.03176" lon="5.56989">
        <ele>1664.18</ele>
        <time>2010-02-10T09:43:19Z</time>
      </trkpt>
      <trkpt lat="45.03184" lon="5.56992">
        <ele>1660.81</ele>
        <time>2010-02-10T09:43:20Z</time>
      </trkpt>
      <trkpt lat="45.03219" lon="5.57">
        <ele>1643.03</ele>
        <time>2010-02-10T09:43:24Z</time>
      </trkpt>
      <trkpt lat="45.03237" lon="5.57002">
        <ele>1633.9</ele>
        <time>2010-02-10T09:43:26Z</time>
      </trkpt>
      <trkpt lat="45.03253" lon="5.5701">
        <ele>1629.57</ele>
        <time>2010-02-10T09:43:28Z</time>
      </trkpt>
      <trkpt lat="45.03266" lon="5.57026">
        <ele>1624.28</ele>
        <time>2010-02-10T09:43:30Z</time>
      </trkpt>
      <trkpt lat="45.03296" lon="5.57041">
        <ele>1622.84</ele>
        <time>2010-02-10T09:43:35Z</time>
      </trkpt>
      <trkpt lat="45.03316" lon="5.57051">
        <ele>1621.4</ele>
        <time>2010-02-10T09:43:39Z</time>
      </trkpt>
      <trkpt lat="45.03341" lon="5.57056">
        <ele>1618.04</ele>
        <time>2010-02-10T09:43:44Z</time>
      </trkpt>
      <trkpt lat="45.03347" lon="5.57057">
        <ele>1618.04</ele>
        <time>2010-02-10T09:43:45Z</time>
      </trkpt>
      <trkpt lat="45.03368" lon="5.5706">
        <ele>1614.67</ele>
        <time>2010-02-10T09:43:49Z</time>
      </trkpt>
      <trkpt lat="45.03379" lon="5.57061">
        <ele>1613.23</ele>
        <time>2010-02-10T09:43:51Z</time>
      </trkpt>
      <trkpt lat="45.03399" lon="5.57063">
        <ele>1607.94</ele>
        <time>2010-02-10T09:43:54Z</time>
      </trkpt>
      <trkpt lat="45.03415" lon="5.57067">
        <ele>1603.62</ele>
        <time>2010-02-10T09:43:56Z</time>
      </trkpt>
      <trkpt lat="45.03423" lon="5.57068">
        <ele>1602.66</ele>
        <time>2010-02-10T09:43:57Z</time>
      </trkpt>
      <trkpt lat="45.03449" lon="5.57068">
        <ele>1596.41</ele>
        <time>2010-02-10T09:44:00Z</time>
      </trkpt>
      <trkpt lat="45.03466" lon="5.57066">
        <ele>1595.93</ele>
        <time>2010-02-10T09:44:02Z</time>
      </trkpt>
      <trkpt lat="45.03485" lon="5.57065">
        <ele>1591.12</ele>
        <time>2010-02-10T09:44:04Z</time>
      </trkpt>
      <trkpt lat="45.03504" lon="5.57064">
        <ele>1588.24</ele>
        <time>2010-02-10T09:44:06Z</time>
      </trkpt>
      <trkpt lat="45.03523" lon="5.57061">
        <ele>1584.39</ele>
        <time>2010-02-10T09:44:08Z</time>
      </trkpt>
      <trkpt lat="45.03541" lon="5.5706">
        <ele>1581.99</ele>
        <time>2010-02-10T09:44:10Z</time>
      </trkpt>
      <trkpt lat="45.03572" lon="5.57079">
        <ele>1582.47</ele>
        <time>2010-02-10T09:44:15Z</time>
      </trkpt>
      <trkpt lat="45.0359" lon="5.57109">
        <ele>1579.58</ele>
        <time>2010-02-10T09:44:20Z</time>
      </trkpt>
      <trkpt lat="45.03597" lon="5.57125">
        <ele>1577.66</ele>
        <time>2010-02-10T09:44:22Z</time>
      </trkpt>
      <trkpt lat="45.03616" lon="5.57151">
        <ele>1570.93</ele>
        <time>2010-02-10T09:44:26Z</time>
      </trkpt>
      <trkpt lat="45.03623" lon="5.57153">
        <ele>1569.01</ele>
        <time>2010-02-10T09:44:27Z</time>
      </trkpt>
      <trkpt lat="45.03638" lon="5.57158">
        <ele>1565.64</ele>
        <time>2010-02-10T09:44:29Z</time>
      </trkpt>
      <trkpt lat="45.03654" lon="5.5716">
        <ele>1562.28</ele>
        <time>2010-02-10T09:44:31Z</time>
      </trkpt>
      <trkpt lat="45.0368" lon="5.57158">
        <ele>1554.11</ele>
        <time>2010-02-10T09:44:34Z</time>
      </trkpt>
      <trkpt lat="45.0371" lon="5.57156">
        <ele>1543.53</ele>
        <time>2010-02-10T09:44:37Z</time>
      </trkpt>
      <trkpt lat="45.03728" lon="5.57144">
        <ele>1534.88</ele>
        <time>2010-02-10T09:44:39Z</time>
      </trkpt>
      <trkpt lat="45.03736" lon="5.57135">
        <ele>1532.96</ele>
        <time>2010-02-10T09:44:40Z</time>
      </trkpt>
      <trkpt lat="45.03771" lon="5.57104">
        <ele>1526.23</ele>
        <time>2010-02-10T09:44:44Z</time>
      </trkpt>
      <trkpt lat="45.0378" lon="5.57097">
        <ele>1524.31</ele>
        <time>2010-02-10T09:44:45Z</time>
      </trkpt>
      <trkpt lat="45.03818" lon="5.57082">
        <ele>1518.06</ele>
        <time>2010-02-10T09:44:49Z</time>
      </trkpt>
      <trkpt lat="45.03848" lon="5.57065">
        <ele>1518.54</ele>
        <time>2010-02-10T09:44:53Z</time>
      </trkpt>
      <trkpt lat="45.03875" lon="5.5705">
        <ele>1514.69</ele>
        <time>2010-02-10T09:44:57Z</time>
      </trkpt>
      <trkpt lat="45.03893" lon="5.57045">
        <ele>1513.25</ele>
        <time>2010-02-10T09:45:00Z</time>
      </trkpt>
      <trkpt lat="45.0391" lon="5.57056">
        <ele>1512.77</ele>
        <time>2010-02-10T09:45:06Z</time>
      </trkpt>
      <trkpt lat="45.03906" lon="5.57062">
        <ele>1512.29</ele>
        <time>2010-02-10T09:45:37Z</time>
      </trkpt>
      <trkpt lat="45.03906" lon="5.57062">
        <ele>1511.81</ele>
        <time>2010-02-10T09:45:46Z</time>
      </trkpt>
      <trkpt lat="45.03898" lon="5.57064">
        <ele>1512.29</ele>
        <time>2010-02-10T09:45:50Z</time>
      </trkpt>
      <trkpt lat="45.03871" lon="5.57064">
        <ele>1514.21</ele>
        <time>2010-02-10T09:45:58Z</time>
      </trkpt>
      <trkpt lat="45.03863" lon="5.57064">
        <ele>1518.06</ele>
        <time>2010-02-10T09:46:00Z</time>
      </trkpt>
      <trkpt lat="45.03853" lon="5.57065">
        <ele>1521.42</ele>
        <time>2010-02-10T09:46:03Z</time>
      </trkpt>
      <trkpt lat="45.03834" lon="5.57063">
        <ele>1524.79</ele>
        <time>2010-02-10T09:46:07Z</time>
      </trkpt>
      <trkpt lat="45.0383" lon="5.57062">
        <ele>1524.79</ele>
        <time>2010-02-10T09:46:08Z</time>
      </trkpt>
      <trkpt lat="45.03819" lon="5.57063">
        <ele>1527.67</ele>
        <time>2010-02-10T09:46:11Z</time>
      </trkpt>
      <trkpt lat="45.03812" lon="5.57062">
        <ele>1529.11</ele>
        <time>2010-02-10T09:46:13Z</time>
      </trkpt>
      <trkpt lat="45.03798" lon="5.57064">
        <ele>1533.44</ele>
        <time>2010-02-10T09:46:17Z</time>
      </trkpt>
      <trkpt lat="45.03783" lon="5.57061">
        <ele>1536.8</ele>
        <time>2010-02-10T09:46:21Z</time>
      </trkpt>
      <trkpt lat="45.03769" lon="5.57062">
        <ele>1540.17</ele>
        <time>2010-02-10T09:46:25Z</time>
      </trkpt>
      <trkpt lat="45.03763" lon="5.57064">
        <ele>1541.13</ele>
        <time>2010-02-10T09:46:27Z</time>
      </trkpt>
      <trkpt lat="45.03745" lon="5.57062">
        <ele>1544.5</ele>
        <time>2010-02-10T09:46:32Z</time>
      </trkpt>
      <trkpt lat="45.03725" lon="5.57063">
        <ele>1547.86</ele>
        <time>2010-02-10T09:46:37Z</time>
      </trkpt>
      <trkpt lat="45.03714" lon="5.57063">
        <ele>1551.22</ele>
        <time>2010-02-10T09:46:40Z</time>
      </trkpt>
      <trkpt lat="45.03703" lon="5.57065">
        <ele>1554.11</ele>
        <time>2010-02-10T09:46:44Z</time>
      </trkpt>
      <trkpt lat="45.03694" lon="5.57066">
        <ele>1558.43</ele>
        <time>2010-02-10T09:46:47Z</time>
      </trkpt>
      <trkpt lat="45.0368" lon="5.57065">
        <ele>1562.28</ele>
        <time>2010-02-10T09:46:51Z</time>
      </trkpt>
      <trkpt lat="45.03668" lon="5.57067">
        <ele>1566.12</ele>
        <time>2010-02-10T09:46:55Z</time>
      </trkpt>
      <trkpt lat="45.03651" lon="5.57066">
        <ele>1569.97</ele>
        <time>2010-02-10T09:47:00Z</time>
      </trkpt>
      <trkpt lat="45.03642" lon="5.57064">
        <ele>1570.93</ele>
        <time>2010-02-10T09:47:02Z</time>
      </trkpt>
      <trkpt lat="45.03625" lon="5.57063">
        <ele>1575.26</ele>
        <time>2010-02-10T09:47:07Z</time>
      </trkpt>
      <trkpt lat="45.03621" lon="5.57064">
        <ele>1575.74</ele>
        <time>2010-02-10T09:47:08Z</time>
      </trkpt>
      <trkpt lat="45.03609" lon="5.57064">
        <ele>1578.62</ele>
        <time>2010-02-10T09:47:11Z</time>
      </trkpt>
      <trkpt lat="45.03594" lon="5.57066">
        <ele>1581.99</ele>
        <time>2010-02-10T09:47:15Z</time>
      </trkpt>
      <trkpt lat="45.03585" lon="5.57065">
        <ele>1585.35</ele>
        <time>2010-02-10T09:47:18Z</time>
      </trkpt>
      <trkpt lat="45.03578" lon="5.57065">
        <ele>1591.6</ele>
        <time>2010-02-10T09:47:20Z</time>
      </trkpt>
      <trkpt lat="45.03574" lon="5.57065">
        <ele>1587.75</ele>
        <time>2010-02-10T09:47:21Z</time>
      </trkpt>
      <trkpt lat="45.03552" lon="5.57064">
        <ele>1589.68</ele>
        <time>2010-02-10T09:47:27Z</time>
      </trkpt>
      <trkpt lat="45.03543" lon="5.57066">
        <ele>1591.12</ele>
        <time>2010-02-10T09:47:30Z</time>
      </trkpt>
      <trkpt lat="45.03532" lon="5.57066">
        <ele>1592.56</ele>
        <time>2010-02-10T09:47:33Z</time>
      </trkpt>
      <trkpt lat="45.03511" lon="5.57067">
        <ele>1595.93</ele>
        <time>2010-02-10T09:47:38Z</time>
      </trkpt>
      <trkpt lat="45.03506" lon="5.57066">
        <ele>1597.85</ele>
        <time>2010-02-10T09:47:41Z</time>
      </trkpt>
      <trkpt lat="45.03492" lon="5.57069">
        <ele>1600.73</ele>
        <time>2010-02-10T09:47:44Z</time>
      </trkpt>
      <trkpt lat="45.03484" lon="5.57065">
        <ele>1601.69</ele>
        <time>2010-02-10T09:47:46Z</time>
      </trkpt>
      <trkpt lat="45.03464" lon="5.57065">
        <ele>1605.06</ele>
        <time>2010-02-10T09:47:52Z</time>
      </trkpt>
      <trkpt lat="45.03439" lon="5.57065">
        <ele>1608.42</ele>
        <time>2010-02-10T09:47:59Z</time>
      </trkpt>
      <trkpt lat="45.03424" lon="5.57065">
        <ele>1611.79</ele>
        <time>2010-02-10T09:48:03Z</time>
      </trkpt>
      <trkpt lat="45.03408" lon="5.57067">
        <ele>1615.15</ele>
        <time>2010-02-10T09:48:08Z</time>
      </trkpt>
      <trkpt lat="45.03394" lon="5.57066">
        <ele>1619</ele>
        <time>2010-02-10T09:48:12Z</time>
      </trkpt>
      <trkpt lat="45.03383" lon="5.57067">
        <ele>1620.92</ele>
        <time>2010-02-10T09:48:15Z</time>
      </trkpt>
      <trkpt lat="45.03366" lon="5.57067">
        <ele>1622.84</ele>
        <time>2010-02-10T09:48:20Z</time>
      </trkpt>
      <trkpt lat="45.03351" lon="5.57067">
        <ele>1625.25</ele>
        <time>2010-02-10T09:48:24Z</time>
      </trkpt>
      <trkpt lat="45.03333" lon="5.57069">
        <ele>1628.61</ele>
        <time>2010-02-10T09:48:29Z</time>
      </trkpt>
      <trkpt lat="45.03315" lon="5.57066">
        <ele>1631.98</ele>
        <time>2010-02-10T09:48:34Z</time>
      </trkpt>
      <trkpt lat="45.03308" lon="5.57066">
        <ele>1632.94</ele>
        <time>2010-02-10T09:48:36Z</time>
      </trkpt>
      <trkpt lat="45.03295" lon="5.57067">
        <ele>1636.3</ele>
        <time>2010-02-10T09:48:39Z</time>
      </trkpt>
      <trkpt lat="45.03287" lon="5.57067">
        <ele>1638.7</ele>
        <time>2010-02-10T09:48:42Z</time>
      </trkpt>
      <trkpt lat="45.03264" lon="5.57066">
        <ele>1642.07</ele>
        <time>2010-02-10T09:48:48Z</time>
      </trkpt>
      <trkpt lat="45.03252" lon="5.57067">
        <ele>1644.47</ele>
        <time>2010-02-10T09:48:52Z</time>
      </trkpt>
      <trkpt lat="45.03233" lon="5.57067">
        <ele>1646.88</ele>
        <time>2010-02-10T09:48:57Z</time>
      </trkpt>
      <trkpt lat="45.03217" lon="5.57067">
        <ele>1650.24</ele>
        <time>2010-02-10T09:49:01Z</time>
      </trkpt>
      <trkpt lat="45.03207" lon="5.57067">
        <ele>1653.12</ele>
        <time>2010-02-10T09:49:04Z</time>
      </trkpt>
      <trkpt lat="45.03193" lon="5.57066">
        <ele>1656.97</ele>
        <time>2010-02-10T09:49:08Z</time>
      </trkpt>
      <trkpt lat="45.03179" lon="5.57066">
        <ele>1660.33</ele>
        <time>2010-02-10T09:49:12Z</time>
      </trkpt>
      <trkpt lat="45.03169" lon="5.57065">
        <ele>1663.7</ele>
        <time>2010-02-10T09:49:15Z</time>
      </trkpt>
      <trkpt lat="45.03159" lon="5.57065">
        <ele>1667.06</ele>
        <time>2010-02-10T09:49:18Z</time>
      </trkpt>
      <trkpt lat="45.03143" lon="5.57065">
        <ele>1670.91</ele>
        <time>2010-02-10T09:49:22Z</time>
      </trkpt>
      <trkpt lat="45.03136" lon="5.57063">
        <ele>1674.75</ele>
        <time>2010-02-10T09:49:25Z</time>
      </trkpt>
      <trkpt lat="45.03125" lon="5.57066">
        <ele>1679.56</ele>
        <time>2010-02-10T09:49:29Z</time>
      </trkpt>
      <trkpt lat="45.03112" lon="5.57066">
        <ele>1682.93</ele>
        <time>2010-02-10T09:49:32Z</time>
      </trkpt>
      <trkpt lat="45.031" lon="5.57065">
        <ele>1687.25</ele>
        <time>2010-02-10T09:49:35Z</time>
      </trkpt>
      <trkpt lat="45.0309" lon="5.57066">
        <ele>1691.1</ele>
        <time>2010-02-10T09:49:38Z</time>
      </trkpt>
      <trkpt lat="45.03083" lon="5.57067">
        <ele>1694.94</ele>
        <time>2010-02-10T09:49:40Z</time>
      </trkpt>
      <trkpt lat="45.03068" lon="5.57066">
        <ele>1697.83</ele>
        <time>2010-02-10T09:49:44Z</time>
      </trkpt>
      <trkpt lat="45.03055" lon="5.57066">
        <ele>1701.19</ele>
        <time>2010-02-10T09:49:48Z</time>
      </trkpt>
      <trkpt lat="45.03041" lon="5.57066">
        <ele>1705.04</ele>
        <time>2010-02-10T09:49:52Z</time>
      </trkpt>
      <trkpt lat="45.0303" lon="5.57066">
        <ele>1707.92</ele>
        <time>2010-02-10T09:49:55Z</time>
      </trkpt>
      <trkpt lat="45.0302" lon="5.57066">
        <ele>1711.76</ele>
        <time>2010-02-10T09:49:58Z</time>
      </trkpt>
      <trkpt lat="45.03007" lon="5.57066">
        <ele>1716.09</ele>
        <time>2010-02-10T09:50:02Z</time>
      </trkpt>
      <trkpt lat="45.02997" lon="5.57066">
        <ele>1719.46</ele>
        <time>2010-02-10T09:50:05Z</time>
      </trkpt>
      <trkpt lat="45.02988" lon="5.57065">
        <ele>1723.3</ele>
        <time>2010-02-10T09:50:08Z</time>
      </trkpt>
      <trkpt lat="45.02984" lon="5.57065">
        <ele>1723.3</ele>
        <time>2010-02-10T09:50:09Z</time>
      </trkpt>
      <trkpt lat="45.02976" lon="5.57066">
        <ele>1725.22</ele>
        <time>2010-02-10T09:50:11Z</time>
      </trkpt>
      <trkpt lat="45.02966" lon="5.57066">
        <ele>1728.11</ele>
        <time>2010-02-10T09:50:14Z</time>
      </trkpt>
      <trkpt lat="45.02953" lon="5.57063">
        <ele>1731.47</ele>
        <time>2010-02-10T09:50:18Z</time>
      </trkpt>
      <trkpt lat="45.02938" lon="5.57065">
        <ele>1734.84</ele>
        <time>2010-02-10T09:50:22Z</time>
      </trkpt>
      <trkpt lat="45.0293" lon="5.57065">
        <ele>1738.2</ele>
        <time>2010-02-10T09:50:24Z</time>
      </trkpt>
      <trkpt lat="45.02921" lon="5.57063">
        <ele>1741.57</ele>
        <time>2010-02-10T09:50:27Z</time>
      </trkpt>
      <trkpt lat="45.02908" lon="5.57065">
        <ele>1746.37</ele>
        <time>2010-02-10T09:50:31Z</time>
      </trkpt>
      <trkpt lat="45.02904" lon="5.57065">
        <ele>1746.37</ele>
        <time>2010-02-10T09:50:32Z</time>
      </trkpt>
      <trkpt lat="45.02892" lon="5.57066">
        <ele>1750.22</ele>
        <time>2010-02-10T09:50:35Z</time>
      </trkpt>
      <trkpt lat="45.02884" lon="5.57065">
        <ele>1754.06</ele>
        <time>2010-02-10T09:50:38Z</time>
      </trkpt>
      <trkpt lat="45.02875" lon="5.57065">
        <ele>1757.43</ele>
        <time>2010-02-10T09:50:41Z</time>
      </trkpt>
      <trkpt lat="45.02859" lon="5.57067">
        <ele>1759.83</ele>
        <time>2010-02-10T09:50:45Z</time>
      </trkpt>
      <trkpt lat="45.02843" lon="5.57065">
        <ele>1764.16</ele>
        <time>2010-02-10T09:50:49Z</time>
      </trkpt>
      <trkpt lat="45.02837" lon="5.57066">
        <ele>1765.6</ele>
        <time>2010-02-10T09:50:51Z</time>
      </trkpt>
      <trkpt lat="45.02825" lon="5.57065">
        <ele>1769.92</ele>
        <time>2010-02-10T09:50:55Z</time>
      </trkpt>
      <trkpt lat="45.02812" lon="5.57066">
        <ele>1773.29</ele>
        <time>2010-02-10T09:50:58Z</time>
      </trkpt>
      <trkpt lat="45.02802" lon="5.57067">
        <ele>1776.65</ele>
        <time>2010-02-10T09:51:01Z</time>
      </trkpt>
      <trkpt lat="45.02795" lon="5.57066">
        <ele>1780.5</ele>
        <time>2010-02-10T09:51:04Z</time>
      </trkpt>
      <trkpt lat="45.02783" lon="5.57067">
        <ele>1783.38</ele>
        <time>2010-02-10T09:51:07Z</time>
      </trkpt>
      <trkpt lat="45.02773" lon="5.57069">
        <ele>1788.19</ele>
        <time>2010-02-10T09:51:10Z</time>
      </trkpt>
      <trkpt lat="45.02763" lon="5.57067">
        <ele>1791.07</ele>
        <time>2010-02-10T09:51:13Z</time>
      </trkpt>
      <trkpt lat="45.02747" lon="5.57067">
        <ele>1794.92</ele>
        <time>2010-02-10T09:51:19Z</time>
      </trkpt>
      <trkpt lat="45.02742" lon="5.57067">
        <ele>1796.36</ele>
        <time>2010-02-10T09:51:23Z</time>
      </trkpt>
      <trkpt lat="45.0273" lon="5.57069">
        <ele>1799.73</ele>
        <time>2010-02-10T09:51:34Z</time>
      </trkpt>
      <trkpt lat="45.02722" lon="5.57067">
        <ele>1801.65</ele>
        <time>2010-02-10T09:51:38Z</time>
      </trkpt>
      <trkpt lat="45.02717" lon="5.57065">
        <ele>1803.57</ele>
        <time>2010-02-10T09:51:41Z</time>
      </trkpt>
      <trkpt lat="45.02706" lon="5.57068">
        <ele>1806.94</ele>
        <time>2010-02-10T09:51:45Z</time>
      </trkpt>
      <trkpt lat="45.02696" lon="5.57068">
        <ele>1810.3</ele>
        <time>2010-02-10T09:51:48Z</time>
      </trkpt>
      <trkpt lat="45.02688" lon="5.57069">
        <ele>1814.15</ele>
        <time>2010-02-10T09:51:51Z</time>
      </trkpt>
      <trkpt lat="45.02678" lon="5.57068">
        <ele>1817.51</ele>
        <time>2010-02-10T09:51:54Z</time>
      </trkpt>
      <trkpt lat="45.02667" lon="5.57068">
        <ele>1821.35</ele>
        <time>2010-02-10T09:51:57Z</time>
      </trkpt>
      <trkpt lat="45.02656" lon="5.57069">
        <ele>1825.68</ele>
        <time>2010-02-10T09:52:00Z</time>
      </trkpt>
      <trkpt lat="45.02648" lon="5.57068">
        <ele>1829.53</ele>
        <time>2010-02-10T09:52:03Z</time>
      </trkpt>
      <trkpt lat="45.02633" lon="5.57069">
        <ele>1832.89</ele>
        <time>2010-02-10T09:52:07Z</time>
      </trkpt>
      <trkpt lat="45.02622" lon="5.57067">
        <ele>1836.26</ele>
        <time>2010-02-10T09:52:10Z</time>
      </trkpt>
      <trkpt lat="45.02611" lon="5.57069">
        <ele>1840.1</ele>
        <time>2010-02-10T09:52:13Z</time>
      </trkpt>
      <trkpt lat="45.02602" lon="5.57069">
        <ele>1843.47</ele>
        <time>2010-02-10T09:52:16Z</time>
      </trkpt>
      <trkpt lat="45.02592" lon="5.57069">
        <ele>1846.35</ele>
        <time>2010-02-10T09:52:19Z</time>
      </trkpt>
      <trkpt lat="45.02581" lon="5.57068">
        <ele>1850.68</ele>
        <time>2010-02-10T09:52:22Z</time>
      </trkpt>
      <trkpt lat="45.02568" lon="5.57068">
        <ele>1855</ele>
        <time>2010-02-10T09:52:26Z</time>
      </trkpt>
      <trkpt lat="45.02558" lon="5.57069">
        <ele>1859.33</ele>
        <time>2010-02-10T09:52:29Z</time>
      </trkpt>
      <trkpt lat="45.02546" lon="5.57067">
        <ele>1863.17</ele>
        <time>2010-02-10T09:52:32Z</time>
      </trkpt>
      <trkpt lat="45.0254" lon="5.57066">
        <ele>1865.58</ele>
        <time>2010-02-10T09:52:34Z</time>
      </trkpt>
      <trkpt lat="45.02528" lon="5.57069">
        <ele>1868.46</ele>
        <time>2010-02-10T09:52:37Z</time>
      </trkpt>
      <trkpt lat="45.02516" lon="5.57068">
        <ele>1872.3</ele>
        <time>2010-02-10T09:52:41Z</time>
      </trkpt>
      <trkpt lat="45.02506" lon="5.57067">
        <ele>1875.67</ele>
        <time>2010-02-10T09:52:44Z</time>
      </trkpt>
      <trkpt lat="45.02491" lon="5.57066">
        <ele>1878.07</ele>
        <time>2010-02-10T09:52:48Z</time>
      </trkpt>
      <trkpt lat="45.02484" lon="5.57067">
        <ele>1882.4</ele>
        <time>2010-02-10T09:52:50Z</time>
      </trkpt>
      <trkpt lat="45.02471" lon="5.57068">
        <ele>1886.24</ele>
        <time>2010-02-10T09:52:54Z</time>
      </trkpt>
      <trkpt lat="45.02462" lon="5.57068">
        <ele>1890.09</ele>
        <time>2010-02-10T09:52:57Z</time>
      </trkpt>
      <trkpt lat="45.02452" lon="5.57071">
        <ele>1892.01</ele>
        <time>2010-02-10T09:53:00Z</time>
      </trkpt>
      <trkpt lat="45.02436" lon="5.57068">
        <ele>1895.38</ele>
        <time>2010-02-10T09:53:04Z</time>
      </trkpt>
      <trkpt lat="45.02422" lon="5.5707">
        <ele>1898.26</ele>
        <time>2010-02-10T09:53:08Z</time>
      </trkpt>
      <trkpt lat="45.02407" lon="5.57069">
        <ele>1902.11</ele>
        <time>2010-02-10T09:53:12Z</time>
      </trkpt>
      <trkpt lat="45.02392" lon="5.57067">
        <ele>1906.43</ele>
        <time>2010-02-10T09:53:16Z</time>
      </trkpt>
      <trkpt lat="45.02382" lon="5.57068">
        <ele>1908.83</ele>
        <time>2010-02-10T09:53:19Z</time>
      </trkpt>
      <trkpt lat="45.02371" lon="5.57068">
        <ele>1912.2</ele>
        <time>2010-02-10T09:53:22Z</time>
      </trkpt>
      <trkpt lat="45.02361" lon="5.57067">
        <ele>1916.04</ele>
        <time>2010-02-10T09:53:25Z</time>
      </trkpt>
      <trkpt lat="45.02351" lon="5.57067">
        <ele>1919.89</ele>
        <time>2010-02-10T09:53:28Z</time>
      </trkpt>
      <trkpt lat="45.02337" lon="5.5707">
        <ele>1923.74</ele>
        <time>2010-02-10T09:53:32Z</time>
      </trkpt>
      <trkpt lat="45.02318" lon="5.57068">
        <ele>1927.58</ele>
        <time>2010-02-10T09:53:37Z</time>
      </trkpt>
      <trkpt lat="45.02298" lon="5.57069">
        <ele>1931.43</ele>
        <time>2010-02-10T09:53:43Z</time>
      </trkpt>
      <trkpt lat="45.02279" lon="5.57068">
        <ele>1934.79</ele>
        <time>2010-02-10T09:53:48Z</time>
      </trkpt>
      <trkpt lat="45.02272" lon="5.57069">
        <ele>1936.71</ele>
        <time>2010-02-10T09:53:51Z</time>
      </trkpt>
      <trkpt lat="45.02245" lon="5.57066">
        <ele>1940.08</ele>
        <time>2010-02-10T09:54:00Z</time>
      </trkpt>
      <trkpt lat="45.02248" lon="5.57054">
        <ele>1934.31</ele>
        <time>2010-02-10T09:54:08Z</time>
      </trkpt>
      <trkpt lat="45.02262" lon="5.57054">
        <ele>1935.27</ele>
        <time>2010-02-10T09:54:12Z</time>
      </trkpt>
      <trkpt lat="45.02271" lon="5.57054">
        <ele>1933.35</ele>
        <time>2010-02-10T09:54:24Z</time>
      </trkpt>
      <trkpt lat="45.02279" lon="5.57057">
        <ele>1930.46</ele>
        <time>2010-02-10T09:54:27Z</time>
      </trkpt>
      <trkpt lat="45.02296" lon="5.57048">
        <ele>1928.06</ele>
        <time>2010-02-10T09:54:33Z</time>
      </trkpt>
      <trkpt lat="45.02297" lon="5.57049">
        <ele>1928.54</ele>
        <time>2010-02-10T09:54:46Z</time>
      </trkpt>
      <trkpt lat="45.02301" lon="5.57049">
        <ele>1925.66</ele>
        <time>2010-02-10T09:54:49Z</time>
      </trkpt>
      <trkpt lat="45.0231" lon="5.57056">
        <ele>1920.85</ele>
        <time>2010-02-10T09:54:53Z</time>
      </trkpt>
      <trkpt lat="45.02313" lon="5.57054">
        <ele>1918.45</ele>
        <time>2010-02-10T09:54:54Z</time>
      </trkpt>
      <trkpt lat="45.02331" lon="5.57047">
        <ele>1911.24</ele>
        <time>2010-02-10T09:54:57Z</time>
      </trkpt>
      <trkpt lat="45.02339" lon="5.57045">
        <ele>1907.87</ele>
        <time>2010-02-10T09:54:58Z</time>
      </trkpt>
      <trkpt lat="45.02348" lon="5.57043">
        <ele>1905.95</ele>
        <time>2010-02-10T09:54:59Z</time>
      </trkpt>
      <trkpt lat="45.02377" lon="5.57036">
        <ele>1897.3</ele>
        <time>2010-02-10T09:55:02Z</time>
      </trkpt>
      <trkpt lat="45.02386" lon="5.57034">
        <ele>1892.97</ele>
        <time>2010-02-10T09:55:03Z</time>
      </trkpt>
      <trkpt lat="45.02404" lon="5.57023">
        <ele>1894.42</ele>
        <time>2010-02-10T09:55:07Z</time>
      </trkpt>
      <trkpt lat="45.02397" lon="5.57022">
        <ele>1893.93</ele>
        <time>2010-02-10T09:55:21Z</time>
      </trkpt>
      <trkpt lat="45.02397" lon="5.57022">
        <ele>1893.93</ele>
        <time>2010-02-10T09:55:40Z</time>
      </trkpt>
      <trkpt lat="45.02407" lon="5.57019">
        <ele>1885.28</ele>
        <time>2010-02-10T09:55:43Z</time>
      </trkpt>
      <trkpt lat="45.02413" lon="5.57014">
        <ele>1881.92</ele>
        <time>2010-02-10T09:55:44Z</time>
      </trkpt>
      <trkpt lat="45.0242" lon="5.57008">
        <ele>1878.55</ele>
        <time>2010-02-10T09:55:45Z</time>
      </trkpt>
      <trkpt lat="45.02427" lon="5.56998">
        <ele>1874.23</ele>
        <time>2010-02-10T09:55:46Z</time>
      </trkpt>
      <trkpt lat="45.02434" lon="5.56988">
        <ele>1871.34</ele>
        <time>2010-02-10T09:55:47Z</time>
      </trkpt>
      <trkpt lat="45.02442" lon="5.56957">
        <ele>1865.58</ele>
        <time>2010-02-10T09:55:50Z</time>
      </trkpt>
      <trkpt lat="45.02445" lon="5.56946">
        <ele>1862.69</ele>
        <time>2010-02-10T09:55:51Z</time>
      </trkpt>
      <trkpt lat="45.02445" lon="5.56936">
        <ele>1863.17</ele>
        <time>2010-02-10T09:55:52Z</time>
      </trkpt>
      <trkpt lat="45.02439" lon="5.56923">
        <ele>1861.25</ele>
        <time>2010-02-10T09:55:54Z</time>
      </trkpt>
      <trkpt lat="45.02433" lon="5.56918">
        <ele>1857.89</ele>
        <time>2010-02-10T09:55:57Z</time>
      </trkpt>
      <trkpt lat="45.02432" lon="5.56918">
        <ele>1862.21</ele>
        <time>2010-02-10T09:55:58Z</time>
      </trkpt>
      <trkpt lat="45.02433" lon="5.56917">
        <ele>1857.4</ele>
        <time>2010-02-10T09:56:00Z</time>
      </trkpt>
      <trkpt lat="45.02432" lon="5.56918">
        <ele>1859.81</ele>
        <time>2010-02-10T09:56:16Z</time>
      </trkpt>
      <trkpt lat="45.02432" lon="5.56918">
        <ele>1859.33</ele>
        <time>2010-02-10T09:56:30Z</time>
      </trkpt>
      <trkpt lat="45.02432" lon="5.56909">
        <ele>1849.71</ele>
        <time>2010-02-10T09:56:33Z</time>
      </trkpt>
      <trkpt lat="45.02433" lon="5.56905">
        <ele>1846.83</ele>
        <time>2010-02-10T09:56:34Z</time>
      </trkpt>
      <trkpt lat="45.02434" lon="5.56892">
        <ele>1842.02</ele>
        <time>2010-02-10T09:56:36Z</time>
      </trkpt>
      <trkpt lat="45.02442" lon="5.56862">
        <ele>1829.53</ele>
        <time>2010-02-10T09:56:39Z</time>
      </trkpt>
      <trkpt lat="45.02449" lon="5.56857">
        <ele>1825.68</ele>
        <time>2010-02-10T09:56:40Z</time>
      </trkpt>
      <trkpt lat="45.02456" lon="5.56851">
        <ele>1817.99</ele>
        <time>2010-02-10T09:56:41Z</time>
      </trkpt>
      <trkpt lat="45.02464" lon="5.56846">
        <ele>1814.15</ele>
        <time>2010-02-10T09:56:42Z</time>
      </trkpt>
      <trkpt lat="45.02473" lon="5.5684">
        <ele>1810.3</ele>
        <time>2010-02-10T09:56:43Z</time>
      </trkpt>
      <trkpt lat="45.02482" lon="5.56834">
        <ele>1806.94</ele>
        <time>2010-02-10T09:56:44Z</time>
      </trkpt>
      <trkpt lat="45.02512" lon="5.56818">
        <ele>1795.4</ele>
        <time>2010-02-10T09:56:47Z</time>
      </trkpt>
      <trkpt lat="45.0252" lon="5.56811">
        <ele>1790.11</ele>
        <time>2010-02-10T09:56:48Z</time>
      </trkpt>
      <trkpt lat="45.02529" lon="5.56803">
        <ele>1787.23</ele>
        <time>2010-02-10T09:56:49Z</time>
      </trkpt>
      <trkpt lat="45.02549" lon="5.56793">
        <ele>1780.02</ele>
        <time>2010-02-10T09:56:51Z</time>
      </trkpt>
      <trkpt lat="45.0256" lon="5.56792">
        <ele>1776.17</ele>
        <time>2010-02-10T09:56:52Z</time>
      </trkpt>
      <trkpt lat="45.02588" lon="5.56787">
        <ele>1769.44</ele>
        <time>2010-02-10T09:56:56Z</time>
      </trkpt>
      <trkpt lat="45.02594" lon="5.56779">
        <ele>1762.71</ele>
        <time>2010-02-10T09:56:57Z</time>
      </trkpt>
      <trkpt lat="45.02601" lon="5.56772">
        <ele>1764.16</ele>
        <time>2010-02-10T09:56:58Z</time>
      </trkpt>
      <trkpt lat="45.02607" lon="5.56764">
        <ele>1755.99</ele>
        <time>2010-02-10T09:56:59Z</time>
      </trkpt>
      <trkpt lat="45.02623" lon="5.56745">
        <ele>1746.37</ele>
        <time>2010-02-10T09:57:01Z</time>
      </trkpt>
      <trkpt lat="45.02643" lon="5.56727">
        <ele>1735.32</ele>
        <time>2010-02-10T09:57:03Z</time>
      </trkpt>
      <trkpt lat="45.02653" lon="5.56716">
        <ele>1729.07</ele>
        <time>2010-02-10T09:57:04Z</time>
      </trkpt>
      <trkpt lat="45.02674" lon="5.56695">
        <ele>1715.13</ele>
        <time>2010-02-10T09:57:06Z</time>
      </trkpt>
      <trkpt lat="45.02684" lon="5.56685">
        <ele>1711.28</ele>
        <time>2010-02-10T09:57:07Z</time>
      </trkpt>
      <trkpt lat="45.02695" lon="5.56676">
        <ele>1705.52</ele>
        <time>2010-02-10T09:57:08Z</time>
      </trkpt>
      <trkpt lat="45.02727" lon="5.56661">
        <ele>1697.34</ele>
        <time>2010-02-10T09:57:11Z</time>
      </trkpt>
      <trkpt lat="45.02745" lon="5.56646">
        <ele>1693.02</ele>
        <time>2010-02-10T09:57:13Z</time>
      </trkpt>
      <trkpt lat="45.02754" lon="5.56638">
        <ele>1686.77</ele>
        <time>2010-02-10T09:57:14Z</time>
      </trkpt>
      <trkpt lat="45.02772" lon="5.56627">
        <ele>1681</ele>
        <time>2010-02-10T09:57:16Z</time>
      </trkpt>
      <trkpt lat="45.0278" lon="5.56623">
        <ele>1675.72</ele>
        <time>2010-02-10T09:57:17Z</time>
      </trkpt>
      <trkpt lat="45.02798" lon="5.56613">
        <ele>1668.99</ele>
        <time>2010-02-10T09:57:19Z</time>
      </trkpt>
      <trkpt lat="45.02834" lon="5.56584">
        <ele>1654.09</ele>
        <time>2010-02-10T09:57:23Z</time>
      </trkpt>
      <trkpt lat="45.02848" lon="5.56569">
        <ele>1649.76</ele>
        <time>2010-02-10T09:57:25Z</time>
      </trkpt>
      <trkpt lat="45.02859" lon="5.56552">
        <ele>1643.99</ele>
        <time>2010-02-10T09:57:27Z</time>
      </trkpt>
      <trkpt lat="45.02863" lon="5.56541">
        <ele>1640.15</ele>
        <time>2010-02-10T09:57:28Z</time>
      </trkpt>
      <trkpt lat="45.02871" lon="5.56521">
        <ele>1636.3</ele>
        <time>2010-02-10T09:57:30Z</time>
      </trkpt>
      <trkpt lat="45.02876" lon="5.5651">
        <ele>1630.05</ele>
        <time>2010-02-10T09:57:31Z</time>
      </trkpt>
      <trkpt lat="45.02879" lon="5.56499">
        <ele>1626.69</ele>
        <time>2010-02-10T09:57:32Z</time>
      </trkpt>
      <trkpt lat="45.02884" lon="5.56476">
        <ele>1622.84</ele>
        <time>2010-02-10T09:57:34Z</time>
      </trkpt>
      <trkpt lat="45.02887" lon="5.56467">
        <ele>1618.04</ele>
        <time>2010-02-10T09:57:35Z</time>
      </trkpt>
      <trkpt lat="45.0289" lon="5.56458">
        <ele>1616.11</ele>
        <time>2010-02-10T09:57:40Z</time>
      </trkpt>
      <trkpt lat="45.02885" lon="5.56457">
        <ele>1617.07</ele>
        <time>2010-02-10T09:57:56Z</time>
      </trkpt>
      <trkpt lat="45.02883" lon="5.56459">
        <ele>1618.52</ele>
        <time>2010-02-10T09:58:27Z</time>
      </trkpt>
      <trkpt lat="45.02886" lon="5.56451">
        <ele>1613.23</ele>
        <time>2010-02-10T09:58:30Z</time>
      </trkpt>
      <trkpt lat="45.02897" lon="5.56434">
        <ele>1601.21</ele>
        <time>2010-02-10T09:58:32Z</time>
      </trkpt>
      <trkpt lat="45.02906" lon="5.56422">
        <ele>1594.96</ele>
        <time>2010-02-10T09:58:33Z</time>
      </trkpt>
      <trkpt lat="45.02916" lon="5.5641">
        <ele>1589.2</ele>
        <time>2010-02-10T09:58:34Z</time>
      </trkpt>
      <trkpt lat="45.02936" lon="5.56383">
        <ele>1581.51</ele>
        <time>2010-02-10T09:58:36Z</time>
      </trkpt>
      <trkpt lat="45.02943" lon="5.56369">
        <ele>1575.74</ele>
        <time>2010-02-10T09:58:37Z</time>
      </trkpt>
      <trkpt lat="45.02951" lon="5.56353">
        <ele>1568.53</ele>
        <time>2010-02-10T09:58:38Z</time>
      </trkpt>
      <trkpt lat="45.02959" lon="5.56338">
        <ele>1563.24</ele>
        <time>2010-02-10T09:58:39Z</time>
      </trkpt>
      <trkpt lat="45.02967" lon="5.56324">
        <ele>1560.36</ele>
        <time>2010-02-10T09:58:40Z</time>
      </trkpt>
      <trkpt lat="45.02975" lon="5.56313">
        <ele>1556.51</ele>
        <time>2010-02-10T09:58:41Z</time>
      </trkpt>
      <trkpt lat="45.02991" lon="5.56301">
        <ele>1549.3</ele>
        <time>2010-02-10T09:58:43Z</time>
      </trkpt>
      <trkpt lat="45.02999" lon="5.56295">
        <ele>1544.98</ele>
        <time>2010-02-10T09:58:44Z</time>
      </trkpt>
      <trkpt lat="45.03004" lon="5.56289">
        <ele>1537.77</ele>
        <time>2010-02-10T09:58:45Z</time>
      </trkpt>
      <trkpt lat="45.0302" lon="5.56267">
        <ele>1527.67</ele>
        <time>2010-02-10T09:58:48Z</time>
      </trkpt>
      <trkpt lat="45.03024" lon="5.56259">
        <ele>1522.39</ele>
        <time>2010-02-10T09:58:49Z</time>
      </trkpt>
      <trkpt lat="45.03028" lon="5.5625">
        <ele>1515.18</ele>
        <time>2010-02-10T09:58:50Z</time>
      </trkpt>
      <trkpt lat="45.03039" lon="5.56218">
        <ele>1490.66</ele>
        <time>2010-02-10T09:58:53Z</time>
      </trkpt>
      <trkpt lat="45.03042" lon="5.56203">
        <ele>1484.89</ele>
        <time>2010-02-10T09:58:54Z</time>
      </trkpt>
      <trkpt lat="45.03054" lon="5.56168">
        <ele>1476.72</ele>
        <time>2010-02-10T09:58:56Z</time>
      </trkpt>
      <trkpt lat="45.0306" lon="5.56152">
        <ele>1469.51</ele>
        <time>2010-02-10T09:58:57Z</time>
      </trkpt>
      <trkpt lat="45.03075" lon="5.56123">
        <ele>1456.05</ele>
        <time>2010-02-10T09:58:59Z</time>
      </trkpt>
      <trkpt lat="45.03083" lon="5.56111">
        <ele>1451.73</ele>
        <time>2010-02-10T09:59:00Z</time>
      </trkpt>
      <trkpt lat="45.03093" lon="5.56103">
        <ele>1446.44</ele>
        <time>2010-02-10T09:59:01Z</time>
      </trkpt>
      <trkpt lat="45.03104" lon="5.56098">
        <ele>1439.71</ele>
        <time>2010-02-10T09:59:02Z</time>
      </trkpt>
      <trkpt lat="45.03118" lon="5.56096">
        <ele>1436.35</ele>
        <time>2010-02-10T09:59:03Z</time>
      </trkpt>
      <trkpt lat="45.03133" lon="5.56096">
        <ele>1432.02</ele>
        <time>2010-02-10T09:59:04Z</time>
      </trkpt>
      <trkpt lat="45.0316" lon="5.56099">
        <ele>1429.62</ele>
        <time>2010-02-10T09:59:06Z</time>
      </trkpt>
      <trkpt lat="45.03172" lon="5.561">
        <ele>1425.77</ele>
        <time>2010-02-10T09:59:07Z</time>
      </trkpt>
      <trkpt lat="45.03198" lon="5.56106">
        <ele>1416.16</ele>
        <time>2010-02-10T09:59:09Z</time>
      </trkpt>
      <trkpt lat="45.03212" lon="5.56111">
        <ele>1413.28</ele>
        <time>2010-02-10T09:59:10Z</time>
      </trkpt>
      <trkpt lat="45.03242" lon="5.56125">
        <ele>1409.43</ele>
        <time>2010-02-10T09:59:12Z</time>
      </trkpt>
      <trkpt lat="45.03266" lon="5.56131">
        <ele>1400.78</ele>
        <time>2010-02-10T09:59:14Z</time>
      </trkpt>
      <trkpt lat="45.03279" lon="5.56131">
        <ele>1395.49</ele>
        <time>2010-02-10T09:59:15Z</time>
      </trkpt>
      <trkpt lat="45.03296" lon="5.56135">
        <ele>1390.68</ele>
        <time>2010-02-10T09:59:16Z</time>
      </trkpt>
      <trkpt lat="45.0334" lon="5.56139">
        <ele>1386.84</ele>
        <time>2010-02-10T09:59:19Z</time>
      </trkpt>
      <trkpt lat="45.0337" lon="5.56132">
        <ele>1380.59</ele>
        <time>2010-02-10T09:59:22Z</time>
      </trkpt>
      <trkpt lat="45.03381" lon="5.56128">
        <ele>1377.23</ele>
        <time>2010-02-10T09:59:23Z</time>
      </trkpt>
      <trkpt lat="45.03393" lon="5.56124">
        <ele>1370.98</ele>
        <time>2010-02-10T09:59:24Z</time>
      </trkpt>
      <trkpt lat="45.03416" lon="5.56114">
        <ele>1362.33</ele>
        <time>2010-02-10T09:59:26Z</time>
      </trkpt>
      <trkpt lat="45.03442" lon="5.56106">
        <ele>1357.52</ele>
        <time>2010-02-10T09:59:28Z</time>
      </trkpt>
      <trkpt lat="45.0347" lon="5.561">
        <ele>1351.27</ele>
        <time>2010-02-10T09:59:30Z</time>
      </trkpt>
      <trkpt lat="45.03495" lon="5.56101">
        <ele>1347.43</ele>
        <time>2010-02-10T09:59:32Z</time>
      </trkpt>
      <trkpt lat="45.03518" lon="5.561">
        <ele>1343.58</ele>
        <time>2010-02-10T09:59:34Z</time>
      </trkpt>
      <trkpt lat="45.0354" lon="5.56094">
        <ele>1340.7</ele>
        <time>2010-02-10T09:59:36Z</time>
      </trkpt>
      <trkpt lat="45.03551" lon="5.5609">
        <ele>1335.89</ele>
        <time>2010-02-10T09:59:37Z</time>
      </trkpt>
      <trkpt lat="45.03563" lon="5.56085">
        <ele>1334.93</ele>
        <time>2010-02-10T09:59:38Z</time>
      </trkpt>
      <trkpt lat="45.03587" lon="5.56069">
        <ele>1333.01</ele>
        <time>2010-02-10T09:59:40Z</time>
      </trkpt>
      <trkpt lat="45.03606" lon="5.56045">
        <ele>1328.68</ele>
        <time>2010-02-10T09:59:42Z</time>
      </trkpt>
      <trkpt lat="45.0362" lon="5.56025">
        <ele>1322.91</ele>
        <time>2010-02-10T09:59:44Z</time>
      </trkpt>
      <trkpt lat="45.03644" lon="5.56004">
        <ele>1315.22</ele>
        <time>2010-02-10T09:59:47Z</time>
      </trkpt>
      <trkpt lat="45.03653" lon="5.55998">
        <ele>1314.74</ele>
        <time>2010-02-10T09:59:48Z</time>
      </trkpt>
      <trkpt lat="45.03662" lon="5.5598">
        <ele>1315.22</ele>
        <time>2010-02-10T09:59:52Z</time>
      </trkpt>
      <trkpt lat="45.03645" lon="5.55976">
        <ele>1318.1</ele>
        <time>2010-02-10T10:00:14Z</time>
      </trkpt>
      <trkpt lat="45.03645" lon="5.55976">
        <ele>1321.47</ele>
        <time>2010-02-10T10:00:47Z</time>
      </trkpt>
      <trkpt lat="45.03643" lon="5.5597">
        <ele>1325.31</ele>
        <time>2010-02-10T10:01:17Z</time>
      </trkpt>
      <trkpt lat="45.03641" lon="5.55969">
        <ele>1325.8</ele>
        <time>2010-02-10T10:01:29Z</time>
      </trkpt>
      <trkpt lat="45.03645" lon="5.55949">
        <ele>1321.47</ele>
        <time>2010-02-10T10:01:35Z</time>
      </trkpt>
      <trkpt lat="45.03651" lon="5.55926">
        <ele>1315.22</ele>
        <time>2010-02-10T10:01:38Z</time>
      </trkpt>
      <trkpt lat="45.03661" lon="5.55895">
        <ele>1309.45</ele>
        <time>2010-02-10T10:01:41Z</time>
      </trkpt>
      <trkpt lat="45.03672" lon="5.5587">
        <ele>1303.69</ele>
        <time>2010-02-10T10:01:43Z</time>
      </trkpt>
      <trkpt lat="45.03685" lon="5.55844">
        <ele>1298.4</ele>
        <time>2010-02-10T10:01:45Z</time>
      </trkpt>
      <trkpt lat="45.03697" lon="5.55816">
        <ele>1291.19</ele>
        <time>2010-02-10T10:01:47Z</time>
      </trkpt>
      <trkpt lat="45.03704" lon="5.55801">
        <ele>1285.42</ele>
        <time>2010-02-10T10:01:48Z</time>
      </trkpt>
      <trkpt lat="45.03722" lon="5.55776">
        <ele>1281.09</ele>
        <time>2010-02-10T10:01:50Z</time>
      </trkpt>
      <trkpt lat="45.03751" lon="5.55744">
        <ele>1273.88</ele>
        <time>2010-02-10T10:01:53Z</time>
      </trkpt>
      <trkpt lat="45.03767" lon="5.55726">
        <ele>1271.96</ele>
        <time>2010-02-10T10:01:55Z</time>
      </trkpt>
      <trkpt lat="45.03787" lon="5.5571">
        <ele>1265.71</ele>
        <time>2010-02-10T10:01:57Z</time>
      </trkpt>
      <trkpt lat="45.03798" lon="5.55703">
        <ele>1263.31</ele>
        <time>2010-02-10T10:01:58Z</time>
      </trkpt>
      <trkpt lat="45.03819" lon="5.55692">
        <ele>1263.79</ele>
        <time>2010-02-10T10:02:00Z</time>
      </trkpt>
      <trkpt lat="45.03856" lon="5.55691">
        <ele>1261.39</ele>
        <time>2010-02-10T10:02:04Z</time>
      </trkpt>
      <trkpt lat="45.03877" lon="5.55702">
        <ele>1260.43</ele>
        <time>2010-02-10T10:02:07Z</time>
      </trkpt>
      <trkpt lat="45.03898" lon="5.55712">
        <ele>1257.54</ele>
        <time>2010-02-10T10:02:10Z</time>
      </trkpt>
      <trkpt lat="45.0392" lon="5.55716">
        <ele>1255.14</ele>
        <time>2010-02-10T10:02:13Z</time>
      </trkpt>
      <trkpt lat="45.03931" lon="5.55717">
        <ele>1255.62</ele>
        <time>2010-02-10T10:02:15Z</time>
      </trkpt>
      <trkpt lat="45.03941" lon="5.55714">
        <ele>1254.18</ele>
        <time>2010-02-10T10:02:17Z</time>
      </trkpt>
      <trkpt lat="45.03978" lon="5.55696">
        <ele>1251.29</ele>
        <time>2010-02-10T10:02:23Z</time>
      </trkpt>
      <trkpt lat="45.03991" lon="5.55691">
        <ele>1249.37</ele>
        <time>2010-02-10T10:02:25Z</time>
      </trkpt>
      <trkpt lat="45.04007" lon="5.55683">
        <ele>1242.16</ele>
        <time>2010-02-10T10:02:27Z</time>
      </trkpt>
      <trkpt lat="45.04021" lon="5.55673">
        <ele>1238.32</ele>
        <time>2010-02-10T10:02:29Z</time>
      </trkpt>
      <trkpt lat="45.04045" lon="5.55656">
        <ele>1232.07</ele>
        <time>2010-02-10T10:02:32Z</time>
      </trkpt>
      <trkpt lat="45.04055" lon="5.55655">
        <ele>1228.22</ele>
        <time>2010-02-10T10:02:33Z</time>
      </trkpt>
      <trkpt lat="45.04082" lon="5.5566">
        <ele>1224.86</ele>
        <time>2010-02-10T10:02:36Z</time>
      </trkpt>
      <trkpt lat="45.04094" lon="5.55664">
        <ele>1220.05</ele>
        <time>2010-02-10T10:02:38Z</time>
      </trkpt>
      <trkpt lat="45.04108" lon="5.55673">
        <ele>1218.61</ele>
        <time>2010-02-10T10:02:41Z</time>
      </trkpt>
      <trkpt lat="45.04112" lon="5.55677">
        <ele>1218.61</ele>
        <time>2010-02-10T10:02:42Z</time>
      </trkpt>
      <trkpt lat="45.04131" lon="5.55688">
        <ele>1211.88</ele>
        <time>2010-02-10T10:02:46Z</time>
      </trkpt>
      <trkpt lat="45.04137" lon="5.55694">
        <ele>1211.88</ele>
        <time>2010-02-10T10:02:47Z</time>
      </trkpt>
      <trkpt lat="45.04195" lon="5.55732">
        <ele>1204.19</ele>
        <time>2010-02-10T10:02:53Z</time>
      </trkpt>
      <trkpt lat="45.04206" lon="5.55737">
        <ele>1199.86</ele>
        <time>2010-02-10T10:02:54Z</time>
      </trkpt>
      <trkpt lat="45.0423" lon="5.55746">
        <ele>1194.58</ele>
        <time>2010-02-10T10:02:56Z</time>
      </trkpt>
      <trkpt lat="45.04253" lon="5.55752">
        <ele>1191.21</ele>
        <time>2010-02-10T10:02:58Z</time>
      </trkpt>
      <trkpt lat="45.04264" lon="5.55756">
        <ele>1191.21</ele>
        <time>2010-02-10T10:02:59Z</time>
      </trkpt>
      <trkpt lat="45.04275" lon="5.5576">
        <ele>1191.69</ele>
        <time>2010-02-10T10:03:00Z</time>
      </trkpt>
      <trkpt lat="45.04308" lon="5.55782">
        <ele>1182.08</ele>
        <time>2010-02-10T10:03:03Z</time>
      </trkpt>
      <trkpt lat="45.04335" lon="5.55825">
        <ele>1176.31</ele>
        <time>2010-02-10T10:03:06Z</time>
      </trkpt>
      <trkpt lat="45.04342" lon="5.55841">
        <ele>1175.35</ele>
        <time>2010-02-10T10:03:07Z</time>
      </trkpt>
      <trkpt lat="45.04353" lon="5.55872">
        <ele>1173.43</ele>
        <time>2010-02-10T10:03:09Z</time>
      </trkpt>
      <trkpt lat="45.04379" lon="5.55936">
        <ele>1170.06</ele>
        <time>2010-02-10T10:03:14Z</time>
      </trkpt>
      <trkpt lat="45.0439" lon="5.55959">
        <ele>1166.7</ele>
        <time>2010-02-10T10:03:16Z</time>
      </trkpt>
      <trkpt lat="45.04394" lon="5.5597">
        <ele>1167.18</ele>
        <time>2010-02-10T10:03:17Z</time>
      </trkpt>
      <trkpt lat="45.04405" lon="5.55989">
        <ele>1167.18</ele>
        <time>2010-02-10T10:03:19Z</time>
      </trkpt>
      <trkpt lat="45.04447" lon="5.56015">
        <ele>1166.7</ele>
        <time>2010-02-10T10:03:26Z</time>
      </trkpt>
      <trkpt lat="45.04452" lon="5.56013">
        <ele>1166.7</ele>
        <time>2010-02-10T10:03:27Z</time>
      </trkpt>
      <trkpt lat="45.04457" lon="5.56013">
        <ele>1167.18</ele>
        <time>2010-02-10T10:03:37Z</time>
      </trkpt>
      <trkpt lat="45.04457" lon="5.56013">
        <ele>1176.79</ele>
        <time>2010-02-10T10:03:39Z</time>
      </trkpt>
      <trkpt lat="45.04457" lon="5.56013">
        <ele>1167.66</ele>
        <time>2010-02-10T10:03:40Z</time>
      </trkpt>
      <trkpt lat="45.04457" lon="5.56013">
        <ele>1168.14</ele>
        <time>2010-02-10T10:03:56Z</time>
      </trkpt>
      <trkpt lat="45.04459" lon="5.5601">
        <ele>1167.66</ele>
        <time>2010-02-10T10:04:16Z</time>
      </trkpt>
      <trkpt lat="45.04442" lon="5.56003">
        <ele>1167.66</ele>
        <time>2010-02-10T10:04:41Z</time>
      </trkpt>
      <trkpt lat="45.04421" lon="5.55974">
        <ele>1167.18</ele>
        <time>2010-02-10T10:04:54Z</time>
      </trkpt>
      <trkpt lat="45.04413" lon="5.55982">
        <ele>1166.22</ele>
        <time>2010-02-10T10:05:37Z</time>
      </trkpt>
      <trkpt lat="45.04433" lon="5.55993">
        <ele>1166.7</ele>
        <time>2010-02-10T10:05:39Z</time>
      </trkpt>
      <trkpt lat="45.04414" lon="5.55997">
        <ele>1170.54</ele>
        <time>2010-02-10T10:05:43Z</time>
      </trkpt>
      <trkpt lat="45.04407" lon="5.56001">
        <ele>1174.87</ele>
        <time>2010-02-10T10:05:45Z</time>
      </trkpt>
      <trkpt lat="45.04398" lon="5.56005">
        <ele>1178.71</ele>
        <time>2010-02-10T10:05:47Z</time>
      </trkpt>
      <trkpt lat="45.0439" lon="5.56013">
        <ele>1181.6</ele>
        <time>2010-02-10T10:05:49Z</time>
      </trkpt>
      <trkpt lat="45.04384" lon="5.56018">
        <ele>1184.96</ele>
        <time>2010-02-10T10:05:51Z</time>
      </trkpt>
      <trkpt lat="45.0438" lon="5.56022">
        <ele>1188.81</ele>
        <time>2010-02-10T10:05:53Z</time>
      </trkpt>
      <trkpt lat="45.04374" lon="5.56026">
        <ele>1192.17</ele>
        <time>2010-02-10T10:05:55Z</time>
      </trkpt>
      <trkpt lat="45.04364" lon="5.56031">
        <ele>1196.98</ele>
        <time>2010-02-10T10:05:58Z</time>
      </trkpt>
      <trkpt lat="45.04359" lon="5.56035">
        <ele>1200.34</ele>
        <time>2010-02-10T10:06:00Z</time>
      </trkpt>
      <trkpt lat="45.04347" lon="5.5604">
        <ele>1205.15</ele>
        <time>2010-02-10T10:06:03Z</time>
      </trkpt>
      <trkpt lat="45.04341" lon="5.56045">
        <ele>1208.51</ele>
        <time>2010-02-10T10:06:05Z</time>
      </trkpt>
      <trkpt lat="45.04337" lon="5.5605">
        <ele>1212.36</ele>
        <time>2010-02-10T10:06:07Z</time>
      </trkpt>
      <trkpt lat="45.04328" lon="5.56058">
        <ele>1217.17</ele>
        <time>2010-02-10T10:06:10Z</time>
      </trkpt>
      <trkpt lat="45.0432" lon="5.56064">
        <ele>1218.61</ele>
        <time>2010-02-10T10:06:12Z</time>
      </trkpt>
      <trkpt lat="45.0431" lon="5.56069">
        <ele>1222.45</ele>
        <time>2010-02-10T10:06:15Z</time>
      </trkpt>
      <trkpt lat="45.04299" lon="5.56076">
        <ele>1225.82</ele>
        <time>2010-02-10T10:06:18Z</time>
      </trkpt>
      <trkpt lat="45.04293" lon="5.5608">
        <ele>1226.3</ele>
        <time>2010-02-10T10:06:20Z</time>
      </trkpt>
      <trkpt lat="45.04291" lon="5.56082">
        <ele>1230.14</ele>
        <time>2010-02-10T10:06:21Z</time>
      </trkpt>
      <trkpt lat="45.04288" lon="5.56084">
        <ele>1233.51</ele>
        <time>2010-02-10T10:06:22Z</time>
      </trkpt>
      <trkpt lat="45.04285" lon="5.56086">
        <ele>1233.51</ele>
        <time>2010-02-10T10:06:23Z</time>
      </trkpt>
      <trkpt lat="45.04274" lon="5.56093">
        <ele>1237.35</ele>
        <time>2010-02-10T10:06:26Z</time>
      </trkpt>
      <trkpt lat="45.04264" lon="5.56101">
        <ele>1239.76</ele>
        <time>2010-02-10T10:06:29Z</time>
      </trkpt>
      <trkpt lat="45.04261" lon="5.56102">
        <ele>1243.12</ele>
        <time>2010-02-10T10:06:30Z</time>
      </trkpt>
      <trkpt lat="45.04256" lon="5.56107">
        <ele>1246.01</ele>
        <time>2010-02-10T10:06:32Z</time>
      </trkpt>
      <trkpt lat="45.04247" lon="5.56113">
        <ele>1250.33</ele>
        <time>2010-02-10T10:06:35Z</time>
      </trkpt>
      <trkpt lat="45.0424" lon="5.56117">
        <ele>1254.18</ele>
        <time>2010-02-10T10:06:37Z</time>
      </trkpt>
      <trkpt lat="45.04234" lon="5.56122">
        <ele>1257.06</ele>
        <time>2010-02-10T10:06:39Z</time>
      </trkpt>
      <trkpt lat="45.04228" lon="5.56126">
        <ele>1260.91</ele>
        <time>2010-02-10T10:06:41Z</time>
      </trkpt>
      <trkpt lat="45.04219" lon="5.56132">
        <ele>1265.71</ele>
        <time>2010-02-10T10:06:44Z</time>
      </trkpt>
      <trkpt lat="45.04213" lon="5.56137">
        <ele>1267.16</ele>
        <time>2010-02-10T10:06:46Z</time>
      </trkpt>
      <trkpt lat="45.0421" lon="5.56139">
        <ele>1271.48</ele>
        <time>2010-02-10T10:06:47Z</time>
      </trkpt>
      <trkpt lat="45.04203" lon="5.56143">
        <ele>1275.33</ele>
        <time>2010-02-10T10:06:49Z</time>
      </trkpt>
      <trkpt lat="45.042" lon="5.56146">
        <ele>1274.36</ele>
        <time>2010-02-10T10:06:50Z</time>
      </trkpt>
      <trkpt lat="45.04197" lon="5.56149">
        <ele>1279.17</ele>
        <time>2010-02-10T10:06:51Z</time>
      </trkpt>
      <trkpt lat="45.04191" lon="5.56153">
        <ele>1283.98</ele>
        <time>2010-02-10T10:06:53Z</time>
      </trkpt>
      <trkpt lat="45.04183" lon="5.56158">
        <ele>1289.27</ele>
        <time>2010-02-10T10:06:56Z</time>
      </trkpt>
      <trkpt lat="45.04176" lon="5.56162">
        <ele>1292.63</ele>
        <time>2010-02-10T10:06:58Z</time>
      </trkpt>
      <trkpt lat="45.04169" lon="5.56167">
        <ele>1297.44</ele>
        <time>2010-02-10T10:07:00Z</time>
      </trkpt>
      <trkpt lat="45.04164" lon="5.56172">
        <ele>1301.76</ele>
        <time>2010-02-10T10:07:02Z</time>
      </trkpt>
      <trkpt lat="45.04156" lon="5.56177">
        <ele>1304.65</ele>
        <time>2010-02-10T10:07:05Z</time>
      </trkpt>
      <trkpt lat="45.04146" lon="5.56185">
        <ele>1309.45</ele>
        <time>2010-02-10T10:07:08Z</time>
      </trkpt>
      <trkpt lat="45.04141" lon="5.56187">
        <ele>1313.3</ele>
        <time>2010-02-10T10:07:10Z</time>
      </trkpt>
      <trkpt lat="45.0413" lon="5.56195">
        <ele>1316.66</ele>
        <time>2010-02-10T10:07:13Z</time>
      </trkpt>
      <trkpt lat="45.04121" lon="5.56202">
        <ele>1321.47</ele>
        <time>2010-02-10T10:07:16Z</time>
      </trkpt>
      <trkpt lat="45.04114" lon="5.56206">
        <ele>1324.83</ele>
        <time>2010-02-10T10:07:18Z</time>
      </trkpt>
      <trkpt lat="45.04105" lon="5.56213">
        <ele>1329.16</ele>
        <time>2010-02-10T10:07:21Z</time>
      </trkpt>
      <trkpt lat="45.04099" lon="5.56217">
        <ele>1333.01</ele>
        <time>2010-02-10T10:07:23Z</time>
      </trkpt>
      <trkpt lat="45.04093" lon="5.56221">
        <ele>1337.33</ele>
        <time>2010-02-10T10:07:25Z</time>
      </trkpt>
      <trkpt lat="45.04088" lon="5.56225">
        <ele>1340.22</ele>
        <time>2010-02-10T10:07:27Z</time>
      </trkpt>
      <trkpt lat="45.04081" lon="5.56229">
        <ele>1344.54</ele>
        <time>2010-02-10T10:07:29Z</time>
      </trkpt>
      <trkpt lat="45.04075" lon="5.56233">
        <ele>1347.43</ele>
        <time>2010-02-10T10:07:31Z</time>
      </trkpt>
      <trkpt lat="45.04069" lon="5.56238">
        <ele>1351.27</ele>
        <time>2010-02-10T10:07:33Z</time>
      </trkpt>
      <trkpt lat="45.04066" lon="5.56239">
        <ele>1350.31</ele>
        <time>2010-02-10T10:07:34Z</time>
      </trkpt>
      <trkpt lat="45.04063" lon="5.56241">
        <ele>1355.6</ele>
        <time>2010-02-10T10:07:35Z</time>
      </trkpt>
      <trkpt lat="45.04057" lon="5.56246">
        <ele>1358.96</ele>
        <time>2010-02-10T10:07:37Z</time>
      </trkpt>
      <trkpt lat="45.04052" lon="5.5625">
        <ele>1362.81</ele>
        <time>2010-02-10T10:07:39Z</time>
      </trkpt>
      <trkpt lat="45.04042" lon="5.56257">
        <ele>1366.65</ele>
        <time>2010-02-10T10:07:42Z</time>
      </trkpt>
      <trkpt lat="45.04031" lon="5.56264">
        <ele>1371.46</ele>
        <time>2010-02-10T10:07:45Z</time>
      </trkpt>
      <trkpt lat="45.04023" lon="5.56271">
        <ele>1375.3</ele>
        <time>2010-02-10T10:07:48Z</time>
      </trkpt>
      <trkpt lat="45.04016" lon="5.56276">
        <ele>1378.67</ele>
        <time>2010-02-10T10:07:50Z</time>
      </trkpt>
      <trkpt lat="45.04011" lon="5.5628">
        <ele>1381.55</ele>
        <time>2010-02-10T10:07:52Z</time>
      </trkpt>
      <trkpt lat="45.04005" lon="5.56284">
        <ele>1384.92</ele>
        <time>2010-02-10T10:07:54Z</time>
      </trkpt>
      <trkpt lat="45.04002" lon="5.56287">
        <ele>1383.96</ele>
        <time>2010-02-10T10:07:55Z</time>
      </trkpt>
      <trkpt lat="45.03999" lon="5.56289">
        <ele>1387.8</ele>
        <time>2010-02-10T10:07:56Z</time>
      </trkpt>
      <trkpt lat="45.03992" lon="5.56292">
        <ele>1391.17</ele>
        <time>2010-02-10T10:07:58Z</time>
      </trkpt>
      <trkpt lat="45.03987" lon="5.56297">
        <ele>1395.01</ele>
        <time>2010-02-10T10:08:00Z</time>
      </trkpt>
      <trkpt lat="45.03981" lon="5.56302">
        <ele>1397.89</ele>
        <time>2010-02-10T10:08:02Z</time>
      </trkpt>
      <trkpt lat="45.03974" lon="5.56305">
        <ele>1401.26</ele>
        <time>2010-02-10T10:08:04Z</time>
      </trkpt>
      <trkpt lat="45.03968" lon="5.5631">
        <ele>1405.1</ele>
        <time>2010-02-10T10:08:06Z</time>
      </trkpt>
      <trkpt lat="45.03961" lon="5.56314">
        <ele>1409.91</ele>
        <time>2010-02-10T10:08:08Z</time>
      </trkpt>
      <trkpt lat="45.03955" lon="5.56317">
        <ele>1410.87</ele>
        <time>2010-02-10T10:08:10Z</time>
      </trkpt>
      <trkpt lat="45.03952" lon="5.56319">
        <ele>1414.72</ele>
        <time>2010-02-10T10:08:11Z</time>
      </trkpt>
      <trkpt lat="45.03944" lon="5.56328">
        <ele>1417.6</ele>
        <time>2010-02-10T10:08:14Z</time>
      </trkpt>
      <trkpt lat="45.03931" lon="5.56335">
        <ele>1420.49</ele>
        <time>2010-02-10T10:08:18Z</time>
      </trkpt>
      <trkpt lat="45.03921" lon="5.56342">
        <ele>1423.85</ele>
        <time>2010-02-10T10:08:21Z</time>
      </trkpt>
      <trkpt lat="45.03911" lon="5.5635">
        <ele>1427.7</ele>
        <time>2010-02-10T10:08:24Z</time>
      </trkpt>
      <trkpt lat="45.03901" lon="5.56357">
        <ele>1429.62</ele>
        <time>2010-02-10T10:08:27Z</time>
      </trkpt>
      <trkpt lat="45.03892" lon="5.56363">
        <ele>1433.94</ele>
        <time>2010-02-10T10:08:30Z</time>
      </trkpt>
      <trkpt lat="45.03882" lon="5.56369">
        <ele>1437.31</ele>
        <time>2010-02-10T10:08:33Z</time>
      </trkpt>
      <trkpt lat="45.03872" lon="5.56377">
        <ele>1441.15</ele>
        <time>2010-02-10T10:08:36Z</time>
      </trkpt>
      <trkpt lat="45.03863" lon="5.56383">
        <ele>1445.48</ele>
        <time>2010-02-10T10:08:39Z</time>
      </trkpt>
      <trkpt lat="45.03853" lon="5.5639">
        <ele>1449.32</ele>
        <time>2010-02-10T10:08:42Z</time>
      </trkpt>
      <trkpt lat="45.03844" lon="5.56396">
        <ele>1453.17</ele>
        <time>2010-02-10T10:08:45Z</time>
      </trkpt>
      <trkpt lat="45.03835" lon="5.56404">
        <ele>1457.5</ele>
        <time>2010-02-10T10:08:48Z</time>
      </trkpt>
      <trkpt lat="45.03831" lon="5.56406">
        <ele>1460.38</ele>
        <time>2010-02-10T10:08:49Z</time>
      </trkpt>
      <trkpt lat="45.03821" lon="5.56413">
        <ele>1464.71</ele>
        <time>2010-02-10T10:08:52Z</time>
      </trkpt>
      <trkpt lat="45.03813" lon="5.56418">
        <ele>1469.51</ele>
        <time>2010-02-10T10:08:55Z</time>
      </trkpt>
      <trkpt lat="45.03807" lon="5.56423">
        <ele>1473.36</ele>
        <time>2010-02-10T10:08:57Z</time>
      </trkpt>
      <trkpt lat="45.03796" lon="5.5643">
        <ele>1477.68</ele>
        <time>2010-02-10T10:09:00Z</time>
      </trkpt>
      <trkpt lat="45.03791" lon="5.56434">
        <ele>1482.01</ele>
        <time>2010-02-10T10:09:02Z</time>
      </trkpt>
      <trkpt lat="45.03788" lon="5.56435">
        <ele>1481.53</ele>
        <time>2010-02-10T10:09:03Z</time>
      </trkpt>
      <trkpt lat="45.03786" lon="5.56438">
        <ele>1484.89</ele>
        <time>2010-02-10T10:09:04Z</time>
      </trkpt>
      <trkpt lat="45.03782" lon="5.5644">
        <ele>1484.89</ele>
        <time>2010-02-10T10:09:05Z</time>
      </trkpt>
      <trkpt lat="45.03769" lon="5.5645">
        <ele>1489.22</ele>
        <time>2010-02-10T10:09:09Z</time>
      </trkpt>
      <trkpt lat="45.03758" lon="5.56457">
        <ele>1493.06</ele>
        <time>2010-02-10T10:09:12Z</time>
      </trkpt>
      <trkpt lat="45.03752" lon="5.56461">
        <ele>1496.91</ele>
        <time>2010-02-10T10:09:14Z</time>
      </trkpt>
      <trkpt lat="45.03742" lon="5.56468">
        <ele>1501.72</ele>
        <time>2010-02-10T10:09:17Z</time>
      </trkpt>
      <trkpt lat="45.0374" lon="5.56469">
        <ele>1501.24</ele>
        <time>2010-02-10T10:09:18Z</time>
      </trkpt>
      <trkpt lat="45.03731" lon="5.56476">
        <ele>1502.68</ele>
        <time>2010-02-10T10:09:21Z</time>
      </trkpt>
      <trkpt lat="45.03716" lon="5.56485">
        <ele>1506.04</ele>
        <time>2010-02-10T10:09:25Z</time>
      </trkpt>
      <trkpt lat="45.03707" lon="5.56492">
        <ele>1509.89</ele>
        <time>2010-02-10T10:09:28Z</time>
      </trkpt>
      <trkpt lat="45.03695" lon="5.56501">
        <ele>1513.73</ele>
        <time>2010-02-10T10:09:32Z</time>
      </trkpt>
      <trkpt lat="45.03683" lon="5.56511">
        <ele>1517.58</ele>
        <time>2010-02-10T10:09:36Z</time>
      </trkpt>
      <trkpt lat="45.0367" lon="5.5652">
        <ele>1521.42</ele>
        <time>2010-02-10T10:09:40Z</time>
      </trkpt>
      <trkpt lat="45.03659" lon="5.56525">
        <ele>1525.75</ele>
        <time>2010-02-10T10:09:43Z</time>
      </trkpt>
      <trkpt lat="45.0365" lon="5.56532">
        <ele>1529.11</ele>
        <time>2010-02-10T10:09:46Z</time>
      </trkpt>
      <trkpt lat="45.0364" lon="5.5654">
        <ele>1532.48</ele>
        <time>2010-02-10T10:09:49Z</time>
      </trkpt>
      <trkpt lat="45.03631" lon="5.56547">
        <ele>1536.8</ele>
        <time>2010-02-10T10:09:52Z</time>
      </trkpt>
      <trkpt lat="45.03621" lon="5.56553">
        <ele>1540.65</ele>
        <time>2010-02-10T10:09:55Z</time>
      </trkpt>
      <trkpt lat="45.03615" lon="5.56558">
        <ele>1544.01</ele>
        <time>2010-02-10T10:09:57Z</time>
      </trkpt>
      <trkpt lat="45.03606" lon="5.56564">
        <ele>1548.34</ele>
        <time>2010-02-10T10:10:00Z</time>
      </trkpt>
      <trkpt lat="45.03599" lon="5.56569">
        <ele>1551.22</ele>
        <time>2010-02-10T10:10:02Z</time>
      </trkpt>
      <trkpt lat="45.03592" lon="5.56572">
        <ele>1554.11</ele>
        <time>2010-02-10T10:10:04Z</time>
      </trkpt>
      <trkpt lat="45.03584" lon="5.56578">
        <ele>1559.4</ele>
        <time>2010-02-10T10:10:07Z</time>
      </trkpt>
      <trkpt lat="45.03577" lon="5.56585">
        <ele>1562.76</ele>
        <time>2010-02-10T10:10:09Z</time>
      </trkpt>
      <trkpt lat="45.0357" lon="5.56591">
        <ele>1567.57</ele>
        <time>2010-02-10T10:10:12Z</time>
      </trkpt>
      <trkpt lat="45.03558" lon="5.56598">
        <ele>1571.41</ele>
        <time>2010-02-10T10:10:15Z</time>
      </trkpt>
      <trkpt lat="45.03547" lon="5.56607">
        <ele>1575.26</ele>
        <time>2010-02-10T10:10:19Z</time>
      </trkpt>
      <trkpt lat="45.03536" lon="5.56613">
        <ele>1578.14</ele>
        <time>2010-02-10T10:10:22Z</time>
      </trkpt>
      <trkpt lat="45.03523" lon="5.56623">
        <ele>1582.47</ele>
        <time>2010-02-10T10:10:26Z</time>
      </trkpt>
      <trkpt lat="45.03514" lon="5.56629">
        <ele>1585.83</ele>
        <time>2010-02-10T10:10:29Z</time>
      </trkpt>
      <trkpt lat="45.03504" lon="5.56638">
        <ele>1589.68</ele>
        <time>2010-02-10T10:10:32Z</time>
      </trkpt>
      <trkpt lat="45.03493" lon="5.56643">
        <ele>1593.52</ele>
        <time>2010-02-10T10:10:35Z</time>
      </trkpt>
      <trkpt lat="45.03485" lon="5.5665">
        <ele>1597.37</ele>
        <time>2010-02-10T10:10:38Z</time>
      </trkpt>
      <trkpt lat="45.03475" lon="5.56656">
        <ele>1600.73</ele>
        <time>2010-02-10T10:10:41Z</time>
      </trkpt>
      <trkpt lat="45.0347" lon="5.56662">
        <ele>1604.1</ele>
        <time>2010-02-10T10:10:43Z</time>
      </trkpt>
      <trkpt lat="45.03458" lon="5.56667">
        <ele>1608.9</ele>
        <time>2010-02-10T10:10:46Z</time>
      </trkpt>
      <trkpt lat="45.03453" lon="5.56672">
        <ele>1611.79</ele>
        <time>2010-02-10T10:10:48Z</time>
      </trkpt>
      <trkpt lat="45.03444" lon="5.56679">
        <ele>1615.15</ele>
        <time>2010-02-10T10:10:51Z</time>
      </trkpt>
      <trkpt lat="45.03438" lon="5.56684">
        <ele>1619</ele>
        <time>2010-02-10T10:10:53Z</time>
      </trkpt>
      <trkpt lat="45.03432" lon="5.56687">
        <ele>1622.36</ele>
        <time>2010-02-10T10:10:55Z</time>
      </trkpt>
      <trkpt lat="45.03421" lon="5.56695">
        <ele>1626.69</ele>
        <time>2010-02-10T10:10:58Z</time>
      </trkpt>
      <trkpt lat="45.03415" lon="5.56699">
        <ele>1631.01</ele>
        <time>2010-02-10T10:11:00Z</time>
      </trkpt>
      <trkpt lat="45.03407" lon="5.56706">
        <ele>1634.38</ele>
        <time>2010-02-10T10:11:03Z</time>
      </trkpt>
      <trkpt lat="45.03392" lon="5.56715">
        <ele>1636.78</ele>
        <time>2010-02-10T10:11:07Z</time>
      </trkpt>
      <trkpt lat="45.03383" lon="5.56722">
        <ele>1640.15</ele>
        <time>2010-02-10T10:11:10Z</time>
      </trkpt>
      <trkpt lat="45.03373" lon="5.56728">
        <ele>1643.51</ele>
        <time>2010-02-10T10:11:13Z</time>
      </trkpt>
      <trkpt lat="45.03365" lon="5.56734">
        <ele>1647.36</ele>
        <time>2010-02-10T10:11:16Z</time>
      </trkpt>
      <trkpt lat="45.03351" lon="5.56744">
        <ele>1650.72</ele>
        <time>2010-02-10T10:11:20Z</time>
      </trkpt>
      <trkpt lat="45.03342" lon="5.56752">
        <ele>1655.05</ele>
        <time>2010-02-10T10:11:23Z</time>
      </trkpt>
      <trkpt lat="45.03332" lon="5.56758">
        <ele>1657.93</ele>
        <time>2010-02-10T10:11:26Z</time>
      </trkpt>
      <trkpt lat="45.03326" lon="5.56761">
        <ele>1661.3</ele>
        <time>2010-02-10T10:11:28Z</time>
      </trkpt>
      <trkpt lat="45.03316" lon="5.56769">
        <ele>1665.14</ele>
        <time>2010-02-10T10:11:31Z</time>
      </trkpt>
      <trkpt lat="45.03307" lon="5.56773">
        <ele>1668.99</ele>
        <time>2010-02-10T10:11:34Z</time>
      </trkpt>
      <trkpt lat="45.03298" lon="5.56782">
        <ele>1673.31</ele>
        <time>2010-02-10T10:11:37Z</time>
      </trkpt>
      <trkpt lat="45.03288" lon="5.5679">
        <ele>1675.72</ele>
        <time>2010-02-10T10:11:40Z</time>
      </trkpt>
      <trkpt lat="45.03276" lon="5.56799">
        <ele>1679.08</ele>
        <time>2010-02-10T10:11:44Z</time>
      </trkpt>
      <trkpt lat="45.0326" lon="5.56808">
        <ele>1682.44</ele>
        <time>2010-02-10T10:11:48Z</time>
      </trkpt>
      <trkpt lat="45.03248" lon="5.56816">
        <ele>1686.77</ele>
        <time>2010-02-10T10:11:52Z</time>
      </trkpt>
      <trkpt lat="45.03238" lon="5.56822">
        <ele>1689.65</ele>
        <time>2010-02-10T10:11:55Z</time>
      </trkpt>
      <trkpt lat="45.03229" lon="5.56829">
        <ele>1693.02</ele>
        <time>2010-02-10T10:11:58Z</time>
      </trkpt>
      <trkpt lat="45.03219" lon="5.56837">
        <ele>1696.38</ele>
        <time>2010-02-10T10:12:01Z</time>
      </trkpt>
      <trkpt lat="45.03206" lon="5.56846">
        <ele>1700.23</ele>
        <time>2010-02-10T10:12:05Z</time>
      </trkpt>
      <trkpt lat="45.03196" lon="5.56852">
        <ele>1704.07</ele>
        <time>2010-02-10T10:12:08Z</time>
      </trkpt>
      <trkpt lat="45.03185" lon="5.56859">
        <ele>1707.92</ele>
        <time>2010-02-10T10:12:11Z</time>
      </trkpt>
      <trkpt lat="45.03176" lon="5.56867">
        <ele>1711.76</ele>
        <time>2010-02-10T10:12:14Z</time>
      </trkpt>
      <trkpt lat="45.03164" lon="5.56876">
        <ele>1715.61</ele>
        <time>2010-02-10T10:12:18Z</time>
      </trkpt>
      <trkpt lat="45.03161" lon="5.56879">
        <ele>1715.61</ele>
        <time>2010-02-10T10:12:19Z</time>
      </trkpt>
      <trkpt lat="45.03151" lon="5.56884">
        <ele>1718.49</ele>
        <time>2010-02-10T10:12:22Z</time>
      </trkpt>
      <trkpt lat="45.03142" lon="5.56891">
        <ele>1722.34</ele>
        <time>2010-02-10T10:12:25Z</time>
      </trkpt>
      <trkpt lat="45.03138" lon="5.56893">
        <ele>1722.34</ele>
        <time>2010-02-10T10:12:26Z</time>
      </trkpt>
      <trkpt lat="45.03132" lon="5.56899">
        <ele>1725.7</ele>
        <time>2010-02-10T10:12:28Z</time>
      </trkpt>
      <trkpt lat="45.03128" lon="5.56902">
        <ele>1725.22</ele>
        <time>2010-02-10T10:12:29Z</time>
      </trkpt>
      <trkpt lat="45.03116" lon="5.5691">
        <ele>1729.07</ele>
        <time>2010-02-10T10:12:33Z</time>
      </trkpt>
      <trkpt lat="45.03105" lon="5.56917">
        <ele>1732.43</ele>
        <time>2010-02-10T10:12:36Z</time>
      </trkpt>
      <trkpt lat="45.03093" lon="5.56927">
        <ele>1736.76</ele>
        <time>2010-02-10T10:12:40Z</time>
      </trkpt>
      <trkpt lat="45.03083" lon="5.56935">
        <ele>1740.12</ele>
        <time>2010-02-10T10:12:43Z</time>
      </trkpt>
      <trkpt lat="45.03073" lon="5.56942">
        <ele>1743.97</ele>
        <time>2010-02-10T10:12:46Z</time>
      </trkpt>
      <trkpt lat="45.03066" lon="5.56945">
        <ele>1746.85</ele>
        <time>2010-02-10T10:12:48Z</time>
      </trkpt>
      <trkpt lat="45.03056" lon="5.56951">
        <ele>1750.22</ele>
        <time>2010-02-10T10:12:51Z</time>
      </trkpt>
      <trkpt lat="45.03047" lon="5.56957">
        <ele>1754.06</ele>
        <time>2010-02-10T10:12:54Z</time>
      </trkpt>
      <trkpt lat="45.03018" lon="5.56981">
        <ele>1756.95</ele>
        <time>2010-02-10T10:13:05Z</time>
      </trkpt>
      <trkpt lat="45.02982" lon="5.56986">
        <ele>1757.43</ele>
        <time>2010-02-10T10:13:54Z</time>
      </trkpt>
      <trkpt lat="45.02981" lon="5.56992">
        <ele>1757.91</ele>
        <time>2010-02-10T10:13:56Z</time>
      </trkpt>
      <trkpt lat="45.02976" lon="5.57001">
        <ele>1757.91</ele>
        <time>2010-02-10T10:14:10Z</time>
      </trkpt>
      <trkpt lat="45.02977" lon="5.56999">
        <ele>1757.43</ele>
        <time>2010-02-10T10:14:31Z</time>
      </trkpt>
      <trkpt lat="45.02977" lon="5.57007">
        <ele>1756.95</ele>
        <time>2010-02-10T10:14:53Z</time>
      </trkpt>
      <trkpt lat="45.02983" lon="5.57018">
        <ele>1755.99</ele>
        <time>2010-02-10T10:14:58Z</time>
      </trkpt>
      <trkpt lat="45.02991" lon="5.57014">
        <ele>1755.5</ele>
        <time>2010-02-10T10:15:15Z</time>
      </trkpt>
      <trkpt lat="45.02994" lon="5.57028">
        <ele>1752.14</ele>
        <time>2010-02-10T10:15:51Z</time>
      </trkpt>
      <trkpt lat="45.03009" lon="5.57029">
        <ele>1745.41</ele>
        <time>2010-02-10T10:15:54Z</time>
      </trkpt>
      <trkpt lat="45.03015" lon="5.57026">
        <ele>1743.97</ele>
        <time>2010-02-10T10:15:55Z</time>
      </trkpt>
      <trkpt lat="45.03037" lon="5.57009">
        <ele>1737.24</ele>
        <time>2010-02-10T10:15:58Z</time>
      </trkpt>
      <trkpt lat="45.0306" lon="5.57002">
        <ele>1729.55</ele>
        <time>2010-02-10T10:16:01Z</time>
      </trkpt>
      <trkpt lat="45.03069" lon="5.57">
        <ele>1725.7</ele>
        <time>2010-02-10T10:16:02Z</time>
      </trkpt>
      <trkpt lat="45.03078" lon="5.56998">
        <ele>1721.86</ele>
        <time>2010-02-10T10:16:03Z</time>
      </trkpt>
      <trkpt lat="45.03086" lon="5.57">
        <ele>1717.05</ele>
        <time>2010-02-10T10:16:04Z</time>
      </trkpt>
      <trkpt lat="45.03095" lon="5.57">
        <ele>1712.73</ele>
        <time>2010-02-10T10:16:05Z</time>
      </trkpt>
      <trkpt lat="45.03113" lon="5.56994">
        <ele>1711.76</ele>
        <time>2010-02-10T10:16:07Z</time>
      </trkpt>
      <trkpt lat="45.03139" lon="5.57">
        <ele>1698.31</ele>
        <time>2010-02-10T10:16:10Z</time>
      </trkpt>
      <trkpt lat="45.03157" lon="5.57008">
        <ele>1688.69</ele>
        <time>2010-02-10T10:16:12Z</time>
      </trkpt>
      <trkpt lat="45.03166" lon="5.57011">
        <ele>1685.33</ele>
        <time>2010-02-10T10:16:13Z</time>
      </trkpt>
      <trkpt lat="45.03176" lon="5.57013">
        <ele>1680.52</ele>
        <time>2010-02-10T10:16:14Z</time>
      </trkpt>
      <trkpt lat="45.03195" lon="5.57014">
        <ele>1673.79</ele>
        <time>2010-02-10T10:16:16Z</time>
      </trkpt>
      <trkpt lat="45.03204" lon="5.57016">
        <ele>1668.99</ele>
        <time>2010-02-10T10:16:17Z</time>
      </trkpt>
      <trkpt lat="45.03214" lon="5.57016">
        <ele>1665.14</ele>
        <time>2010-02-10T10:16:18Z</time>
      </trkpt>
      <trkpt lat="45.03225" lon="5.57016">
        <ele>1659.37</ele>
        <time>2010-02-10T10:16:19Z</time>
      </trkpt>
      <trkpt lat="45.03237" lon="5.57015">
        <ele>1655.05</ele>
        <time>2010-02-10T10:16:20Z</time>
      </trkpt>
      <trkpt lat="45.0326" lon="5.57018">
        <ele>1648.8</ele>
        <time>2010-02-10T10:16:22Z</time>
      </trkpt>
      <trkpt lat="45.0328" lon="5.57028">
        <ele>1644.95</ele>
        <time>2010-02-10T10:16:24Z</time>
      </trkpt>
      <trkpt lat="45.03307" lon="5.57038">
        <ele>1642.55</ele>
        <time>2010-02-10T10:16:27Z</time>
      </trkpt>
      <trkpt lat="45.03355" lon="5.57057">
        <ele>1639.19</ele>
        <time>2010-02-10T10:16:34Z</time>
      </trkpt>
      <trkpt lat="45.03372" lon="5.57063">
        <ele>1637.26</ele>
        <time>2010-02-10T10:16:37Z</time>
      </trkpt>
      <trkpt lat="45.03399" lon="5.57062">
        <ele>1631.01</ele>
        <time>2010-02-10T10:16:41Z</time>
      </trkpt>
      <trkpt lat="45.03415" lon="5.57058">
        <ele>1626.69</ele>
        <time>2010-02-10T10:16:43Z</time>
      </trkpt>
      <trkpt lat="45.03424" lon="5.57056">
        <ele>1623.8</ele>
        <time>2010-02-10T10:16:44Z</time>
      </trkpt>
      <trkpt lat="45.03443" lon="5.57053">
        <ele>1619.96</ele>
        <time>2010-02-10T10:16:46Z</time>
      </trkpt>
      <trkpt lat="45.03453" lon="5.57052">
        <ele>1619</ele>
        <time>2010-02-10T10:16:47Z</time>
      </trkpt>
      <trkpt lat="45.03471" lon="5.57048">
        <ele>1617.07</ele>
        <time>2010-02-10T10:16:49Z</time>
      </trkpt>
      <trkpt lat="45.0349" lon="5.57041">
        <ele>1612.75</ele>
        <time>2010-02-10T10:16:51Z</time>
      </trkpt>
      <trkpt lat="45.03517" lon="5.5703">
        <ele>1607.46</ele>
        <time>2010-02-10T10:16:54Z</time>
      </trkpt>
      <trkpt lat="45.03534" lon="5.57025">
        <ele>1604.1</ele>
        <time>2010-02-10T10:16:56Z</time>
      </trkpt>
      <trkpt lat="45.03559" lon="5.57024">
        <ele>1600.73</ele>
        <time>2010-02-10T10:16:59Z</time>
      </trkpt>
      <trkpt lat="45.03568" lon="5.57024">
        <ele>1599.77</ele>
        <time>2010-02-10T10:17:00Z</time>
      </trkpt>
      <trkpt lat="45.03591" lon="5.57017">
        <ele>1595.93</ele>
        <time>2010-02-10T10:17:03Z</time>
      </trkpt>
      <trkpt lat="45.03606" lon="5.5701">
        <ele>1592.08</ele>
        <time>2010-02-10T10:17:05Z</time>
      </trkpt>
      <trkpt lat="45.03628" lon="5.56998">
        <ele>1588.24</ele>
        <time>2010-02-10T10:17:08Z</time>
      </trkpt>
      <trkpt lat="45.03649" lon="5.56982">
        <ele>1586.31</ele>
        <time>2010-02-10T10:17:11Z</time>
      </trkpt>
      <trkpt lat="45.03663" lon="5.56972">
        <ele>1581.99</ele>
        <time>2010-02-10T10:17:13Z</time>
      </trkpt>
      <trkpt lat="45.03679" lon="5.56963">
        <ele>1577.18</ele>
        <time>2010-02-10T10:17:15Z</time>
      </trkpt>
      <trkpt lat="45.03707" lon="5.56954">
        <ele>1567.09</ele>
        <time>2010-02-10T10:17:18Z</time>
      </trkpt>
      <trkpt lat="45.03732" lon="5.56945">
        <ele>1563.24</ele>
        <time>2010-02-10T10:17:21Z</time>
      </trkpt>
      <trkpt lat="45.03747" lon="5.56938">
        <ele>1559.4</ele>
        <time>2010-02-10T10:17:23Z</time>
      </trkpt>
      <trkpt lat="45.03761" lon="5.56931">
        <ele>1556.51</ele>
        <time>2010-02-10T10:17:25Z</time>
      </trkpt>
      <trkpt lat="45.03768" lon="5.56927">
        <ele>1555.07</ele>
        <time>2010-02-10T10:17:26Z</time>
      </trkpt>
      <trkpt lat="45.03791" lon="5.56915">
        <ele>1547.38</ele>
        <time>2010-02-10T10:17:29Z</time>
      </trkpt>
      <trkpt lat="45.0381" lon="5.56911">
        <ele>1544.98</ele>
        <time>2010-02-10T10:17:32Z</time>
      </trkpt>
      <trkpt lat="45.03825" lon="5.56906">
        <ele>1543.53</ele>
        <time>2010-02-10T10:17:35Z</time>
      </trkpt>
      <trkpt lat="45.03834" lon="5.56899">
        <ele>1540.17</ele>
        <time>2010-02-10T10:17:37Z</time>
      </trkpt>
      <trkpt lat="45.0384" lon="5.56897">
        <ele>1538.73</ele>
        <time>2010-02-10T10:17:38Z</time>
      </trkpt>
      <trkpt lat="45.03861" lon="5.56892">
        <ele>1533.92</ele>
        <time>2010-02-10T10:17:42Z</time>
      </trkpt>
      <trkpt lat="45.03877" lon="5.56887">
        <ele>1531.04</ele>
        <time>2010-02-10T10:17:45Z</time>
      </trkpt>
      <trkpt lat="45.03882" lon="5.56884">
        <ele>1531.04</ele>
        <time>2010-02-10T10:17:46Z</time>
      </trkpt>
      <trkpt lat="45.03899" lon="5.56878">
        <ele>1524.79</ele>
        <time>2010-02-10T10:17:49Z</time>
      </trkpt>
      <trkpt lat="45.03917" lon="5.5687">
        <ele>1520.46</ele>
        <time>2010-02-10T10:17:52Z</time>
      </trkpt>
      <trkpt lat="45.03923" lon="5.56867">
        <ele>1518.06</ele>
        <time>2010-02-10T10:17:53Z</time>
      </trkpt>
      <trkpt lat="45.03943" lon="5.56848">
        <ele>1510.37</ele>
        <time>2010-02-10T10:17:56Z</time>
      </trkpt>
      <trkpt lat="45.03948" lon="5.5684">
        <ele>1507.48</ele>
        <time>2010-02-10T10:17:57Z</time>
      </trkpt>
      <trkpt lat="45.03952" lon="5.56832">
        <ele>1507.97</ele>
        <time>2010-02-10T10:17:58Z</time>
      </trkpt>
      <trkpt lat="45.03959" lon="5.56819">
        <ele>1508.45</ele>
        <time>2010-02-10T10:18:03Z</time>
      </trkpt>
      <trkpt lat="45.03959" lon="5.56818">
        <ele>1507.48</ele>
        <time>2010-02-10T10:18:52Z</time>
      </trkpt>
      <trkpt lat="45.03962" lon="5.56821">
        <ele>1506.52</ele>
        <time>2010-02-10T10:20:40Z</time>
      </trkpt>
      <trkpt lat="45.03968" lon="5.56813">
        <ele>1503.16</ele>
        <time>2010-02-10T10:20:43Z</time>
      </trkpt>
      <trkpt lat="45.03979" lon="5.56804">
        <ele>1496.91</ele>
        <time>2010-02-10T10:20:45Z</time>
      </trkpt>
      <trkpt lat="45.03987" lon="5.56799">
        <ele>1493.55</ele>
        <time>2010-02-10T10:20:46Z</time>
      </trkpt>
      <trkpt lat="45.03996" lon="5.56793">
        <ele>1488.74</ele>
        <time>2010-02-10T10:20:47Z</time>
      </trkpt>
      <trkpt lat="45.04015" lon="5.56776">
        <ele>1477.68</ele>
        <time>2010-02-10T10:20:49Z</time>
      </trkpt>
      <trkpt lat="45.04023" lon="5.56765">
        <ele>1473.84</ele>
        <time>2010-02-10T10:20:50Z</time>
      </trkpt>
      <trkpt lat="45.04038" lon="5.56743">
        <ele>1463.26</ele>
        <time>2010-02-10T10:20:52Z</time>
      </trkpt>
      <trkpt lat="45.0405" lon="5.56723">
        <ele>1457.5</ele>
        <time>2010-02-10T10:20:54Z</time>
      </trkpt>
      <trkpt lat="45.04057" lon="5.56714">
        <ele>1450.77</ele>
        <time>2010-02-10T10:20:55Z</time>
      </trkpt>
      <trkpt lat="45.04065" lon="5.56705">
        <ele>1445</ele>
        <time>2010-02-10T10:20:56Z</time>
      </trkpt>
      <trkpt lat="45.04074" lon="5.56694">
        <ele>1441.63</ele>
        <time>2010-02-10T10:20:57Z</time>
      </trkpt>
      <trkpt lat="45.04082" lon="5.56682">
        <ele>1434.42</ele>
        <time>2010-02-10T10:20:58Z</time>
      </trkpt>
      <trkpt lat="45.04101" lon="5.56646">
        <ele>1420.97</ele>
        <time>2010-02-10T10:21:01Z</time>
      </trkpt>
      <trkpt lat="45.04103" lon="5.56633">
        <ele>1417.6</ele>
        <time>2010-02-10T10:21:02Z</time>
      </trkpt>
      <trkpt lat="45.04104" lon="5.56619">
        <ele>1414.24</ele>
        <time>2010-02-10T10:21:03Z</time>
      </trkpt>
      <trkpt lat="45.04102" lon="5.5659">
        <ele>1406.07</ele>
        <time>2010-02-10T10:21:05Z</time>
      </trkpt>
      <trkpt lat="45.041" lon="5.56576">
        <ele>1407.51</ele>
        <time>2010-02-10T10:21:06Z</time>
      </trkpt>
      <trkpt lat="45.041" lon="5.56565">
        <ele>1402.22</ele>
        <time>2010-02-10T10:21:07Z</time>
      </trkpt>
      <trkpt lat="45.04102" lon="5.56554">
        <ele>1395.49</ele>
        <time>2010-02-10T10:21:08Z</time>
      </trkpt>
      <trkpt lat="45.04103" lon="5.56541">
        <ele>1391.17</ele>
        <time>2010-02-10T10:21:09Z</time>
      </trkpt>
      <trkpt lat="45.04109" lon="5.56498">
        <ele>1378.19</ele>
        <time>2010-02-10T10:21:13Z</time>
      </trkpt>
      <trkpt lat="45.04111" lon="5.56483">
        <ele>1373.38</ele>
        <time>2010-02-10T10:21:15Z</time>
      </trkpt>
      <trkpt lat="45.04115" lon="5.56478">
        <ele>1370.5</ele>
        <time>2010-02-10T10:21:16Z</time>
      </trkpt>
      <trkpt lat="45.04128" lon="5.56464">
        <ele>1359.92</ele>
        <time>2010-02-10T10:21:19Z</time>
      </trkpt>
      <trkpt lat="45.04135" lon="5.5646">
        <ele>1357.04</ele>
        <time>2010-02-10T10:21:20Z</time>
      </trkpt>
      <trkpt lat="45.04143" lon="5.56457">
        <ele>1347.43</ele>
        <time>2010-02-10T10:21:21Z</time>
      </trkpt>
      <trkpt lat="45.04148" lon="5.5645">
        <ele>1344.54</ele>
        <time>2010-02-10T10:21:22Z</time>
      </trkpt>
      <trkpt lat="45.04153" lon="5.5644">
        <ele>1336.37</ele>
        <time>2010-02-10T10:21:23Z</time>
      </trkpt>
      <trkpt lat="45.04161" lon="5.56432">
        <ele>1333.01</ele>
        <time>2010-02-10T10:21:24Z</time>
      </trkpt>
      <trkpt lat="45.04171" lon="5.56428">
        <ele>1325.31</ele>
        <time>2010-02-10T10:21:25Z</time>
      </trkpt>
      <trkpt lat="45.04181" lon="5.56422">
        <ele>1318.59</ele>
        <time>2010-02-10T10:21:26Z</time>
      </trkpt>
      <trkpt lat="45.04187" lon="5.56411">
        <ele>1315.7</ele>
        <time>2010-02-10T10:21:27Z</time>
      </trkpt>
      <trkpt lat="45.04199" lon="5.56388">
        <ele>1307.05</ele>
        <time>2010-02-10T10:21:29Z</time>
      </trkpt>
      <trkpt lat="45.04209" lon="5.5638">
        <ele>1300.32</ele>
        <time>2010-02-10T10:21:30Z</time>
      </trkpt>
      <trkpt lat="45.04225" lon="5.56358">
        <ele>1287.34</ele>
        <time>2010-02-10T10:21:32Z</time>
      </trkpt>
      <trkpt lat="45.04232" lon="5.56346">
        <ele>1282.54</ele>
        <time>2010-02-10T10:21:33Z</time>
      </trkpt>
      <trkpt lat="45.04242" lon="5.56336">
        <ele>1275.81</ele>
        <time>2010-02-10T10:21:34Z</time>
      </trkpt>
      <trkpt lat="45.04254" lon="5.56329">
        <ele>1269.08</ele>
        <time>2010-02-10T10:21:35Z</time>
      </trkpt>
      <trkpt lat="45.04305" lon="5.56317">
        <ele>1256.1</ele>
        <time>2010-02-10T10:21:39Z</time>
      </trkpt>
      <trkpt lat="45.04321" lon="5.56311">
        <ele>1254.66</ele>
        <time>2010-02-10T10:21:41Z</time>
      </trkpt>
      <trkpt lat="45.04351" lon="5.56281">
        <ele>1239.28</ele>
        <time>2010-02-10T10:21:45Z</time>
      </trkpt>
      <trkpt lat="45.04359" lon="5.56272">
        <ele>1234.47</ele>
        <time>2010-02-10T10:21:46Z</time>
      </trkpt>
      <trkpt lat="45.04366" lon="5.56262">
        <ele>1231.11</ele>
        <time>2010-02-10T10:21:47Z</time>
      </trkpt>
      <trkpt lat="45.04376" lon="5.56251">
        <ele>1218.61</ele>
        <time>2010-02-10T10:21:48Z</time>
      </trkpt>
      <trkpt lat="45.04382" lon="5.56237">
        <ele>1215.24</ele>
        <time>2010-02-10T10:21:49Z</time>
      </trkpt>
      <trkpt lat="45.04387" lon="5.56205">
        <ele>1209.96</ele>
        <time>2010-02-10T10:21:51Z</time>
      </trkpt>
      <trkpt lat="45.04389" lon="5.56189">
        <ele>1206.11</ele>
        <time>2010-02-10T10:21:52Z</time>
      </trkpt>
      <trkpt lat="45.04396" lon="5.56162">
        <ele>1198.42</ele>
        <time>2010-02-10T10:21:54Z</time>
      </trkpt>
      <trkpt lat="45.04397" lon="5.56148">
        <ele>1195.54</ele>
        <time>2010-02-10T10:21:55Z</time>
      </trkpt>
      <trkpt lat="45.04401" lon="5.56106">
        <ele>1182.08</ele>
        <time>2010-02-10T10:21:58Z</time>
      </trkpt>
      <trkpt lat="45.04408" lon="5.56093">
        <ele>1179.19</ele>
        <time>2010-02-10T10:21:59Z</time>
      </trkpt>
      <trkpt lat="45.04417" lon="5.56084">
        <ele>1173.91</ele>
        <time>2010-02-10T10:22:00Z</time>
      </trkpt>
      <trkpt lat="45.04444" lon="5.56047">
        <ele>1164.29</ele>
        <time>2010-02-10T10:22:04Z</time>
      </trkpt>
      <trkpt lat="45.04452" lon="5.5602">
        <ele>1157.08</ele>
        <time>2010-02-10T10:22:06Z</time>
      </trkpt>
      <trkpt lat="45.04456" lon="5.56009">
        <ele>1157.56</ele>
        <time>2010-02-10T10:22:07Z</time>
      </trkpt>
      <trkpt lat="45.04457" lon="5.56001">
        <ele>1160.45</ele>
        <time>2010-02-10T10:22:09Z</time>
      </trkpt>
      <trkpt lat="45.04457" lon="5.56001">
        <ele>1160.45</ele>
        <time>2010-02-10T10:22:27Z</time>
      </trkpt>
      <trkpt lat="45.04457" lon="5.56001">
        <ele>1161.41</ele>
        <time>2010-02-10T10:23:34Z</time>
      </trkpt>
      <trkpt lat="45.04457" lon="5.56002">
        <ele>1159.01</ele>
        <time>2010-02-10T10:24:39Z</time>
      </trkpt>
      <trkpt lat="45.04457" lon="5.56002">
        <ele>1154.68</ele>
        <time>2010-02-10T10:24:40Z</time>
      </trkpt>
      <trkpt lat="45.04457" lon="5.56002">
        <ele>1166.7</ele>
        <time>2010-02-10T10:24:41Z</time>
      </trkpt>
      <trkpt lat="45.04457" lon="5.56002">
        <ele>1160.93</ele>
        <time>2010-02-10T10:24:42Z</time>
      </trkpt>
      <trkpt lat="45.04454" lon="5.55999">
        <ele>1160.93</ele>
        <time>2010-02-10T10:24:48Z</time>
      </trkpt>
      <trkpt lat="45.04456" lon="5.55999">
        <ele>1160.45</ele>
        <time>2010-02-10T10:25:01Z</time>
      </trkpt>
      <trkpt lat="45.0445" lon="5.5596">
        <ele>1161.41</ele>
        <time>2010-02-10T10:25:12Z</time>
      </trkpt>
      <trkpt lat="45.04449" lon="5.55962">
        <ele>1159.49</ele>
        <time>2010-02-10T10:25:30Z</time>
      </trkpt>
      <trkpt lat="45.04447" lon="5.5596">
        <ele>1160.45</ele>
        <time>2010-02-10T10:25:50Z</time>
      </trkpt>
      <trkpt lat="45.04437" lon="5.5599">
        <ele>1159.97</ele>
        <time>2010-02-10T10:26:30Z</time>
      </trkpt>
      <trkpt lat="45.04436" lon="5.56">
        <ele>1160.45</ele>
        <time>2010-02-10T10:26:38Z</time>
      </trkpt>
      <trkpt lat="45.04412" lon="5.56">
        <ele>1164.29</ele>
        <time>2010-02-10T10:26:44Z</time>
      </trkpt>
      <trkpt lat="45.044" lon="5.56008">
        <ele>1169.1</ele>
        <time>2010-02-10T10:26:47Z</time>
      </trkpt>
      <trkpt lat="45.04395" lon="5.56014">
        <ele>1172.95</ele>
        <time>2010-02-10T10:26:49Z</time>
      </trkpt>
      <trkpt lat="45.04388" lon="5.56016">
        <ele>1176.79</ele>
        <time>2010-02-10T10:26:51Z</time>
      </trkpt>
      <trkpt lat="45.04381" lon="5.5602">
        <ele>1180.64</ele>
        <time>2010-02-10T10:26:53Z</time>
      </trkpt>
      <trkpt lat="45.04375" lon="5.56023">
        <ele>1184.96</ele>
        <time>2010-02-10T10:26:55Z</time>
      </trkpt>
      <trkpt lat="45.04366" lon="5.56032">
        <ele>1188.81</ele>
        <time>2010-02-10T10:26:58Z</time>
      </trkpt>
      <trkpt lat="45.0436" lon="5.56037">
        <ele>1192.17</ele>
        <time>2010-02-10T10:27:00Z</time>
      </trkpt>
      <trkpt lat="45.04349" lon="5.56043">
        <ele>1196.98</ele>
        <time>2010-02-10T10:27:03Z</time>
      </trkpt>
      <trkpt lat="45.0434" lon="5.56047">
        <ele>1201.79</ele>
        <time>2010-02-10T10:27:06Z</time>
      </trkpt>
      <trkpt lat="45.04334" lon="5.5605">
        <ele>1205.63</ele>
        <time>2010-02-10T10:27:08Z</time>
      </trkpt>
      <trkpt lat="45.04327" lon="5.56054">
        <ele>1209.48</ele>
        <time>2010-02-10T10:27:10Z</time>
      </trkpt>
      <trkpt lat="45.04321" lon="5.5606">
        <ele>1210.92</ele>
        <time>2010-02-10T10:27:12Z</time>
      </trkpt>
      <trkpt lat="45.04312" lon="5.56068">
        <ele>1214.28</ele>
        <time>2010-02-10T10:27:15Z</time>
      </trkpt>
      <trkpt lat="45.04304" lon="5.56074">
        <ele>1219.09</ele>
        <time>2010-02-10T10:27:18Z</time>
      </trkpt>
      <trkpt lat="45.04294" lon="5.56082">
        <ele>1222.45</ele>
        <time>2010-02-10T10:27:21Z</time>
      </trkpt>
      <trkpt lat="45.04283" lon="5.56085">
        <ele>1225.82</ele>
        <time>2010-02-10T10:27:24Z</time>
      </trkpt>
      <trkpt lat="45.04278" lon="5.56087">
        <ele>1229.66</ele>
        <time>2010-02-10T10:27:26Z</time>
      </trkpt>
      <trkpt lat="45.04268" lon="5.56095">
        <ele>1233.51</ele>
        <time>2010-02-10T10:27:29Z</time>
      </trkpt>
      <trkpt lat="45.04261" lon="5.56103">
        <ele>1238.32</ele>
        <time>2010-02-10T10:27:32Z</time>
      </trkpt>
      <trkpt lat="45.0425" lon="5.5611">
        <ele>1243.6</ele>
        <time>2010-02-10T10:27:35Z</time>
      </trkpt>
      <trkpt lat="45.04241" lon="5.56116">
        <ele>1247.45</ele>
        <time>2010-02-10T10:27:38Z</time>
      </trkpt>
      <trkpt lat="45.04235" lon="5.56123">
        <ele>1251.29</ele>
        <time>2010-02-10T10:27:40Z</time>
      </trkpt>
      <trkpt lat="45.04226" lon="5.56129">
        <ele>1256.58</ele>
        <time>2010-02-10T10:27:43Z</time>
      </trkpt>
      <trkpt lat="45.04218" lon="5.56134">
        <ele>1259.94</ele>
        <time>2010-02-10T10:27:45Z</time>
      </trkpt>
      <trkpt lat="45.04212" lon="5.56137">
        <ele>1263.31</ele>
        <time>2010-02-10T10:27:47Z</time>
      </trkpt>
      <trkpt lat="45.04205" lon="5.56139">
        <ele>1268.12</ele>
        <time>2010-02-10T10:27:49Z</time>
      </trkpt>
      <trkpt lat="45.04202" lon="5.56144">
        <ele>1271.96</ele>
        <time>2010-02-10T10:27:51Z</time>
      </trkpt>
      <trkpt lat="45.04193" lon="5.5615">
        <ele>1278.21</ele>
        <time>2010-02-10T10:27:54Z</time>
      </trkpt>
      <trkpt lat="45.04183" lon="5.56159">
        <ele>1282.54</ele>
        <time>2010-02-10T10:27:57Z</time>
      </trkpt>
      <trkpt lat="45.04177" lon="5.56164">
        <ele>1286.86</ele>
        <time>2010-02-10T10:27:59Z</time>
      </trkpt>
      <trkpt lat="45.04171" lon="5.56168">
        <ele>1291.19</ele>
        <time>2010-02-10T10:28:01Z</time>
      </trkpt>
      <trkpt lat="45.04163" lon="5.56173">
        <ele>1295.99</ele>
        <time>2010-02-10T10:28:04Z</time>
      </trkpt>
      <trkpt lat="45.04159" lon="5.56173">
        <ele>1298.88</ele>
        <time>2010-02-10T10:28:05Z</time>
      </trkpt>
      <trkpt lat="45.04142" lon="5.56186">
        <ele>1304.65</ele>
        <time>2010-02-10T10:28:10Z</time>
      </trkpt>
      <trkpt lat="45.04139" lon="5.56187">
        <ele>1304.65</ele>
        <time>2010-02-10T10:28:11Z</time>
      </trkpt>
      <trkpt lat="45.04132" lon="5.56191">
        <ele>1308.49</ele>
        <time>2010-02-10T10:28:13Z</time>
      </trkpt>
      <trkpt lat="45.04126" lon="5.56196">
        <ele>1311.86</ele>
        <time>2010-02-10T10:28:15Z</time>
      </trkpt>
      <trkpt lat="45.04118" lon="5.562">
        <ele>1316.66</ele>
        <time>2010-02-10T10:28:18Z</time>
      </trkpt>
      <trkpt lat="45.04109" lon="5.56205">
        <ele>1320.51</ele>
        <time>2010-02-10T10:28:20Z</time>
      </trkpt>
      <trkpt lat="45.04103" lon="5.5621">
        <ele>1323.87</ele>
        <time>2010-02-10T10:28:22Z</time>
      </trkpt>
      <trkpt lat="45.04098" lon="5.56216">
        <ele>1327.72</ele>
        <time>2010-02-10T10:28:24Z</time>
      </trkpt>
      <trkpt lat="45.04093" lon="5.5622">
        <ele>1330.6</ele>
        <time>2010-02-10T10:28:26Z</time>
      </trkpt>
      <trkpt lat="45.04084" lon="5.56225">
        <ele>1335.89</ele>
        <time>2010-02-10T10:28:29Z</time>
      </trkpt>
      <trkpt lat="45.04076" lon="5.5623">
        <ele>1340.22</ele>
        <time>2010-02-10T10:28:31Z</time>
      </trkpt>
      <trkpt lat="45.0407" lon="5.56234">
        <ele>1343.58</ele>
        <time>2010-02-10T10:28:33Z</time>
      </trkpt>
      <trkpt lat="45.04065" lon="5.56239">
        <ele>1347.91</ele>
        <time>2010-02-10T10:28:35Z</time>
      </trkpt>
      <trkpt lat="45.0406" lon="5.56243">
        <ele>1351.27</ele>
        <time>2010-02-10T10:28:37Z</time>
      </trkpt>
      <trkpt lat="45.04054" lon="5.56246">
        <ele>1355.6</ele>
        <time>2010-02-10T10:28:39Z</time>
      </trkpt>
      <trkpt lat="45.04049" lon="5.56253">
        <ele>1358.96</ele>
        <time>2010-02-10T10:28:41Z</time>
      </trkpt>
      <trkpt lat="45.04038" lon="5.5626">
        <ele>1361.84</ele>
        <time>2010-02-10T10:28:44Z</time>
      </trkpt>
      <trkpt lat="45.04029" lon="5.56268">
        <ele>1366.17</ele>
        <time>2010-02-10T10:28:47Z</time>
      </trkpt>
      <trkpt lat="45.04023" lon="5.56271">
        <ele>1370.02</ele>
        <time>2010-02-10T10:28:49Z</time>
      </trkpt>
      <trkpt lat="45.04013" lon="5.56279">
        <ele>1374.34</ele>
        <time>2010-02-10T10:28:52Z</time>
      </trkpt>
      <trkpt lat="45.04006" lon="5.56283">
        <ele>1377.71</ele>
        <time>2010-02-10T10:28:54Z</time>
      </trkpt>
      <trkpt lat="45.04" lon="5.56287">
        <ele>1381.07</ele>
        <time>2010-02-10T10:28:56Z</time>
      </trkpt>
      <trkpt lat="45.03992" lon="5.56293">
        <ele>1385.88</ele>
        <time>2010-02-10T10:28:59Z</time>
      </trkpt>
      <trkpt lat="45.03986" lon="5.56297">
        <ele>1389.24</ele>
        <time>2010-02-10T10:29:01Z</time>
      </trkpt>
      <trkpt lat="45.0398" lon="5.56301">
        <ele>1392.61</ele>
        <time>2010-02-10T10:29:03Z</time>
      </trkpt>
      <trkpt lat="45.03973" lon="5.56306">
        <ele>1395.97</ele>
        <time>2010-02-10T10:29:05Z</time>
      </trkpt>
      <trkpt lat="45.03966" lon="5.56311">
        <ele>1399.34</ele>
        <time>2010-02-10T10:29:07Z</time>
      </trkpt>
      <trkpt lat="45.03961" lon="5.56315">
        <ele>1404.14</ele>
        <time>2010-02-10T10:29:09Z</time>
      </trkpt>
      <trkpt lat="45.03955" lon="5.56319">
        <ele>1407.51</ele>
        <time>2010-02-10T10:29:11Z</time>
      </trkpt>
      <trkpt lat="45.03947" lon="5.56324">
        <ele>1409.91</ele>
        <time>2010-02-10T10:29:14Z</time>
      </trkpt>
      <trkpt lat="45.03937" lon="5.56331">
        <ele>1413.76</ele>
        <time>2010-02-10T10:29:17Z</time>
      </trkpt>
      <trkpt lat="45.03923" lon="5.56341">
        <ele>1417.12</ele>
        <time>2010-02-10T10:29:21Z</time>
      </trkpt>
      <trkpt lat="45.03914" lon="5.5635">
        <ele>1420.97</ele>
        <time>2010-02-10T10:29:25Z</time>
      </trkpt>
      <trkpt lat="45.03903" lon="5.56358">
        <ele>1425.29</ele>
        <time>2010-02-10T10:29:28Z</time>
      </trkpt>
      <trkpt lat="45.03894" lon="5.56365">
        <ele>1428.66</ele>
        <time>2010-02-10T10:29:31Z</time>
      </trkpt>
      <trkpt lat="45.03885" lon="5.56372">
        <ele>1432.98</ele>
        <time>2010-02-10T10:29:34Z</time>
      </trkpt>
      <trkpt lat="45.03877" lon="5.56375">
        <ele>1434.42</ele>
        <time>2010-02-10T10:29:36Z</time>
      </trkpt>
      <trkpt lat="45.03868" lon="5.56379">
        <ele>1437.79</ele>
        <time>2010-02-10T10:29:38Z</time>
      </trkpt>
      <trkpt lat="45.03857" lon="5.56387">
        <ele>1441.63</ele>
        <time>2010-02-10T10:29:41Z</time>
      </trkpt>
      <trkpt lat="45.03847" lon="5.56394">
        <ele>1445.48</ele>
        <time>2010-02-10T10:29:44Z</time>
      </trkpt>
      <trkpt lat="45.0384" lon="5.564">
        <ele>1450.77</ele>
        <time>2010-02-10T10:29:47Z</time>
      </trkpt>
      <trkpt lat="45.03834" lon="5.56405">
        <ele>1453.65</ele>
        <time>2010-02-10T10:29:49Z</time>
      </trkpt>
      <trkpt lat="45.03823" lon="5.56411">
        <ele>1458.46</ele>
        <time>2010-02-10T10:29:52Z</time>
      </trkpt>
      <trkpt lat="45.03813" lon="5.56418">
        <ele>1462.3</ele>
        <time>2010-02-10T10:29:55Z</time>
      </trkpt>
      <trkpt lat="45.03807" lon="5.5642">
        <ele>1465.19</ele>
        <time>2010-02-10T10:29:57Z</time>
      </trkpt>
      <trkpt lat="45.03799" lon="5.56422">
        <ele>1469.03</ele>
        <time>2010-02-10T10:29:59Z</time>
      </trkpt>
      <trkpt lat="45.03789" lon="5.56427">
        <ele>1474.32</ele>
        <time>2010-02-10T10:30:02Z</time>
      </trkpt>
      <trkpt lat="45.03782" lon="5.56436">
        <ele>1478.16</ele>
        <time>2010-02-10T10:30:05Z</time>
      </trkpt>
      <trkpt lat="45.03773" lon="5.56442">
        <ele>1481.53</ele>
        <time>2010-02-10T10:30:08Z</time>
      </trkpt>
      <trkpt lat="45.03764" lon="5.56449">
        <ele>1484.89</ele>
        <time>2010-02-10T10:30:11Z</time>
      </trkpt>
      <trkpt lat="45.03755" lon="5.56454">
        <ele>1489.22</ele>
        <time>2010-02-10T10:30:14Z</time>
      </trkpt>
      <trkpt lat="45.03744" lon="5.56461">
        <ele>1493.06</ele>
        <time>2010-02-10T10:30:17Z</time>
      </trkpt>
      <trkpt lat="45.03737" lon="5.56468">
        <ele>1495.47</ele>
        <time>2010-02-10T10:30:20Z</time>
      </trkpt>
      <trkpt lat="45.03727" lon="5.56479">
        <ele>1499.31</ele>
        <time>2010-02-10T10:30:24Z</time>
      </trkpt>
      <trkpt lat="45.03718" lon="5.56483">
        <ele>1500.27</ele>
        <time>2010-02-10T10:30:26Z</time>
      </trkpt>
      <trkpt lat="45.03708" lon="5.56491">
        <ele>1503.64</ele>
        <time>2010-02-10T10:30:29Z</time>
      </trkpt>
      <trkpt lat="45.03702" lon="5.56496">
        <ele>1505.08</ele>
        <time>2010-02-10T10:30:31Z</time>
      </trkpt>
      <trkpt lat="45.03693" lon="5.56504">
        <ele>1508.93</ele>
        <time>2010-02-10T10:30:34Z</time>
      </trkpt>
      <trkpt lat="45.03681" lon="5.56511">
        <ele>1511.33</ele>
        <time>2010-02-10T10:30:37Z</time>
      </trkpt>
      <trkpt lat="45.03675" lon="5.56516">
        <ele>1514.69</ele>
        <time>2010-02-10T10:30:39Z</time>
      </trkpt>
      <trkpt lat="45.03665" lon="5.56524">
        <ele>1518.06</ele>
        <time>2010-02-10T10:30:42Z</time>
      </trkpt>
      <trkpt lat="45.03655" lon="5.5653">
        <ele>1521.9</ele>
        <time>2010-02-10T10:30:45Z</time>
      </trkpt>
      <trkpt lat="45.03648" lon="5.56535">
        <ele>1525.27</ele>
        <time>2010-02-10T10:30:47Z</time>
      </trkpt>
      <trkpt lat="45.03638" lon="5.56544">
        <ele>1528.15</ele>
        <time>2010-02-10T10:30:50Z</time>
      </trkpt>
      <trkpt lat="45.03628" lon="5.5655">
        <ele>1532.48</ele>
        <time>2010-02-10T10:30:53Z</time>
      </trkpt>
      <trkpt lat="45.03617" lon="5.56553">
        <ele>1535.84</ele>
        <time>2010-02-10T10:30:56Z</time>
      </trkpt>
      <trkpt lat="45.03608" lon="5.5656">
        <ele>1541.13</ele>
        <time>2010-02-10T10:30:59Z</time>
      </trkpt>
      <trkpt lat="45.03598" lon="5.56567">
        <ele>1544.5</ele>
        <time>2010-02-10T10:31:02Z</time>
      </trkpt>
      <trkpt lat="45.03592" lon="5.56571">
        <ele>1547.86</ele>
        <time>2010-02-10T10:31:04Z</time>
      </trkpt>
      <trkpt lat="45.03583" lon="5.56575">
        <ele>1553.15</ele>
        <time>2010-02-10T10:31:07Z</time>
      </trkpt>
      <trkpt lat="45.03578" lon="5.5658">
        <ele>1556.03</ele>
        <time>2010-02-10T10:31:09Z</time>
      </trkpt>
      <trkpt lat="45.03571" lon="5.56584">
        <ele>1559.4</ele>
        <time>2010-02-10T10:31:11Z</time>
      </trkpt>
      <trkpt lat="45.03565" lon="5.56588">
        <ele>1562.76</ele>
        <time>2010-02-10T10:31:13Z</time>
      </trkpt>
      <trkpt lat="45.03551" lon="5.56596">
        <ele>1566.61</ele>
        <time>2010-02-10T10:31:17Z</time>
      </trkpt>
      <trkpt lat="45.03536" lon="5.56605">
        <ele>1570.45</ele>
        <time>2010-02-10T10:31:21Z</time>
      </trkpt>
      <trkpt lat="45.03526" lon="5.56612">
        <ele>1573.33</ele>
        <time>2010-02-10T10:31:24Z</time>
      </trkpt>
      <trkpt lat="45.03517" lon="5.56618">
        <ele>1577.18</ele>
        <time>2010-02-10T10:31:27Z</time>
      </trkpt>
      <trkpt lat="45.03508" lon="5.56625">
        <ele>1581.03</ele>
        <time>2010-02-10T10:31:30Z</time>
      </trkpt>
      <trkpt lat="45.03494" lon="5.56633">
        <ele>1586.79</ele>
        <time>2010-02-10T10:31:34Z</time>
      </trkpt>
      <trkpt lat="45.03484" lon="5.56641">
        <ele>1589.68</ele>
        <time>2010-02-10T10:31:37Z</time>
      </trkpt>
      <trkpt lat="45.03473" lon="5.56647">
        <ele>1593.52</ele>
        <time>2010-02-10T10:31:40Z</time>
      </trkpt>
      <trkpt lat="45.03464" lon="5.56652">
        <ele>1597.85</ele>
        <time>2010-02-10T10:31:43Z</time>
      </trkpt>
      <trkpt lat="45.03454" lon="5.56659">
        <ele>1602.66</ele>
        <time>2010-02-10T10:31:46Z</time>
      </trkpt>
      <trkpt lat="45.03448" lon="5.56665">
        <ele>1606.02</ele>
        <time>2010-02-10T10:31:48Z</time>
      </trkpt>
      <trkpt lat="45.03441" lon="5.56673">
        <ele>1609.86</ele>
        <time>2010-02-10T10:31:51Z</time>
      </trkpt>
      <trkpt lat="45.03434" lon="5.56678">
        <ele>1613.71</ele>
        <time>2010-02-10T10:31:53Z</time>
      </trkpt>
      <trkpt lat="45.03426" lon="5.56685">
        <ele>1617.07</ele>
        <time>2010-02-10T10:31:56Z</time>
      </trkpt>
      <trkpt lat="45.03421" lon="5.5669">
        <ele>1620.44</ele>
        <time>2010-02-10T10:31:58Z</time>
      </trkpt>
      <trkpt lat="45.03414" lon="5.56694">
        <ele>1624.28</ele>
        <time>2010-02-10T10:32:00Z</time>
      </trkpt>
      <trkpt lat="45.03404" lon="5.56705">
        <ele>1627.17</ele>
        <time>2010-02-10T10:32:04Z</time>
      </trkpt>
      <trkpt lat="45.03394" lon="5.56711">
        <ele>1630.53</ele>
        <time>2010-02-10T10:32:07Z</time>
      </trkpt>
      <trkpt lat="45.03382" lon="5.5672">
        <ele>1634.38</ele>
        <time>2010-02-10T10:32:10Z</time>
      </trkpt>
      <trkpt lat="45.03367" lon="5.56727">
        <ele>1638.7</ele>
        <time>2010-02-10T10:32:14Z</time>
      </trkpt>
      <trkpt lat="45.03359" lon="5.56733">
        <ele>1641.59</ele>
        <time>2010-02-10T10:32:17Z</time>
      </trkpt>
      <trkpt lat="45.03348" lon="5.56741">
        <ele>1645.43</ele>
        <time>2010-02-10T10:32:20Z</time>
      </trkpt>
      <trkpt lat="45.03336" lon="5.56747">
        <ele>1650.24</ele>
        <time>2010-02-10T10:32:24Z</time>
      </trkpt>
      <trkpt lat="45.03332" lon="5.56749">
        <ele>1650.24</ele>
        <time>2010-02-10T10:32:25Z</time>
      </trkpt>
      <trkpt lat="45.03326" lon="5.56753">
        <ele>1653.6</ele>
        <time>2010-02-10T10:32:27Z</time>
      </trkpt>
      <trkpt lat="45.03323" lon="5.56756">
        <ele>1654.09</ele>
        <time>2010-02-10T10:32:28Z</time>
      </trkpt>
      <trkpt lat="45.03316" lon="5.56759">
        <ele>1657.93</ele>
        <time>2010-02-10T10:32:30Z</time>
      </trkpt>
      <trkpt lat="45.03307" lon="5.56768">
        <ele>1662.26</ele>
        <time>2010-02-10T10:32:33Z</time>
      </trkpt>
      <trkpt lat="45.03298" lon="5.56775">
        <ele>1666.58</ele>
        <time>2010-02-10T10:32:36Z</time>
      </trkpt>
      <trkpt lat="45.0329" lon="5.56779">
        <ele>1669.95</ele>
        <time>2010-02-10T10:32:39Z</time>
      </trkpt>
      <trkpt lat="45.03273" lon="5.56794">
        <ele>1672.35</ele>
        <time>2010-02-10T10:32:44Z</time>
      </trkpt>
      <trkpt lat="45.03264" lon="5.56804">
        <ele>1676.2</ele>
        <time>2010-02-10T10:32:47Z</time>
      </trkpt>
      <trkpt lat="45.03256" lon="5.56808">
        <ele>1679.56</ele>
        <time>2010-02-10T10:32:50Z</time>
      </trkpt>
      <trkpt lat="45.03253" lon="5.56812">
        <ele>1679.08</ele>
        <time>2010-02-10T10:32:51Z</time>
      </trkpt>
      <trkpt lat="45.03247" lon="5.56816">
        <ele>1682.44</ele>
        <time>2010-02-10T10:32:53Z</time>
      </trkpt>
      <trkpt lat="45.03243" lon="5.56819">
        <ele>1682.44</ele>
        <time>2010-02-10T10:32:54Z</time>
      </trkpt>
      <trkpt lat="45.0323" lon="5.5683">
        <ele>1686.77</ele>
        <time>2010-02-10T10:32:58Z</time>
      </trkpt>
      <trkpt lat="45.03219" lon="5.56834">
        <ele>1690.14</ele>
        <time>2010-02-10T10:33:01Z</time>
      </trkpt>
      <trkpt lat="45.03211" lon="5.56837">
        <ele>1693.02</ele>
        <time>2010-02-10T10:33:04Z</time>
      </trkpt>
      <trkpt lat="45.032" lon="5.56846">
        <ele>1696.86</ele>
        <time>2010-02-10T10:33:07Z</time>
      </trkpt>
      <trkpt lat="45.03189" lon="5.56853">
        <ele>1700.71</ele>
        <time>2010-02-10T10:33:10Z</time>
      </trkpt>
      <trkpt lat="45.0318" lon="5.5686">
        <ele>1704.55</ele>
        <time>2010-02-10T10:33:13Z</time>
      </trkpt>
      <trkpt lat="45.03171" lon="5.56868">
        <ele>1707.92</ele>
        <time>2010-02-10T10:33:16Z</time>
      </trkpt>
      <trkpt lat="45.03159" lon="5.56878">
        <ele>1711.28</ele>
        <time>2010-02-10T10:33:20Z</time>
      </trkpt>
      <trkpt lat="45.03145" lon="5.56887">
        <ele>1714.17</ele>
        <time>2010-02-10T10:33:24Z</time>
      </trkpt>
      <trkpt lat="45.03134" lon="5.56894">
        <ele>1717.53</ele>
        <time>2010-02-10T10:33:27Z</time>
      </trkpt>
      <trkpt lat="45.03131" lon="5.56898">
        <ele>1717.53</ele>
        <time>2010-02-10T10:33:28Z</time>
      </trkpt>
      <trkpt lat="45.03125" lon="5.56902">
        <ele>1720.42</ele>
        <time>2010-02-10T10:33:30Z</time>
      </trkpt>
      <trkpt lat="45.03115" lon="5.56907">
        <ele>1723.78</ele>
        <time>2010-02-10T10:33:33Z</time>
      </trkpt>
      <trkpt lat="45.03106" lon="5.56914">
        <ele>1727.15</ele>
        <time>2010-02-10T10:33:36Z</time>
      </trkpt>
      <trkpt lat="45.03099" lon="5.56925">
        <ele>1730.51</ele>
        <time>2010-02-10T10:33:39Z</time>
      </trkpt>
      <trkpt lat="45.03087" lon="5.56932">
        <ele>1733.39</ele>
        <time>2010-02-10T10:33:42Z</time>
      </trkpt>
      <trkpt lat="45.03076" lon="5.56938">
        <ele>1736.76</ele>
        <time>2010-02-10T10:33:45Z</time>
      </trkpt>
      <trkpt lat="45.03067" lon="5.56945">
        <ele>1741.57</ele>
        <time>2010-02-10T10:33:48Z</time>
      </trkpt>
      <trkpt lat="45.03057" lon="5.56951">
        <ele>1744.93</ele>
        <time>2010-02-10T10:33:51Z</time>
      </trkpt>
      <trkpt lat="45.03048" lon="5.56958">
        <ele>1748.29</ele>
        <time>2010-02-10T10:33:54Z</time>
      </trkpt>
      <trkpt lat="45.03022" lon="5.5698">
        <ele>1750.7</ele>
        <time>2010-02-10T10:34:04Z</time>
      </trkpt>
      <trkpt lat="45.03032" lon="5.5698">
        <ele>1751.18</ele>
        <time>2010-02-10T10:34:17Z</time>
      </trkpt>
      <trkpt lat="45.03038" lon="5.56979">
        <ele>1751.18</ele>
        <time>2010-02-10T10:34:22Z</time>
      </trkpt>
      <trkpt lat="45.03067" lon="5.56993">
        <ele>1750.7</ele>
        <time>2010-02-10T10:34:39Z</time>
      </trkpt>
      <trkpt lat="45.03033" lon="5.56988">
        <ele>1751.66</ele>
        <time>2010-02-10T10:34:55Z</time>
      </trkpt>
      <trkpt lat="45.02997" lon="5.57015">
        <ele>1751.66</ele>
        <time>2010-02-10T10:34:57Z</time>
      </trkpt>
      <trkpt lat="45.02992" lon="5.57017">
        <ele>1752.62</ele>
        <time>2010-02-10T10:35:09Z</time>
      </trkpt>
      <trkpt lat="45.02992" lon="5.57017">
        <ele>1749.26</ele>
        <time>2010-02-10T10:35:39Z</time>
      </trkpt>
      <trkpt lat="45.02992" lon="5.57017">
        <ele>1769.44</ele>
        <time>2010-02-10T11:12:47Z</time>
      </trkpt>
      <trkpt lat="45.02992" lon="5.57017">
        <ele>1333.49</ele>
        <time>2010-02-10T11:12:48Z</time>
      </trkpt>
      <trkpt lat="45.02992" lon="5.57017">
        <ele>1334.45</ele>
        <time>2010-02-10T11:12:49Z</time>
      </trkpt>
      <trkpt lat="45.02992" lon="5.57017">
        <ele>1336.85</ele>
        <time>2010-02-10T11:12:51Z</time>
      </trkpt>
      <trkpt lat="45.04032" lon="5.56275">
        <ele>1339.73</ele>
        <time>2010-02-10T11:12:53Z</time>
      </trkpt>
      <trkpt lat="45.04022" lon="5.56279">
        <ele>1344.06</ele>
        <time>2010-02-10T11:12:56Z</time>
      </trkpt>
      <trkpt lat="45.04016" lon="5.56281">
        <ele>1348.39</ele>
        <time>2010-02-10T11:12:58Z</time>
      </trkpt>
      <trkpt lat="45.0401" lon="5.56285">
        <ele>1353.19</ele>
        <time>2010-02-10T11:13:00Z</time>
      </trkpt>
      <trkpt lat="45.04003" lon="5.56289">
        <ele>1356.08</ele>
        <time>2010-02-10T11:13:02Z</time>
      </trkpt>
      <trkpt lat="45.04" lon="5.56291">
        <ele>1356.08</ele>
        <time>2010-02-10T11:13:03Z</time>
      </trkpt>
      <trkpt lat="45.03995" lon="5.56294">
        <ele>1361.84</ele>
        <time>2010-02-10T11:13:05Z</time>
      </trkpt>
      <trkpt lat="45.03989" lon="5.56298">
        <ele>1365.69</ele>
        <time>2010-02-10T11:13:07Z</time>
      </trkpt>
      <trkpt lat="45.03982" lon="5.56302">
        <ele>1369.54</ele>
        <time>2010-02-10T11:13:09Z</time>
      </trkpt>
      <trkpt lat="45.03976" lon="5.56306">
        <ele>1374.82</ele>
        <time>2010-02-10T11:13:11Z</time>
      </trkpt>
      <trkpt lat="45.03967" lon="5.56313">
        <ele>1380.59</ele>
        <time>2010-02-10T11:13:14Z</time>
      </trkpt>
      <trkpt lat="45.03961" lon="5.56316">
        <ele>1384.92</ele>
        <time>2010-02-10T11:13:16Z</time>
      </trkpt>
      <trkpt lat="45.03952" lon="5.56323">
        <ele>1389.24</ele>
        <time>2010-02-10T11:13:19Z</time>
      </trkpt>
      <trkpt lat="45.03939" lon="5.56331">
        <ele>1393.09</ele>
        <time>2010-02-10T11:13:23Z</time>
      </trkpt>
      <trkpt lat="45.03933" lon="5.56336">
        <ele>1396.45</ele>
        <time>2010-02-10T11:13:25Z</time>
      </trkpt>
      <trkpt lat="45.03924" lon="5.56342">
        <ele>1400.3</ele>
        <time>2010-02-10T11:13:28Z</time>
      </trkpt>
      <trkpt lat="45.03911" lon="5.56351">
        <ele>1405.58</ele>
        <time>2010-02-10T11:13:32Z</time>
      </trkpt>
      <trkpt lat="45.03901" lon="5.56358">
        <ele>1408.95</ele>
        <time>2010-02-10T11:13:35Z</time>
      </trkpt>
      <trkpt lat="45.03891" lon="5.56364">
        <ele>1412.31</ele>
        <time>2010-02-10T11:13:38Z</time>
      </trkpt>
      <trkpt lat="45.03885" lon="5.56369">
        <ele>1415.68</ele>
        <time>2010-02-10T11:13:40Z</time>
      </trkpt>
      <trkpt lat="45.03875" lon="5.56375">
        <ele>1419.52</ele>
        <time>2010-02-10T11:13:43Z</time>
      </trkpt>
      <trkpt lat="45.03866" lon="5.56382">
        <ele>1423.37</ele>
        <time>2010-02-10T11:13:46Z</time>
      </trkpt>
      <trkpt lat="45.03856" lon="5.56389">
        <ele>1426.73</ele>
        <time>2010-02-10T11:13:49Z</time>
      </trkpt>
      <trkpt lat="45.03849" lon="5.56393">
        <ele>1427.7</ele>
        <time>2010-02-10T11:13:51Z</time>
      </trkpt>
      <trkpt lat="45.03841" lon="5.564">
        <ele>1431.54</ele>
        <time>2010-02-10T11:13:52Z</time>
      </trkpt>
      <trkpt lat="45.03834" lon="5.56407">
        <ele>1435.39</ele>
        <time>2010-02-10T11:13:55Z</time>
      </trkpt>
      <trkpt lat="45.03826" lon="5.56413">
        <ele>1439.71</ele>
        <time>2010-02-10T11:13:57Z</time>
      </trkpt>
      <trkpt lat="45.03821" lon="5.56414">
        <ele>1443.08</ele>
        <time>2010-02-10T11:13:59Z</time>
      </trkpt>
      <trkpt lat="45.0381" lon="5.56423">
        <ele>1447.4</ele>
        <time>2010-02-10T11:14:02Z</time>
      </trkpt>
      <trkpt lat="45.03804" lon="5.56427">
        <ele>1450.77</ele>
        <time>2010-02-10T11:14:04Z</time>
      </trkpt>
      <trkpt lat="45.038" lon="5.56431">
        <ele>1454.61</ele>
        <time>2010-02-10T11:14:06Z</time>
      </trkpt>
      <trkpt lat="45.03798" lon="5.56433">
        <ele>1454.61</ele>
        <time>2010-02-10T11:14:07Z</time>
      </trkpt>
      <trkpt lat="45.03791" lon="5.56437">
        <ele>1457.98</ele>
        <time>2010-02-10T11:14:09Z</time>
      </trkpt>
      <trkpt lat="45.03782" lon="5.56442">
        <ele>1461.82</ele>
        <time>2010-02-10T11:14:12Z</time>
      </trkpt>
      <trkpt lat="45.03771" lon="5.56452">
        <ele>1466.63</ele>
        <time>2010-02-10T11:14:15Z</time>
      </trkpt>
      <trkpt lat="45.03758" lon="5.5646">
        <ele>1471.44</ele>
        <time>2010-02-10T11:14:19Z</time>
      </trkpt>
      <trkpt lat="45.03752" lon="5.56464">
        <ele>1471.92</ele>
        <time>2010-02-10T11:14:21Z</time>
      </trkpt>
      <trkpt lat="45.03746" lon="5.56468">
        <ele>1475.76</ele>
        <time>2010-02-10T11:14:23Z</time>
      </trkpt>
      <trkpt lat="45.0374" lon="5.56473">
        <ele>1476.72</ele>
        <time>2010-02-10T11:14:25Z</time>
      </trkpt>
      <trkpt lat="45.0373" lon="5.5648">
        <ele>1480.09</ele>
        <time>2010-02-10T11:14:28Z</time>
      </trkpt>
      <trkpt lat="45.03717" lon="5.56489">
        <ele>1483.93</ele>
        <time>2010-02-10T11:14:32Z</time>
      </trkpt>
      <trkpt lat="45.03711" lon="5.56492">
        <ele>1485.85</ele>
        <time>2010-02-10T11:14:34Z</time>
      </trkpt>
      <trkpt lat="45.03704" lon="5.56497">
        <ele>1488.74</ele>
        <time>2010-02-10T11:14:36Z</time>
      </trkpt>
      <trkpt lat="45.03691" lon="5.56505">
        <ele>1493.06</ele>
        <time>2010-02-10T11:14:40Z</time>
      </trkpt>
      <trkpt lat="45.03684" lon="5.56511">
        <ele>1496.43</ele>
        <time>2010-02-10T11:14:43Z</time>
      </trkpt>
      <trkpt lat="45.03673" lon="5.56518">
        <ele>1499.79</ele>
        <time>2010-02-10T11:14:46Z</time>
      </trkpt>
      <trkpt lat="45.0366" lon="5.56528">
        <ele>1503.16</ele>
        <time>2010-02-10T11:14:49Z</time>
      </trkpt>
      <trkpt lat="45.03649" lon="5.56535">
        <ele>1507</ele>
        <time>2010-02-10T11:14:52Z</time>
      </trkpt>
      <trkpt lat="45.03641" lon="5.56541">
        <ele>1511.33</ele>
        <time>2010-02-10T11:14:55Z</time>
      </trkpt>
      <trkpt lat="45.03639" lon="5.56541">
        <ele>1511.33</ele>
        <time>2010-02-10T11:14:56Z</time>
      </trkpt>
      <trkpt lat="45.0363" lon="5.56549">
        <ele>1515.18</ele>
        <time>2010-02-10T11:14:59Z</time>
      </trkpt>
      <trkpt lat="45.03623" lon="5.56554">
        <ele>1518.54</ele>
        <time>2010-02-10T11:15:01Z</time>
      </trkpt>
      <trkpt lat="45.03617" lon="5.56559">
        <ele>1521.9</ele>
        <time>2010-02-10T11:15:03Z</time>
      </trkpt>
      <trkpt lat="45.0361" lon="5.56563">
        <ele>1524.79</ele>
        <time>2010-02-10T11:15:05Z</time>
      </trkpt>
      <trkpt lat="45.03604" lon="5.56567">
        <ele>1527.67</ele>
        <time>2010-02-10T11:15:07Z</time>
      </trkpt>
      <trkpt lat="45.03594" lon="5.56574">
        <ele>1530.08</ele>
        <time>2010-02-10T11:15:10Z</time>
      </trkpt>
      <trkpt lat="45.03591" lon="5.56576">
        <ele>1533.92</ele>
        <time>2010-02-10T11:15:11Z</time>
      </trkpt>
      <trkpt lat="45.03581" lon="5.56581">
        <ele>1538.25</ele>
        <time>2010-02-10T11:15:14Z</time>
      </trkpt>
      <trkpt lat="45.03575" lon="5.56586">
        <ele>1542.09</ele>
        <time>2010-02-10T11:15:16Z</time>
      </trkpt>
      <trkpt lat="45.03571" lon="5.5659">
        <ele>1544.98</ele>
        <time>2010-02-10T11:15:18Z</time>
      </trkpt>
      <trkpt lat="45.03561" lon="5.56597">
        <ele>1549.3</ele>
        <time>2010-02-10T11:15:21Z</time>
      </trkpt>
      <trkpt lat="45.03553" lon="5.56601">
        <ele>1550.74</ele>
        <time>2010-02-10T11:15:23Z</time>
      </trkpt>
      <trkpt lat="45.03543" lon="5.56609">
        <ele>1554.11</ele>
        <time>2010-02-10T11:15:26Z</time>
      </trkpt>
      <trkpt lat="45.03533" lon="5.56617">
        <ele>1557.47</ele>
        <time>2010-02-10T11:15:30Z</time>
      </trkpt>
      <trkpt lat="45.0353" lon="5.56623">
        <ele>1559.88</ele>
        <time>2010-02-10T11:15:41Z</time>
      </trkpt>
      <trkpt lat="45.03524" lon="5.56624">
        <ele>1561.32</ele>
        <time>2010-02-10T11:16:21Z</time>
      </trkpt>
      <trkpt lat="45.03516" lon="5.56626">
        <ele>1564.2</ele>
        <time>2010-02-10T11:16:26Z</time>
      </trkpt>
      <trkpt lat="45.03514" lon="5.56629">
        <ele>1565.64</ele>
        <time>2010-02-10T11:16:28Z</time>
      </trkpt>
      <trkpt lat="45.03507" lon="5.56636">
        <ele>1569.49</ele>
        <time>2010-02-10T11:16:31Z</time>
      </trkpt>
      <trkpt lat="45.03494" lon="5.56643">
        <ele>1573.33</ele>
        <time>2010-02-10T11:16:35Z</time>
      </trkpt>
      <trkpt lat="45.03485" lon="5.56651">
        <ele>1577.66</ele>
        <time>2010-02-10T11:16:38Z</time>
      </trkpt>
      <trkpt lat="45.03476" lon="5.56656">
        <ele>1580.54</ele>
        <time>2010-02-10T11:16:41Z</time>
      </trkpt>
      <trkpt lat="45.03469" lon="5.56659">
        <ele>1584.87</ele>
        <time>2010-02-10T11:16:43Z</time>
      </trkpt>
      <trkpt lat="45.03458" lon="5.56669">
        <ele>1588.72</ele>
        <time>2010-02-10T11:16:46Z</time>
      </trkpt>
      <trkpt lat="45.03448" lon="5.56676">
        <ele>1592.56</ele>
        <time>2010-02-10T11:16:49Z</time>
      </trkpt>
      <trkpt lat="45.03439" lon="5.56686">
        <ele>1596.89</ele>
        <time>2010-02-10T11:16:52Z</time>
      </trkpt>
      <trkpt lat="45.03434" lon="5.5669">
        <ele>1600.25</ele>
        <time>2010-02-10T11:16:54Z</time>
      </trkpt>
      <trkpt lat="45.03429" lon="5.56692">
        <ele>1603.62</ele>
        <time>2010-02-10T11:16:56Z</time>
      </trkpt>
      <trkpt lat="45.03417" lon="5.56697">
        <ele>1606.5</ele>
        <time>2010-02-10T11:16:59Z</time>
      </trkpt>
      <trkpt lat="45.03415" lon="5.56701">
        <ele>1609.86</ele>
        <time>2010-02-10T11:17:00Z</time>
      </trkpt>
      <trkpt lat="45.03405" lon="5.56709">
        <ele>1613.23</ele>
        <time>2010-02-10T11:17:03Z</time>
      </trkpt>
      <trkpt lat="45.03392" lon="5.56717">
        <ele>1617.07</ele>
        <time>2010-02-10T11:17:07Z</time>
      </trkpt>
      <trkpt lat="45.03378" lon="5.56728">
        <ele>1621.4</ele>
        <time>2010-02-10T11:17:11Z</time>
      </trkpt>
      <trkpt lat="45.03367" lon="5.56733">
        <ele>1624.28</ele>
        <time>2010-02-10T11:17:14Z</time>
      </trkpt>
      <trkpt lat="45.0336" lon="5.56739">
        <ele>1627.65</ele>
        <time>2010-02-10T11:17:17Z</time>
      </trkpt>
      <trkpt lat="45.03352" lon="5.56746">
        <ele>1631.49</ele>
        <time>2010-02-10T11:17:20Z</time>
      </trkpt>
      <trkpt lat="45.03342" lon="5.56751">
        <ele>1635.34</ele>
        <time>2010-02-10T11:17:23Z</time>
      </trkpt>
      <trkpt lat="45.03333" lon="5.56759">
        <ele>1638.7</ele>
        <time>2010-02-10T11:17:26Z</time>
      </trkpt>
      <trkpt lat="45.03323" lon="5.56766">
        <ele>1641.59</ele>
        <time>2010-02-10T11:17:29Z</time>
      </trkpt>
      <trkpt lat="45.03316" lon="5.5677">
        <ele>1645.43</ele>
        <time>2010-02-10T11:17:31Z</time>
      </trkpt>
      <trkpt lat="45.03307" lon="5.56777">
        <ele>1649.28</ele>
        <time>2010-02-10T11:17:34Z</time>
      </trkpt>
      <trkpt lat="45.03299" lon="5.56783">
        <ele>1653.6</ele>
        <time>2010-02-10T11:17:37Z</time>
      </trkpt>
      <trkpt lat="45.03288" lon="5.5679">
        <ele>1655.53</ele>
        <time>2010-02-10T11:17:40Z</time>
      </trkpt>
      <trkpt lat="45.03276" lon="5.56799">
        <ele>1658.89</ele>
        <time>2010-02-10T11:17:44Z</time>
      </trkpt>
      <trkpt lat="45.03264" lon="5.56807">
        <ele>1661.78</ele>
        <time>2010-02-10T11:17:47Z</time>
      </trkpt>
      <trkpt lat="45.03255" lon="5.56812">
        <ele>1665.14</ele>
        <time>2010-02-10T11:17:50Z</time>
      </trkpt>
      <trkpt lat="45.03243" lon="5.56821">
        <ele>1668.99</ele>
        <time>2010-02-10T11:17:54Z</time>
      </trkpt>
      <trkpt lat="45.03233" lon="5.56831">
        <ele>1672.35</ele>
        <time>2010-02-10T11:17:57Z</time>
      </trkpt>
      <trkpt lat="45.03221" lon="5.5684">
        <ele>1675.72</ele>
        <time>2010-02-10T11:18:01Z</time>
      </trkpt>
      <trkpt lat="45.03211" lon="5.56844">
        <ele>1680.52</ele>
        <time>2010-02-10T11:18:04Z</time>
      </trkpt>
      <trkpt lat="45.03203" lon="5.56851">
        <ele>1683.89</ele>
        <time>2010-02-10T11:18:07Z</time>
      </trkpt>
      <trkpt lat="45.03193" lon="5.56857">
        <ele>1686.77</ele>
        <time>2010-02-10T11:18:10Z</time>
      </trkpt>
      <trkpt lat="45.03183" lon="5.56864">
        <ele>1690.62</ele>
        <time>2010-02-10T11:18:13Z</time>
      </trkpt>
      <trkpt lat="45.0317" lon="5.56873">
        <ele>1694.46</ele>
        <time>2010-02-10T11:18:17Z</time>
      </trkpt>
      <trkpt lat="45.03161" lon="5.5688">
        <ele>1697.83</ele>
        <time>2010-02-10T11:18:20Z</time>
      </trkpt>
      <trkpt lat="45.03148" lon="5.56889">
        <ele>1701.19</ele>
        <time>2010-02-10T11:18:24Z</time>
      </trkpt>
      <trkpt lat="45.03135" lon="5.56899">
        <ele>1705.52</ele>
        <time>2010-02-10T11:18:28Z</time>
      </trkpt>
      <trkpt lat="45.03124" lon="5.56909">
        <ele>1708.88</ele>
        <time>2010-02-10T11:18:31Z</time>
      </trkpt>
      <trkpt lat="45.0311" lon="5.56916">
        <ele>1712.25</ele>
        <time>2010-02-10T11:18:35Z</time>
      </trkpt>
      <trkpt lat="45.03099" lon="5.56922">
        <ele>1716.09</ele>
        <time>2010-02-10T11:18:38Z</time>
      </trkpt>
      <trkpt lat="45.03087" lon="5.56933">
        <ele>1720.42</ele>
        <time>2010-02-10T11:18:42Z</time>
      </trkpt>
      <trkpt lat="45.03077" lon="5.56938">
        <ele>1724.74</ele>
        <time>2010-02-10T11:18:45Z</time>
      </trkpt>
      <trkpt lat="45.03066" lon="5.56945">
        <ele>1728.11</ele>
        <time>2010-02-10T11:18:48Z</time>
      </trkpt>
      <trkpt lat="45.03058" lon="5.56953">
        <ele>1731.95</ele>
        <time>2010-02-10T11:18:51Z</time>
      </trkpt>
      <trkpt lat="45.03047" lon="5.56959">
        <ele>1735.8</ele>
        <time>2010-02-10T11:18:54Z</time>
      </trkpt>
      <trkpt lat="45.0304" lon="5.56965">
        <ele>1736.76</ele>
        <time>2010-02-10T11:18:56Z</time>
      </trkpt>
      <trkpt lat="45.03023" lon="5.56983">
        <ele>1737.24</ele>
        <time>2010-02-10T11:19:07Z</time>
      </trkpt>
      <trkpt lat="45.03038" lon="5.57012">
        <ele>1737.72</ele>
        <time>2010-02-10T11:19:47Z</time>
      </trkpt>
      <trkpt lat="45.02993" lon="5.57018">
        <ele>1737.72</ele>
        <time>2010-02-10T11:20:14Z</time>
      </trkpt>
      <trkpt lat="45.02993" lon="5.57018">
        <ele>1737.72</ele>
        <time>2010-02-10T11:20:15Z</time>
      </trkpt>
      <trkpt lat="45.02995" lon="5.57015">
        <ele>1736.76</ele>
        <time>2010-02-10T11:20:42Z</time>
      </trkpt>
      <trkpt lat="45.02997" lon="5.57021">
        <ele>1736.28</ele>
        <time>2010-02-10T11:21:29Z</time>
      </trkpt>
      <trkpt lat="45.03002" lon="5.5702">
        <ele>1732.43</ele>
        <time>2010-02-10T11:21:32Z</time>
      </trkpt>
      <trkpt lat="45.03014" lon="5.57018">
        <ele>1728.59</ele>
        <time>2010-02-10T11:21:34Z</time>
      </trkpt>
      <trkpt lat="45.03027" lon="5.57009">
        <ele>1723.78</ele>
        <time>2010-02-10T11:21:36Z</time>
      </trkpt>
      <trkpt lat="45.03035" lon="5.57005">
        <ele>1721.86</ele>
        <time>2010-02-10T11:21:37Z</time>
      </trkpt>
      <trkpt lat="45.03048" lon="5.56995">
        <ele>1718.97</ele>
        <time>2010-02-10T11:21:39Z</time>
      </trkpt>
      <trkpt lat="45.03068" lon="5.5697">
        <ele>1716.57</ele>
        <time>2010-02-10T11:21:43Z</time>
      </trkpt>
      <trkpt lat="45.03078" lon="5.5696">
        <ele>1713.21</ele>
        <time>2010-02-10T11:21:45Z</time>
      </trkpt>
      <trkpt lat="45.03085" lon="5.56946">
        <ele>1711.28</ele>
        <time>2010-02-10T11:21:47Z</time>
      </trkpt>
      <trkpt lat="45.03091" lon="5.5692">
        <ele>1704.07</ele>
        <time>2010-02-10T11:21:50Z</time>
      </trkpt>
      <trkpt lat="45.03096" lon="5.569">
        <ele>1698.31</ele>
        <time>2010-02-10T11:21:52Z</time>
      </trkpt>
      <trkpt lat="45.03098" lon="5.56891">
        <ele>1696.38</ele>
        <time>2010-02-10T11:21:53Z</time>
      </trkpt>
      <trkpt lat="45.03103" lon="5.56873">
        <ele>1694.94</ele>
        <time>2010-02-10T11:21:55Z</time>
      </trkpt>
      <trkpt lat="45.03114" lon="5.5686">
        <ele>1692.06</ele>
        <time>2010-02-10T11:21:58Z</time>
      </trkpt>
      <trkpt lat="45.03129" lon="5.56847">
        <ele>1683.89</ele>
        <time>2010-02-10T11:22:01Z</time>
      </trkpt>
      <trkpt lat="45.03145" lon="5.56842">
        <ele>1678.12</ele>
        <time>2010-02-10T11:22:03Z</time>
      </trkpt>
      <trkpt lat="45.03154" lon="5.56839">
        <ele>1674.27</ele>
        <time>2010-02-10T11:22:04Z</time>
      </trkpt>
      <trkpt lat="45.03173" lon="5.56817">
        <ele>1668.51</ele>
        <time>2010-02-10T11:22:07Z</time>
      </trkpt>
      <trkpt lat="45.03182" lon="5.56813">
        <ele>1664.18</ele>
        <time>2010-02-10T11:22:08Z</time>
      </trkpt>
      <trkpt lat="45.0323" lon="5.56783">
        <ele>1656.97</ele>
        <time>2010-02-10T11:22:14Z</time>
      </trkpt>
      <trkpt lat="45.03246" lon="5.56767">
        <ele>1655.53</ele>
        <time>2010-02-10T11:22:17Z</time>
      </trkpt>
      <trkpt lat="45.03272" lon="5.56745">
        <ele>1655.53</ele>
        <time>2010-02-10T11:22:27Z</time>
      </trkpt>
      <trkpt lat="45.03286" lon="5.56713">
        <ele>1653.6</ele>
        <time>2010-02-10T11:22:41Z</time>
      </trkpt>
      <trkpt lat="45.03287" lon="5.56707">
        <ele>1653.12</ele>
        <time>2010-02-10T11:22:54Z</time>
      </trkpt>
      <trkpt lat="45.03287" lon="5.56707">
        <ele>1653.6</ele>
        <time>2010-02-10T11:22:59Z</time>
      </trkpt>
      <trkpt lat="45.03291" lon="5.56701">
        <ele>1651.2</ele>
        <time>2010-02-10T11:23:02Z</time>
      </trkpt>
      <trkpt lat="45.03299" lon="5.56686">
        <ele>1647.84</ele>
        <time>2010-02-10T11:23:05Z</time>
      </trkpt>
      <trkpt lat="45.03306" lon="5.56673">
        <ele>1643.03</ele>
        <time>2010-02-10T11:23:07Z</time>
      </trkpt>
      <trkpt lat="45.03321" lon="5.56652">
        <ele>1635.82</ele>
        <time>2010-02-10T11:23:10Z</time>
      </trkpt>
      <trkpt lat="45.03327" lon="5.56647">
        <ele>1632.46</ele>
        <time>2010-02-10T11:23:11Z</time>
      </trkpt>
      <trkpt lat="45.03333" lon="5.56643">
        <ele>1630.53</ele>
        <time>2010-02-10T11:23:12Z</time>
      </trkpt>
      <trkpt lat="45.03343" lon="5.56639">
        <ele>1630.05</ele>
        <time>2010-02-10T11:23:16Z</time>
      </trkpt>
      <trkpt lat="45.03345" lon="5.56637">
        <ele>1628.61</ele>
        <time>2010-02-10T11:23:18Z</time>
      </trkpt>
      <trkpt lat="45.03356" lon="5.56632">
        <ele>1622.84</ele>
        <time>2010-02-10T11:23:21Z</time>
      </trkpt>
      <trkpt lat="45.03366" lon="5.56632">
        <ele>1617.07</ele>
        <time>2010-02-10T11:23:23Z</time>
      </trkpt>
      <trkpt lat="45.0337" lon="5.56636">
        <ele>1617.07</ele>
        <time>2010-02-10T11:23:24Z</time>
      </trkpt>
      <trkpt lat="45.03384" lon="5.56635">
        <ele>1610.83</ele>
        <time>2010-02-10T11:23:27Z</time>
      </trkpt>
      <trkpt lat="45.03387" lon="5.56627">
        <ele>1609.86</ele>
        <time>2010-02-10T11:23:31Z</time>
      </trkpt>
      <trkpt lat="45.03386" lon="5.56627">
        <ele>1608.9</ele>
        <time>2010-02-10T11:23:43Z</time>
      </trkpt>
      <trkpt lat="45.03394" lon="5.56622">
        <ele>1604.58</ele>
        <time>2010-02-10T11:23:46Z</time>
      </trkpt>
      <trkpt lat="45.03396" lon="5.56621">
        <ele>1605.54</ele>
        <time>2010-02-10T11:23:47Z</time>
      </trkpt>
      <trkpt lat="45.03401" lon="5.56621">
        <ele>1602.17</ele>
        <time>2010-02-10T11:23:49Z</time>
      </trkpt>
      <trkpt lat="45.03408" lon="5.56625">
        <ele>1598.81</ele>
        <time>2010-02-10T11:23:52Z</time>
      </trkpt>
      <trkpt lat="45.03418" lon="5.56624">
        <ele>1595.45</ele>
        <time>2010-02-10T11:23:55Z</time>
      </trkpt>
      <trkpt lat="45.03427" lon="5.56624">
        <ele>1591.6</ele>
        <time>2010-02-10T11:23:57Z</time>
      </trkpt>
      <trkpt lat="45.03438" lon="5.56616">
        <ele>1585.83</ele>
        <time>2010-02-10T11:24:00Z</time>
      </trkpt>
      <trkpt lat="45.03439" lon="5.56614">
        <ele>1587.75</ele>
        <time>2010-02-10T11:24:01Z</time>
      </trkpt>
      <trkpt lat="45.0344" lon="5.56612">
        <ele>1587.75</ele>
        <time>2010-02-10T11:24:07Z</time>
      </trkpt>
      <trkpt lat="45.03444" lon="5.56608">
        <ele>1585.35</ele>
        <time>2010-02-10T11:24:10Z</time>
      </trkpt>
      <trkpt lat="45.03447" lon="5.56604">
        <ele>1581.99</ele>
        <time>2010-02-10T11:24:18Z</time>
      </trkpt>
      <trkpt lat="45.03461" lon="5.56593">
        <ele>1577.66</ele>
        <time>2010-02-10T11:24:22Z</time>
      </trkpt>
      <trkpt lat="45.03479" lon="5.56587">
        <ele>1571.41</ele>
        <time>2010-02-10T11:24:27Z</time>
      </trkpt>
      <trkpt lat="45.03484" lon="5.56582">
        <ele>1568.05</ele>
        <time>2010-02-10T11:24:33Z</time>
      </trkpt>
      <trkpt lat="45.03487" lon="5.56578">
        <ele>1567.09</ele>
        <time>2010-02-10T11:24:41Z</time>
      </trkpt>
      <trkpt lat="45.03488" lon="5.56576">
        <ele>1566.12</ele>
        <time>2010-02-10T11:25:00Z</time>
      </trkpt>
      <trkpt lat="45.03498" lon="5.5657">
        <ele>1560.84</ele>
        <time>2010-02-10T11:25:03Z</time>
      </trkpt>
      <trkpt lat="45.03511" lon="5.56563">
        <ele>1554.11</ele>
        <time>2010-02-10T11:25:05Z</time>
      </trkpt>
      <trkpt lat="45.03528" lon="5.56561">
        <ele>1549.78</ele>
        <time>2010-02-10T11:25:08Z</time>
      </trkpt>
      <trkpt lat="45.03531" lon="5.5656">
        <ele>1543.53</ele>
        <time>2010-02-10T11:25:10Z</time>
      </trkpt>
      <trkpt lat="45.03532" lon="5.5656">
        <ele>1547.38</ele>
        <time>2010-02-10T11:25:11Z</time>
      </trkpt>
      <trkpt lat="45.03534" lon="5.56562">
        <ele>1547.38</ele>
        <time>2010-02-10T11:25:14Z</time>
      </trkpt>
      <trkpt lat="45.0354" lon="5.56565">
        <ele>1543.53</ele>
        <time>2010-02-10T11:25:17Z</time>
      </trkpt>
      <trkpt lat="45.03548" lon="5.56564">
        <ele>1539.69</ele>
        <time>2010-02-10T11:25:19Z</time>
      </trkpt>
      <trkpt lat="45.03557" lon="5.56557">
        <ele>1535.84</ele>
        <time>2010-02-10T11:25:22Z</time>
      </trkpt>
      <trkpt lat="45.03558" lon="5.56551">
        <ele>1532.96</ele>
        <time>2010-02-10T11:25:27Z</time>
      </trkpt>
      <trkpt lat="45.03557" lon="5.56543">
        <ele>1529.59</ele>
        <time>2010-02-10T11:25:33Z</time>
      </trkpt>
      <trkpt lat="45.03557" lon="5.56542">
        <ele>1527.67</ele>
        <time>2010-02-10T11:25:41Z</time>
      </trkpt>
      <trkpt lat="45.03562" lon="5.56539">
        <ele>1524.31</ele>
        <time>2010-02-10T11:25:44Z</time>
      </trkpt>
      <trkpt lat="45.0357" lon="5.56536">
        <ele>1520.94</ele>
        <time>2010-02-10T11:25:46Z</time>
      </trkpt>
      <trkpt lat="45.03573" lon="5.56536">
        <ele>1519.98</ele>
        <time>2010-02-10T11:25:47Z</time>
      </trkpt>
      <trkpt lat="45.03578" lon="5.56531">
        <ele>1517.58</ele>
        <time>2010-02-10T11:25:55Z</time>
      </trkpt>
      <trkpt lat="45.03579" lon="5.56529">
        <ele>1516.62</ele>
        <time>2010-02-10T11:25:59Z</time>
      </trkpt>
      <trkpt lat="45.03582" lon="5.56528">
        <ele>1514.69</ele>
        <time>2010-02-10T11:26:09Z</time>
      </trkpt>
      <trkpt lat="45.03583" lon="5.56528">
        <ele>1513.73</ele>
        <time>2010-02-10T11:26:19Z</time>
      </trkpt>
      <trkpt lat="45.03586" lon="5.56531">
        <ele>1512.77</ele>
        <time>2010-02-10T11:26:25Z</time>
      </trkpt>
      <trkpt lat="45.03595" lon="5.56532">
        <ele>1509.41</ele>
        <time>2010-02-10T11:26:29Z</time>
      </trkpt>
      <trkpt lat="45.03602" lon="5.56527">
        <ele>1506.52</ele>
        <time>2010-02-10T11:26:32Z</time>
      </trkpt>
      <trkpt lat="45.03602" lon="5.56524">
        <ele>1505.08</ele>
        <time>2010-02-10T11:26:40Z</time>
      </trkpt>
      <trkpt lat="45.03602" lon="5.56524">
        <ele>1508.93</ele>
        <time>2010-02-10T11:26:46Z</time>
      </trkpt>
      <trkpt lat="45.03602" lon="5.56524">
        <ele>1497.39</ele>
        <time>2010-02-10T11:26:47Z</time>
      </trkpt>
      <trkpt lat="45.03602" lon="5.56524">
        <ele>1510.37</ele>
        <time>2010-02-10T11:26:48Z</time>
      </trkpt>
      <trkpt lat="45.03602" lon="5.56524">
        <ele>1507</ele>
        <time>2010-02-10T11:26:50Z</time>
      </trkpt>
      <trkpt lat="45.03602" lon="5.56524">
        <ele>1510.85</ele>
        <time>2010-02-10T11:26:52Z</time>
      </trkpt>
      <trkpt lat="45.03602" lon="5.56524">
        <ele>1499.79</ele>
        <time>2010-02-10T11:26:53Z</time>
      </trkpt>
      <trkpt lat="45.03602" lon="5.56524">
        <ele>1506.04</ele>
        <time>2010-02-10T11:26:54Z</time>
      </trkpt>
      <trkpt lat="45.03602" lon="5.56524">
        <ele>1498.35</ele>
        <time>2010-02-10T11:26:55Z</time>
      </trkpt>
      <trkpt lat="45.03602" lon="5.56524">
        <ele>1506.52</ele>
        <time>2010-02-10T11:26:56Z</time>
      </trkpt>
      <trkpt lat="45.03609" lon="5.56525">
        <ele>1502.68</ele>
        <time>2010-02-10T11:27:00Z</time>
      </trkpt>
      <trkpt lat="45.03609" lon="5.56525">
        <ele>1506.52</ele>
        <time>2010-02-10T11:27:05Z</time>
      </trkpt>
      <trkpt lat="45.03609" lon="5.56525">
        <ele>1503.16</ele>
        <time>2010-02-10T11:27:14Z</time>
      </trkpt>
      <trkpt lat="45.03609" lon="5.56525">
        <ele>1505.08</ele>
        <time>2010-02-10T11:27:19Z</time>
      </trkpt>
      <trkpt lat="45.0361" lon="5.56515">
        <ele>1502.2</ele>
        <time>2010-02-10T11:27:23Z</time>
      </trkpt>
      <trkpt lat="45.03613" lon="5.56517">
        <ele>1500.76</ele>
        <time>2010-02-10T11:27:47Z</time>
      </trkpt>
      <trkpt lat="45.03613" lon="5.56513">
        <ele>1498.83</ele>
        <time>2010-02-10T11:27:54Z</time>
      </trkpt>
      <trkpt lat="45.03608" lon="5.56514">
        <ele>1498.83</ele>
        <time>2010-02-10T11:28:11Z</time>
      </trkpt>
      <trkpt lat="45.03605" lon="5.56501">
        <ele>1491.14</ele>
        <time>2010-02-10T11:28:15Z</time>
      </trkpt>
      <trkpt lat="45.03601" lon="5.56494">
        <ele>1486.82</ele>
        <time>2010-02-10T11:28:16Z</time>
      </trkpt>
      <trkpt lat="45.03596" lon="5.56488">
        <ele>1486.82</ele>
        <time>2010-02-10T11:28:17Z</time>
      </trkpt>
      <trkpt lat="45.03596" lon="5.56478">
        <ele>1483.45</ele>
        <time>2010-02-10T11:28:19Z</time>
      </trkpt>
      <trkpt lat="45.03604" lon="5.56471">
        <ele>1479.13</ele>
        <time>2010-02-10T11:28:21Z</time>
      </trkpt>
      <trkpt lat="45.0361" lon="5.56468">
        <ele>1474.8</ele>
        <time>2010-02-10T11:28:22Z</time>
      </trkpt>
      <trkpt lat="45.03628" lon="5.56459">
        <ele>1467.11</ele>
        <time>2010-02-10T11:28:25Z</time>
      </trkpt>
      <trkpt lat="45.03638" lon="5.56455">
        <ele>1466.15</ele>
        <time>2010-02-10T11:28:27Z</time>
      </trkpt>
      <trkpt lat="45.03646" lon="5.56443">
        <ele>1460.86</ele>
        <time>2010-02-10T11:28:30Z</time>
      </trkpt>
      <trkpt lat="45.03646" lon="5.56439">
        <ele>1457.98</ele>
        <time>2010-02-10T11:28:32Z</time>
      </trkpt>
      <trkpt lat="45.03646" lon="5.56445">
        <ele>1457.02</ele>
        <time>2010-02-10T11:28:46Z</time>
      </trkpt>
      <trkpt lat="45.03653" lon="5.5644">
        <ele>1453.65</ele>
        <time>2010-02-10T11:28:51Z</time>
      </trkpt>
      <trkpt lat="45.03654" lon="5.5644">
        <ele>1454.61</ele>
        <time>2010-02-10T11:29:13Z</time>
      </trkpt>
      <trkpt lat="45.03654" lon="5.5644">
        <ele>1454.61</ele>
        <time>2010-02-10T11:29:29Z</time>
      </trkpt>
      <trkpt lat="45.03662" lon="5.56438">
        <ele>1450.29</ele>
        <time>2010-02-10T11:29:35Z</time>
      </trkpt>
      <trkpt lat="45.03663" lon="5.56435">
        <ele>1453.17</ele>
        <time>2010-02-10T11:29:36Z</time>
      </trkpt>
      <trkpt lat="45.03663" lon="5.56436">
        <ele>1451.25</ele>
        <time>2010-02-10T11:29:51Z</time>
      </trkpt>
      <trkpt lat="45.03676" lon="5.56433">
        <ele>1448.36</ele>
        <time>2010-02-10T11:30:03Z</time>
      </trkpt>
      <trkpt lat="45.03678" lon="5.56435">
        <ele>1448.84</ele>
        <time>2010-02-10T11:30:08Z</time>
      </trkpt>
      <trkpt lat="45.03689" lon="5.56422">
        <ele>1444.52</ele>
        <time>2010-02-10T11:30:12Z</time>
      </trkpt>
      <trkpt lat="45.03691" lon="5.56421">
        <ele>1440.19</ele>
        <time>2010-02-10T11:30:13Z</time>
      </trkpt>
      <trkpt lat="45.03692" lon="5.56421">
        <ele>1445.96</ele>
        <time>2010-02-10T11:30:14Z</time>
      </trkpt>
      <trkpt lat="45.03691" lon="5.56419">
        <ele>1444.04</ele>
        <time>2010-02-10T11:30:17Z</time>
      </trkpt>
      <trkpt lat="45.03693" lon="5.56414">
        <ele>1438.75</ele>
        <time>2010-02-10T11:30:19Z</time>
      </trkpt>
      <trkpt lat="45.03695" lon="5.5641">
        <ele>1440.67</ele>
        <time>2010-02-10T11:30:20Z</time>
      </trkpt>
      <trkpt lat="45.03698" lon="5.56411">
        <ele>1439.23</ele>
        <time>2010-02-10T11:30:23Z</time>
      </trkpt>
      <trkpt lat="45.03699" lon="5.56408">
        <ele>1438.75</ele>
        <time>2010-02-10T11:30:27Z</time>
      </trkpt>
      <trkpt lat="45.03705" lon="5.56406">
        <ele>1436.35</ele>
        <time>2010-02-10T11:30:30Z</time>
      </trkpt>
      <trkpt lat="45.03715" lon="5.56398">
        <ele>1434.91</ele>
        <time>2010-02-10T11:30:40Z</time>
      </trkpt>
      <trkpt lat="45.03715" lon="5.56398">
        <ele>1434.42</ele>
        <time>2010-02-10T11:30:45Z</time>
      </trkpt>
      <trkpt lat="45.03722" lon="5.56389">
        <ele>1432.5</ele>
        <time>2010-02-10T11:30:48Z</time>
      </trkpt>
      <trkpt lat="45.03726" lon="5.56384">
        <ele>1431.06</ele>
        <time>2010-02-10T11:30:50Z</time>
      </trkpt>
      <trkpt lat="45.0373" lon="5.56379">
        <ele>1430.1</ele>
        <time>2010-02-10T11:30:52Z</time>
      </trkpt>
      <trkpt lat="45.03739" lon="5.5637">
        <ele>1428.18</ele>
        <time>2010-02-10T11:31:02Z</time>
      </trkpt>
      <trkpt lat="45.03748" lon="5.56367">
        <ele>1428.66</ele>
        <time>2010-02-10T11:31:18Z</time>
      </trkpt>
      <trkpt lat="45.03754" lon="5.56364">
        <ele>1429.14</ele>
        <time>2010-02-10T11:31:44Z</time>
      </trkpt>
      <trkpt lat="45.03758" lon="5.56362">
        <ele>1428.18</ele>
        <time>2010-02-10T11:31:53Z</time>
      </trkpt>
      <trkpt lat="45.03769" lon="5.56348">
        <ele>1424.33</ele>
        <time>2010-02-10T11:31:59Z</time>
      </trkpt>
      <trkpt lat="45.03776" lon="5.56314">
        <ele>1415.68</ele>
        <time>2010-02-10T11:32:03Z</time>
      </trkpt>
      <trkpt lat="45.03764" lon="5.56307">
        <ele>1413.28</ele>
        <time>2010-02-10T11:32:07Z</time>
      </trkpt>
      <trkpt lat="45.0376" lon="5.56306">
        <ele>1411.35</ele>
        <time>2010-02-10T11:32:09Z</time>
      </trkpt>
      <trkpt lat="45.03758" lon="5.56306">
        <ele>1411.35</ele>
        <time>2010-02-10T11:32:10Z</time>
      </trkpt>
      <trkpt lat="45.03749" lon="5.56302">
        <ele>1406.55</ele>
        <time>2010-02-10T11:32:15Z</time>
      </trkpt>
      <trkpt lat="45.03743" lon="5.56303">
        <ele>1408.47</ele>
        <time>2010-02-10T11:32:22Z</time>
      </trkpt>
      <trkpt lat="45.03737" lon="5.56299">
        <ele>1405.1</ele>
        <time>2010-02-10T11:32:25Z</time>
      </trkpt>
      <trkpt lat="45.03731" lon="5.56297">
        <ele>1404.14</ele>
        <time>2010-02-10T11:32:27Z</time>
      </trkpt>
      <trkpt lat="45.03726" lon="5.56299">
        <ele>1403.18</ele>
        <time>2010-02-10T11:32:29Z</time>
      </trkpt>
      <trkpt lat="45.03716" lon="5.56297">
        <ele>1399.82</ele>
        <time>2010-02-10T11:32:34Z</time>
      </trkpt>
      <trkpt lat="45.03715" lon="5.56296">
        <ele>1399.34</ele>
        <time>2010-02-10T11:32:35Z</time>
      </trkpt>
      <trkpt lat="45.03715" lon="5.56296">
        <ele>1396.45</ele>
        <time>2010-02-10T11:32:37Z</time>
      </trkpt>
      <trkpt lat="45.03714" lon="5.56296">
        <ele>1399.34</ele>
        <time>2010-02-10T11:32:38Z</time>
      </trkpt>
      <trkpt lat="45.03705" lon="5.56287">
        <ele>1393.09</ele>
        <time>2010-02-10T11:32:41Z</time>
      </trkpt>
      <trkpt lat="45.03699" lon="5.56279">
        <ele>1390.2</ele>
        <time>2010-02-10T11:32:43Z</time>
      </trkpt>
      <trkpt lat="45.0369" lon="5.56278">
        <ele>1389.24</ele>
        <time>2010-02-10T11:32:47Z</time>
      </trkpt>
      <trkpt lat="45.0368" lon="5.56276">
        <ele>1385.88</ele>
        <time>2010-02-10T11:32:51Z</time>
      </trkpt>
      <trkpt lat="45.03674" lon="5.56275">
        <ele>1384.92</ele>
        <time>2010-02-10T11:32:53Z</time>
      </trkpt>
      <trkpt lat="45.03662" lon="5.56275">
        <ele>1383.47</ele>
        <time>2010-02-10T11:33:05Z</time>
      </trkpt>
      <trkpt lat="45.03662" lon="5.56276">
        <ele>1387.32</ele>
        <time>2010-02-10T11:33:11Z</time>
      </trkpt>
      <trkpt lat="45.03661" lon="5.56277">
        <ele>1384.44</ele>
        <time>2010-02-10T11:33:12Z</time>
      </trkpt>
      <trkpt lat="45.03657" lon="5.56279">
        <ele>1383.47</ele>
        <time>2010-02-10T11:33:16Z</time>
      </trkpt>
      <trkpt lat="45.03645" lon="5.56278">
        <ele>1378.67</ele>
        <time>2010-02-10T11:33:19Z</time>
      </trkpt>
      <trkpt lat="45.03643" lon="5.56279">
        <ele>1384.92</ele>
        <time>2010-02-10T11:33:20Z</time>
      </trkpt>
      <trkpt lat="45.03644" lon="5.56281">
        <ele>1383.47</ele>
        <time>2010-02-10T11:33:39Z</time>
      </trkpt>
      <trkpt lat="45.03643" lon="5.56276">
        <ele>1379.15</ele>
        <time>2010-02-10T11:33:42Z</time>
      </trkpt>
      <trkpt lat="45.03645" lon="5.56273">
        <ele>1377.71</ele>
        <time>2010-02-10T11:33:43Z</time>
      </trkpt>
      <trkpt lat="45.03649" lon="5.56247">
        <ele>1370.98</ele>
        <time>2010-02-10T11:33:47Z</time>
      </trkpt>
      <trkpt lat="45.03652" lon="5.56233">
        <ele>1367.61</ele>
        <time>2010-02-10T11:33:48Z</time>
      </trkpt>
      <trkpt lat="45.03651" lon="5.56218">
        <ele>1365.21</ele>
        <time>2010-02-10T11:33:50Z</time>
      </trkpt>
      <trkpt lat="45.03654" lon="5.56206">
        <ele>1357.52</ele>
        <time>2010-02-10T11:33:52Z</time>
      </trkpt>
      <trkpt lat="45.03657" lon="5.56187">
        <ele>1353.19</ele>
        <time>2010-02-10T11:33:55Z</time>
      </trkpt>
      <trkpt lat="45.03664" lon="5.56144">
        <ele>1343.1</ele>
        <time>2010-02-10T11:34:00Z</time>
      </trkpt>
      <trkpt lat="45.03675" lon="5.56086">
        <ele>1334.45</ele>
        <time>2010-02-10T11:34:05Z</time>
      </trkpt>
      <trkpt lat="45.03687" lon="5.5606">
        <ele>1331.56</ele>
        <time>2010-02-10T11:34:08Z</time>
      </trkpt>
      <trkpt lat="45.03702" lon="5.56033">
        <ele>1327.72</ele>
        <time>2010-02-10T11:34:12Z</time>
      </trkpt>
      <trkpt lat="45.03703" lon="5.56018">
        <ele>1323.87</ele>
        <time>2010-02-10T11:34:14Z</time>
      </trkpt>
      <trkpt lat="45.03694" lon="5.56009">
        <ele>1320.03</ele>
        <time>2010-02-10T11:34:16Z</time>
      </trkpt>
      <trkpt lat="45.03688" lon="5.56009">
        <ele>1318.1</ele>
        <time>2010-02-10T11:34:17Z</time>
      </trkpt>
      <trkpt lat="45.03677" lon="5.56007">
        <ele>1315.7</ele>
        <time>2010-02-10T11:34:19Z</time>
      </trkpt>
      <trkpt lat="45.03657" lon="5.56009">
        <ele>1312.34</ele>
        <time>2010-02-10T11:34:22Z</time>
      </trkpt>
      <trkpt lat="45.03627" lon="5.56003">
        <ele>1307.05</ele>
        <time>2010-02-10T11:34:27Z</time>
      </trkpt>
      <trkpt lat="45.03625" lon="5.55987">
        <ele>1303.2</ele>
        <time>2010-02-10T11:34:29Z</time>
      </trkpt>
      <trkpt lat="45.03621" lon="5.55977">
        <ele>1302.24</ele>
        <time>2010-02-10T11:34:31Z</time>
      </trkpt>
      <trkpt lat="45.03619" lon="5.55973">
        <ele>1302.24</ele>
        <time>2010-02-10T11:34:53Z</time>
      </trkpt>
      <trkpt lat="45.03617" lon="5.5596">
        <ele>1300.8</ele>
        <time>2010-02-10T11:35:57Z</time>
      </trkpt>
      <trkpt lat="45.0364" lon="5.55938">
        <ele>1295.99</ele>
        <time>2010-02-10T11:36:02Z</time>
      </trkpt>
      <trkpt lat="45.03652" lon="5.55919">
        <ele>1291.67</ele>
        <time>2010-02-10T11:36:05Z</time>
      </trkpt>
      <trkpt lat="45.03657" lon="5.5591">
        <ele>1288.3</ele>
        <time>2010-02-10T11:36:06Z</time>
      </trkpt>
      <trkpt lat="45.03667" lon="5.55889">
        <ele>1283.98</ele>
        <time>2010-02-10T11:36:08Z</time>
      </trkpt>
      <trkpt lat="45.0368" lon="5.55867">
        <ele>1277.25</ele>
        <time>2010-02-10T11:36:10Z</time>
      </trkpt>
      <trkpt lat="45.03693" lon="5.55843">
        <ele>1271.48</ele>
        <time>2010-02-10T11:36:12Z</time>
      </trkpt>
      <trkpt lat="45.0371" lon="5.55822">
        <ele>1265.23</ele>
        <time>2010-02-10T11:36:14Z</time>
      </trkpt>
      <trkpt lat="45.03719" lon="5.55814">
        <ele>1260.91</ele>
        <time>2010-02-10T11:36:15Z</time>
      </trkpt>
      <trkpt lat="45.03744" lon="5.55785">
        <ele>1258.02</ele>
        <time>2010-02-10T11:36:18Z</time>
      </trkpt>
      <trkpt lat="45.03753" lon="5.55774">
        <ele>1254.18</ele>
        <time>2010-02-10T11:36:19Z</time>
      </trkpt>
      <trkpt lat="45.03773" lon="5.55754">
        <ele>1250.81</ele>
        <time>2010-02-10T11:36:21Z</time>
      </trkpt>
      <trkpt lat="45.03794" lon="5.55736">
        <ele>1248.41</ele>
        <time>2010-02-10T11:36:23Z</time>
      </trkpt>
      <trkpt lat="45.03814" lon="5.55722">
        <ele>1246.01</ele>
        <time>2010-02-10T11:36:25Z</time>
      </trkpt>
      <trkpt lat="45.03836" lon="5.55722">
        <ele>1243.6</ele>
        <time>2010-02-10T11:36:28Z</time>
      </trkpt>
      <trkpt lat="45.03842" lon="5.55725">
        <ele>1242.64</ele>
        <time>2010-02-10T11:36:29Z</time>
      </trkpt>
      <trkpt lat="45.03865" lon="5.55731">
        <ele>1238.8</ele>
        <time>2010-02-10T11:36:34Z</time>
      </trkpt>
      <trkpt lat="45.03868" lon="5.55731">
        <ele>1238.8</ele>
        <time>2010-02-10T11:36:35Z</time>
      </trkpt>
      <trkpt lat="45.03879" lon="5.55729">
        <ele>1236.87</ele>
        <time>2010-02-10T11:36:38Z</time>
      </trkpt>
      <trkpt lat="45.03889" lon="5.55725">
        <ele>1236.87</ele>
        <time>2010-02-10T11:36:40Z</time>
      </trkpt>
      <trkpt lat="45.03926" lon="5.55717">
        <ele>1233.99</ele>
        <time>2010-02-10T11:36:44Z</time>
      </trkpt>
      <trkpt lat="45.03952" lon="5.55709">
        <ele>1231.11</ele>
        <time>2010-02-10T11:36:47Z</time>
      </trkpt>
      <trkpt lat="45.03977" lon="5.55701">
        <ele>1226.78</ele>
        <time>2010-02-10T11:36:50Z</time>
      </trkpt>
      <trkpt lat="45.03986" lon="5.55698">
        <ele>1224.38</ele>
        <time>2010-02-10T11:36:51Z</time>
      </trkpt>
      <trkpt lat="45.04007" lon="5.55689">
        <ele>1216.69</ele>
        <time>2010-02-10T11:36:53Z</time>
      </trkpt>
      <trkpt lat="45.04019" lon="5.55684">
        <ele>1212.84</ele>
        <time>2010-02-10T11:36:54Z</time>
      </trkpt>
      <trkpt lat="45.04032" lon="5.55679">
        <ele>1208.51</ele>
        <time>2010-02-10T11:36:55Z</time>
      </trkpt>
      <trkpt lat="45.04057" lon="5.55675">
        <ele>1201.79</ele>
        <time>2010-02-10T11:36:57Z</time>
      </trkpt>
      <trkpt lat="45.04082" lon="5.55684">
        <ele>1198.9</ele>
        <time>2010-02-10T11:36:59Z</time>
      </trkpt>
      <trkpt lat="45.04093" lon="5.5569">
        <ele>1197.46</ele>
        <time>2010-02-10T11:37:00Z</time>
      </trkpt>
      <trkpt lat="45.0412" lon="5.55709">
        <ele>1195.06</ele>
        <time>2010-02-10T11:37:03Z</time>
      </trkpt>
      <trkpt lat="45.04137" lon="5.55718">
        <ele>1192.65</ele>
        <time>2010-02-10T11:37:05Z</time>
      </trkpt>
      <trkpt lat="45.04176" lon="5.55763">
        <ele>1188.81</ele>
        <time>2010-02-10T11:37:11Z</time>
      </trkpt>
      <trkpt lat="45.04193" lon="5.55768">
        <ele>1184</ele>
        <time>2010-02-10T11:37:13Z</time>
      </trkpt>
      <trkpt lat="45.04229" lon="5.55772">
        <ele>1174.87</ele>
        <time>2010-02-10T11:37:16Z</time>
      </trkpt>
      <trkpt lat="45.04254" lon="5.55776">
        <ele>1171.5</ele>
        <time>2010-02-10T11:37:18Z</time>
      </trkpt>
      <trkpt lat="45.04284" lon="5.55788">
        <ele>1166.7</ele>
        <time>2010-02-10T11:37:21Z</time>
      </trkpt>
      <trkpt lat="45.04292" lon="5.55795">
        <ele>1165.26</ele>
        <time>2010-02-10T11:37:22Z</time>
      </trkpt>
      <trkpt lat="45.0431" lon="5.55813">
        <ele>1157.56</ele>
        <time>2010-02-10T11:37:24Z</time>
      </trkpt>
      <trkpt lat="45.04328" lon="5.55833">
        <ele>1153.72</ele>
        <time>2010-02-10T11:37:26Z</time>
      </trkpt>
      <trkpt lat="45.04337" lon="5.55844">
        <ele>1151.32</ele>
        <time>2010-02-10T11:37:27Z</time>
      </trkpt>
      <trkpt lat="45.04367" lon="5.55912">
        <ele>1147.47</ele>
        <time>2010-02-10T11:37:32Z</time>
      </trkpt>
      <trkpt lat="45.04383" lon="5.55953">
        <ele>1144.11</ele>
        <time>2010-02-10T11:37:35Z</time>
      </trkpt>
      <trkpt lat="45.04393" lon="5.55978">
        <ele>1143.63</ele>
        <time>2010-02-10T11:37:37Z</time>
      </trkpt>
      <trkpt lat="45.04422" lon="5.56018">
        <ele>1144.11</ele>
        <time>2010-02-10T11:37:43Z</time>
      </trkpt>
      <trkpt lat="45.04426" lon="5.56019">
        <ele>1143.63</ele>
        <time>2010-02-10T11:37:44Z</time>
      </trkpt>
      <trkpt lat="45.04449" lon="5.56008">
        <ele>1141.7</ele>
        <time>2010-02-10T11:37:49Z</time>
      </trkpt>
      <trkpt lat="45.04458" lon="5.56001">
        <ele>1143.14</ele>
        <time>2010-02-10T11:37:57Z</time>
      </trkpt>
      <trkpt lat="45.04458" lon="5.56001">
        <ele>1136.42</ele>
        <time>2010-02-10T11:37:58Z</time>
      </trkpt>
      <trkpt lat="45.04458" lon="5.56001">
        <ele>1143.14</ele>
        <time>2010-02-10T11:37:59Z</time>
      </trkpt>
      <trkpt lat="45.04458" lon="5.56001">
        <ele>1142.66</ele>
        <time>2010-02-10T11:38:05Z</time>
      </trkpt>
      <trkpt lat="45.04458" lon="5.55991">
        <ele>1142.66</ele>
        <time>2010-02-10T11:38:32Z</time>
      </trkpt>
      <trkpt lat="45.04429" lon="5.55963">
        <ele>1143.14</ele>
        <time>2010-02-10T11:39:44Z</time>
      </trkpt>
      <trkpt lat="45.04422" lon="5.55962">
        <ele>1142.18</ele>
        <time>2010-02-10T11:39:48Z</time>
      </trkpt>
      <trkpt lat="45.04395" lon="5.5594">
        <ele>1144.59</ele>
        <time>2010-02-10T11:40:00Z</time>
      </trkpt>
      <trkpt lat="45.04406" lon="5.56001">
        <ele>1149.87</ele>
        <time>2010-02-10T11:40:03Z</time>
      </trkpt>
      <trkpt lat="45.04397" lon="5.56009">
        <ele>1154.2</ele>
        <time>2010-02-10T11:40:06Z</time>
      </trkpt>
      <trkpt lat="45.0439" lon="5.56015">
        <ele>1158.53</ele>
        <time>2010-02-10T11:40:08Z</time>
      </trkpt>
      <trkpt lat="45.04384" lon="5.56019">
        <ele>1162.37</ele>
        <time>2010-02-10T11:40:10Z</time>
      </trkpt>
      <trkpt lat="45.04377" lon="5.56023">
        <ele>1166.7</ele>
        <time>2010-02-10T11:40:12Z</time>
      </trkpt>
      <trkpt lat="45.04372" lon="5.56029">
        <ele>1169.58</ele>
        <time>2010-02-10T11:40:14Z</time>
      </trkpt>
      <trkpt lat="45.04363" lon="5.56036">
        <ele>1173.43</ele>
        <time>2010-02-10T11:40:17Z</time>
      </trkpt>
      <trkpt lat="45.04357" lon="5.56039">
        <ele>1176.79</ele>
        <time>2010-02-10T11:40:19Z</time>
      </trkpt>
      <trkpt lat="45.04348" lon="5.56045">
        <ele>1182.08</ele>
        <time>2010-02-10T11:40:22Z</time>
      </trkpt>
      <trkpt lat="45.0434" lon="5.5605">
        <ele>1185.44</ele>
        <time>2010-02-10T11:40:24Z</time>
      </trkpt>
      <trkpt lat="45.04333" lon="5.56053">
        <ele>1188.81</ele>
        <time>2010-02-10T11:40:26Z</time>
      </trkpt>
      <trkpt lat="45.04328" lon="5.56057">
        <ele>1192.65</ele>
        <time>2010-02-10T11:40:28Z</time>
      </trkpt>
      <trkpt lat="45.04315" lon="5.56068">
        <ele>1196.98</ele>
        <time>2010-02-10T11:40:32Z</time>
      </trkpt>
      <trkpt lat="45.04305" lon="5.56075">
        <ele>1200.82</ele>
        <time>2010-02-10T11:40:35Z</time>
      </trkpt>
      <trkpt lat="45.04296" lon="5.56079">
        <ele>1205.15</ele>
        <time>2010-02-10T11:40:38Z</time>
      </trkpt>
      <trkpt lat="45.04294" lon="5.56082">
        <ele>1204.67</ele>
        <time>2010-02-10T11:40:39Z</time>
      </trkpt>
      <trkpt lat="45.04287" lon="5.56086">
        <ele>1208.51</ele>
        <time>2010-02-10T11:40:41Z</time>
      </trkpt>
      <trkpt lat="45.04277" lon="5.56094">
        <ele>1212.36</ele>
        <time>2010-02-10T11:40:44Z</time>
      </trkpt>
      <trkpt lat="45.04269" lon="5.561">
        <ele>1216.21</ele>
        <time>2010-02-10T11:40:46Z</time>
      </trkpt>
      <trkpt lat="45.04265" lon="5.56102">
        <ele>1216.69</ele>
        <time>2010-02-10T11:40:47Z</time>
      </trkpt>
      <trkpt lat="45.0426" lon="5.56104">
        <ele>1221.01</ele>
        <time>2010-02-10T11:40:49Z</time>
      </trkpt>
      <trkpt lat="45.04251" lon="5.56111">
        <ele>1224.38</ele>
        <time>2010-02-10T11:40:52Z</time>
      </trkpt>
      <trkpt lat="45.04244" lon="5.56119">
        <ele>1227.26</ele>
        <time>2010-02-10T11:40:54Z</time>
      </trkpt>
      <trkpt lat="45.04237" lon="5.56126">
        <ele>1231.59</ele>
        <time>2010-02-10T11:40:56Z</time>
      </trkpt>
      <trkpt lat="45.0423" lon="5.56129">
        <ele>1235.43</ele>
        <time>2010-02-10T11:40:58Z</time>
      </trkpt>
      <trkpt lat="45.04224" lon="5.5613">
        <ele>1238.32</ele>
        <time>2010-02-10T11:41:00Z</time>
      </trkpt>
      <trkpt lat="45.04216" lon="5.56136">
        <ele>1244.56</ele>
        <time>2010-02-10T11:41:03Z</time>
      </trkpt>
      <trkpt lat="45.04207" lon="5.56143">
        <ele>1249.37</ele>
        <time>2010-02-10T11:41:06Z</time>
      </trkpt>
      <trkpt lat="45.04198" lon="5.56149">
        <ele>1254.66</ele>
        <time>2010-02-10T11:41:09Z</time>
      </trkpt>
      <trkpt lat="45.04192" lon="5.56154">
        <ele>1258.98</ele>
        <time>2010-02-10T11:41:11Z</time>
      </trkpt>
      <trkpt lat="45.04186" lon="5.56158">
        <ele>1263.31</ele>
        <time>2010-02-10T11:41:13Z</time>
      </trkpt>
      <trkpt lat="45.0418" lon="5.56162">
        <ele>1267.16</ele>
        <time>2010-02-10T11:41:15Z</time>
      </trkpt>
      <trkpt lat="45.04174" lon="5.56166">
        <ele>1271</ele>
        <time>2010-02-10T11:41:17Z</time>
      </trkpt>
      <trkpt lat="45.04168" lon="5.56171">
        <ele>1275.33</ele>
        <time>2010-02-10T11:41:19Z</time>
      </trkpt>
      <trkpt lat="45.04162" lon="5.56176">
        <ele>1278.69</ele>
        <time>2010-02-10T11:41:21Z</time>
      </trkpt>
      <trkpt lat="45.04155" lon="5.5618">
        <ele>1280.61</ele>
        <time>2010-02-10T11:41:23Z</time>
      </trkpt>
      <trkpt lat="45.04149" lon="5.56185">
        <ele>1285.42</ele>
        <time>2010-02-10T11:41:25Z</time>
      </trkpt>
      <trkpt lat="45.04146" lon="5.56187">
        <ele>1285.9</ele>
        <time>2010-02-10T11:41:26Z</time>
      </trkpt>
      <trkpt lat="45.0414" lon="5.56192">
        <ele>1288.78</ele>
        <time>2010-02-10T11:41:28Z</time>
      </trkpt>
      <trkpt lat="45.04131" lon="5.56198">
        <ele>1292.63</ele>
        <time>2010-02-10T11:41:31Z</time>
      </trkpt>
      <trkpt lat="45.04125" lon="5.56202">
        <ele>1296.96</ele>
        <time>2010-02-10T11:41:33Z</time>
      </trkpt>
      <trkpt lat="45.04115" lon="5.56213">
        <ele>1301.28</ele>
        <time>2010-02-10T11:41:36Z</time>
      </trkpt>
      <trkpt lat="45.04108" lon="5.56215">
        <ele>1305.61</ele>
        <time>2010-02-10T11:41:38Z</time>
      </trkpt>
      <trkpt lat="45.04103" lon="5.56217">
        <ele>1308.49</ele>
        <time>2010-02-10T11:41:40Z</time>
      </trkpt>
      <trkpt lat="45.04098" lon="5.5622">
        <ele>1312.34</ele>
        <time>2010-02-10T11:41:42Z</time>
      </trkpt>
      <trkpt lat="45.04092" lon="5.56225">
        <ele>1315.7</ele>
        <time>2010-02-10T11:41:44Z</time>
      </trkpt>
      <trkpt lat="45.04085" lon="5.56229">
        <ele>1319.07</ele>
        <time>2010-02-10T11:41:46Z</time>
      </trkpt>
      <trkpt lat="45.04079" lon="5.56234">
        <ele>1322.43</ele>
        <time>2010-02-10T11:41:48Z</time>
      </trkpt>
      <trkpt lat="45.04073" lon="5.56238">
        <ele>1327.72</ele>
        <time>2010-02-10T11:41:50Z</time>
      </trkpt>
      <trkpt lat="45.0407" lon="5.5624">
        <ele>1327.72</ele>
        <time>2010-02-10T11:41:51Z</time>
      </trkpt>
      <trkpt lat="45.04067" lon="5.56242">
        <ele>1331.56</ele>
        <time>2010-02-10T11:41:52Z</time>
      </trkpt>
      <trkpt lat="45.04063" lon="5.56244">
        <ele>1332.04</ele>
        <time>2010-02-10T11:41:53Z</time>
      </trkpt>
      <trkpt lat="45.04058" lon="5.56248">
        <ele>1336.37</ele>
        <time>2010-02-10T11:41:55Z</time>
      </trkpt>
      <trkpt lat="45.04049" lon="5.56256">
        <ele>1341.18</ele>
        <time>2010-02-10T11:41:58Z</time>
      </trkpt>
      <trkpt lat="45.04042" lon="5.5626">
        <ele>1344.06</ele>
        <time>2010-02-10T11:42:00Z</time>
      </trkpt>
      <trkpt lat="45.04032" lon="5.56265">
        <ele>1348.87</ele>
        <time>2010-02-10T11:42:03Z</time>
      </trkpt>
      <trkpt lat="45.04025" lon="5.56272">
        <ele>1352.71</ele>
        <time>2010-02-10T11:42:06Z</time>
      </trkpt>
      <trkpt lat="45.04016" lon="5.5628">
        <ele>1357.04</ele>
        <time>2010-02-10T11:42:09Z</time>
      </trkpt>
      <trkpt lat="45.0401" lon="5.56285">
        <ele>1360.4</ele>
        <time>2010-02-10T11:42:11Z</time>
      </trkpt>
      <trkpt lat="45.04005" lon="5.56287">
        <ele>1363.77</ele>
        <time>2010-02-10T11:42:13Z</time>
      </trkpt>
      <trkpt lat="45.03994" lon="5.56293">
        <ele>1368.57</ele>
        <time>2010-02-10T11:42:16Z</time>
      </trkpt>
      <trkpt lat="45.03986" lon="5.56297">
        <ele>1371.94</ele>
        <time>2010-02-10T11:42:18Z</time>
      </trkpt>
      <trkpt lat="45.03979" lon="5.56301">
        <ele>1375.3</ele>
        <time>2010-02-10T11:42:20Z</time>
      </trkpt>
      <trkpt lat="45.03974" lon="5.56307">
        <ele>1380.11</ele>
        <time>2010-02-10T11:42:22Z</time>
      </trkpt>
      <trkpt lat="45.0397" lon="5.56309">
        <ele>1384.44</ele>
        <time>2010-02-10T11:42:24Z</time>
      </trkpt>
      <trkpt lat="45.03962" lon="5.56314">
        <ele>1387.8</ele>
        <time>2010-02-10T11:42:26Z</time>
      </trkpt>
      <trkpt lat="45.03953" lon="5.56321">
        <ele>1392.13</ele>
        <time>2010-02-10T11:42:29Z</time>
      </trkpt>
      <trkpt lat="45.03943" lon="5.56333">
        <ele>1395.97</ele>
        <time>2010-02-10T11:42:33Z</time>
      </trkpt>
      <trkpt lat="45.03931" lon="5.56339">
        <ele>1399.82</ele>
        <time>2010-02-10T11:42:37Z</time>
      </trkpt>
      <trkpt lat="45.03918" lon="5.5635">
        <ele>1403.18</ele>
        <time>2010-02-10T11:42:41Z</time>
      </trkpt>
      <trkpt lat="45.03914" lon="5.56355">
        <ele>1406.55</ele>
        <time>2010-02-10T11:42:43Z</time>
      </trkpt>
      <trkpt lat="45.03905" lon="5.56361">
        <ele>1409.91</ele>
        <time>2010-02-10T11:42:46Z</time>
      </trkpt>
      <trkpt lat="45.03899" lon="5.56366">
        <ele>1411.83</ele>
        <time>2010-02-10T11:42:48Z</time>
      </trkpt>
      <trkpt lat="45.03889" lon="5.56372">
        <ele>1415.2</ele>
        <time>2010-02-10T11:42:51Z</time>
      </trkpt>
      <trkpt lat="45.03879" lon="5.56378">
        <ele>1420</ele>
        <time>2010-02-10T11:42:54Z</time>
      </trkpt>
      <trkpt lat="45.03869" lon="5.56385">
        <ele>1423.85</ele>
        <time>2010-02-10T11:42:57Z</time>
      </trkpt>
      <trkpt lat="45.03858" lon="5.56393">
        <ele>1427.21</ele>
        <time>2010-02-10T11:43:00Z</time>
      </trkpt>
      <trkpt lat="45.03845" lon="5.564">
        <ele>1431.54</ele>
        <time>2010-02-10T11:43:03Z</time>
      </trkpt>
      <trkpt lat="45.03839" lon="5.56404">
        <ele>1434.91</ele>
        <time>2010-02-10T11:43:05Z</time>
      </trkpt>
      <trkpt lat="45.03828" lon="5.5641">
        <ele>1439.71</ele>
        <time>2010-02-10T11:43:08Z</time>
      </trkpt>
      <trkpt lat="45.03818" lon="5.56417">
        <ele>1445</ele>
        <time>2010-02-10T11:43:11Z</time>
      </trkpt>
      <trkpt lat="45.0381" lon="5.56425">
        <ele>1449.32</ele>
        <time>2010-02-10T11:43:14Z</time>
      </trkpt>
      <trkpt lat="45.03805" lon="5.56428">
        <ele>1452.21</ele>
        <time>2010-02-10T11:43:16Z</time>
      </trkpt>
      <trkpt lat="45.038" lon="5.56432">
        <ele>1456.05</ele>
        <time>2010-02-10T11:43:18Z</time>
      </trkpt>
      <trkpt lat="45.0379" lon="5.56439">
        <ele>1459.9</ele>
        <time>2010-02-10T11:43:21Z</time>
      </trkpt>
      <trkpt lat="45.03779" lon="5.56448">
        <ele>1464.23</ele>
        <time>2010-02-10T11:43:24Z</time>
      </trkpt>
      <trkpt lat="45.03769" lon="5.56452">
        <ele>1467.59</ele>
        <time>2010-02-10T11:43:27Z</time>
      </trkpt>
      <trkpt lat="45.03758" lon="5.56459">
        <ele>1470.95</ele>
        <time>2010-02-10T11:43:30Z</time>
      </trkpt>
      <trkpt lat="45.03748" lon="5.56464">
        <ele>1474.8</ele>
        <time>2010-02-10T11:43:33Z</time>
      </trkpt>
      <trkpt lat="45.03741" lon="5.56468">
        <ele>1477.68</ele>
        <time>2010-02-10T11:43:35Z</time>
      </trkpt>
      <trkpt lat="45.03726" lon="5.56481">
        <ele>1481.53</ele>
        <time>2010-02-10T11:43:40Z</time>
      </trkpt>
      <trkpt lat="45.0372" lon="5.56485">
        <ele>1482.49</ele>
        <time>2010-02-10T11:43:42Z</time>
      </trkpt>
      <trkpt lat="45.03714" lon="5.56491">
        <ele>1484.89</ele>
        <time>2010-02-10T11:43:44Z</time>
      </trkpt>
      <trkpt lat="45.03708" lon="5.56494">
        <ele>1488.26</ele>
        <time>2010-02-10T11:43:46Z</time>
      </trkpt>
      <trkpt lat="45.03697" lon="5.56501">
        <ele>1492.1</ele>
        <time>2010-02-10T11:43:50Z</time>
      </trkpt>
      <trkpt lat="45.03684" lon="5.56507">
        <ele>1495.95</ele>
        <time>2010-02-10T11:43:54Z</time>
      </trkpt>
      <trkpt lat="45.0367" lon="5.56514">
        <ele>1499.31</ele>
        <time>2010-02-10T11:43:57Z</time>
      </trkpt>
      <trkpt lat="45.03658" lon="5.56523">
        <ele>1504.12</ele>
        <time>2010-02-10T11:44:00Z</time>
      </trkpt>
      <trkpt lat="45.03649" lon="5.56533">
        <ele>1507</ele>
        <time>2010-02-10T11:44:03Z</time>
      </trkpt>
      <trkpt lat="45.0364" lon="5.56537">
        <ele>1510.37</ele>
        <time>2010-02-10T11:44:06Z</time>
      </trkpt>
      <trkpt lat="45.03629" lon="5.56541">
        <ele>1514.21</ele>
        <time>2010-02-10T11:44:09Z</time>
      </trkpt>
      <trkpt lat="45.03623" lon="5.56545">
        <ele>1517.1</ele>
        <time>2010-02-10T11:44:11Z</time>
      </trkpt>
      <trkpt lat="45.03615" lon="5.56555">
        <ele>1522.39</ele>
        <time>2010-02-10T11:44:14Z</time>
      </trkpt>
      <trkpt lat="45.03606" lon="5.56565">
        <ele>1526.23</ele>
        <time>2010-02-10T11:44:17Z</time>
      </trkpt>
      <trkpt lat="45.03598" lon="5.5657">
        <ele>1530.56</ele>
        <time>2010-02-10T11:44:20Z</time>
      </trkpt>
      <trkpt lat="45.03595" lon="5.56571">
        <ele>1530.56</ele>
        <time>2010-02-10T11:44:21Z</time>
      </trkpt>
      <trkpt lat="45.03591" lon="5.56573">
        <ele>1533.92</ele>
        <time>2010-02-10T11:44:22Z</time>
      </trkpt>
      <trkpt lat="45.03586" lon="5.56579">
        <ele>1536.32</ele>
        <time>2010-02-10T11:44:24Z</time>
      </trkpt>
      <trkpt lat="45.03579" lon="5.56583">
        <ele>1540.65</ele>
        <time>2010-02-10T11:44:26Z</time>
      </trkpt>
      <trkpt lat="45.03573" lon="5.56588">
        <ele>1544.01</ele>
        <time>2010-02-10T11:44:28Z</time>
      </trkpt>
      <trkpt lat="45.03567" lon="5.56592">
        <ele>1547.38</ele>
        <time>2010-02-10T11:44:30Z</time>
      </trkpt>
      <trkpt lat="45.03558" lon="5.56595">
        <ele>1549.3</ele>
        <time>2010-02-10T11:44:32Z</time>
      </trkpt>
      <trkpt lat="45.03547" lon="5.56606">
        <ele>1553.15</ele>
        <time>2010-02-10T11:44:36Z</time>
      </trkpt>
      <trkpt lat="45.03537" lon="5.56614">
        <ele>1556.99</ele>
        <time>2010-02-10T11:44:39Z</time>
      </trkpt>
      <trkpt lat="45.0353" lon="5.56618">
        <ele>1560.36</ele>
        <time>2010-02-10T11:44:41Z</time>
      </trkpt>
      <trkpt lat="45.03527" lon="5.5662">
        <ele>1559.88</ele>
        <time>2010-02-10T11:44:42Z</time>
      </trkpt>
      <trkpt lat="45.03516" lon="5.56627">
        <ele>1563.72</ele>
        <time>2010-02-10T11:44:45Z</time>
      </trkpt>
      <trkpt lat="45.03504" lon="5.56636">
        <ele>1569.01</ele>
        <time>2010-02-10T11:44:49Z</time>
      </trkpt>
      <trkpt lat="45.03496" lon="5.56642">
        <ele>1571.41</ele>
        <time>2010-02-10T11:44:52Z</time>
      </trkpt>
      <trkpt lat="45.0349" lon="5.56647">
        <ele>1575.74</ele>
        <time>2010-02-10T11:44:54Z</time>
      </trkpt>
      <trkpt lat="45.03477" lon="5.56655">
        <ele>1580.06</ele>
        <time>2010-02-10T11:44:58Z</time>
      </trkpt>
      <trkpt lat="45.03468" lon="5.56663">
        <ele>1584.39</ele>
        <time>2010-02-10T11:45:01Z</time>
      </trkpt>
      <trkpt lat="45.03461" lon="5.56667">
        <ele>1587.27</ele>
        <time>2010-02-10T11:45:03Z</time>
      </trkpt>
      <trkpt lat="45.03457" lon="5.56667">
        <ele>1590.64</ele>
        <time>2010-02-10T11:45:04Z</time>
      </trkpt>
      <trkpt lat="45.03455" lon="5.56669">
        <ele>1590.64</ele>
        <time>2010-02-10T11:45:05Z</time>
      </trkpt>
      <trkpt lat="45.03442" lon="5.56677">
        <ele>1596.41</ele>
        <time>2010-02-10T11:45:08Z</time>
      </trkpt>
      <trkpt lat="45.03431" lon="5.56685">
        <ele>1601.21</ele>
        <time>2010-02-10T11:45:12Z</time>
      </trkpt>
      <trkpt lat="45.03422" lon="5.56693">
        <ele>1606.02</ele>
        <time>2010-02-10T11:45:15Z</time>
      </trkpt>
      <trkpt lat="45.03415" lon="5.56697">
        <ele>1609.86</ele>
        <time>2010-02-10T11:45:17Z</time>
      </trkpt>
      <trkpt lat="45.03406" lon="5.56704">
        <ele>1612.27</ele>
        <time>2010-02-10T11:45:20Z</time>
      </trkpt>
      <trkpt lat="45.034" lon="5.56709">
        <ele>1618.04</ele>
        <time>2010-02-10T11:45:22Z</time>
      </trkpt>
      <trkpt lat="45.03398" lon="5.56711">
        <ele>1615.63</ele>
        <time>2010-02-10T11:45:23Z</time>
      </trkpt>
      <trkpt lat="45.03384" lon="5.5672">
        <ele>1619.48</ele>
        <time>2010-02-10T11:45:27Z</time>
      </trkpt>
      <trkpt lat="45.0337" lon="5.5673">
        <ele>1623.8</ele>
        <time>2010-02-10T11:45:31Z</time>
      </trkpt>
      <trkpt lat="45.03357" lon="5.56739">
        <ele>1629.09</ele>
        <time>2010-02-10T11:45:35Z</time>
      </trkpt>
      <trkpt lat="45.03344" lon="5.56747">
        <ele>1633.42</ele>
        <time>2010-02-10T11:45:39Z</time>
      </trkpt>
      <trkpt lat="45.03333" lon="5.56752">
        <ele>1637.26</ele>
        <time>2010-02-10T11:45:42Z</time>
      </trkpt>
      <trkpt lat="45.03329" lon="5.56757">
        <ele>1640.15</ele>
        <time>2010-02-10T11:45:44Z</time>
      </trkpt>
      <trkpt lat="45.03318" lon="5.56766">
        <ele>1643.51</ele>
        <time>2010-02-10T11:45:47Z</time>
      </trkpt>
      <trkpt lat="45.03308" lon="5.56773">
        <ele>1648.32</ele>
        <time>2010-02-10T11:45:50Z</time>
      </trkpt>
      <trkpt lat="45.03302" lon="5.56777">
        <ele>1652.64</ele>
        <time>2010-02-10T11:45:53Z</time>
      </trkpt>
      <trkpt lat="45.03296" lon="5.56783">
        <ele>1655.53</ele>
        <time>2010-02-10T11:45:55Z</time>
      </trkpt>
      <trkpt lat="45.0328" lon="5.56795">
        <ele>1658.41</ele>
        <time>2010-02-10T11:46:00Z</time>
      </trkpt>
      <trkpt lat="45.03273" lon="5.568">
        <ele>1661.78</ele>
        <time>2010-02-10T11:46:02Z</time>
      </trkpt>
      <trkpt lat="45.0327" lon="5.56802">
        <ele>1661.78</ele>
        <time>2010-02-10T11:46:03Z</time>
      </trkpt>
      <trkpt lat="45.03257" lon="5.56811">
        <ele>1665.62</ele>
        <time>2010-02-10T11:46:07Z</time>
      </trkpt>
      <trkpt lat="45.03243" lon="5.56821">
        <ele>1668.99</ele>
        <time>2010-02-10T11:46:11Z</time>
      </trkpt>
      <trkpt lat="45.03233" lon="5.56827">
        <ele>1672.35</ele>
        <time>2010-02-10T11:46:14Z</time>
      </trkpt>
      <trkpt lat="45.03227" lon="5.56831">
        <ele>1673.79</ele>
        <time>2010-02-10T11:46:16Z</time>
      </trkpt>
      <trkpt lat="45.03216" lon="5.56838">
        <ele>1678.12</ele>
        <time>2010-02-10T11:46:19Z</time>
      </trkpt>
      <trkpt lat="45.03214" lon="5.56839">
        <ele>1676.68</ele>
        <time>2010-02-10T11:46:20Z</time>
      </trkpt>
      <trkpt lat="45.03207" lon="5.56844">
        <ele>1682.44</ele>
        <time>2010-02-10T11:46:22Z</time>
      </trkpt>
      <trkpt lat="45.03193" lon="5.56856">
        <ele>1685.81</ele>
        <time>2010-02-10T11:46:26Z</time>
      </trkpt>
      <trkpt lat="45.03183" lon="5.56865">
        <ele>1689.65</ele>
        <time>2010-02-10T11:46:29Z</time>
      </trkpt>
      <trkpt lat="45.03174" lon="5.5687">
        <ele>1694.46</ele>
        <time>2010-02-10T11:46:32Z</time>
      </trkpt>
      <trkpt lat="45.0317" lon="5.56872">
        <ele>1693.98</ele>
        <time>2010-02-10T11:46:33Z</time>
      </trkpt>
      <trkpt lat="45.03158" lon="5.56884">
        <ele>1697.83</ele>
        <time>2010-02-10T11:46:37Z</time>
      </trkpt>
      <trkpt lat="45.0314" lon="5.56892">
        <ele>1702.15</ele>
        <time>2010-02-10T11:46:42Z</time>
      </trkpt>
      <trkpt lat="45.03129" lon="5.56902">
        <ele>1706</ele>
        <time>2010-02-10T11:46:46Z</time>
      </trkpt>
      <trkpt lat="45.03116" lon="5.56913">
        <ele>1712.25</ele>
        <time>2010-02-10T11:46:50Z</time>
      </trkpt>
      <trkpt lat="45.03113" lon="5.56914">
        <ele>1711.28</ele>
        <time>2010-02-10T11:46:51Z</time>
      </trkpt>
      <trkpt lat="45.03105" lon="5.56916">
        <ele>1714.65</ele>
        <time>2010-02-10T11:46:53Z</time>
      </trkpt>
      <trkpt lat="45.03095" lon="5.56924">
        <ele>1716.57</ele>
        <time>2010-02-10T11:46:56Z</time>
      </trkpt>
      <trkpt lat="45.0309" lon="5.56929">
        <ele>1720.42</ele>
        <time>2010-02-10T11:46:58Z</time>
      </trkpt>
      <trkpt lat="45.03081" lon="5.56936">
        <ele>1723.78</ele>
        <time>2010-02-10T11:47:01Z</time>
      </trkpt>
      <trkpt lat="45.03076" lon="5.56938">
        <ele>1724.26</ele>
        <time>2010-02-10T11:47:02Z</time>
      </trkpt>
      <trkpt lat="45.03069" lon="5.5694">
        <ele>1728.59</ele>
        <time>2010-02-10T11:47:04Z</time>
      </trkpt>
      <trkpt lat="45.03066" lon="5.56943">
        <ele>1728.59</ele>
        <time>2010-02-10T11:47:05Z</time>
      </trkpt>
      <trkpt lat="45.03057" lon="5.56951">
        <ele>1732.43</ele>
        <time>2010-02-10T11:47:08Z</time>
      </trkpt>
      <trkpt lat="45.03047" lon="5.56957">
        <ele>1736.28</ele>
        <time>2010-02-10T11:47:11Z</time>
      </trkpt>
      <trkpt lat="45.0302" lon="5.56978">
        <ele>1739.16</ele>
        <time>2010-02-10T11:47:21Z</time>
      </trkpt>
      <trkpt lat="45.03023" lon="5.56979">
        <ele>1735.8</ele>
        <time>2010-02-10T11:47:31Z</time>
      </trkpt>
      <trkpt lat="45.02983" lon="5.56996">
        <ele>1739.64</ele>
        <time>2010-02-10T11:48:28Z</time>
      </trkpt>
      <trkpt lat="45.02985" lon="5.56999">
        <ele>1739.16</ele>
        <time>2010-02-10T11:48:47Z</time>
      </trkpt>
      <trkpt lat="45.02977" lon="5.57003">
        <ele>1738.68</ele>
        <time>2010-02-10T11:49:35Z</time>
      </trkpt>
      <trkpt lat="45.02981" lon="5.57022">
        <ele>1738.2</ele>
        <time>2010-02-10T11:49:49Z</time>
      </trkpt>
      <trkpt lat="45.0299" lon="5.57031">
        <ele>1736.76</ele>
        <time>2010-02-10T11:50:39Z</time>
      </trkpt>
      <trkpt lat="45.03012" lon="5.57026">
        <ele>1730.51</ele>
        <time>2010-02-10T11:50:44Z</time>
      </trkpt>
      <trkpt lat="45.03019" lon="5.57022">
        <ele>1728.11</ele>
        <time>2010-02-10T11:50:45Z</time>
      </trkpt>
      <trkpt lat="45.03034" lon="5.57011">
        <ele>1723.3</ele>
        <time>2010-02-10T11:50:47Z</time>
      </trkpt>
      <trkpt lat="45.03056" lon="5.56987">
        <ele>1721.86</ele>
        <time>2010-02-10T11:50:51Z</time>
      </trkpt>
      <trkpt lat="45.03063" lon="5.56987">
        <ele>1719.46</ele>
        <time>2010-02-10T11:50:53Z</time>
      </trkpt>
      <trkpt lat="45.03086" lon="5.56987">
        <ele>1706</ele>
        <time>2010-02-10T11:50:57Z</time>
      </trkpt>
      <trkpt lat="45.03094" lon="5.56986">
        <ele>1701.19</ele>
        <time>2010-02-10T11:50:58Z</time>
      </trkpt>
      <trkpt lat="45.03112" lon="5.56988">
        <ele>1693.02</ele>
        <time>2010-02-10T11:51:00Z</time>
      </trkpt>
      <trkpt lat="45.03122" lon="5.5699">
        <ele>1690.14</ele>
        <time>2010-02-10T11:51:01Z</time>
      </trkpt>
      <trkpt lat="45.03131" lon="5.56993">
        <ele>1686.29</ele>
        <time>2010-02-10T11:51:02Z</time>
      </trkpt>
      <trkpt lat="45.03141" lon="5.56995">
        <ele>1681</ele>
        <time>2010-02-10T11:51:03Z</time>
      </trkpt>
      <trkpt lat="45.0315" lon="5.56996">
        <ele>1677.64</ele>
        <time>2010-02-10T11:51:04Z</time>
      </trkpt>
      <trkpt lat="45.03159" lon="5.56997">
        <ele>1673.31</ele>
        <time>2010-02-10T11:51:05Z</time>
      </trkpt>
      <trkpt lat="45.03178" lon="5.57">
        <ele>1666.1</ele>
        <time>2010-02-10T11:51:07Z</time>
      </trkpt>
      <trkpt lat="45.03188" lon="5.57001">
        <ele>1661.78</ele>
        <time>2010-02-10T11:51:08Z</time>
      </trkpt>
      <trkpt lat="45.03197" lon="5.57003">
        <ele>1657.93</ele>
        <time>2010-02-10T11:51:09Z</time>
      </trkpt>
      <trkpt lat="45.03207" lon="5.57001">
        <ele>1652.16</ele>
        <time>2010-02-10T11:51:10Z</time>
      </trkpt>
      <trkpt lat="45.03217" lon="5.56999">
        <ele>1648.32</ele>
        <time>2010-02-10T11:51:11Z</time>
      </trkpt>
      <trkpt lat="45.03227" lon="5.57001">
        <ele>1644.95</ele>
        <time>2010-02-10T11:51:12Z</time>
      </trkpt>
      <trkpt lat="45.03238" lon="5.57002">
        <ele>1639.19</ele>
        <time>2010-02-10T11:51:13Z</time>
      </trkpt>
      <trkpt lat="45.0326" lon="5.57004">
        <ele>1633.9</ele>
        <time>2010-02-10T11:51:15Z</time>
      </trkpt>
      <trkpt lat="45.03278" lon="5.57018">
        <ele>1631.49</ele>
        <time>2010-02-10T11:51:17Z</time>
      </trkpt>
      <trkpt lat="45.03295" lon="5.57025">
        <ele>1626.69</ele>
        <time>2010-02-10T11:51:19Z</time>
      </trkpt>
      <trkpt lat="45.03303" lon="5.57027">
        <ele>1626.69</ele>
        <time>2010-02-10T11:51:20Z</time>
      </trkpt>
      <trkpt lat="45.03343" lon="5.57034">
        <ele>1624.28</ele>
        <time>2010-02-10T11:51:25Z</time>
      </trkpt>
      <trkpt lat="45.03372" lon="5.57039">
        <ele>1620.92</ele>
        <time>2010-02-10T11:51:29Z</time>
      </trkpt>
      <trkpt lat="45.03395" lon="5.5704">
        <ele>1616.59</ele>
        <time>2010-02-10T11:51:32Z</time>
      </trkpt>
      <trkpt lat="45.03412" lon="5.57042">
        <ele>1612.75</ele>
        <time>2010-02-10T11:51:34Z</time>
      </trkpt>
      <trkpt lat="45.03431" lon="5.57043">
        <ele>1609.38</ele>
        <time>2010-02-10T11:51:36Z</time>
      </trkpt>
      <trkpt lat="45.03452" lon="5.57044">
        <ele>1606.02</ele>
        <time>2010-02-10T11:51:38Z</time>
      </trkpt>
      <trkpt lat="45.03461" lon="5.57044">
        <ele>1605.54</ele>
        <time>2010-02-10T11:51:39Z</time>
      </trkpt>
      <trkpt lat="45.0348" lon="5.57042">
        <ele>1603.14</ele>
        <time>2010-02-10T11:51:41Z</time>
      </trkpt>
      <trkpt lat="45.03499" lon="5.57043">
        <ele>1599.77</ele>
        <time>2010-02-10T11:51:43Z</time>
      </trkpt>
      <trkpt lat="45.03525" lon="5.57039">
        <ele>1594.48</ele>
        <time>2010-02-10T11:51:46Z</time>
      </trkpt>
      <trkpt lat="45.03542" lon="5.5704">
        <ele>1590.64</ele>
        <time>2010-02-10T11:51:48Z</time>
      </trkpt>
      <trkpt lat="45.03568" lon="5.57036">
        <ele>1585.83</ele>
        <time>2010-02-10T11:51:51Z</time>
      </trkpt>
      <trkpt lat="45.03594" lon="5.57028">
        <ele>1581.03</ele>
        <time>2010-02-10T11:51:54Z</time>
      </trkpt>
      <trkpt lat="45.03627" lon="5.57033">
        <ele>1578.62</ele>
        <time>2010-02-10T11:51:58Z</time>
      </trkpt>
      <trkpt lat="45.03648" lon="5.57057">
        <ele>1572.37</ele>
        <time>2010-02-10T11:52:03Z</time>
      </trkpt>
      <trkpt lat="45.03656" lon="5.57057">
        <ele>1571.89</ele>
        <time>2010-02-10T11:52:04Z</time>
      </trkpt>
      <trkpt lat="45.03671" lon="5.57057">
        <ele>1567.09</ele>
        <time>2010-02-10T11:52:06Z</time>
      </trkpt>
      <trkpt lat="45.03687" lon="5.57057">
        <ele>1562.28</ele>
        <time>2010-02-10T11:52:08Z</time>
      </trkpt>
      <trkpt lat="45.03696" lon="5.57057">
        <ele>1560.84</ele>
        <time>2010-02-10T11:52:09Z</time>
      </trkpt>
      <trkpt lat="45.03739" lon="5.57051">
        <ele>1541.13</ele>
        <time>2010-02-10T11:52:13Z</time>
      </trkpt>
      <trkpt lat="45.03765" lon="5.57052">
        <ele>1532.96</ele>
        <time>2010-02-10T11:52:15Z</time>
      </trkpt>
      <trkpt lat="45.0379" lon="5.5705">
        <ele>1532</ele>
        <time>2010-02-10T11:52:17Z</time>
      </trkpt>
      <trkpt lat="45.03801" lon="5.5705">
        <ele>1529.11</ele>
        <time>2010-02-10T11:52:18Z</time>
      </trkpt>
      <trkpt lat="45.03846" lon="5.57059">
        <ele>1526.71</ele>
        <time>2010-02-10T11:52:24Z</time>
      </trkpt>
      <trkpt lat="45.03867" lon="5.57054">
        <ele>1525.75</ele>
        <time>2010-02-10T11:52:27Z</time>
      </trkpt>
      <trkpt lat="45.03892" lon="5.57043">
        <ele>1523.35</ele>
        <time>2010-02-10T11:52:31Z</time>
      </trkpt>
      <trkpt lat="45.03904" lon="5.57042">
        <ele>1522.39</ele>
        <time>2010-02-10T11:52:33Z</time>
      </trkpt>
      <trkpt lat="45.03914" lon="5.57048">
        <ele>1522.39</ele>
        <time>2010-02-10T11:52:39Z</time>
      </trkpt>
      <trkpt lat="45.03906" lon="5.5706">
        <ele>1522.39</ele>
        <time>2010-02-10T11:53:50Z</time>
      </trkpt>
      <trkpt lat="45.03899" lon="5.57063">
        <ele>1522.39</ele>
        <time>2010-02-10T11:54:04Z</time>
      </trkpt>
      <trkpt lat="45.03899" lon="5.57063">
        <ele>1522.39</ele>
        <time>2010-02-10T11:54:06Z</time>
      </trkpt>
      <trkpt lat="45.03865" lon="5.57064">
        <ele>1524.79</ele>
        <time>2010-02-10T11:54:18Z</time>
      </trkpt>
      <trkpt lat="45.03856" lon="5.57065">
        <ele>1528.63</ele>
        <time>2010-02-10T11:54:21Z</time>
      </trkpt>
      <trkpt lat="45.03851" lon="5.57063">
        <ele>1532</ele>
        <time>2010-02-10T11:54:23Z</time>
      </trkpt>
      <trkpt lat="45.03832" lon="5.57063">
        <ele>1535.36</ele>
        <time>2010-02-10T11:54:28Z</time>
      </trkpt>
      <trkpt lat="45.03823" lon="5.57062">
        <ele>1537.29</ele>
        <time>2010-02-10T11:54:31Z</time>
      </trkpt>
      <trkpt lat="45.03813" lon="5.57064">
        <ele>1540.65</ele>
        <time>2010-02-10T11:54:34Z</time>
      </trkpt>
      <trkpt lat="45.03797" lon="5.57065">
        <ele>1544.01</ele>
        <time>2010-02-10T11:54:38Z</time>
      </trkpt>
      <trkpt lat="45.03786" lon="5.57062">
        <ele>1547.86</ele>
        <time>2010-02-10T11:54:41Z</time>
      </trkpt>
      <trkpt lat="45.03771" lon="5.57062">
        <ele>1550.26</ele>
        <time>2010-02-10T11:54:45Z</time>
      </trkpt>
      <trkpt lat="45.03753" lon="5.57061">
        <ele>1553.15</ele>
        <time>2010-02-10T11:54:50Z</time>
      </trkpt>
      <trkpt lat="45.03732" lon="5.57061">
        <ele>1557.47</ele>
        <time>2010-02-10T11:54:56Z</time>
      </trkpt>
      <trkpt lat="45.03717" lon="5.57061">
        <ele>1560.36</ele>
        <time>2010-02-10T11:55:00Z</time>
      </trkpt>
      <trkpt lat="45.03707" lon="5.57061">
        <ele>1564.2</ele>
        <time>2010-02-10T11:55:03Z</time>
      </trkpt>
      <trkpt lat="45.03692" lon="5.57061">
        <ele>1567.09</ele>
        <time>2010-02-10T11:55:07Z</time>
      </trkpt>
      <trkpt lat="45.0368" lon="5.57058">
        <ele>1571.41</ele>
        <time>2010-02-10T11:55:10Z</time>
      </trkpt>
      <trkpt lat="45.03666" lon="5.57058">
        <ele>1574.78</ele>
        <time>2010-02-10T11:55:14Z</time>
      </trkpt>
      <trkpt lat="45.03656" lon="5.57058">
        <ele>1578.14</ele>
        <time>2010-02-10T11:55:17Z</time>
      </trkpt>
      <trkpt lat="45.03638" lon="5.57058">
        <ele>1581.99</ele>
        <time>2010-02-10T11:55:22Z</time>
      </trkpt>
      <trkpt lat="45.03634" lon="5.57057">
        <ele>1581.99</ele>
        <time>2010-02-10T11:55:23Z</time>
      </trkpt>
      <trkpt lat="45.03621" lon="5.57059">
        <ele>1585.35</ele>
        <time>2010-02-10T11:55:27Z</time>
      </trkpt>
      <trkpt lat="45.03618" lon="5.5706">
        <ele>1585.83</ele>
        <time>2010-02-10T11:55:28Z</time>
      </trkpt>
      <trkpt lat="45.03603" lon="5.5706">
        <ele>1589.2</ele>
        <time>2010-02-10T11:55:32Z</time>
      </trkpt>
      <trkpt lat="45.03588" lon="5.57059">
        <ele>1592.56</ele>
        <time>2010-02-10T11:55:36Z</time>
      </trkpt>
      <trkpt lat="45.03582" lon="5.57065">
        <ele>1596.41</ele>
        <time>2010-02-10T11:55:39Z</time>
      </trkpt>
      <trkpt lat="45.03549" lon="5.57063">
        <ele>1599.29</ele>
        <time>2010-02-10T11:55:47Z</time>
      </trkpt>
      <trkpt lat="45.03539" lon="5.57066">
        <ele>1601.21</ele>
        <time>2010-02-10T11:55:51Z</time>
      </trkpt>
      <trkpt lat="45.0352" lon="5.57062">
        <ele>1603.62</ele>
        <time>2010-02-10T11:55:56Z</time>
      </trkpt>
      <trkpt lat="45.03505" lon="5.57065">
        <ele>1607.46</ele>
        <time>2010-02-10T11:56:00Z</time>
      </trkpt>
      <trkpt lat="45.03488" lon="5.57061">
        <ele>1610.83</ele>
        <time>2010-02-10T11:56:05Z</time>
      </trkpt>
      <trkpt lat="45.03477" lon="5.57063">
        <ele>1612.27</ele>
        <time>2010-02-10T11:56:08Z</time>
      </trkpt>
      <trkpt lat="45.03453" lon="5.57065">
        <ele>1616.11</ele>
        <time>2010-02-10T11:56:15Z</time>
      </trkpt>
      <trkpt lat="45.03429" lon="5.57064">
        <ele>1619</ele>
        <time>2010-02-10T11:56:21Z</time>
      </trkpt>
      <trkpt lat="45.03415" lon="5.5706">
        <ele>1622.36</ele>
        <time>2010-02-10T11:56:25Z</time>
      </trkpt>
      <trkpt lat="45.03399" lon="5.57061">
        <ele>1625.73</ele>
        <time>2010-02-10T11:56:30Z</time>
      </trkpt>
      <trkpt lat="45.03389" lon="5.57063">
        <ele>1628.61</ele>
        <time>2010-02-10T11:56:33Z</time>
      </trkpt>
      <trkpt lat="45.03378" lon="5.57063">
        <ele>1630.05</ele>
        <time>2010-02-10T11:56:36Z</time>
      </trkpt>
      <trkpt lat="45.03357" lon="5.57062">
        <ele>1633.42</ele>
        <time>2010-02-10T11:56:42Z</time>
      </trkpt>
      <trkpt lat="45.03334" lon="5.57062">
        <ele>1636.78</ele>
        <time>2010-02-10T11:56:48Z</time>
      </trkpt>
      <trkpt lat="45.0333" lon="5.57064">
        <ele>1636.78</ele>
        <time>2010-02-10T11:56:49Z</time>
      </trkpt>
      <trkpt lat="45.03324" lon="5.57064">
        <ele>1639.19</ele>
        <time>2010-02-10T11:56:51Z</time>
      </trkpt>
      <trkpt lat="45.03308" lon="5.57063">
        <ele>1642.55</ele>
        <time>2010-02-10T11:56:55Z</time>
      </trkpt>
      <trkpt lat="45.03305" lon="5.57062">
        <ele>1642.55</ele>
        <time>2010-02-10T11:56:56Z</time>
      </trkpt>
      <trkpt lat="45.03291" lon="5.57064">
        <ele>1646.88</ele>
        <time>2010-02-10T11:57:00Z</time>
      </trkpt>
      <trkpt lat="45.03276" lon="5.57063">
        <ele>1648.8</ele>
        <time>2010-02-10T11:57:04Z</time>
      </trkpt>
      <trkpt lat="45.03253" lon="5.5706">
        <ele>1651.68</ele>
        <time>2010-02-10T11:57:10Z</time>
      </trkpt>
      <trkpt lat="45.03236" lon="5.57062">
        <ele>1655.05</ele>
        <time>2010-02-10T11:57:15Z</time>
      </trkpt>
      <trkpt lat="45.03218" lon="5.57059">
        <ele>1658.41</ele>
        <time>2010-02-10T11:57:20Z</time>
      </trkpt>
      <trkpt lat="45.03204" lon="5.57059">
        <ele>1661.78</ele>
        <time>2010-02-10T11:57:24Z</time>
      </trkpt>
      <trkpt lat="45.0319" lon="5.5706">
        <ele>1665.62</ele>
        <time>2010-02-10T11:57:28Z</time>
      </trkpt>
      <trkpt lat="45.03178" lon="5.57061">
        <ele>1669.95</ele>
        <time>2010-02-10T11:57:32Z</time>
      </trkpt>
      <trkpt lat="45.03164" lon="5.57062">
        <ele>1673.79</ele>
        <time>2010-02-10T11:57:36Z</time>
      </trkpt>
      <trkpt lat="45.03157" lon="5.57061">
        <ele>1675.72</ele>
        <time>2010-02-10T11:57:38Z</time>
      </trkpt>
      <trkpt lat="45.03148" lon="5.57062">
        <ele>1679.56</ele>
        <time>2010-02-10T11:57:41Z</time>
      </trkpt>
      <trkpt lat="45.03136" lon="5.57063">
        <ele>1682.44</ele>
        <time>2010-02-10T11:57:44Z</time>
      </trkpt>
      <trkpt lat="45.03126" lon="5.57063">
        <ele>1686.29</ele>
        <time>2010-02-10T11:57:47Z</time>
      </trkpt>
      <trkpt lat="45.03117" lon="5.57063">
        <ele>1689.17</ele>
        <time>2010-02-10T11:57:50Z</time>
      </trkpt>
      <trkpt lat="45.03107" lon="5.57064">
        <ele>1693.02</ele>
        <time>2010-02-10T11:57:53Z</time>
      </trkpt>
      <trkpt lat="45.031" lon="5.57065">
        <ele>1696.38</ele>
        <time>2010-02-10T11:57:55Z</time>
      </trkpt>
      <trkpt lat="45.03091" lon="5.57065">
        <ele>1701.19</ele>
        <time>2010-02-10T11:57:58Z</time>
      </trkpt>
      <trkpt lat="45.03082" lon="5.57064">
        <ele>1705.04</ele>
        <time>2010-02-10T11:58:01Z</time>
      </trkpt>
      <trkpt lat="45.03077" lon="5.57063">
        <ele>1705.04</ele>
        <time>2010-02-10T11:58:02Z</time>
      </trkpt>
      <trkpt lat="45.0307" lon="5.57064">
        <ele>1706.48</ele>
        <time>2010-02-10T11:58:04Z</time>
      </trkpt>
      <trkpt lat="45.03058" lon="5.57065">
        <ele>1709.84</ele>
        <time>2010-02-10T11:58:07Z</time>
      </trkpt>
      <trkpt lat="45.03043" lon="5.5706">
        <ele>1713.21</ele>
        <time>2010-02-10T11:58:11Z</time>
      </trkpt>
      <trkpt lat="45.03033" lon="5.57061">
        <ele>1716.09</ele>
        <time>2010-02-10T11:58:14Z</time>
      </trkpt>
      <trkpt lat="45.03022" lon="5.57063">
        <ele>1719.94</ele>
        <time>2010-02-10T11:58:17Z</time>
      </trkpt>
      <trkpt lat="45.03012" lon="5.57064">
        <ele>1722.82</ele>
        <time>2010-02-10T11:58:20Z</time>
      </trkpt>
      <trkpt lat="45.03001" lon="5.57059">
        <ele>1726.67</ele>
        <time>2010-02-10T11:58:23Z</time>
      </trkpt>
      <trkpt lat="45.0299" lon="5.57062">
        <ele>1730.51</ele>
        <time>2010-02-10T11:58:26Z</time>
      </trkpt>
      <trkpt lat="45.02978" lon="5.57063">
        <ele>1733.39</ele>
        <time>2010-02-10T11:58:30Z</time>
      </trkpt>
      <trkpt lat="45.02966" lon="5.57062">
        <ele>1736.28</ele>
        <time>2010-02-10T11:58:33Z</time>
      </trkpt>
      <trkpt lat="45.02951" lon="5.57061">
        <ele>1739.64</ele>
        <time>2010-02-10T11:58:37Z</time>
      </trkpt>
      <trkpt lat="45.02941" lon="5.57064">
        <ele>1743.01</ele>
        <time>2010-02-10T11:58:40Z</time>
      </trkpt>
      <trkpt lat="45.02932" lon="5.57064">
        <ele>1746.37</ele>
        <time>2010-02-10T11:58:43Z</time>
      </trkpt>
      <trkpt lat="45.02918" lon="5.57065">
        <ele>1750.7</ele>
        <time>2010-02-10T11:58:47Z</time>
      </trkpt>
      <trkpt lat="45.02907" lon="5.57063">
        <ele>1754.06</ele>
        <time>2010-02-10T11:58:50Z</time>
      </trkpt>
      <trkpt lat="45.02895" lon="5.57065">
        <ele>1758.39</ele>
        <time>2010-02-10T11:58:54Z</time>
      </trkpt>
      <trkpt lat="45.02888" lon="5.57066">
        <ele>1761.75</ele>
        <time>2010-02-10T11:58:56Z</time>
      </trkpt>
      <trkpt lat="45.02879" lon="5.57068">
        <ele>1764.64</ele>
        <time>2010-02-10T11:58:59Z</time>
      </trkpt>
      <trkpt lat="45.02864" lon="5.57066">
        <ele>1768</ele>
        <time>2010-02-10T11:59:03Z</time>
      </trkpt>
      <trkpt lat="45.02849" lon="5.57066">
        <ele>1771.85</ele>
        <time>2010-02-10T11:59:07Z</time>
      </trkpt>
      <trkpt lat="45.02835" lon="5.57064">
        <ele>1775.69</ele>
        <time>2010-02-10T11:59:11Z</time>
      </trkpt>
      <trkpt lat="45.02822" lon="5.57068">
        <ele>1779.54</ele>
        <time>2010-02-10T11:59:15Z</time>
      </trkpt>
      <trkpt lat="45.02811" lon="5.57067">
        <ele>1782.42</ele>
        <time>2010-02-10T11:59:18Z</time>
      </trkpt>
      <trkpt lat="45.02798" lon="5.57065">
        <ele>1786.27</ele>
        <time>2010-02-10T11:59:21Z</time>
      </trkpt>
      <trkpt lat="45.0279" lon="5.57066">
        <ele>1789.63</ele>
        <time>2010-02-10T11:59:24Z</time>
      </trkpt>
      <trkpt lat="45.02781" lon="5.57065">
        <ele>1793</ele>
        <time>2010-02-10T11:59:27Z</time>
      </trkpt>
      <trkpt lat="45.02769" lon="5.57063">
        <ele>1796.84</ele>
        <time>2010-02-10T11:59:30Z</time>
      </trkpt>
      <trkpt lat="45.02753" lon="5.57061">
        <ele>1799.73</ele>
        <time>2010-02-10T11:59:34Z</time>
      </trkpt>
      <trkpt lat="45.02741" lon="5.57064">
        <ele>1803.09</ele>
        <time>2010-02-10T11:59:37Z</time>
      </trkpt>
      <trkpt lat="45.02733" lon="5.57064">
        <ele>1806.45</ele>
        <time>2010-02-10T11:59:40Z</time>
      </trkpt>
      <trkpt lat="45.02717" lon="5.57061">
        <ele>1810.78</ele>
        <time>2010-02-10T11:59:44Z</time>
      </trkpt>
      <trkpt lat="45.02707" lon="5.57066">
        <ele>1814.63</ele>
        <time>2010-02-10T11:59:48Z</time>
      </trkpt>
      <trkpt lat="45.02696" lon="5.57068">
        <ele>1817.99</ele>
        <time>2010-02-10T11:59:51Z</time>
      </trkpt>
      <trkpt lat="45.02687" lon="5.57069">
        <ele>1821.35</ele>
        <time>2010-02-10T11:59:54Z</time>
      </trkpt>
      <trkpt lat="45.02675" lon="5.57066">
        <ele>1826.16</ele>
        <time>2010-02-10T11:59:57Z</time>
      </trkpt>
      <trkpt lat="45.02665" lon="5.57064">
        <ele>1830.01</ele>
        <time>2010-02-10T12:00:00Z</time>
      </trkpt>
      <trkpt lat="45.02657" lon="5.57069">
        <ele>1834.33</ele>
        <time>2010-02-10T12:00:03Z</time>
      </trkpt>
      <trkpt lat="45.02645" lon="5.57068">
        <ele>1837.22</ele>
        <time>2010-02-10T12:00:06Z</time>
      </trkpt>
      <trkpt lat="45.02631" lon="5.57067">
        <ele>1841.06</ele>
        <time>2010-02-10T12:00:10Z</time>
      </trkpt>
      <trkpt lat="45.02622" lon="5.57071">
        <ele>1844.91</ele>
        <time>2010-02-10T12:00:13Z</time>
      </trkpt>
      <trkpt lat="45.02612" lon="5.57069">
        <ele>1848.27</ele>
        <time>2010-02-10T12:00:16Z</time>
      </trkpt>
      <trkpt lat="45.02599" lon="5.57067">
        <ele>1851.64</ele>
        <time>2010-02-10T12:00:19Z</time>
      </trkpt>
      <trkpt lat="45.02588" lon="5.57065">
        <ele>1855</ele>
        <time>2010-02-10T12:00:22Z</time>
      </trkpt>
      <trkpt lat="45.0258" lon="5.57066">
        <ele>1858.37</ele>
        <time>2010-02-10T12:00:25Z</time>
      </trkpt>
      <trkpt lat="45.02568" lon="5.57066">
        <ele>1863.17</ele>
        <time>2010-02-10T12:00:28Z</time>
      </trkpt>
      <trkpt lat="45.02557" lon="5.57066">
        <ele>1866.54</ele>
        <time>2010-02-10T12:00:31Z</time>
      </trkpt>
      <trkpt lat="45.02547" lon="5.5707">
        <ele>1870.86</ele>
        <time>2010-02-10T12:00:34Z</time>
      </trkpt>
      <trkpt lat="45.02542" lon="5.57071">
        <ele>1873.75</ele>
        <time>2010-02-10T12:00:36Z</time>
      </trkpt>
      <trkpt lat="45.02539" lon="5.57069">
        <ele>1874.23</ele>
        <time>2010-02-10T12:00:37Z</time>
      </trkpt>
      <trkpt lat="45.02524" lon="5.57069">
        <ele>1877.11</ele>
        <time>2010-02-10T12:00:41Z</time>
      </trkpt>
      <trkpt lat="45.02514" lon="5.57065">
        <ele>1880.96</ele>
        <time>2010-02-10T12:00:44Z</time>
      </trkpt>
      <trkpt lat="45.02503" lon="5.57068">
        <ele>1884.32</ele>
        <time>2010-02-10T12:00:48Z</time>
      </trkpt>
      <trkpt lat="45.02492" lon="5.57069">
        <ele>1887.69</ele>
        <time>2010-02-10T12:00:51Z</time>
      </trkpt>
      <trkpt lat="45.0248" lon="5.57069">
        <ele>1891.05</ele>
        <time>2010-02-10T12:00:54Z</time>
      </trkpt>
      <trkpt lat="45.0247" lon="5.57065">
        <ele>1891.53</ele>
        <time>2010-02-10T12:00:56Z</time>
      </trkpt>
      <trkpt lat="45.02464" lon="5.57064">
        <ele>1895.38</ele>
        <time>2010-02-10T12:00:58Z</time>
      </trkpt>
      <trkpt lat="45.02455" lon="5.57068">
        <ele>1898.74</ele>
        <time>2010-02-10T12:01:01Z</time>
      </trkpt>
      <trkpt lat="45.02439" lon="5.57065">
        <ele>1902.11</ele>
        <time>2010-02-10T12:01:05Z</time>
      </trkpt>
      <trkpt lat="45.02421" lon="5.57067">
        <ele>1905.95</ele>
        <time>2010-02-10T12:01:10Z</time>
      </trkpt>
      <trkpt lat="45.02405" lon="5.57067">
        <ele>1910.28</ele>
        <time>2010-02-10T12:01:15Z</time>
      </trkpt>
      <trkpt lat="45.02394" lon="5.57066">
        <ele>1914.12</ele>
        <time>2010-02-10T12:01:18Z</time>
      </trkpt>
      <trkpt lat="45.02383" lon="5.57072">
        <ele>1917.49</ele>
        <time>2010-02-10T12:01:22Z</time>
      </trkpt>
      <trkpt lat="45.02373" lon="5.57071">
        <ele>1920.85</ele>
        <time>2010-02-10T12:01:25Z</time>
      </trkpt>
      <trkpt lat="45.02361" lon="5.57069">
        <ele>1923.74</ele>
        <time>2010-02-10T12:01:28Z</time>
      </trkpt>
      <trkpt lat="45.02353" lon="5.57067">
        <ele>1927.1</ele>
        <time>2010-02-10T12:01:30Z</time>
      </trkpt>
      <trkpt lat="45.0234" lon="5.57067">
        <ele>1931.43</ele>
        <time>2010-02-10T12:01:34Z</time>
      </trkpt>
      <trkpt lat="45.02331" lon="5.57068">
        <ele>1933.83</ele>
        <time>2010-02-10T12:01:37Z</time>
      </trkpt>
      <trkpt lat="45.0231" lon="5.57068">
        <ele>1936.71</ele>
        <time>2010-02-10T12:01:42Z</time>
      </trkpt>
      <trkpt lat="45.02294" lon="5.57068">
        <ele>1940.08</ele>
        <time>2010-02-10T12:01:47Z</time>
      </trkpt>
      <trkpt lat="45.02283" lon="5.57069">
        <ele>1942</ele>
        <time>2010-02-10T12:01:50Z</time>
      </trkpt>
      <trkpt lat="45.02262" lon="5.57069">
        <ele>1945.36</ele>
        <time>2010-02-10T12:01:56Z</time>
      </trkpt>
      <trkpt lat="45.02248" lon="5.57066">
        <ele>1945.85</ele>
        <time>2010-02-10T12:02:01Z</time>
      </trkpt>
      <trkpt lat="45.02245" lon="5.57065">
        <ele>1945.85</ele>
        <time>2010-02-10T12:02:02Z</time>
      </trkpt>
      <trkpt lat="45.02246" lon="5.57051">
        <ele>1943.44</ele>
        <time>2010-02-10T12:02:10Z</time>
      </trkpt>
      <trkpt lat="45.02278" lon="5.5705">
        <ele>1938.64</ele>
        <time>2010-02-10T12:02:22Z</time>
      </trkpt>
      <trkpt lat="45.02286" lon="5.5705">
        <ele>1935.27</ele>
        <time>2010-02-10T12:02:24Z</time>
      </trkpt>
      <trkpt lat="45.02306" lon="5.57051">
        <ele>1929.98</ele>
        <time>2010-02-10T12:02:27Z</time>
      </trkpt>
      <trkpt lat="45.02321" lon="5.5705">
        <ele>1924.7</ele>
        <time>2010-02-10T12:02:29Z</time>
      </trkpt>
      <trkpt lat="45.02335" lon="5.57048">
        <ele>1920.37</ele>
        <time>2010-02-10T12:02:31Z</time>
      </trkpt>
      <trkpt lat="45.02357" lon="5.57047">
        <ele>1914.12</ele>
        <time>2010-02-10T12:02:34Z</time>
      </trkpt>
      <trkpt lat="45.02373" lon="5.57044">
        <ele>1908.83</ele>
        <time>2010-02-10T12:02:36Z</time>
      </trkpt>
      <trkpt lat="45.02387" lon="5.57038">
        <ele>1904.03</ele>
        <time>2010-02-10T12:02:38Z</time>
      </trkpt>
      <trkpt lat="45.02395" lon="5.57036">
        <ele>1900.66</ele>
        <time>2010-02-10T12:02:39Z</time>
      </trkpt>
      <trkpt lat="45.02403" lon="5.57033">
        <ele>1897.3</ele>
        <time>2010-02-10T12:02:40Z</time>
      </trkpt>
      <trkpt lat="45.02419" lon="5.57024">
        <ele>1890.57</ele>
        <time>2010-02-10T12:02:42Z</time>
      </trkpt>
      <trkpt lat="45.02433" lon="5.57008">
        <ele>1886.24</ele>
        <time>2010-02-10T12:02:44Z</time>
      </trkpt>
      <trkpt lat="45.02439" lon="5.56999">
        <ele>1886.24</ele>
        <time>2010-02-10T12:02:45Z</time>
      </trkpt>
      <trkpt lat="45.02443" lon="5.56989">
        <ele>1882.4</ele>
        <time>2010-02-10T12:02:46Z</time>
      </trkpt>
      <trkpt lat="45.0245" lon="5.56973">
        <ele>1878.07</ele>
        <time>2010-02-10T12:02:48Z</time>
      </trkpt>
      <trkpt lat="45.02454" lon="5.56959">
        <ele>1876.15</ele>
        <time>2010-02-10T12:02:50Z</time>
      </trkpt>
      <trkpt lat="45.0245" lon="5.56945">
        <ele>1873.27</ele>
        <time>2010-02-10T12:02:52Z</time>
      </trkpt>
      <trkpt lat="45.02444" lon="5.5693">
        <ele>1870.86</ele>
        <time>2010-02-10T12:02:54Z</time>
      </trkpt>
      <trkpt lat="45.02436" lon="5.56921">
        <ele>1869.42</ele>
        <time>2010-02-10T12:02:56Z</time>
      </trkpt>
      <trkpt lat="45.02432" lon="5.5692">
        <ele>1869.42</ele>
        <time>2010-02-10T12:03:02Z</time>
      </trkpt>
      <trkpt lat="45.02432" lon="5.56919">
        <ele>1868.46</ele>
        <time>2010-02-10T12:03:32Z</time>
      </trkpt>
      <trkpt lat="45.02432" lon="5.56919">
        <ele>1867.02</ele>
        <time>2010-02-10T12:03:34Z</time>
      </trkpt>
      <trkpt lat="45.02432" lon="5.56918">
        <ele>1867.5</ele>
        <time>2010-02-10T12:03:46Z</time>
      </trkpt>
      <trkpt lat="45.02436" lon="5.56916">
        <ele>1862.21</ele>
        <time>2010-02-10T12:03:49Z</time>
      </trkpt>
      <trkpt lat="45.02439" lon="5.56916">
        <ele>1859.81</ele>
        <time>2010-02-10T12:03:50Z</time>
      </trkpt>
      <trkpt lat="45.02445" lon="5.56912">
        <ele>1856.92</ele>
        <time>2010-02-10T12:03:53Z</time>
      </trkpt>
      <trkpt lat="45.02468" lon="5.56909">
        <ele>1853.08</ele>
        <time>2010-02-10T12:04:07Z</time>
      </trkpt>
      <trkpt lat="45.0248" lon="5.56898">
        <ele>1845.39</ele>
        <time>2010-02-10T12:04:10Z</time>
      </trkpt>
      <trkpt lat="45.02483" lon="5.56885">
        <ele>1842.02</ele>
        <time>2010-02-10T12:04:12Z</time>
      </trkpt>
      <trkpt lat="45.02483" lon="5.56877">
        <ele>1838.66</ele>
        <time>2010-02-10T12:04:13Z</time>
      </trkpt>
      <trkpt lat="45.02485" lon="5.56871">
        <ele>1834.33</ele>
        <time>2010-02-10T12:04:14Z</time>
      </trkpt>
      <trkpt lat="45.02495" lon="5.56863">
        <ele>1827.12</ele>
        <time>2010-02-10T12:04:16Z</time>
      </trkpt>
      <trkpt lat="45.02506" lon="5.56858">
        <ele>1822.8</ele>
        <time>2010-02-10T12:04:18Z</time>
      </trkpt>
      <trkpt lat="45.02517" lon="5.56855">
        <ele>1820.87</ele>
        <time>2010-02-10T12:04:23Z</time>
      </trkpt>
      <trkpt lat="45.02517" lon="5.5685">
        <ele>1819.91</ele>
        <time>2010-02-10T12:04:31Z</time>
      </trkpt>
      <trkpt lat="45.02523" lon="5.56838">
        <ele>1815.11</ele>
        <time>2010-02-10T12:04:35Z</time>
      </trkpt>
      <trkpt lat="45.02524" lon="5.56837">
        <ele>1815.11</ele>
        <time>2010-02-10T12:04:44Z</time>
      </trkpt>
      <trkpt lat="45.0253" lon="5.56836">
        <ele>1811.74</ele>
        <time>2010-02-10T12:04:47Z</time>
      </trkpt>
      <trkpt lat="45.02538" lon="5.56835">
        <ele>1806.94</ele>
        <time>2010-02-10T12:04:49Z</time>
      </trkpt>
      <trkpt lat="45.02546" lon="5.56827">
        <ele>1802.13</ele>
        <time>2010-02-10T12:04:51Z</time>
      </trkpt>
      <trkpt lat="45.02551" lon="5.56824">
        <ele>1798.28</ele>
        <time>2010-02-10T12:04:52Z</time>
      </trkpt>
      <trkpt lat="45.02562" lon="5.56815">
        <ele>1795.4</ele>
        <time>2010-02-10T12:04:55Z</time>
      </trkpt>
      <trkpt lat="45.02562" lon="5.56813">
        <ele>1795.4</ele>
        <time>2010-02-10T12:05:08Z</time>
      </trkpt>
      <trkpt lat="45.0257" lon="5.56804">
        <ele>1788.19</ele>
        <time>2010-02-10T12:05:11Z</time>
      </trkpt>
      <trkpt lat="45.02576" lon="5.56799">
        <ele>1784.34</ele>
        <time>2010-02-10T12:05:12Z</time>
      </trkpt>
      <trkpt lat="45.02599" lon="5.56785">
        <ele>1773.77</ele>
        <time>2010-02-10T12:05:15Z</time>
      </trkpt>
      <trkpt lat="45.02607" lon="5.56779">
        <ele>1768.48</ele>
        <time>2010-02-10T12:05:16Z</time>
      </trkpt>
      <trkpt lat="45.02627" lon="5.56757">
        <ele>1758.87</ele>
        <time>2010-02-10T12:05:19Z</time>
      </trkpt>
      <trkpt lat="45.02631" lon="5.56748">
        <ele>1755.02</ele>
        <time>2010-02-10T12:05:20Z</time>
      </trkpt>
      <trkpt lat="45.02633" lon="5.56738">
        <ele>1750.22</ele>
        <time>2010-02-10T12:05:21Z</time>
      </trkpt>
      <trkpt lat="45.02636" lon="5.56727">
        <ele>1746.37</ele>
        <time>2010-02-10T12:05:22Z</time>
      </trkpt>
      <trkpt lat="45.0264" lon="5.56716">
        <ele>1741.08</ele>
        <time>2010-02-10T12:05:23Z</time>
      </trkpt>
      <trkpt lat="45.02645" lon="5.56707">
        <ele>1735.32</ele>
        <time>2010-02-10T12:05:24Z</time>
      </trkpt>
      <trkpt lat="45.02651" lon="5.56697">
        <ele>1732.43</ele>
        <time>2010-02-10T12:05:25Z</time>
      </trkpt>
      <trkpt lat="45.02677" lon="5.56684">
        <ele>1721.86</ele>
        <time>2010-02-10T12:05:29Z</time>
      </trkpt>
      <trkpt lat="45.02692" lon="5.56683">
        <ele>1715.13</ele>
        <time>2010-02-10T12:05:31Z</time>
      </trkpt>
      <trkpt lat="45.02716" lon="5.56663">
        <ele>1701.67</ele>
        <time>2010-02-10T12:05:34Z</time>
      </trkpt>
      <trkpt lat="45.02725" lon="5.56654">
        <ele>1699.27</ele>
        <time>2010-02-10T12:05:35Z</time>
      </trkpt>
      <trkpt lat="45.02755" lon="5.56636">
        <ele>1688.69</ele>
        <time>2010-02-10T12:05:38Z</time>
      </trkpt>
      <trkpt lat="45.02775" lon="5.56625">
        <ele>1682.93</ele>
        <time>2010-02-10T12:05:40Z</time>
      </trkpt>
      <trkpt lat="45.02794" lon="5.56615">
        <ele>1676.2</ele>
        <time>2010-02-10T12:05:42Z</time>
      </trkpt>
      <trkpt lat="45.02803" lon="5.5661">
        <ele>1670.43</ele>
        <time>2010-02-10T12:05:43Z</time>
      </trkpt>
      <trkpt lat="45.0282" lon="5.56594">
        <ele>1661.78</ele>
        <time>2010-02-10T12:05:45Z</time>
      </trkpt>
      <trkpt lat="45.02836" lon="5.56573">
        <ele>1657.45</ele>
        <time>2010-02-10T12:05:47Z</time>
      </trkpt>
      <trkpt lat="45.02847" lon="5.56554">
        <ele>1651.68</ele>
        <time>2010-02-10T12:05:49Z</time>
      </trkpt>
      <trkpt lat="45.02854" lon="5.56532">
        <ele>1647.84</ele>
        <time>2010-02-10T12:05:51Z</time>
      </trkpt>
      <trkpt lat="45.02856" lon="5.56505">
        <ele>1638.7</ele>
        <time>2010-02-10T12:05:53Z</time>
      </trkpt>
      <trkpt lat="45.02858" lon="5.56492">
        <ele>1634.38</ele>
        <time>2010-02-10T12:05:54Z</time>
      </trkpt>
      <trkpt lat="45.0286" lon="5.56468">
        <ele>1631.49</ele>
        <time>2010-02-10T12:05:56Z</time>
      </trkpt>
      <trkpt lat="45.02867" lon="5.56462">
        <ele>1627.17</ele>
        <time>2010-02-10T12:05:58Z</time>
      </trkpt>
      <trkpt lat="45.02873" lon="5.5646">
        <ele>1624.28</ele>
        <time>2010-02-10T12:06:05Z</time>
      </trkpt>
      <trkpt lat="45.02872" lon="5.56458">
        <ele>1623.8</ele>
        <time>2010-02-10T12:06:09Z</time>
      </trkpt>
      <trkpt lat="45.02871" lon="5.56445">
        <ele>1621.88</ele>
        <time>2010-02-10T12:06:21Z</time>
      </trkpt>
      <trkpt lat="45.02872" lon="5.56444">
        <ele>1619</ele>
        <time>2010-02-10T12:06:46Z</time>
      </trkpt>
      <trkpt lat="45.02876" lon="5.56439">
        <ele>1611.31</ele>
        <time>2010-02-10T12:06:48Z</time>
      </trkpt>
      <trkpt lat="45.02885" lon="5.56425">
        <ele>1603.14</ele>
        <time>2010-02-10T12:06:50Z</time>
      </trkpt>
      <trkpt lat="45.02892" lon="5.56416">
        <ele>1596.41</ele>
        <time>2010-02-10T12:06:51Z</time>
      </trkpt>
      <trkpt lat="45.02899" lon="5.56406">
        <ele>1593.04</ele>
        <time>2010-02-10T12:06:52Z</time>
      </trkpt>
      <trkpt lat="45.02919" lon="5.56375">
        <ele>1579.58</ele>
        <time>2010-02-10T12:06:55Z</time>
      </trkpt>
      <trkpt lat="45.02934" lon="5.56352">
        <ele>1572.85</ele>
        <time>2010-02-10T12:06:57Z</time>
      </trkpt>
      <trkpt lat="45.02942" lon="5.56341">
        <ele>1569.01</ele>
        <time>2010-02-10T12:06:58Z</time>
      </trkpt>
      <trkpt lat="45.02961" lon="5.56326">
        <ele>1562.28</ele>
        <time>2010-02-10T12:07:00Z</time>
      </trkpt>
      <trkpt lat="45.02988" lon="5.56305">
        <ele>1551.71</ele>
        <time>2010-02-10T12:07:03Z</time>
      </trkpt>
      <trkpt lat="45.03003" lon="5.56286">
        <ele>1541.61</ele>
        <time>2010-02-10T12:07:05Z</time>
      </trkpt>
      <trkpt lat="45.03019" lon="5.56267">
        <ele>1530.08</ele>
        <time>2010-02-10T12:07:07Z</time>
      </trkpt>
      <trkpt lat="45.03025" lon="5.56251">
        <ele>1524.31</ele>
        <time>2010-02-10T12:07:08Z</time>
      </trkpt>
      <trkpt lat="45.03028" lon="5.56233">
        <ele>1519.5</ele>
        <time>2010-02-10T12:07:09Z</time>
      </trkpt>
      <trkpt lat="45.03034" lon="5.56201">
        <ele>1511.81</ele>
        <time>2010-02-10T12:07:11Z</time>
      </trkpt>
      <trkpt lat="45.03041" lon="5.56187">
        <ele>1506.04</ele>
        <time>2010-02-10T12:07:12Z</time>
      </trkpt>
      <trkpt lat="45.03049" lon="5.56162">
        <ele>1499.31</ele>
        <time>2010-02-10T12:07:14Z</time>
      </trkpt>
      <trkpt lat="45.03055" lon="5.56151">
        <ele>1495.47</ele>
        <time>2010-02-10T12:07:15Z</time>
      </trkpt>
      <trkpt lat="45.03063" lon="5.56141">
        <ele>1487.3</ele>
        <time>2010-02-10T12:07:16Z</time>
      </trkpt>
      <trkpt lat="45.03076" lon="5.56107">
        <ele>1479.13</ele>
        <time>2010-02-10T12:07:18Z</time>
      </trkpt>
      <trkpt lat="45.03085" lon="5.5609">
        <ele>1470.47</ele>
        <time>2010-02-10T12:07:19Z</time>
      </trkpt>
      <trkpt lat="45.03113" lon="5.56051">
        <ele>1462.3</ele>
        <time>2010-02-10T12:07:23Z</time>
      </trkpt>
      <trkpt lat="45.03119" lon="5.5604">
        <ele>1457.5</ele>
        <time>2010-02-10T12:07:24Z</time>
      </trkpt>
      <trkpt lat="45.03126" lon="5.56027">
        <ele>1453.65</ele>
        <time>2010-02-10T12:07:25Z</time>
      </trkpt>
      <trkpt lat="45.03144" lon="5.56009">
        <ele>1444.04</ele>
        <time>2010-02-10T12:07:27Z</time>
      </trkpt>
      <trkpt lat="45.03164" lon="5.56">
        <ele>1437.79</ele>
        <time>2010-02-10T12:07:29Z</time>
      </trkpt>
      <trkpt lat="45.03182" lon="5.56002">
        <ele>1435.39</ele>
        <time>2010-02-10T12:07:31Z</time>
      </trkpt>
      <trkpt lat="45.0321" lon="5.56013">
        <ele>1428.66</ele>
        <time>2010-02-10T12:07:35Z</time>
      </trkpt>
      <trkpt lat="45.03224" lon="5.56019">
        <ele>1423.37</ele>
        <time>2010-02-10T12:07:37Z</time>
      </trkpt>
      <trkpt lat="45.03243" lon="5.56017">
        <ele>1416.16</ele>
        <time>2010-02-10T12:07:40Z</time>
      </trkpt>
      <trkpt lat="45.03252" lon="5.56019">
        <ele>1412.31</ele>
        <time>2010-02-10T12:07:41Z</time>
      </trkpt>
      <trkpt lat="45.03259" lon="5.56018">
        <ele>1407.51</ele>
        <time>2010-02-10T12:07:42Z</time>
      </trkpt>
      <trkpt lat="45.03267" lon="5.56017">
        <ele>1403.18</ele>
        <time>2010-02-10T12:07:43Z</time>
      </trkpt>
      <trkpt lat="45.03278" lon="5.56018">
        <ele>1397.41</ele>
        <time>2010-02-10T12:07:44Z</time>
      </trkpt>
      <trkpt lat="45.03291" lon="5.56017">
        <ele>1394.53</ele>
        <time>2010-02-10T12:07:45Z</time>
      </trkpt>
      <trkpt lat="45.03314" lon="5.56009">
        <ele>1393.57</ele>
        <time>2010-02-10T12:07:47Z</time>
      </trkpt>
      <trkpt lat="45.03312" lon="5.55988">
        <ele>1390.2</ele>
        <time>2010-02-10T12:07:49Z</time>
      </trkpt>
      <trkpt lat="45.0332" lon="5.55984">
        <ele>1386.36</ele>
        <time>2010-02-10T12:07:50Z</time>
      </trkpt>
      <trkpt lat="45.0333" lon="5.55981">
        <ele>1382.03</ele>
        <time>2010-02-10T12:07:51Z</time>
      </trkpt>
      <trkpt lat="45.03351" lon="5.55974">
        <ele>1377.23</ele>
        <time>2010-02-10T12:07:53Z</time>
      </trkpt>
      <trkpt lat="45.03362" lon="5.55973">
        <ele>1371.94</ele>
        <time>2010-02-10T12:07:54Z</time>
      </trkpt>
      <trkpt lat="45.03374" lon="5.5597">
        <ele>1373.86</ele>
        <time>2010-02-10T12:07:55Z</time>
      </trkpt>
      <trkpt lat="45.03412" lon="5.55971">
        <ele>1366.65</ele>
        <time>2010-02-10T12:08:00Z</time>
      </trkpt>
      <trkpt lat="45.03428" lon="5.55968">
        <ele>1363.29</ele>
        <time>2010-02-10T12:08:03Z</time>
      </trkpt>
      <trkpt lat="45.03438" lon="5.55966">
        <ele>1359.92</ele>
        <time>2010-02-10T12:08:05Z</time>
      </trkpt>
      <trkpt lat="45.03448" lon="5.55962">
        <ele>1355.6</ele>
        <time>2010-02-10T12:08:07Z</time>
      </trkpt>
      <trkpt lat="45.03453" lon="5.5596">
        <ele>1356.08</ele>
        <time>2010-02-10T12:08:08Z</time>
      </trkpt>
      <trkpt lat="45.0347" lon="5.55953">
        <ele>1351.75</ele>
        <time>2010-02-10T12:08:11Z</time>
      </trkpt>
      <trkpt lat="45.03484" lon="5.55948">
        <ele>1348.39</ele>
        <time>2010-02-10T12:08:13Z</time>
      </trkpt>
      <trkpt lat="45.03499" lon="5.55936">
        <ele>1343.1</ele>
        <time>2010-02-10T12:08:15Z</time>
      </trkpt>
      <trkpt lat="45.03508" lon="5.55926">
        <ele>1339.73</ele>
        <time>2010-02-10T12:08:16Z</time>
      </trkpt>
      <trkpt lat="45.03531" lon="5.55912">
        <ele>1336.37</ele>
        <time>2010-02-10T12:08:18Z</time>
      </trkpt>
      <trkpt lat="45.03553" lon="5.55899">
        <ele>1332.04</ele>
        <time>2010-02-10T12:08:20Z</time>
      </trkpt>
      <trkpt lat="45.03563" lon="5.55889">
        <ele>1328.68</ele>
        <time>2010-02-10T12:08:21Z</time>
      </trkpt>
      <trkpt lat="45.03573" lon="5.5588">
        <ele>1323.87</ele>
        <time>2010-02-10T12:08:22Z</time>
      </trkpt>
      <trkpt lat="45.036" lon="5.55855">
        <ele>1321.47</ele>
        <time>2010-02-10T12:08:27Z</time>
      </trkpt>
      <trkpt lat="45.03588" lon="5.55897">
        <ele>1322.91</ele>
        <time>2010-02-10T12:08:40Z</time>
      </trkpt>
      <trkpt lat="45.03588" lon="5.55897">
        <ele>1323.87</ele>
        <time>2010-02-10T12:08:52Z</time>
      </trkpt>
      <trkpt lat="45.03581" lon="5.55903">
        <ele>1321.95</ele>
        <time>2010-02-10T12:08:55Z</time>
      </trkpt>
      <trkpt lat="45.03572" lon="5.55903">
        <ele>1319.55</ele>
        <time>2010-02-10T12:08:57Z</time>
      </trkpt>
      <trkpt lat="45.03568" lon="5.55903">
        <ele>1322.43</ele>
        <time>2010-02-10T12:08:58Z</time>
      </trkpt>
      <trkpt lat="45.03566" lon="5.55904">
        <ele>1322.43</ele>
        <time>2010-02-10T12:08:59Z</time>
      </trkpt>
      <trkpt lat="45.03563" lon="5.5591">
        <ele>1322.91</ele>
        <time>2010-02-10T12:09:16Z</time>
      </trkpt>
      <trkpt lat="45.0356" lon="5.55942">
        <ele>1324.83</ele>
        <time>2010-02-10T12:10:03Z</time>
      </trkpt>
      <trkpt lat="45.03571" lon="5.55966">
        <ele>1323.87</ele>
        <time>2010-02-10T12:10:05Z</time>
      </trkpt>
      <trkpt lat="45.03598" lon="5.56017">
        <ele>1323.39</ele>
        <time>2010-02-10T12:10:18Z</time>
      </trkpt>
      <trkpt lat="45.03596" lon="5.56015">
        <ele>1323.39</ele>
        <time>2010-02-10T12:10:31Z</time>
      </trkpt>
      <trkpt lat="45.03606" lon="5.55977">
        <ele>1320.51</ele>
        <time>2010-02-10T12:10:36Z</time>
      </trkpt>
      <trkpt lat="45.03616" lon="5.55959">
        <ele>1317.62</ele>
        <time>2010-02-10T12:10:39Z</time>
      </trkpt>
      <trkpt lat="45.03623" lon="5.55945">
        <ele>1313.3</ele>
        <time>2010-02-10T12:10:41Z</time>
      </trkpt>
      <trkpt lat="45.03636" lon="5.55918">
        <ele>1309.45</ele>
        <time>2010-02-10T12:10:44Z</time>
      </trkpt>
      <trkpt lat="45.03641" lon="5.55908">
        <ele>1305.61</ele>
        <time>2010-02-10T12:10:45Z</time>
      </trkpt>
      <trkpt lat="45.03646" lon="5.55897">
        <ele>1301.76</ele>
        <time>2010-02-10T12:10:46Z</time>
      </trkpt>
      <trkpt lat="45.03654" lon="5.55877">
        <ele>1295.03</ele>
        <time>2010-02-10T12:10:48Z</time>
      </trkpt>
      <trkpt lat="45.03658" lon="5.55869">
        <ele>1291.19</ele>
        <time>2010-02-10T12:10:49Z</time>
      </trkpt>
      <trkpt lat="45.03662" lon="5.55861">
        <ele>1287.34</ele>
        <time>2010-02-10T12:10:50Z</time>
      </trkpt>
      <trkpt lat="45.03666" lon="5.55853">
        <ele>1283.98</ele>
        <time>2010-02-10T12:10:51Z</time>
      </trkpt>
      <trkpt lat="45.03671" lon="5.55846">
        <ele>1281.57</ele>
        <time>2010-02-10T12:10:52Z</time>
      </trkpt>
      <trkpt lat="45.03692" lon="5.55821">
        <ele>1272.92</ele>
        <time>2010-02-10T12:10:55Z</time>
      </trkpt>
      <trkpt lat="45.037" lon="5.55813">
        <ele>1271.48</ele>
        <time>2010-02-10T12:10:56Z</time>
      </trkpt>
      <trkpt lat="45.03722" lon="5.55789">
        <ele>1265.23</ele>
        <time>2010-02-10T12:10:59Z</time>
      </trkpt>
      <trkpt lat="45.03743" lon="5.55768">
        <ele>1262.83</ele>
        <time>2010-02-10T12:11:01Z</time>
      </trkpt>
      <trkpt lat="45.03762" lon="5.5575">
        <ele>1261.39</ele>
        <time>2010-02-10T12:11:03Z</time>
      </trkpt>
      <trkpt lat="45.03778" lon="5.55741">
        <ele>1258.02</ele>
        <time>2010-02-10T12:11:05Z</time>
      </trkpt>
      <trkpt lat="45.03784" lon="5.5574">
        <ele>1257.54</ele>
        <time>2010-02-10T12:11:06Z</time>
      </trkpt>
      <trkpt lat="45.03815" lon="5.55744">
        <ele>1254.18</ele>
        <time>2010-02-10T12:11:12Z</time>
      </trkpt>
      <trkpt lat="45.0383" lon="5.55742">
        <ele>1251.77</ele>
        <time>2010-02-10T12:11:15Z</time>
      </trkpt>
      <trkpt lat="45.03871" lon="5.55731">
        <ele>1248.41</ele>
        <time>2010-02-10T12:11:22Z</time>
      </trkpt>
      <trkpt lat="45.03884" lon="5.55723">
        <ele>1246.01</ele>
        <time>2010-02-10T12:11:24Z</time>
      </trkpt>
      <trkpt lat="45.03902" lon="5.55702">
        <ele>1241.68</ele>
        <time>2010-02-10T12:11:28Z</time>
      </trkpt>
      <trkpt lat="45.03908" lon="5.55698">
        <ele>1237.83</ele>
        <time>2010-02-10T12:11:29Z</time>
      </trkpt>
      <trkpt lat="45.03922" lon="5.55692">
        <ele>1232.07</ele>
        <time>2010-02-10T12:11:31Z</time>
      </trkpt>
      <trkpt lat="45.0394" lon="5.55687">
        <ele>1226.3</ele>
        <time>2010-02-10T12:11:33Z</time>
      </trkpt>
      <trkpt lat="45.03961" lon="5.55683">
        <ele>1216.69</ele>
        <time>2010-02-10T12:11:35Z</time>
      </trkpt>
      <trkpt lat="45.03971" lon="5.55683">
        <ele>1212.84</ele>
        <time>2010-02-10T12:11:36Z</time>
      </trkpt>
      <trkpt lat="45.04007" lon="5.557">
        <ele>1208.51</ele>
        <time>2010-02-10T12:11:39Z</time>
      </trkpt>
      <trkpt lat="45.04024" lon="5.55713">
        <ele>1208.51</ele>
        <time>2010-02-10T12:11:41Z</time>
      </trkpt>
      <trkpt lat="45.04049" lon="5.55735">
        <ele>1203.71</ele>
        <time>2010-02-10T12:11:45Z</time>
      </trkpt>
      <trkpt lat="45.04071" lon="5.55751">
        <ele>1200.34</ele>
        <time>2010-02-10T12:11:48Z</time>
      </trkpt>
      <trkpt lat="45.04076" lon="5.55754">
        <ele>1198.42</ele>
        <time>2010-02-10T12:11:49Z</time>
      </trkpt>
      <trkpt lat="45.04089" lon="5.55759">
        <ele>1191.21</ele>
        <time>2010-02-10T12:11:51Z</time>
      </trkpt>
      <trkpt lat="45.041" lon="5.55762">
        <ele>1187.85</ele>
        <time>2010-02-10T12:11:52Z</time>
      </trkpt>
      <trkpt lat="45.0411" lon="5.55764">
        <ele>1184</ele>
        <time>2010-02-10T12:11:53Z</time>
      </trkpt>
      <trkpt lat="45.04131" lon="5.55769">
        <ele>1180.64</ele>
        <time>2010-02-10T12:11:55Z</time>
      </trkpt>
      <trkpt lat="45.04153" lon="5.55784">
        <ele>1177.75</ele>
        <time>2010-02-10T12:11:58Z</time>
      </trkpt>
      <trkpt lat="45.04168" lon="5.55804">
        <ele>1172.47</ele>
        <time>2010-02-10T12:12:00Z</time>
      </trkpt>
      <trkpt lat="45.04183" lon="5.55841">
        <ele>1167.18</ele>
        <time>2010-02-10T12:12:03Z</time>
      </trkpt>
      <trkpt lat="45.04191" lon="5.55867">
        <ele>1163.81</ele>
        <time>2010-02-10T12:12:05Z</time>
      </trkpt>
      <trkpt lat="45.042" lon="5.55907">
        <ele>1160.93</ele>
        <time>2010-02-10T12:12:08Z</time>
      </trkpt>
      <trkpt lat="45.04202" lon="5.5592">
        <ele>1160.45</ele>
        <time>2010-02-10T12:12:09Z</time>
      </trkpt>
      <trkpt lat="45.04208" lon="5.55945">
        <ele>1157.56</ele>
        <time>2010-02-10T12:12:11Z</time>
      </trkpt>
      <trkpt lat="45.04223" lon="5.55989">
        <ele>1154.2</ele>
        <time>2010-02-10T12:12:15Z</time>
      </trkpt>
      <trkpt lat="45.04237" lon="5.56012">
        <ele>1152.76</ele>
        <time>2010-02-10T12:12:18Z</time>
      </trkpt>
      <trkpt lat="45.04276" lon="5.56014">
        <ele>1153.72</ele>
        <time>2010-02-10T12:12:25Z</time>
      </trkpt>
      <trkpt lat="45.04288" lon="5.56007">
        <ele>1153.72</ele>
        <time>2010-02-10T12:12:29Z</time>
      </trkpt>
      <trkpt lat="45.04285" lon="5.56005">
        <ele>1152.76</ele>
        <time>2010-02-10T12:12:34Z</time>
      </trkpt>
      <trkpt lat="45.0429" lon="5.56006">
        <ele>1154.2</ele>
        <time>2010-02-10T12:12:48Z</time>
      </trkpt>
      <trkpt lat="45.04296" lon="5.56004">
        <ele>1153.24</ele>
        <time>2010-02-10T12:13:06Z</time>
      </trkpt>
      <trkpt lat="45.04289" lon="5.56005">
        <ele>1153.24</ele>
        <time>2010-02-10T12:13:18Z</time>
      </trkpt>
      <trkpt lat="45.04287" lon="5.56005">
        <ele>1153.24</ele>
        <time>2010-02-10T12:13:38Z</time>
      </trkpt>
      <trkpt lat="45.0447" lon="5.56073">
        <ele>1152.76</ele>
        <time>2010-02-10T12:14:48Z</time>
      </trkpt>
      <trkpt lat="45.04476" lon="5.5608">
        <ele>1153.24</ele>
        <time>2010-02-10T12:15:16Z</time>
      </trkpt>
      <trkpt lat="45.04472" lon="5.56078">
        <ele>1153.24</ele>
        <time>2010-02-10T12:15:21Z</time>
      </trkpt>
      <trkpt lat="45.04469" lon="5.56077">
        <ele>1151.8</ele>
        <time>2010-02-10T12:15:24Z</time>
      </trkpt>
      <trkpt lat="45.04484" lon="5.56087">
        <ele>1152.76</ele>
        <time>2010-02-10T12:15:48Z</time>
      </trkpt>
      <trkpt lat="45.04494" lon="5.56094">
        <ele>1152.76</ele>
        <time>2010-02-10T12:16:25Z</time>
      </trkpt>
      <trkpt lat="45.04494" lon="5.56094">
        <ele>1152.76</ele>
        <time>2010-02-10T12:16:26Z</time>
      </trkpt>
      <trkpt lat="45.04426" lon="5.56012">
        <ele>1154.68</ele>
        <time>2010-02-10T12:16:30Z</time>
      </trkpt>
      <trkpt lat="45.0441" lon="5.56019">
        <ele>1159.49</ele>
        <time>2010-02-10T12:16:34Z</time>
      </trkpt>
      <trkpt lat="45.044" lon="5.5602">
        <ele>1163.81</ele>
        <time>2010-02-10T12:16:36Z</time>
      </trkpt>
      <trkpt lat="45.04393" lon="5.56019">
        <ele>1167.66</ele>
        <time>2010-02-10T12:16:38Z</time>
      </trkpt>
      <trkpt lat="45.04389" lon="5.56028">
        <ele>1171.98</ele>
        <time>2010-02-10T12:16:40Z</time>
      </trkpt>
      <trkpt lat="45.04385" lon="5.56034">
        <ele>1174.87</ele>
        <time>2010-02-10T12:16:42Z</time>
      </trkpt>
      <trkpt lat="45.04381" lon="5.56038">
        <ele>1178.71</ele>
        <time>2010-02-10T12:16:44Z</time>
      </trkpt>
      <trkpt lat="45.04368" lon="5.56053">
        <ele>1183.04</ele>
        <time>2010-02-10T12:16:47Z</time>
      </trkpt>
      <trkpt lat="45.04356" lon="5.56057">
        <ele>1187.85</ele>
        <time>2010-02-10T12:16:50Z</time>
      </trkpt>
      <trkpt lat="45.04351" lon="5.56059">
        <ele>1191.69</ele>
        <time>2010-02-10T12:16:52Z</time>
      </trkpt>
      <trkpt lat="45.04342" lon="5.56058">
        <ele>1196.5</ele>
        <time>2010-02-10T12:16:55Z</time>
      </trkpt>
      <trkpt lat="45.04336" lon="5.56062">
        <ele>1199.38</ele>
        <time>2010-02-10T12:16:57Z</time>
      </trkpt>
      <trkpt lat="45.04324" lon="5.56069">
        <ele>1203.71</ele>
        <time>2010-02-10T12:17:00Z</time>
      </trkpt>
      <trkpt lat="45.04317" lon="5.56074">
        <ele>1206.59</ele>
        <time>2010-02-10T12:17:02Z</time>
      </trkpt>
      <trkpt lat="45.04314" lon="5.56075">
        <ele>1207.07</ele>
        <time>2010-02-10T12:17:03Z</time>
      </trkpt>
      <trkpt lat="45.04308" lon="5.56079">
        <ele>1210.44</ele>
        <time>2010-02-10T12:17:05Z</time>
      </trkpt>
      <trkpt lat="45.04306" lon="5.56079">
        <ele>1210.44</ele>
        <time>2010-02-10T12:17:06Z</time>
      </trkpt>
      <trkpt lat="45.043" lon="5.56083">
        <ele>1213.8</ele>
        <time>2010-02-10T12:17:08Z</time>
      </trkpt>
      <trkpt lat="45.04291" lon="5.56079">
        <ele>1215.72</ele>
        <time>2010-02-10T12:17:10Z</time>
      </trkpt>
      <trkpt lat="45.0428" lon="5.56082">
        <ele>1219.57</ele>
        <time>2010-02-10T12:17:13Z</time>
      </trkpt>
      <trkpt lat="45.04274" lon="5.56087">
        <ele>1222.93</ele>
        <time>2010-02-10T12:17:15Z</time>
      </trkpt>
      <trkpt lat="45.04269" lon="5.56094">
        <ele>1226.78</ele>
        <time>2010-02-10T12:17:17Z</time>
      </trkpt>
      <trkpt lat="45.04258" lon="5.56096">
        <ele>1229.66</ele>
        <time>2010-02-10T12:17:20Z</time>
      </trkpt>
      <trkpt lat="45.04251" lon="5.56103">
        <ele>1233.99</ele>
        <time>2010-02-10T12:17:22Z</time>
      </trkpt>
      <trkpt lat="45.04242" lon="5.56113">
        <ele>1238.32</ele>
        <time>2010-02-10T12:17:25Z</time>
      </trkpt>
      <trkpt lat="45.04236" lon="5.56118">
        <ele>1242.16</ele>
        <time>2010-02-10T12:17:27Z</time>
      </trkpt>
      <trkpt lat="45.0423" lon="5.56123">
        <ele>1246.01</ele>
        <time>2010-02-10T12:17:29Z</time>
      </trkpt>
      <trkpt lat="45.04225" lon="5.56127">
        <ele>1250.81</ele>
        <time>2010-02-10T12:17:31Z</time>
      </trkpt>
      <trkpt lat="45.04222" lon="5.5613">
        <ele>1250.33</ele>
        <time>2010-02-10T12:17:32Z</time>
      </trkpt>
      <trkpt lat="45.04216" lon="5.56134">
        <ele>1254.66</ele>
        <time>2010-02-10T12:17:34Z</time>
      </trkpt>
      <trkpt lat="45.0421" lon="5.56139">
        <ele>1258.5</ele>
        <time>2010-02-10T12:17:36Z</time>
      </trkpt>
      <trkpt lat="45.04204" lon="5.56144">
        <ele>1262.35</ele>
        <time>2010-02-10T12:17:38Z</time>
      </trkpt>
      <trkpt lat="45.04198" lon="5.56148">
        <ele>1265.71</ele>
        <time>2010-02-10T12:17:40Z</time>
      </trkpt>
      <trkpt lat="45.04192" lon="5.56152">
        <ele>1270.52</ele>
        <time>2010-02-10T12:17:42Z</time>
      </trkpt>
      <trkpt lat="45.04186" lon="5.56156">
        <ele>1274.36</ele>
        <time>2010-02-10T12:17:44Z</time>
      </trkpt>
      <trkpt lat="45.0418" lon="5.56159">
        <ele>1277.73</ele>
        <time>2010-02-10T12:17:46Z</time>
      </trkpt>
      <trkpt lat="45.04174" lon="5.56163">
        <ele>1282.06</ele>
        <time>2010-02-10T12:17:48Z</time>
      </trkpt>
      <trkpt lat="45.04168" lon="5.56166">
        <ele>1285.9</ele>
        <time>2010-02-10T12:17:50Z</time>
      </trkpt>
      <trkpt lat="45.04162" lon="5.56171">
        <ele>1289.75</ele>
        <time>2010-02-10T12:17:52Z</time>
      </trkpt>
      <trkpt lat="45.04153" lon="5.56176">
        <ele>1292.63</ele>
        <time>2010-02-10T12:17:55Z</time>
      </trkpt>
      <trkpt lat="45.04146" lon="5.5618">
        <ele>1296.48</ele>
        <time>2010-02-10T12:17:57Z</time>
      </trkpt>
      <trkpt lat="45.04137" lon="5.56188">
        <ele>1300.8</ele>
        <time>2010-02-10T12:18:00Z</time>
      </trkpt>
      <trkpt lat="45.04131" lon="5.56192">
        <ele>1303.69</ele>
        <time>2010-02-10T12:18:02Z</time>
      </trkpt>
      <trkpt lat="45.04124" lon="5.56196">
        <ele>1307.05</ele>
        <time>2010-02-10T12:18:04Z</time>
      </trkpt>
      <trkpt lat="45.04115" lon="5.56202">
        <ele>1312.34</ele>
        <time>2010-02-10T12:18:07Z</time>
      </trkpt>
      <trkpt lat="45.04106" lon="5.56209">
        <ele>1316.66</ele>
        <time>2010-02-10T12:18:10Z</time>
      </trkpt>
      <trkpt lat="45.04099" lon="5.56214">
        <ele>1320.99</ele>
        <time>2010-02-10T12:18:12Z</time>
      </trkpt>
      <trkpt lat="45.0409" lon="5.5622">
        <ele>1325.8</ele>
        <time>2010-02-10T12:18:15Z</time>
      </trkpt>
      <trkpt lat="45.04084" lon="5.56224">
        <ele>1328.68</ele>
        <time>2010-02-10T12:18:17Z</time>
      </trkpt>
      <trkpt lat="45.04078" lon="5.56229">
        <ele>1332.52</ele>
        <time>2010-02-10T12:18:19Z</time>
      </trkpt>
      <trkpt lat="45.04072" lon="5.56233">
        <ele>1335.41</ele>
        <time>2010-02-10T12:18:21Z</time>
      </trkpt>
      <trkpt lat="45.04069" lon="5.56236">
        <ele>1338.77</ele>
        <time>2010-02-10T12:18:22Z</time>
      </trkpt>
      <trkpt lat="45.04063" lon="5.5624">
        <ele>1342.14</ele>
        <time>2010-02-10T12:18:24Z</time>
      </trkpt>
      <trkpt lat="45.04057" lon="5.56245">
        <ele>1345.98</ele>
        <time>2010-02-10T12:18:26Z</time>
      </trkpt>
      <trkpt lat="45.04051" lon="5.56251">
        <ele>1349.35</ele>
        <time>2010-02-10T12:18:28Z</time>
      </trkpt>
      <trkpt lat="45.04042" lon="5.56258">
        <ele>1353.19</ele>
        <time>2010-02-10T12:18:31Z</time>
      </trkpt>
      <trkpt lat="45.04033" lon="5.56264">
        <ele>1358</ele>
        <time>2010-02-10T12:18:34Z</time>
      </trkpt>
      <trkpt lat="45.04024" lon="5.56271">
        <ele>1362.33</ele>
        <time>2010-02-10T12:18:37Z</time>
      </trkpt>
      <trkpt lat="45.04018" lon="5.56275">
        <ele>1365.21</ele>
        <time>2010-02-10T12:18:39Z</time>
      </trkpt>
      <trkpt lat="45.04011" lon="5.56279">
        <ele>1368.57</ele>
        <time>2010-02-10T12:18:41Z</time>
      </trkpt>
      <trkpt lat="45.04006" lon="5.56283">
        <ele>1371.94</ele>
        <time>2010-02-10T12:18:43Z</time>
      </trkpt>
      <trkpt lat="45.03997" lon="5.56291">
        <ele>1377.71</ele>
        <time>2010-02-10T12:18:46Z</time>
      </trkpt>
      <trkpt lat="45.03987" lon="5.56298">
        <ele>1382.03</ele>
        <time>2010-02-10T12:18:49Z</time>
      </trkpt>
      <trkpt lat="45.03979" lon="5.56302">
        <ele>1385.88</ele>
        <time>2010-02-10T12:18:51Z</time>
      </trkpt>
      <trkpt lat="45.03973" lon="5.56304">
        <ele>1389.24</ele>
        <time>2010-02-10T12:18:53Z</time>
      </trkpt>
      <trkpt lat="45.03969" lon="5.56309">
        <ele>1392.61</ele>
        <time>2010-02-10T12:18:55Z</time>
      </trkpt>
      <trkpt lat="45.03962" lon="5.56314">
        <ele>1396.93</ele>
        <time>2010-02-10T12:18:57Z</time>
      </trkpt>
      <trkpt lat="45.03956" lon="5.5632">
        <ele>1399.82</ele>
        <time>2010-02-10T12:18:59Z</time>
      </trkpt>
      <trkpt lat="45.03947" lon="5.56326">
        <ele>1403.66</ele>
        <time>2010-02-10T12:19:02Z</time>
      </trkpt>
      <trkpt lat="45.03934" lon="5.56328">
        <ele>1407.51</ele>
        <time>2010-02-10T12:19:06Z</time>
      </trkpt>
      <trkpt lat="45.03924" lon="5.56334">
        <ele>1410.87</ele>
        <time>2010-02-10T12:19:09Z</time>
      </trkpt>
      <trkpt lat="45.03914" lon="5.56337">
        <ele>1414.24</ele>
        <time>2010-02-10T12:19:12Z</time>
      </trkpt>
      <trkpt lat="45.03903" lon="5.5634">
        <ele>1417.12</ele>
        <time>2010-02-10T12:19:15Z</time>
      </trkpt>
      <trkpt lat="45.0389" lon="5.56347">
        <ele>1421.45</ele>
        <time>2010-02-10T12:19:19Z</time>
      </trkpt>
      <trkpt lat="45.0388" lon="5.56352">
        <ele>1425.77</ele>
        <time>2010-02-10T12:19:22Z</time>
      </trkpt>
      <trkpt lat="45.03877" lon="5.56353">
        <ele>1426.25</ele>
        <time>2010-02-10T12:19:23Z</time>
      </trkpt>
      <trkpt lat="45.03866" lon="5.5636">
        <ele>1430.1</ele>
        <time>2010-02-10T12:19:26Z</time>
      </trkpt>
      <trkpt lat="45.0386" lon="5.56364">
        <ele>1433.94</ele>
        <time>2010-02-10T12:19:28Z</time>
      </trkpt>
      <trkpt lat="45.0385" lon="5.56373">
        <ele>1437.79</ele>
        <time>2010-02-10T12:19:31Z</time>
      </trkpt>
      <trkpt lat="45.03844" lon="5.56378">
        <ele>1441.63</ele>
        <time>2010-02-10T12:19:33Z</time>
      </trkpt>
      <trkpt lat="45.03835" lon="5.56388">
        <ele>1444.52</ele>
        <time>2010-02-10T12:19:36Z</time>
      </trkpt>
      <trkpt lat="45.03828" lon="5.56392">
        <ele>1447.88</ele>
        <time>2010-02-10T12:19:38Z</time>
      </trkpt>
      <trkpt lat="45.03819" lon="5.564">
        <ele>1452.21</ele>
        <time>2010-02-10T12:19:41Z</time>
      </trkpt>
      <trkpt lat="45.03813" lon="5.56406">
        <ele>1455.57</ele>
        <time>2010-02-10T12:19:43Z</time>
      </trkpt>
      <trkpt lat="45.03807" lon="5.56412">
        <ele>1459.9</ele>
        <time>2010-02-10T12:19:45Z</time>
      </trkpt>
      <trkpt lat="45.03799" lon="5.56422">
        <ele>1463.74</ele>
        <time>2010-02-10T12:19:48Z</time>
      </trkpt>
      <trkpt lat="45.03793" lon="5.56429">
        <ele>1467.59</ele>
        <time>2010-02-10T12:19:50Z</time>
      </trkpt>
      <trkpt lat="45.03785" lon="5.56439">
        <ele>1470.95</ele>
        <time>2010-02-10T12:19:53Z</time>
      </trkpt>
      <trkpt lat="45.03775" lon="5.56446">
        <ele>1474.32</ele>
        <time>2010-02-10T12:19:56Z</time>
      </trkpt>
      <trkpt lat="45.03765" lon="5.56453">
        <ele>1478.65</ele>
        <time>2010-02-10T12:19:59Z</time>
      </trkpt>
      <trkpt lat="45.03755" lon="5.5646">
        <ele>1482.01</ele>
        <time>2010-02-10T12:20:02Z</time>
      </trkpt>
      <trkpt lat="45.03746" lon="5.56467">
        <ele>1485.37</ele>
        <time>2010-02-10T12:20:05Z</time>
      </trkpt>
      <trkpt lat="45.03733" lon="5.56477">
        <ele>1489.7</ele>
        <time>2010-02-10T12:20:09Z</time>
      </trkpt>
      <trkpt lat="45.03727" lon="5.56481">
        <ele>1490.18</ele>
        <time>2010-02-10T12:20:11Z</time>
      </trkpt>
      <trkpt lat="45.0372" lon="5.56486">
        <ele>1493.06</ele>
        <time>2010-02-10T12:20:13Z</time>
      </trkpt>
      <trkpt lat="45.0371" lon="5.56491">
        <ele>1496.43</ele>
        <time>2010-02-10T12:20:16Z</time>
      </trkpt>
      <trkpt lat="45.03701" lon="5.56498">
        <ele>1499.31</ele>
        <time>2010-02-10T12:20:19Z</time>
      </trkpt>
      <trkpt lat="45.03691" lon="5.56505">
        <ele>1502.68</ele>
        <time>2010-02-10T12:20:22Z</time>
      </trkpt>
      <trkpt lat="45.03681" lon="5.56512">
        <ele>1507</ele>
        <time>2010-02-10T12:20:25Z</time>
      </trkpt>
      <trkpt lat="45.03669" lon="5.56522">
        <ele>1511.33</ele>
        <time>2010-02-10T12:20:29Z</time>
      </trkpt>
      <trkpt lat="45.03659" lon="5.5653">
        <ele>1514.21</ele>
        <time>2010-02-10T12:20:32Z</time>
      </trkpt>
      <trkpt lat="45.0365" lon="5.56537">
        <ele>1518.06</ele>
        <time>2010-02-10T12:20:35Z</time>
      </trkpt>
      <trkpt lat="45.0364" lon="5.56544">
        <ele>1522.39</ele>
        <time>2010-02-10T12:20:38Z</time>
      </trkpt>
      <trkpt lat="45.03634" lon="5.56548">
        <ele>1523.83</ele>
        <time>2010-02-10T12:20:40Z</time>
      </trkpt>
      <trkpt lat="45.03627" lon="5.56553">
        <ele>1527.67</ele>
        <time>2010-02-10T12:20:42Z</time>
      </trkpt>
      <trkpt lat="45.03618" lon="5.56559">
        <ele>1531.52</ele>
        <time>2010-02-10T12:20:45Z</time>
      </trkpt>
      <trkpt lat="45.03608" lon="5.56566">
        <ele>1535.84</ele>
        <time>2010-02-10T12:20:48Z</time>
      </trkpt>
      <trkpt lat="45.03598" lon="5.56573">
        <ele>1540.17</ele>
        <time>2010-02-10T12:20:51Z</time>
      </trkpt>
      <trkpt lat="45.03592" lon="5.56577">
        <ele>1543.53</ele>
        <time>2010-02-10T12:20:53Z</time>
      </trkpt>
      <trkpt lat="45.03582" lon="5.56583">
        <ele>1546.9</ele>
        <time>2010-02-10T12:20:56Z</time>
      </trkpt>
      <trkpt lat="45.03576" lon="5.56588">
        <ele>1551.22</ele>
        <time>2010-02-10T12:20:58Z</time>
      </trkpt>
      <trkpt lat="45.0357" lon="5.56592">
        <ele>1554.59</ele>
        <time>2010-02-10T12:21:00Z</time>
      </trkpt>
      <trkpt lat="45.0356" lon="5.56599">
        <ele>1558.43</ele>
        <time>2010-02-10T12:21:03Z</time>
      </trkpt>
      <trkpt lat="45.03548" lon="5.56608">
        <ele>1562.28</ele>
        <time>2010-02-10T12:21:07Z</time>
      </trkpt>
      <trkpt lat="45.03535" lon="5.56617">
        <ele>1566.61</ele>
        <time>2010-02-10T12:21:11Z</time>
      </trkpt>
      <trkpt lat="45.03525" lon="5.56623">
        <ele>1570.93</ele>
        <time>2010-02-10T12:21:14Z</time>
      </trkpt>
      <trkpt lat="45.03515" lon="5.5663">
        <ele>1573.82</ele>
        <time>2010-02-10T12:21:17Z</time>
      </trkpt>
      <trkpt lat="45.03505" lon="5.56637">
        <ele>1577.66</ele>
        <time>2010-02-10T12:21:20Z</time>
      </trkpt>
      <trkpt lat="45.03492" lon="5.56646">
        <ele>1581.99</ele>
        <time>2010-02-10T12:21:24Z</time>
      </trkpt>
      <trkpt lat="45.03482" lon="5.56653">
        <ele>1585.83</ele>
        <time>2010-02-10T12:21:27Z</time>
      </trkpt>
      <trkpt lat="45.03476" lon="5.56657">
        <ele>1589.2</ele>
        <time>2010-02-10T12:21:29Z</time>
      </trkpt>
      <trkpt lat="45.03466" lon="5.56663">
        <ele>1594</ele>
        <time>2010-02-10T12:21:32Z</time>
      </trkpt>
      <trkpt lat="45.03456" lon="5.5667">
        <ele>1597.37</ele>
        <time>2010-02-10T12:21:35Z</time>
      </trkpt>
      <trkpt lat="45.0345" lon="5.56674">
        <ele>1600.73</ele>
        <time>2010-02-10T12:21:37Z</time>
      </trkpt>
      <trkpt lat="45.03441" lon="5.56681">
        <ele>1605.06</ele>
        <time>2010-02-10T12:21:40Z</time>
      </trkpt>
      <trkpt lat="45.03431" lon="5.56687">
        <ele>1610.35</ele>
        <time>2010-02-10T12:21:43Z</time>
      </trkpt>
      <trkpt lat="45.03425" lon="5.56691">
        <ele>1613.71</ele>
        <time>2010-02-10T12:21:45Z</time>
      </trkpt>
      <trkpt lat="45.03416" lon="5.56698">
        <ele>1618.04</ele>
        <time>2010-02-10T12:21:48Z</time>
      </trkpt>
      <trkpt lat="45.03407" lon="5.56704">
        <ele>1621.4</ele>
        <time>2010-02-10T12:21:51Z</time>
      </trkpt>
      <trkpt lat="45.03394" lon="5.56714">
        <ele>1625.25</ele>
        <time>2010-02-10T12:21:55Z</time>
      </trkpt>
      <trkpt lat="45.03381" lon="5.56724">
        <ele>1628.61</ele>
        <time>2010-02-10T12:21:59Z</time>
      </trkpt>
      <trkpt lat="45.03375" lon="5.56729">
        <ele>1632.94</ele>
        <time>2010-02-10T12:22:01Z</time>
      </trkpt>
      <trkpt lat="45.03372" lon="5.56731">
        <ele>1632.46</ele>
        <time>2010-02-10T12:22:02Z</time>
      </trkpt>
      <trkpt lat="45.03362" lon="5.56738">
        <ele>1636.3</ele>
        <time>2010-02-10T12:22:05Z</time>
      </trkpt>
      <trkpt lat="45.03349" lon="5.56746">
        <ele>1640.15</ele>
        <time>2010-02-10T12:22:09Z</time>
      </trkpt>
      <trkpt lat="45.03339" lon="5.56752">
        <ele>1643.51</ele>
        <time>2010-02-10T12:22:12Z</time>
      </trkpt>
      <trkpt lat="45.0333" lon="5.56761">
        <ele>1647.84</ele>
        <time>2010-02-10T12:22:15Z</time>
      </trkpt>
      <trkpt lat="45.03322" lon="5.56765">
        <ele>1650.72</ele>
        <time>2010-02-10T12:22:17Z</time>
      </trkpt>
      <trkpt lat="45.03313" lon="5.56771">
        <ele>1654.57</ele>
        <time>2010-02-10T12:22:20Z</time>
      </trkpt>
      <trkpt lat="45.03303" lon="5.56778">
        <ele>1658.89</ele>
        <time>2010-02-10T12:22:23Z</time>
      </trkpt>
      <trkpt lat="45.03296" lon="5.56785">
        <ele>1662.74</ele>
        <time>2010-02-10T12:22:26Z</time>
      </trkpt>
      <trkpt lat="45.03285" lon="5.56792">
        <ele>1664.66</ele>
        <time>2010-02-10T12:22:29Z</time>
      </trkpt>
      <trkpt lat="45.03275" lon="5.56799">
        <ele>1667.54</ele>
        <time>2010-02-10T12:22:32Z</time>
      </trkpt>
      <trkpt lat="45.03266" lon="5.56807">
        <ele>1670.43</ele>
        <time>2010-02-10T12:22:35Z</time>
      </trkpt>
      <trkpt lat="45.03252" lon="5.56815">
        <ele>1674.27</ele>
        <time>2010-02-10T12:22:39Z</time>
      </trkpt>
      <trkpt lat="45.03242" lon="5.56822">
        <ele>1677.64</ele>
        <time>2010-02-10T12:22:42Z</time>
      </trkpt>
      <trkpt lat="45.03229" lon="5.56831">
        <ele>1681</ele>
        <time>2010-02-10T12:22:46Z</time>
      </trkpt>
      <trkpt lat="45.0322" lon="5.56839">
        <ele>1684.37</ele>
        <time>2010-02-10T12:22:49Z</time>
      </trkpt>
      <trkpt lat="45.0321" lon="5.56844">
        <ele>1688.69</ele>
        <time>2010-02-10T12:22:52Z</time>
      </trkpt>
      <trkpt lat="45.03196" lon="5.56854">
        <ele>1692.54</ele>
        <time>2010-02-10T12:22:56Z</time>
      </trkpt>
      <trkpt lat="45.03188" lon="5.56861">
        <ele>1696.38</ele>
        <time>2010-02-10T12:22:59Z</time>
      </trkpt>
      <trkpt lat="45.03177" lon="5.56867">
        <ele>1700.23</ele>
        <time>2010-02-10T12:23:02Z</time>
      </trkpt>
      <trkpt lat="45.03164" lon="5.56873">
        <ele>1703.59</ele>
        <time>2010-02-10T12:23:06Z</time>
      </trkpt>
      <trkpt lat="45.03151" lon="5.56883">
        <ele>1706.96</ele>
        <time>2010-02-10T12:23:10Z</time>
      </trkpt>
      <trkpt lat="45.03138" lon="5.56892">
        <ele>1710.32</ele>
        <time>2010-02-10T12:23:14Z</time>
      </trkpt>
      <trkpt lat="45.03128" lon="5.56899">
        <ele>1713.69</ele>
        <time>2010-02-10T12:23:17Z</time>
      </trkpt>
      <trkpt lat="45.03119" lon="5.56906">
        <ele>1717.05</ele>
        <time>2010-02-10T12:23:20Z</time>
      </trkpt>
      <trkpt lat="45.03106" lon="5.56916">
        <ele>1721.38</ele>
        <time>2010-02-10T12:23:24Z</time>
      </trkpt>
      <trkpt lat="45.03093" lon="5.56927">
        <ele>1725.7</ele>
        <time>2010-02-10T12:23:28Z</time>
      </trkpt>
      <trkpt lat="45.03079" lon="5.56938">
        <ele>1730.51</ele>
        <time>2010-02-10T12:23:32Z</time>
      </trkpt>
      <trkpt lat="45.03071" lon="5.56944">
        <ele>1733.88</ele>
        <time>2010-02-10T12:23:35Z</time>
      </trkpt>
      <trkpt lat="45.03062" lon="5.56952">
        <ele>1737.72</ele>
        <time>2010-02-10T12:23:38Z</time>
      </trkpt>
      <trkpt lat="45.0305" lon="5.56957">
        <ele>1742.05</ele>
        <time>2010-02-10T12:23:41Z</time>
      </trkpt>
      <trkpt lat="45.0303" lon="5.56974">
        <ele>1745.41</ele>
        <time>2010-02-10T12:23:48Z</time>
      </trkpt>
      <trkpt lat="45.03016" lon="5.56986">
        <ele>1744.45</ele>
        <time>2010-02-10T12:23:57Z</time>
      </trkpt>
      <trkpt lat="45.0298" lon="5.56991">
        <ele>1745.89</ele>
        <time>2010-02-10T12:24:51Z</time>
      </trkpt>
      <trkpt lat="45.02978" lon="5.5699">
        <ele>1746.37</ele>
        <time>2010-02-10T12:25:06Z</time>
      </trkpt>
      <trkpt lat="45.0298" lon="5.56991">
        <ele>1745.89</ele>
        <time>2010-02-10T12:25:48Z</time>
      </trkpt>
      <trkpt lat="45.02975" lon="5.5698">
        <ele>1743.97</ele>
        <time>2010-02-10T12:25:53Z</time>
      </trkpt>
      <trkpt lat="45.0297" lon="5.56962">
        <ele>1746.37</ele>
        <time>2010-02-10T12:26:06Z</time>
      </trkpt>
      <trkpt lat="45.02965" lon="5.56948">
        <ele>1745.89</ele>
        <time>2010-02-10T12:26:18Z</time>
      </trkpt>
      <trkpt lat="45.02964" lon="5.5694">
        <ele>1744.93</ele>
        <time>2010-02-10T12:26:20Z</time>
      </trkpt>
      <trkpt lat="45.02962" lon="5.56919">
        <ele>1739.16</ele>
        <time>2010-02-10T12:26:23Z</time>
      </trkpt>
      <trkpt lat="45.02968" lon="5.56904">
        <ele>1733.88</ele>
        <time>2010-02-10T12:26:25Z</time>
      </trkpt>
      <trkpt lat="45.02975" lon="5.569">
        <ele>1730.03</ele>
        <time>2010-02-10T12:26:26Z</time>
      </trkpt>
      <trkpt lat="45.02991" lon="5.56896">
        <ele>1726.67</ele>
        <time>2010-02-10T12:26:28Z</time>
      </trkpt>
      <trkpt lat="45.03007" lon="5.56887">
        <ele>1721.38</ele>
        <time>2010-02-10T12:26:30Z</time>
      </trkpt>
      <trkpt lat="45.03023" lon="5.56884">
        <ele>1718.01</ele>
        <time>2010-02-10T12:26:32Z</time>
      </trkpt>
      <trkpt lat="45.03039" lon="5.56879">
        <ele>1713.21</ele>
        <time>2010-02-10T12:26:34Z</time>
      </trkpt>
      <trkpt lat="45.03065" lon="5.56881">
        <ele>1708.88</ele>
        <time>2010-02-10T12:26:37Z</time>
      </trkpt>
      <trkpt lat="45.0308" lon="5.56881">
        <ele>1705.52</ele>
        <time>2010-02-10T12:26:39Z</time>
      </trkpt>
      <trkpt lat="45.03095" lon="5.56879">
        <ele>1701.67</ele>
        <time>2010-02-10T12:26:41Z</time>
      </trkpt>
      <trkpt lat="45.03117" lon="5.56868">
        <ele>1696.38</ele>
        <time>2010-02-10T12:26:44Z</time>
      </trkpt>
      <trkpt lat="45.03131" lon="5.56862">
        <ele>1692.54</ele>
        <time>2010-02-10T12:26:46Z</time>
      </trkpt>
      <trkpt lat="45.03134" lon="5.5686">
        <ele>1693.98</ele>
        <time>2010-02-10T12:26:47Z</time>
      </trkpt>
      <trkpt lat="45.03134" lon="5.56855">
        <ele>1693.5</ele>
        <time>2010-02-10T12:27:01Z</time>
      </trkpt>
      <trkpt lat="45.03135" lon="5.56855">
        <ele>1693.02</ele>
        <time>2010-02-10T12:27:02Z</time>
      </trkpt>
      <trkpt lat="45.03135" lon="5.56846">
        <ele>1691.58</ele>
        <time>2010-02-10T12:27:09Z</time>
      </trkpt>
      <trkpt lat="45.0314" lon="5.56841">
        <ele>1687.73</ele>
        <time>2010-02-10T12:27:12Z</time>
      </trkpt>
      <trkpt lat="45.03152" lon="5.56832">
        <ele>1683.89</ele>
        <time>2010-02-10T12:27:14Z</time>
      </trkpt>
      <trkpt lat="45.03159" lon="5.56825">
        <ele>1680.52</ele>
        <time>2010-02-10T12:27:15Z</time>
      </trkpt>
      <trkpt lat="45.03167" lon="5.56818">
        <ele>1677.64</ele>
        <time>2010-02-10T12:27:16Z</time>
      </trkpt>
      <trkpt lat="45.03185" lon="5.56809">
        <ele>1670.91</ele>
        <time>2010-02-10T12:27:18Z</time>
      </trkpt>
      <trkpt lat="45.03205" lon="5.56805">
        <ele>1666.58</ele>
        <time>2010-02-10T12:27:20Z</time>
      </trkpt>
      <trkpt lat="45.03215" lon="5.56805">
        <ele>1666.58</ele>
        <time>2010-02-10T12:27:21Z</time>
      </trkpt>
      <trkpt lat="45.03257" lon="5.56784">
        <ele>1660.33</ele>
        <time>2010-02-10T12:27:26Z</time>
      </trkpt>
      <trkpt lat="45.03263" lon="5.56778">
        <ele>1660.81</ele>
        <time>2010-02-10T12:27:27Z</time>
      </trkpt>
      <trkpt lat="45.03274" lon="5.56759">
        <ele>1660.33</ele>
        <time>2010-02-10T12:27:30Z</time>
      </trkpt>
      <trkpt lat="45.03287" lon="5.56737">
        <ele>1660.81</ele>
        <time>2010-02-10T12:27:36Z</time>
      </trkpt>
      <trkpt lat="45.0329" lon="5.5672">
        <ele>1658.89</ele>
        <time>2010-02-10T12:27:39Z</time>
      </trkpt>
      <trkpt lat="45.03291" lon="5.56714">
        <ele>1657.45</ele>
        <time>2010-02-10T12:27:40Z</time>
      </trkpt>
      <trkpt lat="45.03294" lon="5.56699">
        <ele>1656.01</ele>
        <time>2010-02-10T12:27:42Z</time>
      </trkpt>
      <trkpt lat="45.03298" lon="5.56684">
        <ele>1654.57</ele>
        <time>2010-02-10T12:27:45Z</time>
      </trkpt>
      <trkpt lat="45.03307" lon="5.5667">
        <ele>1648.32</ele>
        <time>2010-02-10T12:27:48Z</time>
      </trkpt>
      <trkpt lat="45.0331" lon="5.56665">
        <ele>1643.99</ele>
        <time>2010-02-10T12:27:49Z</time>
      </trkpt>
      <trkpt lat="45.03314" lon="5.56658">
        <ele>1645.43</ele>
        <time>2010-02-10T12:27:50Z</time>
      </trkpt>
      <trkpt lat="45.0332" lon="5.56654">
        <ele>1641.59</ele>
        <time>2010-02-10T12:27:51Z</time>
      </trkpt>
      <trkpt lat="45.03326" lon="5.56651">
        <ele>1638.7</ele>
        <time>2010-02-10T12:27:52Z</time>
      </trkpt>
      <trkpt lat="45.03335" lon="5.56647">
        <ele>1635.34</ele>
        <time>2010-02-10T12:27:54Z</time>
      </trkpt>
      <trkpt lat="45.03343" lon="5.56645">
        <ele>1631.49</ele>
        <time>2010-02-10T12:27:56Z</time>
      </trkpt>
      <trkpt lat="45.03352" lon="5.56649">
        <ele>1628.13</ele>
        <time>2010-02-10T12:27:59Z</time>
      </trkpt>
      <trkpt lat="45.03363" lon="5.56644">
        <ele>1624.77</ele>
        <time>2010-02-10T12:28:02Z</time>
      </trkpt>
      <trkpt lat="45.03368" lon="5.56643">
        <ele>1619.48</ele>
        <time>2010-02-10T12:28:03Z</time>
      </trkpt>
      <trkpt lat="45.03382" lon="5.56645">
        <ele>1615.63</ele>
        <time>2010-02-10T12:28:05Z</time>
      </trkpt>
      <trkpt lat="45.0339" lon="5.56645">
        <ele>1615.15</ele>
        <time>2010-02-10T12:28:06Z</time>
      </trkpt>
      <trkpt lat="45.03406" lon="5.56641">
        <ele>1610.35</ele>
        <time>2010-02-10T12:28:09Z</time>
      </trkpt>
      <trkpt lat="45.03413" lon="5.56633">
        <ele>1606.5</ele>
        <time>2010-02-10T12:28:11Z</time>
      </trkpt>
      <trkpt lat="45.0342" lon="5.56631">
        <ele>1601.21</ele>
        <time>2010-02-10T12:28:13Z</time>
      </trkpt>
      <trkpt lat="45.03427" lon="5.56625">
        <ele>1598.33</ele>
        <time>2010-02-10T12:28:15Z</time>
      </trkpt>
      <trkpt lat="45.03431" lon="5.56623">
        <ele>1592.08</ele>
        <time>2010-02-10T12:28:16Z</time>
      </trkpt>
      <trkpt lat="45.03436" lon="5.56622">
        <ele>1595.45</ele>
        <time>2010-02-10T12:28:17Z</time>
      </trkpt>
      <trkpt lat="45.0344" lon="5.56619">
        <ele>1589.68</ele>
        <time>2010-02-10T12:28:20Z</time>
      </trkpt>
      <trkpt lat="45.0344" lon="5.56619">
        <ele>1591.6</ele>
        <time>2010-02-10T12:28:21Z</time>
      </trkpt>
      <trkpt lat="45.03441" lon="5.56618">
        <ele>1590.64</ele>
        <time>2010-02-10T12:28:22Z</time>
      </trkpt>
      <trkpt lat="45.03448" lon="5.56619">
        <ele>1587.27</ele>
        <time>2010-02-10T12:28:25Z</time>
      </trkpt>
      <trkpt lat="45.03454" lon="5.56615">
        <ele>1584.39</ele>
        <time>2010-02-10T12:28:27Z</time>
      </trkpt>
      <trkpt lat="45.03462" lon="5.56612">
        <ele>1581.03</ele>
        <time>2010-02-10T12:28:30Z</time>
      </trkpt>
      <trkpt lat="45.03466" lon="5.56599">
        <ele>1579.58</ele>
        <time>2010-02-10T12:28:35Z</time>
      </trkpt>
      <trkpt lat="45.03467" lon="5.56589">
        <ele>1577.18</ele>
        <time>2010-02-10T12:28:55Z</time>
      </trkpt>
      <trkpt lat="45.03467" lon="5.56589">
        <ele>1581.51</ele>
        <time>2010-02-10T12:28:56Z</time>
      </trkpt>
      <trkpt lat="45.03467" lon="5.56589">
        <ele>1585.83</ele>
        <time>2010-02-10T12:29:01Z</time>
      </trkpt>
      <trkpt lat="45.03467" lon="5.56589">
        <ele>1580.54</ele>
        <time>2010-02-10T12:29:02Z</time>
      </trkpt>
      <trkpt lat="45.03467" lon="5.56589">
        <ele>1578.62</ele>
        <time>2010-02-10T12:29:04Z</time>
      </trkpt>
      <trkpt lat="45.03467" lon="5.56589">
        <ele>1578.62</ele>
        <time>2010-02-10T12:29:09Z</time>
      </trkpt>
      <trkpt lat="45.03467" lon="5.56584">
        <ele>1577.66</ele>
        <time>2010-02-10T12:29:49Z</time>
      </trkpt>
      <trkpt lat="45.03473" lon="5.56593">
        <ele>1579.1</ele>
        <time>2010-02-10T12:30:06Z</time>
      </trkpt>
      <trkpt lat="45.03473" lon="5.56597">
        <ele>1578.62</ele>
        <time>2010-02-10T12:30:09Z</time>
      </trkpt>
      <trkpt lat="45.0348" lon="5.56601">
        <ele>1576.7</ele>
        <time>2010-02-10T12:30:12Z</time>
      </trkpt>
      <trkpt lat="45.03496" lon="5.56597">
        <ele>1570.45</ele>
        <time>2010-02-10T12:30:16Z</time>
      </trkpt>
      <trkpt lat="45.03501" lon="5.56596">
        <ele>1566.61</ele>
        <time>2010-02-10T12:30:18Z</time>
      </trkpt>
      <trkpt lat="45.03516" lon="5.56597">
        <ele>1561.8</ele>
        <time>2010-02-10T12:30:22Z</time>
      </trkpt>
      <trkpt lat="45.03518" lon="5.56593">
        <ele>1562.76</ele>
        <time>2010-02-10T12:30:23Z</time>
      </trkpt>
      <trkpt lat="45.03525" lon="5.56585">
        <ele>1557.95</ele>
        <time>2010-02-10T12:30:26Z</time>
      </trkpt>
      <trkpt lat="45.0353" lon="5.56575">
        <ele>1553.15</ele>
        <time>2010-02-10T12:30:29Z</time>
      </trkpt>
      <trkpt lat="45.03541" lon="5.56568">
        <ele>1547.38</ele>
        <time>2010-02-10T12:30:32Z</time>
      </trkpt>
      <trkpt lat="45.03552" lon="5.56563">
        <ele>1540.17</ele>
        <time>2010-02-10T12:30:36Z</time>
      </trkpt>
      <trkpt lat="45.03553" lon="5.56564">
        <ele>1540.65</ele>
        <time>2010-02-10T12:30:47Z</time>
      </trkpt>
      <trkpt lat="45.03557" lon="5.56566">
        <ele>1539.69</ele>
        <time>2010-02-10T12:30:54Z</time>
      </trkpt>
      <trkpt lat="45.0356" lon="5.5657">
        <ele>1541.61</ele>
        <time>2010-02-10T12:30:56Z</time>
      </trkpt>
      <trkpt lat="45.03562" lon="5.56571">
        <ele>1537.29</ele>
        <time>2010-02-10T12:30:57Z</time>
      </trkpt>
      <trkpt lat="45.03569" lon="5.5657">
        <ele>1532.96</ele>
        <time>2010-02-10T12:31:03Z</time>
      </trkpt>
      <trkpt lat="45.03569" lon="5.56563">
        <ele>1532.48</ele>
        <time>2010-02-10T12:31:10Z</time>
      </trkpt>
      <trkpt lat="45.03577" lon="5.56556">
        <ele>1527.67</ele>
        <time>2010-02-10T12:31:12Z</time>
      </trkpt>
      <trkpt lat="45.03582" lon="5.56554">
        <ele>1524.31</ele>
        <time>2010-02-10T12:31:13Z</time>
      </trkpt>
      <trkpt lat="45.03588" lon="5.56552">
        <ele>1521.9</ele>
        <time>2010-02-10T12:31:14Z</time>
      </trkpt>
      <trkpt lat="45.03599" lon="5.56544">
        <ele>1517.1</ele>
        <time>2010-02-10T12:31:16Z</time>
      </trkpt>
      <trkpt lat="45.03606" lon="5.56536">
        <ele>1514.21</ele>
        <time>2010-02-10T12:31:19Z</time>
      </trkpt>
      <trkpt lat="45.03607" lon="5.56537">
        <ele>1512.29</ele>
        <time>2010-02-10T12:31:29Z</time>
      </trkpt>
      <trkpt lat="45.03612" lon="5.56535">
        <ele>1509.89</ele>
        <time>2010-02-10T12:31:31Z</time>
      </trkpt>
      <trkpt lat="45.0362" lon="5.56536">
        <ele>1507</ele>
        <time>2010-02-10T12:31:33Z</time>
      </trkpt>
      <trkpt lat="45.0363" lon="5.5653">
        <ele>1501.24</ele>
        <time>2010-02-10T12:31:35Z</time>
      </trkpt>
      <trkpt lat="45.03634" lon="5.56519">
        <ele>1497.39</ele>
        <time>2010-02-10T12:31:37Z</time>
      </trkpt>
      <trkpt lat="45.03637" lon="5.56514">
        <ele>1496.91</ele>
        <time>2010-02-10T12:31:38Z</time>
      </trkpt>
      <trkpt lat="45.0364" lon="5.56509">
        <ele>1493.06</ele>
        <time>2010-02-10T12:31:39Z</time>
      </trkpt>
      <trkpt lat="45.03641" lon="5.56502">
        <ele>1491.62</ele>
        <time>2010-02-10T12:31:41Z</time>
      </trkpt>
      <trkpt lat="45.0364" lon="5.56499">
        <ele>1489.7</ele>
        <time>2010-02-10T12:31:44Z</time>
      </trkpt>
      <trkpt lat="45.03643" lon="5.56491">
        <ele>1485.37</ele>
        <time>2010-02-10T12:31:47Z</time>
      </trkpt>
      <trkpt lat="45.03646" lon="5.56488">
        <ele>1483.93</ele>
        <time>2010-02-10T12:31:48Z</time>
      </trkpt>
      <trkpt lat="45.03653" lon="5.5648">
        <ele>1477.68</ele>
        <time>2010-02-10T12:31:51Z</time>
      </trkpt>
      <trkpt lat="45.03657" lon="5.56477">
        <ele>1477.68</ele>
        <time>2010-02-10T12:31:52Z</time>
      </trkpt>
      <trkpt lat="45.0366" lon="5.56475">
        <ele>1473.84</ele>
        <time>2010-02-10T12:31:53Z</time>
      </trkpt>
      <trkpt lat="45.03667" lon="5.56462">
        <ele>1469.03</ele>
        <time>2010-02-10T12:31:56Z</time>
      </trkpt>
      <trkpt lat="45.0367" lon="5.56457">
        <ele>1465.19</ele>
        <time>2010-02-10T12:31:57Z</time>
      </trkpt>
      <trkpt lat="45.03677" lon="5.56446">
        <ele>1460.38</ele>
        <time>2010-02-10T12:32:00Z</time>
      </trkpt>
      <trkpt lat="45.03679" lon="5.56444">
        <ele>1458.94</ele>
        <time>2010-02-10T12:32:03Z</time>
      </trkpt>
      <trkpt lat="45.03688" lon="5.56463">
        <ele>1453.17</ele>
        <time>2010-02-10T12:32:17Z</time>
      </trkpt>
      <trkpt lat="45.03688" lon="5.56465">
        <ele>1459.9</ele>
        <time>2010-02-10T12:32:18Z</time>
      </trkpt>
      <trkpt lat="45.03689" lon="5.56466">
        <ele>1456.05</ele>
        <time>2010-02-10T12:32:19Z</time>
      </trkpt>
      <trkpt lat="45.03689" lon="5.56469">
        <ele>1459.42</ele>
        <time>2010-02-10T12:32:21Z</time>
      </trkpt>
      <trkpt lat="45.03694" lon="5.56472">
        <ele>1456.05</ele>
        <time>2010-02-10T12:32:36Z</time>
      </trkpt>
      <trkpt lat="45.03694" lon="5.56472">
        <ele>1458.94</ele>
        <time>2010-02-10T12:32:37Z</time>
      </trkpt>
      <trkpt lat="45.03694" lon="5.56472">
        <ele>1461.34</ele>
        <time>2010-02-10T12:32:51Z</time>
      </trkpt>
      <trkpt lat="45.03694" lon="5.56472">
        <ele>1458.46</ele>
        <time>2010-02-10T12:32:53Z</time>
      </trkpt>
      <trkpt lat="45.03693" lon="5.56471">
        <ele>1450.77</ele>
        <time>2010-02-10T12:33:37Z</time>
      </trkpt>
      <trkpt lat="45.03693" lon="5.56471">
        <ele>1459.9</ele>
        <time>2010-02-10T12:33:38Z</time>
      </trkpt>
      <trkpt lat="45.03693" lon="5.56471">
        <ele>1456.53</ele>
        <time>2010-02-10T12:33:39Z</time>
      </trkpt>
      <trkpt lat="45.03689" lon="5.56456">
        <ele>1457.02</ele>
        <time>2010-02-10T12:34:19Z</time>
      </trkpt>
      <trkpt lat="45.03684" lon="5.56453">
        <ele>1457.02</ele>
        <time>2010-02-10T12:34:21Z</time>
      </trkpt>
      <trkpt lat="45.03678" lon="5.56451">
        <ele>1457.98</ele>
        <time>2010-02-10T12:34:24Z</time>
      </trkpt>
      <trkpt lat="45.03672" lon="5.56429">
        <ele>1455.09</ele>
        <time>2010-02-10T12:34:38Z</time>
      </trkpt>
      <trkpt lat="45.03671" lon="5.56435">
        <ele>1453.17</ele>
        <time>2010-02-10T12:34:43Z</time>
      </trkpt>
      <trkpt lat="45.03657" lon="5.56426">
        <ele>1449.81</ele>
        <time>2010-02-10T12:34:52Z</time>
      </trkpt>
      <trkpt lat="45.03654" lon="5.56425">
        <ele>1448.84</ele>
        <time>2010-02-10T12:34:53Z</time>
      </trkpt>
      <trkpt lat="45.0365" lon="5.56424">
        <ele>1447.4</ele>
        <time>2010-02-10T12:34:55Z</time>
      </trkpt>
      <trkpt lat="45.03646" lon="5.56413">
        <ele>1445.48</ele>
        <time>2010-02-10T12:35:02Z</time>
      </trkpt>
      <trkpt lat="45.03646" lon="5.56407">
        <ele>1441.15</ele>
        <time>2010-02-10T12:35:07Z</time>
      </trkpt>
      <trkpt lat="45.03643" lon="5.56406">
        <ele>1435.87</ele>
        <time>2010-02-10T12:35:08Z</time>
      </trkpt>
      <trkpt lat="45.03639" lon="5.56404">
        <ele>1440.67</ele>
        <time>2010-02-10T12:35:09Z</time>
      </trkpt>
      <trkpt lat="45.0364" lon="5.56408">
        <ele>1437.79</ele>
        <time>2010-02-10T12:35:14Z</time>
      </trkpt>
      <trkpt lat="45.03632" lon="5.56403">
        <ele>1437.79</ele>
        <time>2010-02-10T12:35:19Z</time>
      </trkpt>
      <trkpt lat="45.03627" lon="5.56393">
        <ele>1431.06</ele>
        <time>2010-02-10T12:35:22Z</time>
      </trkpt>
      <trkpt lat="45.0362" lon="5.56386">
        <ele>1429.62</ele>
        <time>2010-02-10T12:35:24Z</time>
      </trkpt>
      <trkpt lat="45.03619" lon="5.56374">
        <ele>1426.73</ele>
        <time>2010-02-10T12:35:31Z</time>
      </trkpt>
      <trkpt lat="45.03619" lon="5.56368">
        <ele>1422.41</ele>
        <time>2010-02-10T12:35:33Z</time>
      </trkpt>
      <trkpt lat="45.03616" lon="5.56352">
        <ele>1418.08</ele>
        <time>2010-02-10T12:35:36Z</time>
      </trkpt>
      <trkpt lat="45.03616" lon="5.56337">
        <ele>1411.35</ele>
        <time>2010-02-10T12:35:38Z</time>
      </trkpt>
      <trkpt lat="45.03611" lon="5.56324">
        <ele>1407.51</ele>
        <time>2010-02-10T12:35:40Z</time>
      </trkpt>
      <trkpt lat="45.03609" lon="5.56312">
        <ele>1403.66</ele>
        <time>2010-02-10T12:35:42Z</time>
      </trkpt>
      <trkpt lat="45.0361" lon="5.56292">
        <ele>1396.45</ele>
        <time>2010-02-10T12:35:45Z</time>
      </trkpt>
      <trkpt lat="45.03612" lon="5.56276">
        <ele>1388.76</ele>
        <time>2010-02-10T12:35:47Z</time>
      </trkpt>
      <trkpt lat="45.03615" lon="5.56254">
        <ele>1382.51</ele>
        <time>2010-02-10T12:35:49Z</time>
      </trkpt>
      <trkpt lat="45.03617" lon="5.56243">
        <ele>1379.15</ele>
        <time>2010-02-10T12:35:50Z</time>
      </trkpt>
      <trkpt lat="45.03619" lon="5.56222">
        <ele>1373.38</ele>
        <time>2010-02-10T12:35:52Z</time>
      </trkpt>
      <trkpt lat="45.0362" lon="5.56211">
        <ele>1370.02</ele>
        <time>2010-02-10T12:35:53Z</time>
      </trkpt>
      <trkpt lat="45.0362" lon="5.56199">
        <ele>1366.17</ele>
        <time>2010-02-10T12:35:54Z</time>
      </trkpt>
      <trkpt lat="45.03621" lon="5.56188">
        <ele>1361.36</ele>
        <time>2010-02-10T12:35:55Z</time>
      </trkpt>
      <trkpt lat="45.03623" lon="5.56177">
        <ele>1358.48</ele>
        <time>2010-02-10T12:35:56Z</time>
      </trkpt>
      <trkpt lat="45.03628" lon="5.56149">
        <ele>1351.75</ele>
        <time>2010-02-10T12:35:59Z</time>
      </trkpt>
      <trkpt lat="45.03624" lon="5.56129">
        <ele>1345.98</ele>
        <time>2010-02-10T12:36:01Z</time>
      </trkpt>
      <trkpt lat="45.0362" lon="5.56115">
        <ele>1340.7</ele>
        <time>2010-02-10T12:36:03Z</time>
      </trkpt>
      <trkpt lat="45.03619" lon="5.56099">
        <ele>1337.33</ele>
        <time>2010-02-10T12:36:05Z</time>
      </trkpt>
      <trkpt lat="45.03617" lon="5.56069">
        <ele>1326.76</ele>
        <time>2010-02-10T12:36:09Z</time>
      </trkpt>
      <trkpt lat="45.03616" lon="5.56063">
        <ele>1323.39</ele>
        <time>2010-02-10T12:36:10Z</time>
      </trkpt>
      <trkpt lat="45.03617" lon="5.56059">
        <ele>1324.35</ele>
        <time>2010-02-10T12:36:11Z</time>
      </trkpt>
      <trkpt lat="45.03624" lon="5.56047">
        <ele>1320.03</ele>
        <time>2010-02-10T12:36:15Z</time>
      </trkpt>
      <trkpt lat="45.03627" lon="5.56042">
        <ele>1320.99</ele>
        <time>2010-02-10T12:36:16Z</time>
      </trkpt>
      <trkpt lat="45.03633" lon="5.56025">
        <ele>1316.66</ele>
        <time>2010-02-10T12:36:19Z</time>
      </trkpt>
      <trkpt lat="45.03632" lon="5.56017">
        <ele>1312.34</ele>
        <time>2010-02-10T12:36:20Z</time>
      </trkpt>
      <trkpt lat="45.03629" lon="5.5601">
        <ele>1314.74</ele>
        <time>2010-02-10T12:36:21Z</time>
      </trkpt>
      <trkpt lat="45.03622" lon="5.56006">
        <ele>1313.3</ele>
        <time>2010-02-10T12:36:24Z</time>
      </trkpt>
      <trkpt lat="45.03627" lon="5.56022">
        <ele>1313.3</ele>
        <time>2010-02-10T12:36:38Z</time>
      </trkpt>
      <trkpt lat="45.03629" lon="5.56034">
        <ele>1313.78</ele>
        <time>2010-02-10T12:36:53Z</time>
      </trkpt>
      <trkpt lat="45.03629" lon="5.56034">
        <ele>1313.3</ele>
        <time>2010-02-10T12:37:06Z</time>
      </trkpt>
      <trkpt lat="45.03629" lon="5.56028">
        <ele>1312.34</ele>
        <time>2010-02-10T12:37:08Z</time>
      </trkpt>
      <trkpt lat="45.03632" lon="5.56003">
        <ele>1303.2</ele>
        <time>2010-02-10T12:37:11Z</time>
      </trkpt>
      <trkpt lat="45.03636" lon="5.5599">
        <ele>1300.32</ele>
        <time>2010-02-10T12:37:12Z</time>
      </trkpt>
      <trkpt lat="45.03645" lon="5.55962">
        <ele>1295.03</ele>
        <time>2010-02-10T12:37:14Z</time>
      </trkpt>
      <trkpt lat="45.03656" lon="5.55932">
        <ele>1289.75</ele>
        <time>2010-02-10T12:37:16Z</time>
      </trkpt>
      <trkpt lat="45.03662" lon="5.55915">
        <ele>1286.38</ele>
        <time>2010-02-10T12:37:17Z</time>
      </trkpt>
      <trkpt lat="45.03668" lon="5.55899">
        <ele>1283.02</ele>
        <time>2010-02-10T12:37:18Z</time>
      </trkpt>
      <trkpt lat="45.0368" lon="5.55863">
        <ele>1276.77</ele>
        <time>2010-02-10T12:37:20Z</time>
      </trkpt>
      <trkpt lat="45.03695" lon="5.55828">
        <ele>1269.56</ele>
        <time>2010-02-10T12:37:22Z</time>
      </trkpt>
      <trkpt lat="45.03703" lon="5.5581">
        <ele>1262.83</ele>
        <time>2010-02-10T12:37:23Z</time>
      </trkpt>
      <trkpt lat="45.0372" lon="5.55773">
        <ele>1259.94</ele>
        <time>2010-02-10T12:37:25Z</time>
      </trkpt>
      <trkpt lat="45.03728" lon="5.55756">
        <ele>1257.06</ele>
        <time>2010-02-10T12:37:26Z</time>
      </trkpt>
      <trkpt lat="45.03755" lon="5.55717">
        <ele>1251.77</ele>
        <time>2010-02-10T12:37:29Z</time>
      </trkpt>
      <trkpt lat="45.03764" lon="5.55707">
        <ele>1249.85</ele>
        <time>2010-02-10T12:37:30Z</time>
      </trkpt>
      <trkpt lat="45.03818" lon="5.55701">
        <ele>1244.56</ele>
        <time>2010-02-10T12:37:35Z</time>
      </trkpt>
      <trkpt lat="45.03866" lon="5.55724">
        <ele>1238.8</ele>
        <time>2010-02-10T12:37:40Z</time>
      </trkpt>
      <trkpt lat="45.03875" lon="5.55726">
        <ele>1239.28</ele>
        <time>2010-02-10T12:37:41Z</time>
      </trkpt>
      <trkpt lat="45.03911" lon="5.55727">
        <ele>1236.87</ele>
        <time>2010-02-10T12:37:45Z</time>
      </trkpt>
      <trkpt lat="45.03926" lon="5.55724">
        <ele>1238.8</ele>
        <time>2010-02-10T12:37:47Z</time>
      </trkpt>
      <trkpt lat="45.03938" lon="5.55719">
        <ele>1233.99</ele>
        <time>2010-02-10T12:37:49Z</time>
      </trkpt>
      <trkpt lat="45.03958" lon="5.55711">
        <ele>1230.62</ele>
        <time>2010-02-10T12:37:52Z</time>
      </trkpt>
      <trkpt lat="45.03965" lon="5.55708">
        <ele>1230.62</ele>
        <time>2010-02-10T12:37:53Z</time>
      </trkpt>
      <trkpt lat="45.03972" lon="5.55706">
        <ele>1230.14</ele>
        <time>2010-02-10T12:37:54Z</time>
      </trkpt>
      <trkpt lat="45.03996" lon="5.55696">
        <ele>1223.9</ele>
        <time>2010-02-10T12:37:57Z</time>
      </trkpt>
      <trkpt lat="45.04015" lon="5.55689">
        <ele>1218.13</ele>
        <time>2010-02-10T12:37:59Z</time>
      </trkpt>
      <trkpt lat="45.04047" lon="5.55686">
        <ele>1208.51</ele>
        <time>2010-02-10T12:38:02Z</time>
      </trkpt>
      <trkpt lat="45.04073" lon="5.5569">
        <ele>1200.82</ele>
        <time>2010-02-10T12:38:04Z</time>
      </trkpt>
      <trkpt lat="45.041" lon="5.55703">
        <ele>1197.94</ele>
        <time>2010-02-10T12:38:06Z</time>
      </trkpt>
      <trkpt lat="45.04125" lon="5.55716">
        <ele>1196.02</ele>
        <time>2010-02-10T12:38:08Z</time>
      </trkpt>
      <trkpt lat="45.04155" lon="5.55735">
        <ele>1193.13</ele>
        <time>2010-02-10T12:38:11Z</time>
      </trkpt>
      <trkpt lat="45.04191" lon="5.55754">
        <ele>1188.81</ele>
        <time>2010-02-10T12:38:15Z</time>
      </trkpt>
      <trkpt lat="45.0421" lon="5.55761">
        <ele>1184.96</ele>
        <time>2010-02-10T12:38:17Z</time>
      </trkpt>
      <trkpt lat="45.0422" lon="5.55765">
        <ele>1181.12</ele>
        <time>2010-02-10T12:38:18Z</time>
      </trkpt>
      <trkpt lat="45.04231" lon="5.55769">
        <ele>1177.75</ele>
        <time>2010-02-10T12:38:19Z</time>
      </trkpt>
      <trkpt lat="45.04243" lon="5.55772">
        <ele>1173.91</ele>
        <time>2010-02-10T12:38:20Z</time>
      </trkpt>
      <trkpt lat="45.04277" lon="5.5578">
        <ele>1170.54</ele>
        <time>2010-02-10T12:38:23Z</time>
      </trkpt>
      <trkpt lat="45.04306" lon="5.55795">
        <ele>1165.26</ele>
        <time>2010-02-10T12:38:26Z</time>
      </trkpt>
      <trkpt lat="45.04317" lon="5.55804">
        <ele>1160.93</ele>
        <time>2010-02-10T12:38:27Z</time>
      </trkpt>
      <trkpt lat="45.04331" lon="5.5583">
        <ele>1156.6</ele>
        <time>2010-02-10T12:38:29Z</time>
      </trkpt>
      <trkpt lat="45.04345" lon="5.55869">
        <ele>1153.72</ele>
        <time>2010-02-10T12:38:32Z</time>
      </trkpt>
      <trkpt lat="45.04353" lon="5.55894">
        <ele>1151.32</ele>
        <time>2010-02-10T12:38:34Z</time>
      </trkpt>
      <trkpt lat="45.04364" lon="5.55927">
        <ele>1147.47</ele>
        <time>2010-02-10T12:38:37Z</time>
      </trkpt>
      <trkpt lat="45.04377" lon="5.55955">
        <ele>1146.03</ele>
        <time>2010-02-10T12:38:40Z</time>
      </trkpt>
      <trkpt lat="45.04393" lon="5.55987">
        <ele>1144.59</ele>
        <time>2010-02-10T12:38:44Z</time>
      </trkpt>
      <trkpt lat="45.04415" lon="5.56015">
        <ele>1143.14</ele>
        <time>2010-02-10T12:38:49Z</time>
      </trkpt>
      <trkpt lat="45.04439" lon="5.56021">
        <ele>1144.11</ele>
        <time>2010-02-10T12:38:56Z</time>
      </trkpt>
      <trkpt lat="45.04456" lon="5.56012">
        <ele>1137.86</ele>
        <time>2010-02-10T12:39:05Z</time>
      </trkpt>
      <trkpt lat="45.04456" lon="5.56012">
        <ele>1150.84</ele>
        <time>2010-02-10T12:39:06Z</time>
      </trkpt>
      <trkpt lat="45.04456" lon="5.56011">
        <ele>1143.63</ele>
        <time>2010-02-10T12:39:07Z</time>
      </trkpt>
      <trkpt lat="45.04452" lon="5.56014">
        <ele>1142.18</ele>
        <time>2010-02-10T12:39:52Z</time>
      </trkpt>
      <trkpt lat="45.04452" lon="5.56014">
        <ele>1137.38</ele>
        <time>2010-02-10T12:40:36Z</time>
      </trkpt>
      <trkpt lat="45.04452" lon="5.56014">
        <ele>1145.55</ele>
        <time>2010-02-10T12:40:37Z</time>
      </trkpt>
      <trkpt lat="45.04452" lon="5.56014">
        <ele>1142.18</ele>
        <time>2010-02-10T12:40:38Z</time>
      </trkpt>
      <trkpt lat="45.04452" lon="5.56014">
        <ele>1139.3</ele>
        <time>2010-02-10T12:40:45Z</time>
      </trkpt>
      <trkpt lat="45.04452" lon="5.56014">
        <ele>1143.63</ele>
        <time>2010-02-10T12:40:46Z</time>
      </trkpt>
      <trkpt lat="45.04452" lon="5.56014">
        <ele>1142.18</ele>
        <time>2010-02-10T12:40:48Z</time>
      </trkpt>
      <trkpt lat="45.04424" lon="5.56002">
        <ele>1139.3</ele>
        <time>2010-02-10T12:40:50Z</time>
      </trkpt>
      <trkpt lat="45.04422" lon="5.56003">
        <ele>1144.11</ele>
        <time>2010-02-10T12:40:51Z</time>
      </trkpt>
      <trkpt lat="45.04416" lon="5.56005">
        <ele>1142.66</ele>
        <time>2010-02-10T12:40:53Z</time>
      </trkpt>
      <trkpt lat="45.04405" lon="5.56008">
        <ele>1149.39</ele>
        <time>2010-02-10T12:40:56Z</time>
      </trkpt>
      <trkpt lat="45.04399" lon="5.56011">
        <ele>1153.24</ele>
        <time>2010-02-10T12:40:58Z</time>
      </trkpt>
      <trkpt lat="45.04392" lon="5.56015">
        <ele>1157.08</ele>
        <time>2010-02-10T12:41:00Z</time>
      </trkpt>
      <trkpt lat="45.04386" lon="5.56018">
        <ele>1161.41</ele>
        <time>2010-02-10T12:41:02Z</time>
      </trkpt>
      <trkpt lat="45.0438" lon="5.56021">
        <ele>1164.29</ele>
        <time>2010-02-10T12:41:04Z</time>
      </trkpt>
      <trkpt lat="45.04373" lon="5.56025">
        <ele>1168.62</ele>
        <time>2010-02-10T12:41:06Z</time>
      </trkpt>
      <trkpt lat="45.04363" lon="5.5603">
        <ele>1172.95</ele>
        <time>2010-02-10T12:41:09Z</time>
      </trkpt>
      <trkpt lat="45.04353" lon="5.56035">
        <ele>1177.75</ele>
        <time>2010-02-10T12:41:12Z</time>
      </trkpt>
      <trkpt lat="45.04343" lon="5.5604">
        <ele>1182.08</ele>
        <time>2010-02-10T12:41:15Z</time>
      </trkpt>
      <trkpt lat="45.04337" lon="5.56043">
        <ele>1185.44</ele>
        <time>2010-02-10T12:41:17Z</time>
      </trkpt>
      <trkpt lat="45.04331" lon="5.56047">
        <ele>1189.29</ele>
        <time>2010-02-10T12:41:19Z</time>
      </trkpt>
      <trkpt lat="45.04321" lon="5.56052">
        <ele>1194.09</ele>
        <time>2010-02-10T12:41:22Z</time>
      </trkpt>
      <trkpt lat="45.0431" lon="5.56058">
        <ele>1196.98</ele>
        <time>2010-02-10T12:41:25Z</time>
      </trkpt>
      <trkpt lat="45.04301" lon="5.56063">
        <ele>1200.82</ele>
        <time>2010-02-10T12:41:28Z</time>
      </trkpt>
      <trkpt lat="45.04293" lon="5.56078">
        <ele>1204.19</ele>
        <time>2010-02-10T12:41:31Z</time>
      </trkpt>
      <trkpt lat="45.04287" lon="5.56083">
        <ele>1207.07</ele>
        <time>2010-02-10T12:41:33Z</time>
      </trkpt>
      <trkpt lat="45.04278" lon="5.56086">
        <ele>1211.88</ele>
        <time>2010-02-10T12:41:36Z</time>
      </trkpt>
      <trkpt lat="45.04269" lon="5.56098">
        <ele>1215.72</ele>
        <time>2010-02-10T12:41:39Z</time>
      </trkpt>
      <trkpt lat="45.04264" lon="5.56101">
        <ele>1216.69</ele>
        <time>2010-02-10T12:41:41Z</time>
      </trkpt>
      <trkpt lat="45.04255" lon="5.56104">
        <ele>1221.49</ele>
        <time>2010-02-10T12:41:43Z</time>
      </trkpt>
      <trkpt lat="45.04246" lon="5.56108">
        <ele>1225.34</ele>
        <time>2010-02-10T12:41:45Z</time>
      </trkpt>
      <trkpt lat="45.04246" lon="5.56116">
        <ele>1228.22</ele>
        <time>2010-02-10T12:41:47Z</time>
      </trkpt>
      <trkpt lat="45.04234" lon="5.5612">
        <ele>1233.99</ele>
        <time>2010-02-10T12:41:50Z</time>
      </trkpt>
      <trkpt lat="45.0423" lon="5.56126">
        <ele>1237.35</ele>
        <time>2010-02-10T12:41:52Z</time>
      </trkpt>
      <trkpt lat="45.04219" lon="5.5613">
        <ele>1242.64</ele>
        <time>2010-02-10T12:41:55Z</time>
      </trkpt>
      <trkpt lat="45.0421" lon="5.56138">
        <ele>1246.49</ele>
        <time>2010-02-10T12:41:58Z</time>
      </trkpt>
      <trkpt lat="45.04208" lon="5.56142">
        <ele>1249.85</ele>
        <time>2010-02-10T12:41:59Z</time>
      </trkpt>
      <trkpt lat="45.04202" lon="5.56144">
        <ele>1254.18</ele>
        <time>2010-02-10T12:42:01Z</time>
      </trkpt>
      <trkpt lat="45.04195" lon="5.56149">
        <ele>1258.02</ele>
        <time>2010-02-10T12:42:03Z</time>
      </trkpt>
      <trkpt lat="45.0419" lon="5.56155">
        <ele>1261.87</ele>
        <time>2010-02-10T12:42:05Z</time>
      </trkpt>
      <trkpt lat="45.04184" lon="5.56162">
        <ele>1265.71</ele>
        <time>2010-02-10T12:42:07Z</time>
      </trkpt>
      <trkpt lat="45.04179" lon="5.56166">
        <ele>1269.08</ele>
        <time>2010-02-10T12:42:09Z</time>
      </trkpt>
      <trkpt lat="45.04172" lon="5.56169">
        <ele>1273.4</ele>
        <time>2010-02-10T12:42:11Z</time>
      </trkpt>
      <trkpt lat="45.04165" lon="5.56171">
        <ele>1276.77</ele>
        <time>2010-02-10T12:42:13Z</time>
      </trkpt>
      <trkpt lat="45.0416" lon="5.56177">
        <ele>1279.65</ele>
        <time>2010-02-10T12:42:15Z</time>
      </trkpt>
      <trkpt lat="45.0415" lon="5.56188">
        <ele>1283.98</ele>
        <time>2010-02-10T12:42:18Z</time>
      </trkpt>
      <trkpt lat="45.04144" lon="5.56193">
        <ele>1287.34</ele>
        <time>2010-02-10T12:42:20Z</time>
      </trkpt>
      <trkpt lat="45.04134" lon="5.56197">
        <ele>1291.67</ele>
        <time>2010-02-10T12:42:23Z</time>
      </trkpt>
      <trkpt lat="45.04125" lon="5.562">
        <ele>1295.99</ele>
        <time>2010-02-10T12:42:26Z</time>
      </trkpt>
      <trkpt lat="45.0412" lon="5.56208">
        <ele>1299.36</ele>
        <time>2010-02-10T12:42:28Z</time>
      </trkpt>
      <trkpt lat="45.04113" lon="5.56213">
        <ele>1302.72</ele>
        <time>2010-02-10T12:42:30Z</time>
      </trkpt>
      <trkpt lat="45.04108" lon="5.56216">
        <ele>1307.05</ele>
        <time>2010-02-10T12:42:32Z</time>
      </trkpt>
      <trkpt lat="45.04098" lon="5.5622">
        <ele>1312.34</ele>
        <time>2010-02-10T12:42:35Z</time>
      </trkpt>
      <trkpt lat="45.04091" lon="5.56225">
        <ele>1315.7</ele>
        <time>2010-02-10T12:42:37Z</time>
      </trkpt>
      <trkpt lat="45.04085" lon="5.5623">
        <ele>1319.07</ele>
        <time>2010-02-10T12:42:39Z</time>
      </trkpt>
      <trkpt lat="45.04076" lon="5.56237">
        <ele>1326.76</ele>
        <time>2010-02-10T12:42:42Z</time>
      </trkpt>
      <trkpt lat="45.04072" lon="5.56238">
        <ele>1326.76</ele>
        <time>2010-02-10T12:42:43Z</time>
      </trkpt>
      <trkpt lat="45.04067" lon="5.56241">
        <ele>1330.12</ele>
        <time>2010-02-10T12:42:45Z</time>
      </trkpt>
      <trkpt lat="45.04061" lon="5.56246">
        <ele>1333.49</ele>
        <time>2010-02-10T12:42:47Z</time>
      </trkpt>
      <trkpt lat="45.04055" lon="5.56251">
        <ele>1337.81</ele>
        <time>2010-02-10T12:42:49Z</time>
      </trkpt>
      <trkpt lat="45.04047" lon="5.56258">
        <ele>1341.18</ele>
        <time>2010-02-10T12:42:51Z</time>
      </trkpt>
      <trkpt lat="45.04042" lon="5.56263">
        <ele>1344.06</ele>
        <time>2010-02-10T12:42:53Z</time>
      </trkpt>
      <trkpt lat="45.04032" lon="5.5627">
        <ele>1347.91</ele>
        <time>2010-02-10T12:42:56Z</time>
      </trkpt>
      <trkpt lat="45.04025" lon="5.56272">
        <ele>1351.27</ele>
        <time>2010-02-10T12:42:58Z</time>
      </trkpt>
      <trkpt lat="45.0402" lon="5.56274">
        <ele>1354.63</ele>
        <time>2010-02-10T12:43:00Z</time>
      </trkpt>
      <trkpt lat="45.04011" lon="5.56282">
        <ele>1359.44</ele>
        <time>2010-02-10T12:43:03Z</time>
      </trkpt>
      <trkpt lat="45.04006" lon="5.56286">
        <ele>1362.81</ele>
        <time>2010-02-10T12:43:05Z</time>
      </trkpt>
      <trkpt lat="45.03999" lon="5.56291">
        <ele>1365.69</ele>
        <time>2010-02-10T12:43:07Z</time>
      </trkpt>
      <trkpt lat="45.03993" lon="5.56296">
        <ele>1369.54</ele>
        <time>2010-02-10T12:43:09Z</time>
      </trkpt>
      <trkpt lat="45.03986" lon="5.56299">
        <ele>1373.38</ele>
        <time>2010-02-10T12:43:11Z</time>
      </trkpt>
      <trkpt lat="45.0398" lon="5.56305">
        <ele>1376.75</ele>
        <time>2010-02-10T12:43:13Z</time>
      </trkpt>
      <trkpt lat="45.03974" lon="5.56309">
        <ele>1380.11</ele>
        <time>2010-02-10T12:43:15Z</time>
      </trkpt>
      <trkpt lat="45.0397" lon="5.5631">
        <ele>1380.59</ele>
        <time>2010-02-10T12:43:16Z</time>
      </trkpt>
      <trkpt lat="45.03967" lon="5.56312">
        <ele>1383.96</ele>
        <time>2010-02-10T12:43:17Z</time>
      </trkpt>
      <trkpt lat="45.03962" lon="5.56316">
        <ele>1387.8</ele>
        <time>2010-02-10T12:43:19Z</time>
      </trkpt>
      <trkpt lat="45.03956" lon="5.5632">
        <ele>1390.68</ele>
        <time>2010-02-10T12:43:21Z</time>
      </trkpt>
      <trkpt lat="45.03946" lon="5.56326">
        <ele>1395.01</ele>
        <time>2010-02-10T12:43:24Z</time>
      </trkpt>
      <trkpt lat="45.03934" lon="5.56338">
        <ele>1397.89</ele>
        <time>2010-02-10T12:43:28Z</time>
      </trkpt>
      <trkpt lat="45.03923" lon="5.56343">
        <ele>1401.74</ele>
        <time>2010-02-10T12:43:31Z</time>
      </trkpt>
      <trkpt lat="45.03913" lon="5.56349">
        <ele>1404.62</ele>
        <time>2010-02-10T12:43:34Z</time>
      </trkpt>
      <trkpt lat="45.03904" lon="5.56356">
        <ele>1408.47</ele>
        <time>2010-02-10T12:43:37Z</time>
      </trkpt>
      <trkpt lat="45.039" lon="5.56359">
        <ele>1408.47</ele>
        <time>2010-02-10T12:43:38Z</time>
      </trkpt>
      <trkpt lat="45.03891" lon="5.56368">
        <ele>1412.31</ele>
        <time>2010-02-10T12:43:41Z</time>
      </trkpt>
      <trkpt lat="45.03884" lon="5.56373">
        <ele>1415.68</ele>
        <time>2010-02-10T12:43:43Z</time>
      </trkpt>
      <trkpt lat="45.03874" lon="5.56378">
        <ele>1419.52</ele>
        <time>2010-02-10T12:43:46Z</time>
      </trkpt>
      <trkpt lat="45.03863" lon="5.56384">
        <ele>1423.37</ele>
        <time>2010-02-10T12:43:49Z</time>
      </trkpt>
      <trkpt lat="45.03853" lon="5.56392">
        <ele>1428.18</ele>
        <time>2010-02-10T12:43:52Z</time>
      </trkpt>
      <trkpt lat="45.03848" lon="5.56396">
        <ele>1430.58</ele>
        <time>2010-02-10T12:43:54Z</time>
      </trkpt>
      <trkpt lat="45.03839" lon="5.56402">
        <ele>1434.91</ele>
        <time>2010-02-10T12:43:57Z</time>
      </trkpt>
      <trkpt lat="45.03834" lon="5.56405">
        <ele>1436.35</ele>
        <time>2010-02-10T12:43:59Z</time>
      </trkpt>
      <trkpt lat="45.03831" lon="5.56406">
        <ele>1439.71</ele>
        <time>2010-02-10T12:44:00Z</time>
      </trkpt>
      <trkpt lat="45.0382" lon="5.56413">
        <ele>1445</ele>
        <time>2010-02-10T12:44:03Z</time>
      </trkpt>
      <trkpt lat="45.03816" lon="5.56417">
        <ele>1444.52</ele>
        <time>2010-02-10T12:44:04Z</time>
      </trkpt>
      <trkpt lat="45.03809" lon="5.56419">
        <ele>1448.84</ele>
        <time>2010-02-10T12:44:06Z</time>
      </trkpt>
      <trkpt lat="45.03807" lon="5.56422">
        <ele>1448.84</ele>
        <time>2010-02-10T12:44:07Z</time>
      </trkpt>
      <trkpt lat="45.03804" lon="5.56424">
        <ele>1452.21</ele>
        <time>2010-02-10T12:44:08Z</time>
      </trkpt>
      <trkpt lat="45.03799" lon="5.56429">
        <ele>1456.53</ele>
        <time>2010-02-10T12:44:10Z</time>
      </trkpt>
      <trkpt lat="45.0379" lon="5.56438">
        <ele>1460.86</ele>
        <time>2010-02-10T12:44:13Z</time>
      </trkpt>
      <trkpt lat="45.03784" lon="5.56441">
        <ele>1462.3</ele>
        <time>2010-02-10T12:44:15Z</time>
      </trkpt>
      <trkpt lat="45.03777" lon="5.56447">
        <ele>1465.19</ele>
        <time>2010-02-10T12:44:17Z</time>
      </trkpt>
      <trkpt lat="45.03767" lon="5.56454">
        <ele>1468.55</ele>
        <time>2010-02-10T12:44:20Z</time>
      </trkpt>
      <trkpt lat="45.0376" lon="5.56458">
        <ele>1472.88</ele>
        <time>2010-02-10T12:44:22Z</time>
      </trkpt>
      <trkpt lat="45.03756" lon="5.56461">
        <ele>1471.44</ele>
        <time>2010-02-10T12:44:23Z</time>
      </trkpt>
      <trkpt lat="45.03747" lon="5.5647">
        <ele>1475.76</ele>
        <time>2010-02-10T12:44:26Z</time>
      </trkpt>
      <trkpt lat="45.03739" lon="5.56472">
        <ele>1479.13</ele>
        <time>2010-02-10T12:44:29Z</time>
      </trkpt>
      <trkpt lat="45.03732" lon="5.56476">
        <ele>1480.09</ele>
        <time>2010-02-10T12:44:31Z</time>
      </trkpt>
      <trkpt lat="45.03726" lon="5.56481">
        <ele>1485.37</ele>
        <time>2010-02-10T12:44:33Z</time>
      </trkpt>
      <trkpt lat="45.03722" lon="5.56483">
        <ele>1482.01</ele>
        <time>2010-02-10T12:44:34Z</time>
      </trkpt>
      <trkpt lat="45.03719" lon="5.56486">
        <ele>1486.34</ele>
        <time>2010-02-10T12:44:35Z</time>
      </trkpt>
      <trkpt lat="45.03704" lon="5.56501">
        <ele>1489.7</ele>
        <time>2010-02-10T12:44:40Z</time>
      </trkpt>
      <trkpt lat="45.03695" lon="5.56505">
        <ele>1493.06</ele>
        <time>2010-02-10T12:44:43Z</time>
      </trkpt>
      <trkpt lat="45.03682" lon="5.56513">
        <ele>1497.87</ele>
        <time>2010-02-10T12:44:47Z</time>
      </trkpt>
      <trkpt lat="45.03672" lon="5.5652">
        <ele>1500.76</ele>
        <time>2010-02-10T12:44:50Z</time>
      </trkpt>
      <trkpt lat="45.03661" lon="5.56528">
        <ele>1504.12</ele>
        <time>2010-02-10T12:44:53Z</time>
      </trkpt>
      <trkpt lat="45.03652" lon="5.56534">
        <ele>1507.97</ele>
        <time>2010-02-10T12:44:56Z</time>
      </trkpt>
      <trkpt lat="45.03642" lon="5.5654">
        <ele>1511.33</ele>
        <time>2010-02-10T12:44:59Z</time>
      </trkpt>
      <trkpt lat="45.03635" lon="5.56546">
        <ele>1512.77</ele>
        <time>2010-02-10T12:45:01Z</time>
      </trkpt>
      <trkpt lat="45.03628" lon="5.56551">
        <ele>1516.14</ele>
        <time>2010-02-10T12:45:03Z</time>
      </trkpt>
      <trkpt lat="45.03622" lon="5.56555">
        <ele>1519.5</ele>
        <time>2010-02-10T12:45:05Z</time>
      </trkpt>
      <trkpt lat="45.03616" lon="5.56558">
        <ele>1523.35</ele>
        <time>2010-02-10T12:45:07Z</time>
      </trkpt>
      <trkpt lat="45.0361" lon="5.56563">
        <ele>1526.71</ele>
        <time>2010-02-10T12:45:09Z</time>
      </trkpt>
      <trkpt lat="45.036" lon="5.56569">
        <ele>1530.56</ele>
        <time>2010-02-10T12:45:12Z</time>
      </trkpt>
      <trkpt lat="45.03594" lon="5.56574">
        <ele>1534.4</ele>
        <time>2010-02-10T12:45:14Z</time>
      </trkpt>
      <trkpt lat="45.03585" lon="5.5658">
        <ele>1538.73</ele>
        <time>2010-02-10T12:45:17Z</time>
      </trkpt>
      <trkpt lat="45.03576" lon="5.56586">
        <ele>1544.01</ele>
        <time>2010-02-10T12:45:20Z</time>
      </trkpt>
      <trkpt lat="45.03573" lon="5.56588">
        <ele>1542.57</ele>
        <time>2010-02-10T12:45:21Z</time>
      </trkpt>
      <trkpt lat="45.0357" lon="5.5659">
        <ele>1546.9</ele>
        <time>2010-02-10T12:45:22Z</time>
      </trkpt>
      <trkpt lat="45.03561" lon="5.56598">
        <ele>1550.26</ele>
        <time>2010-02-10T12:45:25Z</time>
      </trkpt>
      <trkpt lat="45.03551" lon="5.56605">
        <ele>1553.15</ele>
        <time>2010-02-10T12:45:28Z</time>
      </trkpt>
      <trkpt lat="45.03548" lon="5.56607">
        <ele>1553.15</ele>
        <time>2010-02-10T12:45:29Z</time>
      </trkpt>
      <trkpt lat="45.03541" lon="5.56611">
        <ele>1555.07</ele>
        <time>2010-02-10T12:45:31Z</time>
      </trkpt>
      <trkpt lat="45.03535" lon="5.56616">
        <ele>1558.92</ele>
        <time>2010-02-10T12:45:33Z</time>
      </trkpt>
      <trkpt lat="45.0352" lon="5.56625">
        <ele>1562.76</ele>
        <time>2010-02-10T12:45:37Z</time>
      </trkpt>
      <trkpt lat="45.03514" lon="5.56629">
        <ele>1566.12</ele>
        <time>2010-02-10T12:45:39Z</time>
      </trkpt>
      <trkpt lat="45.03502" lon="5.56637">
        <ele>1570.45</ele>
        <time>2010-02-10T12:45:43Z</time>
      </trkpt>
      <trkpt lat="45.03492" lon="5.56644">
        <ele>1573.82</ele>
        <time>2010-02-10T12:45:46Z</time>
      </trkpt>
      <trkpt lat="45.03486" lon="5.56648">
        <ele>1577.18</ele>
        <time>2010-02-10T12:45:48Z</time>
      </trkpt>
      <trkpt lat="45.03482" lon="5.5665">
        <ele>1576.22</ele>
        <time>2010-02-10T12:45:49Z</time>
      </trkpt>
      <trkpt lat="45.03478" lon="5.56653">
        <ele>1579.58</ele>
        <time>2010-02-10T12:45:50Z</time>
      </trkpt>
      <trkpt lat="45.03473" lon="5.56658">
        <ele>1582.47</ele>
        <time>2010-02-10T12:45:52Z</time>
      </trkpt>
      <trkpt lat="45.03464" lon="5.56665">
        <ele>1586.79</ele>
        <time>2010-02-10T12:45:55Z</time>
      </trkpt>
      <trkpt lat="45.03455" lon="5.56672">
        <ele>1591.12</ele>
        <time>2010-02-10T12:45:58Z</time>
      </trkpt>
      <trkpt lat="45.03444" lon="5.56677">
        <ele>1595.45</ele>
        <time>2010-02-10T12:46:01Z</time>
      </trkpt>
      <trkpt lat="45.03437" lon="5.5668">
        <ele>1596.89</ele>
        <time>2010-02-10T12:46:03Z</time>
      </trkpt>
      <trkpt lat="45.03431" lon="5.56685">
        <ele>1601.21</ele>
        <time>2010-02-10T12:46:05Z</time>
      </trkpt>
      <trkpt lat="45.03425" lon="5.5669">
        <ele>1604.1</ele>
        <time>2010-02-10T12:46:07Z</time>
      </trkpt>
      <trkpt lat="45.03419" lon="5.56694">
        <ele>1607.94</ele>
        <time>2010-02-10T12:46:09Z</time>
      </trkpt>
      <trkpt lat="45.03413" lon="5.56699">
        <ele>1611.79</ele>
        <time>2010-02-10T12:46:11Z</time>
      </trkpt>
      <trkpt lat="45.03404" lon="5.56705">
        <ele>1614.67</ele>
        <time>2010-02-10T12:46:14Z</time>
      </trkpt>
      <trkpt lat="45.03391" lon="5.56714">
        <ele>1618.52</ele>
        <time>2010-02-10T12:46:18Z</time>
      </trkpt>
      <trkpt lat="45.03388" lon="5.56716">
        <ele>1618.52</ele>
        <time>2010-02-10T12:46:19Z</time>
      </trkpt>
      <trkpt lat="45.03381" lon="5.5672">
        <ele>1621.88</ele>
        <time>2010-02-10T12:46:21Z</time>
      </trkpt>
      <trkpt lat="45.03368" lon="5.5673">
        <ele>1625.25</ele>
        <time>2010-02-10T12:46:25Z</time>
      </trkpt>
      <trkpt lat="45.03358" lon="5.56737">
        <ele>1629.57</ele>
        <time>2010-02-10T12:46:28Z</time>
      </trkpt>
      <trkpt lat="45.03349" lon="5.56743">
        <ele>1633.9</ele>
        <time>2010-02-10T12:46:31Z</time>
      </trkpt>
      <trkpt lat="45.03339" lon="5.5675">
        <ele>1637.26</ele>
        <time>2010-02-10T12:46:34Z</time>
      </trkpt>
      <trkpt lat="45.03329" lon="5.56757">
        <ele>1641.11</ele>
        <time>2010-02-10T12:46:37Z</time>
      </trkpt>
      <trkpt lat="45.0332" lon="5.56764">
        <ele>1644.47</ele>
        <time>2010-02-10T12:46:40Z</time>
      </trkpt>
      <trkpt lat="45.0331" lon="5.56771">
        <ele>1648.32</ele>
        <time>2010-02-10T12:46:43Z</time>
      </trkpt>
      <trkpt lat="45.03301" lon="5.56777">
        <ele>1653.12</ele>
        <time>2010-02-10T12:46:46Z</time>
      </trkpt>
      <trkpt lat="45.03288" lon="5.56786">
        <ele>1656.01</ele>
        <time>2010-02-10T12:46:50Z</time>
      </trkpt>
      <trkpt lat="45.03278" lon="5.56793">
        <ele>1658.89</ele>
        <time>2010-02-10T12:46:53Z</time>
      </trkpt>
      <trkpt lat="45.03275" lon="5.56796">
        <ele>1658.89</ele>
        <time>2010-02-10T12:46:54Z</time>
      </trkpt>
      <trkpt lat="45.03265" lon="5.56803">
        <ele>1662.74</ele>
        <time>2010-02-10T12:46:57Z</time>
      </trkpt>
      <trkpt lat="45.03259" lon="5.56808">
        <ele>1666.1</ele>
        <time>2010-02-10T12:46:59Z</time>
      </trkpt>
      <trkpt lat="45.03252" lon="5.56813">
        <ele>1667.06</ele>
        <time>2010-02-10T12:47:01Z</time>
      </trkpt>
      <trkpt lat="45.03239" lon="5.56822">
        <ele>1670.91</ele>
        <time>2010-02-10T12:47:05Z</time>
      </trkpt>
      <trkpt lat="45.03236" lon="5.56825">
        <ele>1670.91</ele>
        <time>2010-02-10T12:47:06Z</time>
      </trkpt>
      <trkpt lat="45.03226" lon="5.56833">
        <ele>1675.23</ele>
        <time>2010-02-10T12:47:09Z</time>
      </trkpt>
      <trkpt lat="45.03216" lon="5.56839">
        <ele>1678.6</ele>
        <time>2010-02-10T12:47:12Z</time>
      </trkpt>
      <trkpt lat="45.03206" lon="5.56846">
        <ele>1681.48</ele>
        <time>2010-02-10T12:47:15Z</time>
      </trkpt>
      <trkpt lat="45.03197" lon="5.56853">
        <ele>1685.33</ele>
        <time>2010-02-10T12:47:18Z</time>
      </trkpt>
      <trkpt lat="45.03188" lon="5.5686">
        <ele>1689.17</ele>
        <time>2010-02-10T12:47:21Z</time>
      </trkpt>
      <trkpt lat="45.03178" lon="5.56866">
        <ele>1693.02</ele>
        <time>2010-02-10T12:47:24Z</time>
      </trkpt>
      <trkpt lat="45.03168" lon="5.56873">
        <ele>1695.9</ele>
        <time>2010-02-10T12:47:27Z</time>
      </trkpt>
      <trkpt lat="45.03155" lon="5.56882">
        <ele>1699.27</ele>
        <time>2010-02-10T12:47:31Z</time>
      </trkpt>
      <trkpt lat="45.03142" lon="5.56891">
        <ele>1703.11</ele>
        <time>2010-02-10T12:47:35Z</time>
      </trkpt>
      <trkpt lat="45.03129" lon="5.56901">
        <ele>1707.44</ele>
        <time>2010-02-10T12:47:39Z</time>
      </trkpt>
      <trkpt lat="45.03116" lon="5.5691">
        <ele>1710.32</ele>
        <time>2010-02-10T12:47:43Z</time>
      </trkpt>
      <trkpt lat="45.03106" lon="5.56917">
        <ele>1713.69</ele>
        <time>2010-02-10T12:47:46Z</time>
      </trkpt>
      <trkpt lat="45.03097" lon="5.56924">
        <ele>1717.05</ele>
        <time>2010-02-10T12:47:49Z</time>
      </trkpt>
      <trkpt lat="45.03087" lon="5.56931">
        <ele>1720.9</ele>
        <time>2010-02-10T12:47:52Z</time>
      </trkpt>
      <trkpt lat="45.03077" lon="5.56938">
        <ele>1724.26</ele>
        <time>2010-02-10T12:47:55Z</time>
      </trkpt>
      <trkpt lat="45.03068" lon="5.56945">
        <ele>1727.63</ele>
        <time>2010-02-10T12:47:58Z</time>
      </trkpt>
      <trkpt lat="45.03058" lon="5.56951">
        <ele>1731.47</ele>
        <time>2010-02-10T12:48:01Z</time>
      </trkpt>
      <trkpt lat="45.03049" lon="5.56959">
        <ele>1735.8</ele>
        <time>2010-02-10T12:48:04Z</time>
      </trkpt>
      <trkpt lat="45.03021" lon="5.56977">
        <ele>1738.2</ele>
        <time>2010-02-10T12:48:15Z</time>
      </trkpt>
      <trkpt lat="45.03024" lon="5.5698">
        <ele>1738.68</ele>
        <time>2010-02-10T12:48:35Z</time>
      </trkpt>
      <trkpt lat="45.03024" lon="5.56979">
        <ele>1739.16</ele>
        <time>2010-02-10T12:48:41Z</time>
      </trkpt>
      <trkpt lat="45.03014" lon="5.56959">
        <ele>1738.68</ele>
        <time>2010-02-10T12:49:13Z</time>
      </trkpt>
      <trkpt lat="45.03014" lon="5.56959">
        <ele>1739.64</ele>
        <time>2010-02-10T12:49:17Z</time>
      </trkpt>
      <trkpt lat="45.03014" lon="5.56959">
        <ele>1737.24</ele>
        <time>2010-02-10T12:49:18Z</time>
      </trkpt>
      <trkpt lat="45.03014" lon="5.56959">
        <ele>1740.12</ele>
        <time>2010-02-10T12:49:19Z</time>
      </trkpt>
      <trkpt lat="45.03014" lon="5.56959">
        <ele>1736.76</ele>
        <time>2010-02-10T12:49:20Z</time>
      </trkpt>
      <trkpt lat="45.03014" lon="5.56959">
        <ele>1740.12</ele>
        <time>2010-02-10T12:49:21Z</time>
      </trkpt>
      <trkpt lat="45.03014" lon="5.56959">
        <ele>1740.12</ele>
        <time>2010-02-10T12:49:22Z</time>
      </trkpt>
      <trkpt lat="45.03014" lon="5.56959">
        <ele>1740.12</ele>
        <time>2010-02-10T12:49:37Z</time>
      </trkpt>
      <trkpt lat="45.03014" lon="5.56959">
        <ele>1737.24</ele>
        <time>2010-02-10T12:49:39Z</time>
      </trkpt>
      <trkpt lat="45.03014" lon="5.56959">
        <ele>1739.64</ele>
        <time>2010-02-10T12:49:45Z</time>
      </trkpt>
      <trkpt lat="45.02993" lon="5.57018">
        <ele>1738.68</ele>
        <time>2010-02-10T12:50:41Z</time>
      </trkpt>
      <trkpt lat="45.0299" lon="5.5702">
        <ele>1738.2</ele>
        <time>2010-02-10T12:51:05Z</time>
      </trkpt>
      <trkpt lat="45.02992" lon="5.57022">
        <ele>1737.72</ele>
        <time>2010-02-10T12:51:47Z</time>
      </trkpt>
      <trkpt lat="45.02998" lon="5.57028">
        <ele>1732.91</ele>
        <time>2010-02-10T12:51:50Z</time>
      </trkpt>
      <trkpt lat="45.03007" lon="5.57026">
        <ele>1728.59</ele>
        <time>2010-02-10T12:51:52Z</time>
      </trkpt>
      <trkpt lat="45.03027" lon="5.57013">
        <ele>1724.26</ele>
        <time>2010-02-10T12:51:55Z</time>
      </trkpt>
      <trkpt lat="45.03035" lon="5.57007">
        <ele>1719.94</ele>
        <time>2010-02-10T12:51:56Z</time>
      </trkpt>
      <trkpt lat="45.03042" lon="5.57">
        <ele>1721.38</ele>
        <time>2010-02-10T12:51:57Z</time>
      </trkpt>
      <trkpt lat="45.03065" lon="5.56995">
        <ele>1711.76</ele>
        <time>2010-02-10T12:52:00Z</time>
      </trkpt>
      <trkpt lat="45.03074" lon="5.56993">
        <ele>1707.92</ele>
        <time>2010-02-10T12:52:01Z</time>
      </trkpt>
      <trkpt lat="45.03083" lon="5.5699">
        <ele>1705.04</ele>
        <time>2010-02-10T12:52:02Z</time>
      </trkpt>
      <trkpt lat="45.03093" lon="5.56989">
        <ele>1696.86</ele>
        <time>2010-02-10T12:52:03Z</time>
      </trkpt>
      <trkpt lat="45.03104" lon="5.56989">
        <ele>1696.86</ele>
        <time>2010-02-10T12:52:04Z</time>
      </trkpt>
      <trkpt lat="45.03114" lon="5.56991">
        <ele>1691.1</ele>
        <time>2010-02-10T12:52:05Z</time>
      </trkpt>
      <trkpt lat="45.03125" lon="5.56993">
        <ele>1684.85</ele>
        <time>2010-02-10T12:52:06Z</time>
      </trkpt>
      <trkpt lat="45.03146" lon="5.56995">
        <ele>1679.56</ele>
        <time>2010-02-10T12:52:08Z</time>
      </trkpt>
      <trkpt lat="45.03156" lon="5.56998">
        <ele>1676.2</ele>
        <time>2010-02-10T12:52:09Z</time>
      </trkpt>
      <trkpt lat="45.03177" lon="5.57003">
        <ele>1670.91</ele>
        <time>2010-02-10T12:52:11Z</time>
      </trkpt>
      <trkpt lat="45.03186" lon="5.57006">
        <ele>1665.14</ele>
        <time>2010-02-10T12:52:12Z</time>
      </trkpt>
      <trkpt lat="45.03196" lon="5.57009">
        <ele>1659.85</ele>
        <time>2010-02-10T12:52:13Z</time>
      </trkpt>
      <trkpt lat="45.03205" lon="5.5701">
        <ele>1655.05</ele>
        <time>2010-02-10T12:52:14Z</time>
      </trkpt>
      <trkpt lat="45.03233" lon="5.57007">
        <ele>1642.07</ele>
        <time>2010-02-10T12:52:17Z</time>
      </trkpt>
      <trkpt lat="45.03242" lon="5.57007">
        <ele>1638.22</ele>
        <time>2010-02-10T12:52:18Z</time>
      </trkpt>
      <trkpt lat="45.03253" lon="5.57011">
        <ele>1631.98</ele>
        <time>2010-02-10T12:52:19Z</time>
      </trkpt>
      <trkpt lat="45.03263" lon="5.57016">
        <ele>1629.09</ele>
        <time>2010-02-10T12:52:20Z</time>
      </trkpt>
      <trkpt lat="45.03272" lon="5.57019">
        <ele>1629.57</ele>
        <time>2010-02-10T12:52:21Z</time>
      </trkpt>
      <trkpt lat="45.0329" lon="5.57028">
        <ele>1625.73</ele>
        <time>2010-02-10T12:52:23Z</time>
      </trkpt>
      <trkpt lat="45.03333" lon="5.57038">
        <ele>1625.73</ele>
        <time>2010-02-10T12:52:29Z</time>
      </trkpt>
      <trkpt lat="45.0337" lon="5.57046">
        <ele>1620.44</ele>
        <time>2010-02-10T12:52:35Z</time>
      </trkpt>
      <trkpt lat="45.03388" lon="5.57046">
        <ele>1616.11</ele>
        <time>2010-02-10T12:52:38Z</time>
      </trkpt>
      <trkpt lat="45.03403" lon="5.57047">
        <ele>1612.75</ele>
        <time>2010-02-10T12:52:40Z</time>
      </trkpt>
      <trkpt lat="45.03421" lon="5.57048">
        <ele>1607.94</ele>
        <time>2010-02-10T12:52:42Z</time>
      </trkpt>
      <trkpt lat="45.03441" lon="5.57051">
        <ele>1604.1</ele>
        <time>2010-02-10T12:52:44Z</time>
      </trkpt>
      <trkpt lat="45.03451" lon="5.57052">
        <ele>1602.17</ele>
        <time>2010-02-10T12:52:45Z</time>
      </trkpt>
      <trkpt lat="45.03478" lon="5.57052">
        <ele>1599.29</ele>
        <time>2010-02-10T12:52:48Z</time>
      </trkpt>
      <trkpt lat="45.03496" lon="5.57049">
        <ele>1596.41</ele>
        <time>2010-02-10T12:52:50Z</time>
      </trkpt>
      <trkpt lat="45.03513" lon="5.57044">
        <ele>1592.56</ele>
        <time>2010-02-10T12:52:52Z</time>
      </trkpt>
      <trkpt lat="45.03522" lon="5.57041">
        <ele>1589.68</ele>
        <time>2010-02-10T12:52:53Z</time>
      </trkpt>
      <trkpt lat="45.03539" lon="5.57035">
        <ele>1587.27</ele>
        <time>2010-02-10T12:52:55Z</time>
      </trkpt>
      <trkpt lat="45.03564" lon="5.57037">
        <ele>1583.43</ele>
        <time>2010-02-10T12:52:58Z</time>
      </trkpt>
      <trkpt lat="45.03572" lon="5.57039">
        <ele>1581.99</ele>
        <time>2010-02-10T12:52:59Z</time>
      </trkpt>
      <trkpt lat="45.03592" lon="5.57053">
        <ele>1581.51</ele>
        <time>2010-02-10T12:53:02Z</time>
      </trkpt>
      <trkpt lat="45.03619" lon="5.57066">
        <ele>1577.66</ele>
        <time>2010-02-10T12:53:07Z</time>
      </trkpt>
      <trkpt lat="45.03627" lon="5.57067">
        <ele>1575.74</ele>
        <time>2010-02-10T12:53:08Z</time>
      </trkpt>
      <trkpt lat="45.03653" lon="5.57064">
        <ele>1569.01</ele>
        <time>2010-02-10T12:53:11Z</time>
      </trkpt>
      <trkpt lat="45.03672" lon="5.57064">
        <ele>1562.76</ele>
        <time>2010-02-10T12:53:13Z</time>
      </trkpt>
      <trkpt lat="45.03682" lon="5.57062">
        <ele>1558.43</ele>
        <time>2010-02-10T12:53:14Z</time>
      </trkpt>
      <trkpt lat="45.03703" lon="5.57054">
        <ele>1554.11</ele>
        <time>2010-02-10T12:53:16Z</time>
      </trkpt>
      <trkpt lat="45.03713" lon="5.57051">
        <ele>1549.78</ele>
        <time>2010-02-10T12:53:17Z</time>
      </trkpt>
      <trkpt lat="45.03725" lon="5.57051">
        <ele>1544.5</ele>
        <time>2010-02-10T12:53:18Z</time>
      </trkpt>
      <trkpt lat="45.03738" lon="5.57055">
        <ele>1538.73</ele>
        <time>2010-02-10T12:53:19Z</time>
      </trkpt>
      <trkpt lat="45.03752" lon="5.57061">
        <ele>1533.92</ele>
        <time>2010-02-10T12:53:20Z</time>
      </trkpt>
      <trkpt lat="45.03766" lon="5.57065">
        <ele>1529.11</ele>
        <time>2010-02-10T12:53:21Z</time>
      </trkpt>
      <trkpt lat="45.03792" lon="5.57063">
        <ele>1525.27</ele>
        <time>2010-02-10T12:53:23Z</time>
      </trkpt>
      <trkpt lat="45.03823" lon="5.57064">
        <ele>1526.71</ele>
        <time>2010-02-10T12:53:26Z</time>
      </trkpt>
      <trkpt lat="45.03832" lon="5.57067">
        <ele>1524.31</ele>
        <time>2010-02-10T12:53:27Z</time>
      </trkpt>
      <trkpt lat="45.03864" lon="5.57062">
        <ele>1522.87</ele>
        <time>2010-02-10T12:53:31Z</time>
      </trkpt>
      <trkpt lat="45.03899" lon="5.57051">
        <ele>1522.39</ele>
        <time>2010-02-10T12:53:36Z</time>
      </trkpt>
      <trkpt lat="45.03917" lon="5.57059">
        <ele>1522.39</ele>
        <time>2010-02-10T12:53:40Z</time>
      </trkpt>
      <trkpt lat="45.03911" lon="5.57061">
        <ele>1521.9</ele>
        <time>2010-02-10T12:53:45Z</time>
      </trkpt>
      <trkpt lat="45.03907" lon="5.57066">
        <ele>1521.9</ele>
        <time>2010-02-10T12:53:52Z</time>
      </trkpt>
      <trkpt lat="45.03904" lon="5.57074">
        <ele>1520.94</ele>
        <time>2010-02-10T12:54:05Z</time>
      </trkpt>
      <trkpt lat="45.03871" lon="5.57075">
        <ele>1524.31</ele>
        <time>2010-02-10T12:54:16Z</time>
      </trkpt>
      <trkpt lat="45.03861" lon="5.57075">
        <ele>1528.63</ele>
        <time>2010-02-10T12:54:19Z</time>
      </trkpt>
      <trkpt lat="45.03851" lon="5.57075">
        <ele>1531.52</ele>
        <time>2010-02-10T12:54:22Z</time>
      </trkpt>
      <trkpt lat="45.0384" lon="5.57074">
        <ele>1534.4</ele>
        <time>2010-02-10T12:54:25Z</time>
      </trkpt>
      <trkpt lat="45.03836" lon="5.57074">
        <ele>1534.4</ele>
        <time>2010-02-10T12:54:26Z</time>
      </trkpt>
      <trkpt lat="45.03821" lon="5.57072">
        <ele>1538.25</ele>
        <time>2010-02-10T12:54:30Z</time>
      </trkpt>
      <trkpt lat="45.03811" lon="5.57072">
        <ele>1540.17</ele>
        <time>2010-02-10T12:54:33Z</time>
      </trkpt>
      <trkpt lat="45.038" lon="5.57072">
        <ele>1544.01</ele>
        <time>2010-02-10T12:54:36Z</time>
      </trkpt>
      <trkpt lat="45.03791" lon="5.57073">
        <ele>1547.38</ele>
        <time>2010-02-10T12:54:39Z</time>
      </trkpt>
      <trkpt lat="45.03774" lon="5.57076">
        <ele>1551.22</ele>
        <time>2010-02-10T12:54:44Z</time>
      </trkpt>
      <trkpt lat="45.03771" lon="5.57076">
        <ele>1550.26</ele>
        <time>2010-02-10T12:54:45Z</time>
      </trkpt>
      <trkpt lat="45.0376" lon="5.57077">
        <ele>1552.67</ele>
        <time>2010-02-10T12:54:48Z</time>
      </trkpt>
      <trkpt lat="45.0375" lon="5.57078">
        <ele>1554.59</ele>
        <time>2010-02-10T12:54:51Z</time>
      </trkpt>
      <trkpt lat="45.03736" lon="5.57079">
        <ele>1558.43</ele>
        <time>2010-02-10T12:54:55Z</time>
      </trkpt>
      <trkpt lat="45.03732" lon="5.57079">
        <ele>1558.43</ele>
        <time>2010-02-10T12:54:56Z</time>
      </trkpt>
      <trkpt lat="45.03726" lon="5.57079">
        <ele>1560.36</ele>
        <time>2010-02-10T12:54:58Z</time>
      </trkpt>
      <trkpt lat="45.03712" lon="5.57081">
        <ele>1564.2</ele>
        <time>2010-02-10T12:55:02Z</time>
      </trkpt>
      <trkpt lat="45.03699" lon="5.57083">
        <ele>1568.05</ele>
        <time>2010-02-10T12:55:06Z</time>
      </trkpt>
      <trkpt lat="45.03688" lon="5.57084">
        <ele>1571.41</ele>
        <time>2010-02-10T12:55:09Z</time>
      </trkpt>
      <trkpt lat="45.03679" lon="5.57086">
        <ele>1574.78</ele>
        <time>2010-02-10T12:55:12Z</time>
      </trkpt>
      <trkpt lat="45.03672" lon="5.57087">
        <ele>1576.22</ele>
        <time>2010-02-10T12:55:14Z</time>
      </trkpt>
      <trkpt lat="45.03665" lon="5.57087">
        <ele>1579.1</ele>
        <time>2010-02-10T12:55:16Z</time>
      </trkpt>
      <trkpt lat="45.03661" lon="5.57087">
        <ele>1579.1</ele>
        <time>2010-02-10T12:55:17Z</time>
      </trkpt>
      <trkpt lat="45.03647" lon="5.57088">
        <ele>1581.03</ele>
        <time>2010-02-10T12:55:21Z</time>
      </trkpt>
      <trkpt lat="45.03633" lon="5.57089">
        <ele>1584.39</ele>
        <time>2010-02-10T12:55:25Z</time>
      </trkpt>
      <trkpt lat="45.03622" lon="5.57089">
        <ele>1586.31</ele>
        <time>2010-02-10T12:55:28Z</time>
      </trkpt>
      <trkpt lat="45.03611" lon="5.57088">
        <ele>1588.72</ele>
        <time>2010-02-10T12:55:31Z</time>
      </trkpt>
      <trkpt lat="45.03597" lon="5.57088">
        <ele>1592.56</ele>
        <time>2010-02-10T12:55:35Z</time>
      </trkpt>
      <trkpt lat="45.03593" lon="5.57088">
        <ele>1596.41</ele>
        <time>2010-02-10T12:55:36Z</time>
      </trkpt>
      <trkpt lat="45.03586" lon="5.57078">
        <ele>1594.48</ele>
        <time>2010-02-10T12:55:37Z</time>
      </trkpt>
      <trkpt lat="45.03559" lon="5.57065">
        <ele>1597.85</ele>
        <time>2010-02-10T12:55:43Z</time>
      </trkpt>
      <trkpt lat="45.03556" lon="5.57067">
        <ele>1597.37</ele>
        <time>2010-02-10T12:55:44Z</time>
      </trkpt>
      <trkpt lat="45.0354" lon="5.57064">
        <ele>1600.25</ele>
        <time>2010-02-10T12:55:49Z</time>
      </trkpt>
      <trkpt lat="45.03526" lon="5.57064">
        <ele>1602.66</ele>
        <time>2010-02-10T12:55:53Z</time>
      </trkpt>
      <trkpt lat="45.03516" lon="5.57068">
        <ele>1604.58</ele>
        <time>2010-02-10T12:55:56Z</time>
      </trkpt>
      <trkpt lat="45.03502" lon="5.57066">
        <ele>1608.42</ele>
        <time>2010-02-10T12:56:00Z</time>
      </trkpt>
      <trkpt lat="45.03482" lon="5.57066">
        <ele>1611.31</ele>
        <time>2010-02-10T12:56:05Z</time>
      </trkpt>
      <trkpt lat="45.0348" lon="5.57066">
        <ele>1611.79</ele>
        <time>2010-02-10T12:56:06Z</time>
      </trkpt>
      <trkpt lat="45.03453" lon="5.57072">
        <ele>1615.63</ele>
        <time>2010-02-10T12:56:14Z</time>
      </trkpt>
      <trkpt lat="45.03431" lon="5.57071">
        <ele>1619.48</ele>
        <time>2010-02-10T12:56:20Z</time>
      </trkpt>
      <trkpt lat="45.03413" lon="5.57067">
        <ele>1622.84</ele>
        <time>2010-02-10T12:56:25Z</time>
      </trkpt>
      <trkpt lat="45.03401" lon="5.57073">
        <ele>1626.21</ele>
        <time>2010-02-10T12:56:29Z</time>
      </trkpt>
      <trkpt lat="45.03382" lon="5.57072">
        <ele>1629.57</ele>
        <time>2010-02-10T12:56:34Z</time>
      </trkpt>
      <trkpt lat="45.03366" lon="5.57073">
        <ele>1631.49</ele>
        <time>2010-02-10T12:56:39Z</time>
      </trkpt>
      <trkpt lat="45.03348" lon="5.57077">
        <ele>1633.9</ele>
        <time>2010-02-10T12:56:44Z</time>
      </trkpt>
      <trkpt lat="45.03338" lon="5.57077">
        <ele>1636.3</ele>
        <time>2010-02-10T12:56:47Z</time>
      </trkpt>
      <trkpt lat="45.03324" lon="5.57076">
        <ele>1639.67</ele>
        <time>2010-02-10T12:56:51Z</time>
      </trkpt>
      <trkpt lat="45.03305" lon="5.5707">
        <ele>1643.03</ele>
        <time>2010-02-10T12:56:55Z</time>
      </trkpt>
      <trkpt lat="45.03291" lon="5.57067">
        <ele>1645.91</ele>
        <time>2010-02-10T12:56:59Z</time>
      </trkpt>
      <trkpt lat="45.03274" lon="5.57067">
        <ele>1649.76</ele>
        <time>2010-02-10T12:57:04Z</time>
      </trkpt>
      <trkpt lat="45.0327" lon="5.57069">
        <ele>1649.28</ele>
        <time>2010-02-10T12:57:05Z</time>
      </trkpt>
      <trkpt lat="45.0326" lon="5.57069">
        <ele>1650.72</ele>
        <time>2010-02-10T12:57:08Z</time>
      </trkpt>
      <trkpt lat="45.03247" lon="5.57068">
        <ele>1653.12</ele>
        <time>2010-02-10T12:57:12Z</time>
      </trkpt>
      <trkpt lat="45.03239" lon="5.57064">
        <ele>1654.57</ele>
        <time>2010-02-10T12:57:14Z</time>
      </trkpt>
      <trkpt lat="45.03226" lon="5.57065">
        <ele>1656.97</ele>
        <time>2010-02-10T12:57:17Z</time>
      </trkpt>
      <trkpt lat="45.03213" lon="5.57066">
        <ele>1660.33</ele>
        <time>2010-02-10T12:57:21Z</time>
      </trkpt>
      <trkpt lat="45.03205" lon="5.57066">
        <ele>1663.22</ele>
        <time>2010-02-10T12:57:24Z</time>
      </trkpt>
      <trkpt lat="45.03192" lon="5.57067">
        <ele>1665.14</ele>
        <time>2010-02-10T12:57:27Z</time>
      </trkpt>
      <trkpt lat="45.03178" lon="5.57069">
        <ele>1669.47</ele>
        <time>2010-02-10T12:57:31Z</time>
      </trkpt>
      <trkpt lat="45.03165" lon="5.57068">
        <ele>1673.79</ele>
        <time>2010-02-10T12:57:35Z</time>
      </trkpt>
      <trkpt lat="45.03151" lon="5.57067">
        <ele>1677.64</ele>
        <time>2010-02-10T12:57:39Z</time>
      </trkpt>
      <trkpt lat="45.03141" lon="5.57069">
        <ele>1681</ele>
        <time>2010-02-10T12:57:42Z</time>
      </trkpt>
      <trkpt lat="45.03131" lon="5.57068">
        <ele>1684.85</ele>
        <time>2010-02-10T12:57:45Z</time>
      </trkpt>
      <trkpt lat="45.03123" lon="5.5707">
        <ele>1689.17</ele>
        <time>2010-02-10T12:57:48Z</time>
      </trkpt>
      <trkpt lat="45.0312" lon="5.57071">
        <ele>1689.17</ele>
        <time>2010-02-10T12:57:49Z</time>
      </trkpt>
      <trkpt lat="45.03114" lon="5.57074">
        <ele>1692.54</ele>
        <time>2010-02-10T12:57:51Z</time>
      </trkpt>
      <trkpt lat="45.03104" lon="5.57078">
        <ele>1696.38</ele>
        <time>2010-02-10T12:57:54Z</time>
      </trkpt>
      <trkpt lat="45.03093" lon="5.57073">
        <ele>1700.23</ele>
        <time>2010-02-10T12:57:57Z</time>
      </trkpt>
      <trkpt lat="45.03085" lon="5.5707">
        <ele>1702.15</ele>
        <time>2010-02-10T12:57:59Z</time>
      </trkpt>
      <trkpt lat="45.03073" lon="5.57076">
        <ele>1706</ele>
        <time>2010-02-10T12:58:03Z</time>
      </trkpt>
      <trkpt lat="45.03062" lon="5.57075">
        <ele>1708.4</ele>
        <time>2010-02-10T12:58:06Z</time>
      </trkpt>
      <trkpt lat="45.03052" lon="5.57076">
        <ele>1710.8</ele>
        <time>2010-02-10T12:58:09Z</time>
      </trkpt>
      <trkpt lat="45.03041" lon="5.57076">
        <ele>1715.13</ele>
        <time>2010-02-10T12:58:12Z</time>
      </trkpt>
      <trkpt lat="45.03031" lon="5.57077">
        <ele>1718.49</ele>
        <time>2010-02-10T12:58:15Z</time>
      </trkpt>
      <trkpt lat="45.03021" lon="5.57077">
        <ele>1722.34</ele>
        <time>2010-02-10T12:58:18Z</time>
      </trkpt>
      <trkpt lat="45.03007" lon="5.57079">
        <ele>1725.7</ele>
        <time>2010-02-10T12:58:22Z</time>
      </trkpt>
      <trkpt lat="45.02997" lon="5.57081">
        <ele>1729.07</ele>
        <time>2010-02-10T12:58:25Z</time>
      </trkpt>
      <trkpt lat="45.02978" lon="5.57072">
        <ele>1732.91</ele>
        <time>2010-02-10T12:58:29Z</time>
      </trkpt>
      <trkpt lat="45.02963" lon="5.57067">
        <ele>1736.76</ele>
        <time>2010-02-10T12:58:33Z</time>
      </trkpt>
      <trkpt lat="45.02949" lon="5.57069">
        <ele>1740.6</ele>
        <time>2010-02-10T12:58:37Z</time>
      </trkpt>
      <trkpt lat="45.02937" lon="5.57066">
        <ele>1743.97</ele>
        <time>2010-02-10T12:58:40Z</time>
      </trkpt>
      <trkpt lat="45.02923" lon="5.57066">
        <ele>1747.33</ele>
        <time>2010-02-10T12:58:44Z</time>
      </trkpt>
      <trkpt lat="45.02913" lon="5.57067">
        <ele>1750.7</ele>
        <time>2010-02-10T12:58:47Z</time>
      </trkpt>
      <trkpt lat="45.02903" lon="5.57067">
        <ele>1753.1</ele>
        <time>2010-02-10T12:58:50Z</time>
      </trkpt>
      <trkpt lat="45.02896" lon="5.57067">
        <ele>1756.47</ele>
        <time>2010-02-10T12:58:52Z</time>
      </trkpt>
      <trkpt lat="45.02886" lon="5.57067">
        <ele>1761.27</ele>
        <time>2010-02-10T12:58:55Z</time>
      </trkpt>
      <trkpt lat="45.02882" lon="5.57066">
        <ele>1761.27</ele>
        <time>2010-02-10T12:58:56Z</time>
      </trkpt>
      <trkpt lat="45.02871" lon="5.57067">
        <ele>1764.64</ele>
        <time>2010-02-10T12:58:59Z</time>
      </trkpt>
      <trkpt lat="45.02854" lon="5.57065">
        <ele>1768.48</ele>
        <time>2010-02-10T12:59:04Z</time>
      </trkpt>
      <trkpt lat="45.02847" lon="5.57065">
        <ele>1769.44</ele>
        <time>2010-02-10T12:59:06Z</time>
      </trkpt>
      <trkpt lat="45.02835" lon="5.57062">
        <ele>1773.29</ele>
        <time>2010-02-10T12:59:09Z</time>
      </trkpt>
      <trkpt lat="45.02826" lon="5.57065">
        <ele>1776.65</ele>
        <time>2010-02-10T12:59:12Z</time>
      </trkpt>
      <trkpt lat="45.02811" lon="5.57066">
        <ele>1780.98</ele>
        <time>2010-02-10T12:59:16Z</time>
      </trkpt>
      <trkpt lat="45.02798" lon="5.57065">
        <ele>1785.31</ele>
        <time>2010-02-10T12:59:20Z</time>
      </trkpt>
      <trkpt lat="45.02789" lon="5.57071">
        <ele>1788.67</ele>
        <time>2010-02-10T12:59:23Z</time>
      </trkpt>
      <trkpt lat="45.02778" lon="5.57069">
        <ele>1792.03</ele>
        <time>2010-02-10T12:59:26Z</time>
      </trkpt>
      <trkpt lat="45.02767" lon="5.57067">
        <ele>1795.88</ele>
        <time>2010-02-10T12:59:29Z</time>
      </trkpt>
      <trkpt lat="45.02754" lon="5.57066">
        <ele>1799.73</ele>
        <time>2010-02-10T12:59:33Z</time>
      </trkpt>
      <trkpt lat="45.02741" lon="5.57068">
        <ele>1803.57</ele>
        <time>2010-02-10T12:59:37Z</time>
      </trkpt>
      <trkpt lat="45.02726" lon="5.57067">
        <ele>1807.42</ele>
        <time>2010-02-10T12:59:41Z</time>
      </trkpt>
      <trkpt lat="45.02715" lon="5.57069">
        <ele>1810.78</ele>
        <time>2010-02-10T12:59:44Z</time>
      </trkpt>
      <trkpt lat="45.02705" lon="5.57071">
        <ele>1814.15</ele>
        <time>2010-02-10T12:59:47Z</time>
      </trkpt>
      <trkpt lat="45.02696" lon="5.57073">
        <ele>1817.99</ele>
        <time>2010-02-10T12:59:50Z</time>
      </trkpt>
      <trkpt lat="45.02689" lon="5.57071">
        <ele>1819.91</ele>
        <time>2010-02-10T12:59:52Z</time>
      </trkpt>
      <trkpt lat="45.02682" lon="5.5707">
        <ele>1822.8</ele>
        <time>2010-02-10T12:59:54Z</time>
      </trkpt>
      <trkpt lat="45.02669" lon="5.57068">
        <ele>1827.12</ele>
        <time>2010-02-10T12:59:57Z</time>
      </trkpt>
      <trkpt lat="45.0266" lon="5.5707">
        <ele>1830.01</ele>
        <time>2010-02-10T13:00:00Z</time>
      </trkpt>
      <trkpt lat="45.02654" lon="5.57069">
        <ele>1833.37</ele>
        <time>2010-02-10T13:00:02Z</time>
      </trkpt>
      <trkpt lat="45.02639" lon="5.57068">
        <ele>1837.7</ele>
        <time>2010-02-10T13:00:06Z</time>
      </trkpt>
      <trkpt lat="45.02632" lon="5.57069">
        <ele>1839.14</ele>
        <time>2010-02-10T13:00:08Z</time>
      </trkpt>
      <trkpt lat="45.02623" lon="5.57072">
        <ele>1843.47</ele>
        <time>2010-02-10T13:00:11Z</time>
      </trkpt>
      <trkpt lat="45.02613" lon="5.57071">
        <ele>1846.83</ele>
        <time>2010-02-10T13:00:14Z</time>
      </trkpt>
      <trkpt lat="45.02602" lon="5.57065">
        <ele>1849.71</ele>
        <time>2010-02-10T13:00:17Z</time>
      </trkpt>
      <trkpt lat="45.02591" lon="5.57069">
        <ele>1853.08</ele>
        <time>2010-02-10T13:00:20Z</time>
      </trkpt>
      <trkpt lat="45.02581" lon="5.5707">
        <ele>1856.92</ele>
        <time>2010-02-10T13:00:23Z</time>
      </trkpt>
      <trkpt lat="45.02575" lon="5.5707">
        <ele>1860.29</ele>
        <time>2010-02-10T13:00:25Z</time>
      </trkpt>
      <trkpt lat="45.02564" lon="5.57067">
        <ele>1863.65</ele>
        <time>2010-02-10T13:00:28Z</time>
      </trkpt>
      <trkpt lat="45.02556" lon="5.57069">
        <ele>1867.02</ele>
        <time>2010-02-10T13:00:30Z</time>
      </trkpt>
      <trkpt lat="45.02547" lon="5.57069">
        <ele>1870.86</ele>
        <time>2010-02-10T13:00:33Z</time>
      </trkpt>
      <trkpt lat="45.02538" lon="5.5707">
        <ele>1872.79</ele>
        <time>2010-02-10T13:00:36Z</time>
      </trkpt>
      <trkpt lat="45.02526" lon="5.57069">
        <ele>1875.67</ele>
        <time>2010-02-10T13:00:39Z</time>
      </trkpt>
      <trkpt lat="45.02511" lon="5.5707">
        <ele>1880</ele>
        <time>2010-02-10T13:00:43Z</time>
      </trkpt>
      <trkpt lat="45.02501" lon="5.57069">
        <ele>1881.92</ele>
        <time>2010-02-10T13:00:46Z</time>
      </trkpt>
      <trkpt lat="45.02497" lon="5.57069">
        <ele>1885.28</ele>
        <time>2010-02-10T13:00:48Z</time>
      </trkpt>
      <trkpt lat="45.02482" lon="5.57072">
        <ele>1889.13</ele>
        <time>2010-02-10T13:00:52Z</time>
      </trkpt>
      <trkpt lat="45.02478" lon="5.57074">
        <ele>1889.61</ele>
        <time>2010-02-10T13:00:53Z</time>
      </trkpt>
      <trkpt lat="45.02468" lon="5.57076">
        <ele>1893.45</ele>
        <time>2010-02-10T13:00:56Z</time>
      </trkpt>
      <trkpt lat="45.0246" lon="5.57076">
        <ele>1896.82</ele>
        <time>2010-02-10T13:00:59Z</time>
      </trkpt>
      <trkpt lat="45.02443" lon="5.57071">
        <ele>1900.66</ele>
        <time>2010-02-10T13:01:03Z</time>
      </trkpt>
      <trkpt lat="45.02425" lon="5.57073">
        <ele>1904.51</ele>
        <time>2010-02-10T13:01:08Z</time>
      </trkpt>
      <trkpt lat="45.02421" lon="5.57074">
        <ele>1904.51</ele>
        <time>2010-02-10T13:01:09Z</time>
      </trkpt>
      <trkpt lat="45.02406" lon="5.57075">
        <ele>1909.32</ele>
        <time>2010-02-10T13:01:14Z</time>
      </trkpt>
      <trkpt lat="45.02399" lon="5.57076">
        <ele>1910.76</ele>
        <time>2010-02-10T13:01:16Z</time>
      </trkpt>
      <trkpt lat="45.0239" lon="5.57075">
        <ele>1914.6</ele>
        <time>2010-02-10T13:01:19Z</time>
      </trkpt>
      <trkpt lat="45.02375" lon="5.57076">
        <ele>1918.93</ele>
        <time>2010-02-10T13:01:23Z</time>
      </trkpt>
      <trkpt lat="45.02367" lon="5.5708">
        <ele>1922.29</ele>
        <time>2010-02-10T13:01:26Z</time>
      </trkpt>
      <trkpt lat="45.02354" lon="5.57079">
        <ele>1926.14</ele>
        <time>2010-02-10T13:01:29Z</time>
      </trkpt>
      <trkpt lat="45.02339" lon="5.57074">
        <ele>1929.98</ele>
        <time>2010-02-10T13:01:33Z</time>
      </trkpt>
      <trkpt lat="45.02332" lon="5.57073">
        <ele>1930.95</ele>
        <time>2010-02-10T13:01:35Z</time>
      </trkpt>
      <trkpt lat="45.02313" lon="5.57073">
        <ele>1935.27</ele>
        <time>2010-02-10T13:01:40Z</time>
      </trkpt>
      <trkpt lat="45.02308" lon="5.57072">
        <ele>1934.79</ele>
        <time>2010-02-10T13:01:41Z</time>
      </trkpt>
      <trkpt lat="45.02299" lon="5.5707">
        <ele>1936.23</ele>
        <time>2010-02-10T13:01:44Z</time>
      </trkpt>
      <trkpt lat="45.02296" lon="5.57071">
        <ele>1939.6</ele>
        <time>2010-02-10T13:01:45Z</time>
      </trkpt>
      <trkpt lat="45.02293" lon="5.57072">
        <ele>1938.16</ele>
        <time>2010-02-10T13:01:46Z</time>
      </trkpt>
      <trkpt lat="45.02273" lon="5.57071">
        <ele>1942.48</ele>
        <time>2010-02-10T13:01:51Z</time>
      </trkpt>
      <trkpt lat="45.02269" lon="5.57069">
        <ele>1942.48</ele>
        <time>2010-02-10T13:01:52Z</time>
      </trkpt>
      <trkpt lat="45.02245" lon="5.57066">
        <ele>1943.44</ele>
        <time>2010-02-10T13:02:01Z</time>
      </trkpt>
      <trkpt lat="45.02251" lon="5.5705">
        <ele>1938.16</ele>
        <time>2010-02-10T13:02:08Z</time>
      </trkpt>
      <trkpt lat="45.02266" lon="5.57053">
        <ele>1940.08</ele>
        <time>2010-02-10T13:02:13Z</time>
      </trkpt>
      <trkpt lat="45.02275" lon="5.57051">
        <ele>1936.71</ele>
        <time>2010-02-10T13:02:19Z</time>
      </trkpt>
      <trkpt lat="45.02288" lon="5.57051">
        <ele>1932.87</ele>
        <time>2010-02-10T13:02:22Z</time>
      </trkpt>
      <trkpt lat="45.023" lon="5.57051">
        <ele>1922.77</ele>
        <time>2010-02-10T13:02:24Z</time>
      </trkpt>
      <trkpt lat="45.02316" lon="5.57056">
        <ele>1919.41</ele>
        <time>2010-02-10T13:02:26Z</time>
      </trkpt>
      <trkpt lat="45.02343" lon="5.57051">
        <ele>1913.64</ele>
        <time>2010-02-10T13:02:29Z</time>
      </trkpt>
      <trkpt lat="45.02361" lon="5.57042">
        <ele>1909.32</ele>
        <time>2010-02-10T13:02:31Z</time>
      </trkpt>
      <trkpt lat="45.0237" lon="5.57037">
        <ele>1903.55</ele>
        <time>2010-02-10T13:02:32Z</time>
      </trkpt>
      <trkpt lat="45.02379" lon="5.57033">
        <ele>1900.66</ele>
        <time>2010-02-10T13:02:33Z</time>
      </trkpt>
      <trkpt lat="45.02409" lon="5.57023">
        <ele>1896.82</ele>
        <time>2010-02-10T13:02:36Z</time>
      </trkpt>
      <trkpt lat="45.02419" lon="5.57017">
        <ele>1885.76</ele>
        <time>2010-02-10T13:02:37Z</time>
      </trkpt>
      <trkpt lat="45.02428" lon="5.5701">
        <ele>1885.76</ele>
        <time>2010-02-10T13:02:38Z</time>
      </trkpt>
      <trkpt lat="45.02437" lon="5.57002">
        <ele>1880.48</ele>
        <time>2010-02-10T13:02:39Z</time>
      </trkpt>
      <trkpt lat="45.02447" lon="5.56996">
        <ele>1877.11</ele>
        <time>2010-02-10T13:02:40Z</time>
      </trkpt>
      <trkpt lat="45.02453" lon="5.56986">
        <ele>1880</ele>
        <time>2010-02-10T13:02:41Z</time>
      </trkpt>
      <trkpt lat="45.02454" lon="5.5693">
        <ele>1868.46</ele>
        <time>2010-02-10T13:02:46Z</time>
      </trkpt>
      <trkpt lat="45.02437" lon="5.56919">
        <ele>1867.02</ele>
        <time>2010-02-10T13:02:48Z</time>
      </trkpt>
      <trkpt lat="45.0242" lon="5.5691">
        <ele>1867.02</ele>
        <time>2010-02-10T13:02:53Z</time>
      </trkpt>
      <trkpt lat="45.0241" lon="5.56903">
        <ele>1864.13</ele>
        <time>2010-02-10T13:03:06Z</time>
      </trkpt>
      <trkpt lat="45.02403" lon="5.56898">
        <ele>1862.21</ele>
        <time>2010-02-10T13:03:17Z</time>
      </trkpt>
      <trkpt lat="45.02402" lon="5.56896">
        <ele>1861.25</ele>
        <time>2010-02-10T13:03:19Z</time>
      </trkpt>
      <trkpt lat="45.02402" lon="5.56891">
        <ele>1858.85</ele>
        <time>2010-02-10T13:03:21Z</time>
      </trkpt>
      <trkpt lat="45.02406" lon="5.56886">
        <ele>1855.48</ele>
        <time>2010-02-10T13:03:25Z</time>
      </trkpt>
      <trkpt lat="45.0241" lon="5.5688">
        <ele>1851.16</ele>
        <time>2010-02-10T13:03:27Z</time>
      </trkpt>
      <trkpt lat="45.02412" lon="5.56874">
        <ele>1847.79</ele>
        <time>2010-02-10T13:03:28Z</time>
      </trkpt>
      <trkpt lat="45.02415" lon="5.5687">
        <ele>1844.43</ele>
        <time>2010-02-10T13:03:29Z</time>
      </trkpt>
      <trkpt lat="45.02416" lon="5.56863">
        <ele>1842.02</ele>
        <time>2010-02-10T13:03:30Z</time>
      </trkpt>
      <trkpt lat="45.02413" lon="5.56841">
        <ele>1828.56</ele>
        <time>2010-02-10T13:03:33Z</time>
      </trkpt>
      <trkpt lat="45.02407" lon="5.56835">
        <ele>1828.08</ele>
        <time>2010-02-10T13:03:34Z</time>
      </trkpt>
      <trkpt lat="45.02403" lon="5.56833">
        <ele>1831.45</ele>
        <time>2010-02-10T13:03:36Z</time>
      </trkpt>
      <trkpt lat="45.02405" lon="5.5684">
        <ele>1830.97</ele>
        <time>2010-02-10T13:03:52Z</time>
      </trkpt>
      <trkpt lat="45.02408" lon="5.56839">
        <ele>1829.53</ele>
        <time>2010-02-10T13:05:36Z</time>
      </trkpt>
      <trkpt lat="45.02414" lon="5.56835">
        <ele>1824.72</ele>
        <time>2010-02-10T13:05:40Z</time>
      </trkpt>
      <trkpt lat="45.02424" lon="5.56826">
        <ele>1820.87</ele>
        <time>2010-02-10T13:05:42Z</time>
      </trkpt>
      <trkpt lat="45.02427" lon="5.5682">
        <ele>1816.55</ele>
        <time>2010-02-10T13:05:43Z</time>
      </trkpt>
      <trkpt lat="45.02434" lon="5.56807">
        <ele>1810.3</ele>
        <time>2010-02-10T13:05:45Z</time>
      </trkpt>
      <trkpt lat="45.02448" lon="5.56791">
        <ele>1801.65</ele>
        <time>2010-02-10T13:05:48Z</time>
      </trkpt>
      <trkpt lat="45.02461" lon="5.56778">
        <ele>1797.8</ele>
        <time>2010-02-10T13:05:51Z</time>
      </trkpt>
      <trkpt lat="45.02464" lon="5.56774">
        <ele>1794.44</ele>
        <time>2010-02-10T13:05:54Z</time>
      </trkpt>
      <trkpt lat="45.02465" lon="5.56779">
        <ele>1793</ele>
        <time>2010-02-10T13:06:07Z</time>
      </trkpt>
      <trkpt lat="45.02466" lon="5.56772">
        <ele>1790.59</ele>
        <time>2010-02-10T13:06:10Z</time>
      </trkpt>
      <trkpt lat="45.02475" lon="5.5676">
        <ele>1785.79</ele>
        <time>2010-02-10T13:06:14Z</time>
      </trkpt>
      <trkpt lat="45.02479" lon="5.56758">
        <ele>1784.34</ele>
        <time>2010-02-10T13:06:15Z</time>
      </trkpt>
      <trkpt lat="45.02488" lon="5.56751">
        <ele>1780.98</ele>
        <time>2010-02-10T13:06:17Z</time>
      </trkpt>
      <trkpt lat="45.02497" lon="5.5674">
        <ele>1777.13</ele>
        <time>2010-02-10T13:06:19Z</time>
      </trkpt>
      <trkpt lat="45.02503" lon="5.56734">
        <ele>1772.33</ele>
        <time>2010-02-10T13:06:20Z</time>
      </trkpt>
      <trkpt lat="45.02514" lon="5.56723">
        <ele>1764.64</ele>
        <time>2010-02-10T13:06:22Z</time>
      </trkpt>
      <trkpt lat="45.0252" lon="5.56718">
        <ele>1764.16</ele>
        <time>2010-02-10T13:06:23Z</time>
      </trkpt>
      <trkpt lat="45.02532" lon="5.56708">
        <ele>1756.95</ele>
        <time>2010-02-10T13:06:25Z</time>
      </trkpt>
      <trkpt lat="45.02537" lon="5.56706">
        <ele>1758.39</ele>
        <time>2010-02-10T13:06:26Z</time>
      </trkpt>
      <trkpt lat="45.02547" lon="5.567">
        <ele>1753.1</ele>
        <time>2010-02-10T13:06:29Z</time>
      </trkpt>
      <trkpt lat="45.02555" lon="5.56695">
        <ele>1749.74</ele>
        <time>2010-02-10T13:06:31Z</time>
      </trkpt>
      <trkpt lat="45.02561" lon="5.56692">
        <ele>1749.74</ele>
        <time>2010-02-10T13:06:32Z</time>
      </trkpt>
      <trkpt lat="45.02569" lon="5.56686">
        <ele>1745.89</ele>
        <time>2010-02-10T13:06:34Z</time>
      </trkpt>
      <trkpt lat="45.02573" lon="5.5669">
        <ele>1745.41</ele>
        <time>2010-02-10T13:06:41Z</time>
      </trkpt>
      <trkpt lat="45.02573" lon="5.56691">
        <ele>1744.45</ele>
        <time>2010-02-10T13:06:48Z</time>
      </trkpt>
      <trkpt lat="45.02578" lon="5.56683">
        <ele>1737.72</ele>
        <time>2010-02-10T13:06:51Z</time>
      </trkpt>
      <trkpt lat="45.02582" lon="5.56673">
        <ele>1734.36</ele>
        <time>2010-02-10T13:06:54Z</time>
      </trkpt>
      <trkpt lat="45.02583" lon="5.56669">
        <ele>1732.91</ele>
        <time>2010-02-10T13:06:57Z</time>
      </trkpt>
      <trkpt lat="45.02585" lon="5.56671">
        <ele>1732.43</ele>
        <time>2010-02-10T13:07:18Z</time>
      </trkpt>
      <trkpt lat="45.0259" lon="5.5667">
        <ele>1732.43</ele>
        <time>2010-02-10T13:08:08Z</time>
      </trkpt>
      <trkpt lat="45.02596" lon="5.56664">
        <ele>1729.55</ele>
        <time>2010-02-10T13:08:12Z</time>
      </trkpt>
      <trkpt lat="45.02599" lon="5.56657">
        <ele>1728.59</ele>
        <time>2010-02-10T13:08:29Z</time>
      </trkpt>
      <trkpt lat="45.02596" lon="5.56654">
        <ele>1726.67</ele>
        <time>2010-02-10T13:08:53Z</time>
      </trkpt>
      <trkpt lat="45.02598" lon="5.56656">
        <ele>1727.63</ele>
        <time>2010-02-10T13:09:22Z</time>
      </trkpt>
      <trkpt lat="45.02598" lon="5.56658">
        <ele>1723.78</ele>
        <time>2010-02-10T13:11:01Z</time>
      </trkpt>
      <trkpt lat="45.02596" lon="5.56655">
        <ele>1724.26</ele>
        <time>2010-02-10T13:11:02Z</time>
      </trkpt>
      <trkpt lat="45.02598" lon="5.56652">
        <ele>1723.78</ele>
        <time>2010-02-10T13:11:25Z</time>
      </trkpt>
      <trkpt lat="45.02598" lon="5.56652">
        <ele>1722.82</ele>
        <time>2010-02-10T13:11:26Z</time>
      </trkpt>
      <trkpt lat="45.02596" lon="5.56646">
        <ele>1709.36</ele>
        <time>2010-02-10T13:11:28Z</time>
      </trkpt>
      <trkpt lat="45.02596" lon="5.56644">
        <ele>1710.32</ele>
        <time>2010-02-10T13:11:29Z</time>
      </trkpt>
      <trkpt lat="45.02594" lon="5.56644">
        <ele>1713.69</ele>
        <time>2010-02-10T13:11:30Z</time>
      </trkpt>
      <trkpt lat="45.02593" lon="5.56647">
        <ele>1712.25</ele>
        <time>2010-02-10T13:11:31Z</time>
      </trkpt>
      <trkpt lat="45.02593" lon="5.56639">
        <ele>1711.28</ele>
        <time>2010-02-10T13:11:46Z</time>
      </trkpt>
      <trkpt lat="45.02596" lon="5.56645">
        <ele>1709.84</ele>
        <time>2010-02-10T13:12:00Z</time>
      </trkpt>
      <trkpt lat="45.02598" lon="5.56635">
        <ele>1706.96</ele>
        <time>2010-02-10T13:12:03Z</time>
      </trkpt>
      <trkpt lat="45.026" lon="5.56626">
        <ele>1703.59</ele>
        <time>2010-02-10T13:12:04Z</time>
      </trkpt>
      <trkpt lat="45.02604" lon="5.56617">
        <ele>1699.27</ele>
        <time>2010-02-10T13:12:05Z</time>
      </trkpt>
      <trkpt lat="45.02611" lon="5.56596">
        <ele>1692.06</ele>
        <time>2010-02-10T13:12:07Z</time>
      </trkpt>
      <trkpt lat="45.02613" lon="5.56583">
        <ele>1685.81</ele>
        <time>2010-02-10T13:12:08Z</time>
      </trkpt>
      <trkpt lat="45.02612" lon="5.56571">
        <ele>1681.48</ele>
        <time>2010-02-10T13:12:09Z</time>
      </trkpt>
      <trkpt lat="45.02609" lon="5.5656">
        <ele>1678.12</ele>
        <time>2010-02-10T13:12:10Z</time>
      </trkpt>
      <trkpt lat="45.02603" lon="5.5654">
        <ele>1674.75</ele>
        <time>2010-02-10T13:12:12Z</time>
      </trkpt>
      <trkpt lat="45.02602" lon="5.56531">
        <ele>1673.79</ele>
        <time>2010-02-10T13:12:13Z</time>
      </trkpt>
      <trkpt lat="45.026" lon="5.56517">
        <ele>1672.35</ele>
        <time>2010-02-10T13:12:15Z</time>
      </trkpt>
      <trkpt lat="45.026" lon="5.56515">
        <ele>1672.35</ele>
        <time>2010-02-10T13:12:23Z</time>
      </trkpt>
      <trkpt lat="45.026" lon="5.56515">
        <ele>1672.83</ele>
        <time>2010-02-10T13:12:24Z</time>
      </trkpt>
      <trkpt lat="45.02605" lon="5.5651">
        <ele>1669.95</ele>
        <time>2010-02-10T13:12:28Z</time>
      </trkpt>
      <trkpt lat="45.02608" lon="5.56507">
        <ele>1668.02</ele>
        <time>2010-02-10T13:12:29Z</time>
      </trkpt>
      <trkpt lat="45.02617" lon="5.5649">
        <ele>1659.37</ele>
        <time>2010-02-10T13:12:32Z</time>
      </trkpt>
      <trkpt lat="45.02627" lon="5.5647">
        <ele>1655.05</ele>
        <time>2010-02-10T13:12:35Z</time>
      </trkpt>
      <trkpt lat="45.02638" lon="5.56461">
        <ele>1648.8</ele>
        <time>2010-02-10T13:12:37Z</time>
      </trkpt>
      <trkpt lat="45.02641" lon="5.56456">
        <ele>1649.76</ele>
        <time>2010-02-10T13:12:38Z</time>
      </trkpt>
      <trkpt lat="45.02642" lon="5.56447">
        <ele>1647.84</ele>
        <time>2010-02-10T13:12:45Z</time>
      </trkpt>
      <trkpt lat="45.02641" lon="5.56446">
        <ele>1647.36</ele>
        <time>2010-02-10T13:12:46Z</time>
      </trkpt>
      <trkpt lat="45.02641" lon="5.56434">
        <ele>1644.47</ele>
        <time>2010-02-10T13:12:51Z</time>
      </trkpt>
      <trkpt lat="45.02641" lon="5.56421">
        <ele>1642.07</ele>
        <time>2010-02-10T13:12:55Z</time>
      </trkpt>
      <trkpt lat="45.02646" lon="5.56413">
        <ele>1638.22</ele>
        <time>2010-02-10T13:12:57Z</time>
      </trkpt>
      <trkpt lat="45.02651" lon="5.56406">
        <ele>1633.9</ele>
        <time>2010-02-10T13:12:59Z</time>
      </trkpt>
      <trkpt lat="45.02653" lon="5.56402">
        <ele>1633.42</ele>
        <time>2010-02-10T13:13:00Z</time>
      </trkpt>
      <trkpt lat="45.02661" lon="5.56395">
        <ele>1629.57</ele>
        <time>2010-02-10T13:13:03Z</time>
      </trkpt>
      <trkpt lat="45.02671" lon="5.5639">
        <ele>1625.73</ele>
        <time>2010-02-10T13:13:05Z</time>
      </trkpt>
      <trkpt lat="45.02682" lon="5.56385">
        <ele>1621.88</ele>
        <time>2010-02-10T13:13:07Z</time>
      </trkpt>
      <trkpt lat="45.0269" lon="5.5637">
        <ele>1616.11</ele>
        <time>2010-02-10T13:13:09Z</time>
      </trkpt>
      <trkpt lat="45.02693" lon="5.56361">
        <ele>1614.19</ele>
        <time>2010-02-10T13:13:10Z</time>
      </trkpt>
      <trkpt lat="45.027" lon="5.5633">
        <ele>1605.54</ele>
        <time>2010-02-10T13:13:14Z</time>
      </trkpt>
      <trkpt lat="45.02702" lon="5.56322">
        <ele>1602.17</ele>
        <time>2010-02-10T13:13:15Z</time>
      </trkpt>
      <trkpt lat="45.02705" lon="5.56296">
        <ele>1596.41</ele>
        <time>2010-02-10T13:13:18Z</time>
      </trkpt>
      <trkpt lat="45.02709" lon="5.56279">
        <ele>1593.04</ele>
        <time>2010-02-10T13:13:20Z</time>
      </trkpt>
      <trkpt lat="45.02714" lon="5.56261">
        <ele>1582.95</ele>
        <time>2010-02-10T13:13:22Z</time>
      </trkpt>
      <trkpt lat="45.02718" lon="5.56252">
        <ele>1584.39</ele>
        <time>2010-02-10T13:13:23Z</time>
      </trkpt>
      <trkpt lat="45.02722" lon="5.56243">
        <ele>1578.62</ele>
        <time>2010-02-10T13:13:24Z</time>
      </trkpt>
      <trkpt lat="45.02727" lon="5.56232">
        <ele>1577.66</ele>
        <time>2010-02-10T13:13:25Z</time>
      </trkpt>
      <trkpt lat="45.0274" lon="5.56202">
        <ele>1568.05</ele>
        <time>2010-02-10T13:13:28Z</time>
      </trkpt>
      <trkpt lat="45.02744" lon="5.56194">
        <ele>1569.01</ele>
        <time>2010-02-10T13:13:29Z</time>
      </trkpt>
      <trkpt lat="45.02749" lon="5.56182">
        <ele>1569.97</ele>
        <time>2010-02-10T13:13:33Z</time>
      </trkpt>
      <trkpt lat="45.02749" lon="5.56184">
        <ele>1569.49</ele>
        <time>2010-02-10T13:13:40Z</time>
      </trkpt>
      <trkpt lat="45.02743" lon="5.56176">
        <ele>1569.01</ele>
        <time>2010-02-10T13:13:45Z</time>
      </trkpt>
      <trkpt lat="45.02727" lon="5.56151">
        <ele>1566.61</ele>
        <time>2010-02-10T13:13:52Z</time>
      </trkpt>
      <trkpt lat="45.0272" lon="5.56137">
        <ele>1565.16</ele>
        <time>2010-02-10T13:13:55Z</time>
      </trkpt>
      <trkpt lat="45.02708" lon="5.56112">
        <ele>1563.24</ele>
        <time>2010-02-10T13:14:00Z</time>
      </trkpt>
      <trkpt lat="45.02712" lon="5.56087">
        <ele>1562.76</ele>
        <time>2010-02-10T13:14:06Z</time>
      </trkpt>
      <trkpt lat="45.02719" lon="5.56087">
        <ele>1561.32</ele>
        <time>2010-02-10T13:14:10Z</time>
      </trkpt>
      <trkpt lat="45.02727" lon="5.56087">
        <ele>1561.32</ele>
        <time>2010-02-10T13:14:20Z</time>
      </trkpt>
      <trkpt lat="45.02727" lon="5.56087">
        <ele>1561.32</ele>
        <time>2010-02-10T13:14:21Z</time>
      </trkpt>
      <trkpt lat="45.02733" lon="5.56084">
        <ele>1558.43</ele>
        <time>2010-02-10T13:14:24Z</time>
      </trkpt>
      <trkpt lat="45.02743" lon="5.56078">
        <ele>1553.15</ele>
        <time>2010-02-10T13:14:26Z</time>
      </trkpt>
      <trkpt lat="45.0275" lon="5.56076">
        <ele>1548.82</ele>
        <time>2010-02-10T13:14:27Z</time>
      </trkpt>
      <trkpt lat="45.02759" lon="5.56075">
        <ele>1546.42</ele>
        <time>2010-02-10T13:14:28Z</time>
      </trkpt>
      <trkpt lat="45.02776" lon="5.56075">
        <ele>1544.01</ele>
        <time>2010-02-10T13:14:30Z</time>
      </trkpt>
      <trkpt lat="45.02807" lon="5.56066">
        <ele>1539.21</ele>
        <time>2010-02-10T13:14:36Z</time>
      </trkpt>
      <trkpt lat="45.0281" lon="5.56062">
        <ele>1539.21</ele>
        <time>2010-02-10T13:14:37Z</time>
      </trkpt>
      <trkpt lat="45.0282" lon="5.56056">
        <ele>1533.92</ele>
        <time>2010-02-10T13:14:40Z</time>
      </trkpt>
      <trkpt lat="45.02827" lon="5.56052">
        <ele>1530.56</ele>
        <time>2010-02-10T13:14:42Z</time>
      </trkpt>
      <trkpt lat="45.02829" lon="5.56046">
        <ele>1528.15</ele>
        <time>2010-02-10T13:14:43Z</time>
      </trkpt>
      <trkpt lat="45.02837" lon="5.56026">
        <ele>1519.02</ele>
        <time>2010-02-10T13:14:46Z</time>
      </trkpt>
      <trkpt lat="45.02851" lon="5.56002">
        <ele>1514.69</ele>
        <time>2010-02-10T13:14:50Z</time>
      </trkpt>
      <trkpt lat="45.02863" lon="5.55995">
        <ele>1509.89</ele>
        <time>2010-02-10T13:14:53Z</time>
      </trkpt>
      <trkpt lat="45.02868" lon="5.55992">
        <ele>1508.45</ele>
        <time>2010-02-10T13:14:54Z</time>
      </trkpt>
      <trkpt lat="45.02889" lon="5.55985">
        <ele>1500.27</ele>
        <time>2010-02-10T13:14:59Z</time>
      </trkpt>
      <trkpt lat="45.0289" lon="5.55983">
        <ele>1498.83</ele>
        <time>2010-02-10T13:15:00Z</time>
      </trkpt>
      <trkpt lat="45.02901" lon="5.55981">
        <ele>1496.91</ele>
        <time>2010-02-10T13:15:12Z</time>
      </trkpt>
      <trkpt lat="45.02903" lon="5.55982">
        <ele>1493.55</ele>
        <time>2010-02-10T13:15:23Z</time>
      </trkpt>
      <trkpt lat="45.02903" lon="5.55982">
        <ele>1497.39</ele>
        <time>2010-02-10T13:15:26Z</time>
      </trkpt>
      <trkpt lat="45.02903" lon="5.55982">
        <ele>1493.55</ele>
        <time>2010-02-10T13:15:29Z</time>
      </trkpt>
      <trkpt lat="45.02903" lon="5.55982">
        <ele>1496.91</ele>
        <time>2010-02-10T13:15:30Z</time>
      </trkpt>
      <trkpt lat="45.02904" lon="5.55981">
        <ele>1494.03</ele>
        <time>2010-02-10T13:15:50Z</time>
      </trkpt>
      <trkpt lat="45.02909" lon="5.55976">
        <ele>1488.74</ele>
        <time>2010-02-10T13:15:52Z</time>
      </trkpt>
      <trkpt lat="45.02916" lon="5.55974">
        <ele>1484.41</ele>
        <time>2010-02-10T13:15:54Z</time>
      </trkpt>
      <trkpt lat="45.02918" lon="5.55974">
        <ele>1484.41</ele>
        <time>2010-02-10T13:15:55Z</time>
      </trkpt>
      <trkpt lat="45.0293" lon="5.55969">
        <ele>1481.53</ele>
        <time>2010-02-10T13:16:01Z</time>
      </trkpt>
      <trkpt lat="45.0294" lon="5.55971">
        <ele>1472.4</ele>
        <time>2010-02-10T13:16:04Z</time>
      </trkpt>
      <trkpt lat="45.02945" lon="5.55975">
        <ele>1472.4</ele>
        <time>2010-02-10T13:16:05Z</time>
      </trkpt>
      <trkpt lat="45.02954" lon="5.55976">
        <ele>1468.07</ele>
        <time>2010-02-10T13:16:07Z</time>
      </trkpt>
      <trkpt lat="45.02963" lon="5.55978">
        <ele>1466.15</ele>
        <time>2010-02-10T13:16:09Z</time>
      </trkpt>
      <trkpt lat="45.02978" lon="5.55979">
        <ele>1459.42</ele>
        <time>2010-02-10T13:16:12Z</time>
      </trkpt>
      <trkpt lat="45.02988" lon="5.55976">
        <ele>1454.13</ele>
        <time>2010-02-10T13:16:14Z</time>
      </trkpt>
      <trkpt lat="45.02998" lon="5.55969">
        <ele>1449.32</ele>
        <time>2010-02-10T13:16:16Z</time>
      </trkpt>
      <trkpt lat="45.03007" lon="5.55961">
        <ele>1445.96</ele>
        <time>2010-02-10T13:16:18Z</time>
      </trkpt>
      <trkpt lat="45.0301" lon="5.55958">
        <ele>1442.6</ele>
        <time>2010-02-10T13:16:19Z</time>
      </trkpt>
      <trkpt lat="45.03018" lon="5.5595">
        <ele>1440.67</ele>
        <time>2010-02-10T13:16:21Z</time>
      </trkpt>
      <trkpt lat="45.0303" lon="5.55943">
        <ele>1432.5</ele>
        <time>2010-02-10T13:16:24Z</time>
      </trkpt>
      <trkpt lat="45.03042" lon="5.55946">
        <ele>1427.7</ele>
        <time>2010-02-10T13:16:27Z</time>
      </trkpt>
      <trkpt lat="45.03045" lon="5.55947">
        <ele>1427.7</ele>
        <time>2010-02-10T13:16:28Z</time>
      </trkpt>
      <trkpt lat="45.03055" lon="5.55946">
        <ele>1425.77</ele>
        <time>2010-02-10T13:16:32Z</time>
      </trkpt>
      <trkpt lat="45.03059" lon="5.55947">
        <ele>1426.25</ele>
        <time>2010-02-10T13:17:12Z</time>
      </trkpt>
      <trkpt lat="45.03061" lon="5.55953">
        <ele>1432.5</ele>
        <time>2010-02-10T13:17:50Z</time>
      </trkpt>
      <trkpt lat="45.03061" lon="5.55953">
        <ele>1428.66</ele>
        <time>2010-02-10T13:17:51Z</time>
      </trkpt>
      <trkpt lat="45.03061" lon="5.55953">
        <ele>1427.21</ele>
        <time>2010-02-10T13:17:53Z</time>
      </trkpt>
      <trkpt lat="45.03058" lon="5.5595">
        <ele>1426.25</ele>
        <time>2010-02-10T13:18:01Z</time>
      </trkpt>
      <trkpt lat="45.03062" lon="5.5595">
        <ele>1421.93</ele>
        <time>2010-02-10T13:18:04Z</time>
      </trkpt>
      <trkpt lat="45.03065" lon="5.55951">
        <ele>1419.04</ele>
        <time>2010-02-10T13:18:05Z</time>
      </trkpt>
      <trkpt lat="45.03073" lon="5.55953">
        <ele>1414.72</ele>
        <time>2010-02-10T13:18:07Z</time>
      </trkpt>
      <trkpt lat="45.03077" lon="5.55947">
        <ele>1414.24</ele>
        <time>2010-02-10T13:18:09Z</time>
      </trkpt>
      <trkpt lat="45.03077" lon="5.5595">
        <ele>1412.79</ele>
        <time>2010-02-10T13:18:18Z</time>
      </trkpt>
      <trkpt lat="45.03083" lon="5.55941">
        <ele>1409.43</ele>
        <time>2010-02-10T13:18:21Z</time>
      </trkpt>
      <trkpt lat="45.03083" lon="5.55939">
        <ele>1404.62</ele>
        <time>2010-02-10T13:18:25Z</time>
      </trkpt>
      <trkpt lat="45.03083" lon="5.55938">
        <ele>1403.18</ele>
        <time>2010-02-10T13:18:26Z</time>
      </trkpt>
      <trkpt lat="45.03089" lon="5.55938">
        <ele>1397.89</ele>
        <time>2010-02-10T13:18:29Z</time>
      </trkpt>
      <trkpt lat="45.03097" lon="5.55939">
        <ele>1394.53</ele>
        <time>2010-02-10T13:18:30Z</time>
      </trkpt>
      <trkpt lat="45.03109" lon="5.55942">
        <ele>1391.17</ele>
        <time>2010-02-10T13:18:32Z</time>
      </trkpt>
      <trkpt lat="45.03119" lon="5.55938">
        <ele>1388.28</ele>
        <time>2010-02-10T13:18:34Z</time>
      </trkpt>
      <trkpt lat="45.03129" lon="5.55928">
        <ele>1382.51</ele>
        <time>2010-02-10T13:18:37Z</time>
      </trkpt>
      <trkpt lat="45.03134" lon="5.55925">
        <ele>1379.15</ele>
        <time>2010-02-10T13:18:39Z</time>
      </trkpt>
      <trkpt lat="45.03136" lon="5.55922">
        <ele>1379.15</ele>
        <time>2010-02-10T13:18:40Z</time>
      </trkpt>
      <trkpt lat="45.03139" lon="5.55917">
        <ele>1377.71</ele>
        <time>2010-02-10T13:18:42Z</time>
      </trkpt>
      <trkpt lat="45.03146" lon="5.55916">
        <ele>1375.78</ele>
        <time>2010-02-10T13:18:44Z</time>
      </trkpt>
      <trkpt lat="45.03151" lon="5.55909">
        <ele>1372.42</ele>
        <time>2010-02-10T13:18:49Z</time>
      </trkpt>
      <trkpt lat="45.03154" lon="5.55902">
        <ele>1368.57</ele>
        <time>2010-02-10T13:18:51Z</time>
      </trkpt>
      <trkpt lat="45.03156" lon="5.55898">
        <ele>1368.09</ele>
        <time>2010-02-10T13:18:52Z</time>
      </trkpt>
      <trkpt lat="45.03162" lon="5.55891">
        <ele>1365.21</ele>
        <time>2010-02-10T13:18:54Z</time>
      </trkpt>
      <trkpt lat="45.03169" lon="5.55887">
        <ele>1363.77</ele>
        <time>2010-02-10T13:18:56Z</time>
      </trkpt>
      <trkpt lat="45.03172" lon="5.55887">
        <ele>1361.36</ele>
        <time>2010-02-10T13:18:58Z</time>
      </trkpt>
      <trkpt lat="45.03177" lon="5.5588">
        <ele>1358</ele>
        <time>2010-02-10T13:19:01Z</time>
      </trkpt>
      <trkpt lat="45.03186" lon="5.55878">
        <ele>1356.08</ele>
        <time>2010-02-10T13:19:14Z</time>
      </trkpt>
      <trkpt lat="45.032" lon="5.55869">
        <ele>1346.94</ele>
        <time>2010-02-10T13:19:17Z</time>
      </trkpt>
      <trkpt lat="45.03206" lon="5.55868">
        <ele>1345.98</ele>
        <time>2010-02-10T13:19:18Z</time>
      </trkpt>
      <trkpt lat="45.03226" lon="5.55868">
        <ele>1338.29</ele>
        <time>2010-02-10T13:19:21Z</time>
      </trkpt>
      <trkpt lat="45.03235" lon="5.55867">
        <ele>1336.37</ele>
        <time>2010-02-10T13:19:23Z</time>
      </trkpt>
      <trkpt lat="45.03238" lon="5.55871">
        <ele>1336.85</ele>
        <time>2010-02-10T13:19:32Z</time>
      </trkpt>
      <trkpt lat="45.03238" lon="5.55871">
        <ele>1343.58</ele>
        <time>2010-02-10T13:19:36Z</time>
      </trkpt>
      <trkpt lat="45.03238" lon="5.55871">
        <ele>1338.77</ele>
        <time>2010-02-10T13:19:37Z</time>
      </trkpt>
      <trkpt lat="45.03241" lon="5.55871">
        <ele>1333.97</ele>
        <time>2010-02-10T13:19:38Z</time>
      </trkpt>
      <trkpt lat="45.03241" lon="5.55871">
        <ele>1332.52</ele>
        <time>2010-02-10T13:19:40Z</time>
      </trkpt>
      <trkpt lat="45.03241" lon="5.55871">
        <ele>1326.76</ele>
        <time>2010-02-10T13:19:41Z</time>
      </trkpt>
      <trkpt lat="45.03241" lon="5.55871">
        <ele>1336.85</ele>
        <time>2010-02-10T13:19:42Z</time>
      </trkpt>
      <trkpt lat="45.03241" lon="5.5587">
        <ele>1336.85</ele>
        <time>2010-02-10T13:19:52Z</time>
      </trkpt>
      <trkpt lat="45.03247" lon="5.55863">
        <ele>1330.6</ele>
        <time>2010-02-10T13:19:55Z</time>
      </trkpt>
      <trkpt lat="45.03255" lon="5.55854">
        <ele>1323.39</ele>
        <time>2010-02-10T13:19:57Z</time>
      </trkpt>
      <trkpt lat="45.03259" lon="5.55849">
        <ele>1320.51</ele>
        <time>2010-02-10T13:19:58Z</time>
      </trkpt>
      <trkpt lat="45.0327" lon="5.55839">
        <ele>1312.34</ele>
        <time>2010-02-10T13:20:00Z</time>
      </trkpt>
      <trkpt lat="45.03276" lon="5.55834">
        <ele>1308.97</ele>
        <time>2010-02-10T13:20:01Z</time>
      </trkpt>
      <trkpt lat="45.03283" lon="5.5583">
        <ele>1308.01</ele>
        <time>2010-02-10T13:20:02Z</time>
      </trkpt>
      <trkpt lat="45.03296" lon="5.55824">
        <ele>1301.76</ele>
        <time>2010-02-10T13:20:04Z</time>
      </trkpt>
      <trkpt lat="45.03304" lon="5.55823">
        <ele>1296.96</ele>
        <time>2010-02-10T13:20:05Z</time>
      </trkpt>
      <trkpt lat="45.03342" lon="5.55844">
        <ele>1292.63</ele>
        <time>2010-02-10T13:20:10Z</time>
      </trkpt>
      <trkpt lat="45.03363" lon="5.55855">
        <ele>1291.67</ele>
        <time>2010-02-10T13:20:13Z</time>
      </trkpt>
      <trkpt lat="45.0338" lon="5.55872">
        <ele>1289.75</ele>
        <time>2010-02-10T13:20:17Z</time>
      </trkpt>
      <trkpt lat="45.03388" lon="5.55881">
        <ele>1288.78</ele>
        <time>2010-02-10T13:20:19Z</time>
      </trkpt>
      <trkpt lat="45.03396" lon="5.55891">
        <ele>1287.82</ele>
        <time>2010-02-10T13:20:21Z</time>
      </trkpt>
      <trkpt lat="45.034" lon="5.55896">
        <ele>1287.34</ele>
        <time>2010-02-10T13:20:22Z</time>
      </trkpt>
      <trkpt lat="45.03422" lon="5.5592">
        <ele>1284.46</ele>
        <time>2010-02-10T13:20:27Z</time>
      </trkpt>
      <trkpt lat="45.0343" lon="5.55925">
        <ele>1286.38</ele>
        <time>2010-02-10T13:20:29Z</time>
      </trkpt>
      <trkpt lat="45.03464" lon="5.55937">
        <ele>1283.02</ele>
        <time>2010-02-10T13:20:38Z</time>
      </trkpt>
      <trkpt lat="45.03496" lon="5.55942">
        <ele>1281.57</ele>
        <time>2010-02-10T13:20:49Z</time>
      </trkpt>
      <trkpt lat="45.03525" lon="5.55932">
        <ele>1279.17</ele>
        <time>2010-02-10T13:21:02Z</time>
      </trkpt>
      <trkpt lat="45.03534" lon="5.55925">
        <ele>1277.73</ele>
        <time>2010-02-10T13:21:05Z</time>
      </trkpt>
      <trkpt lat="45.03554" lon="5.55885">
        <ele>1275.81</ele>
        <time>2010-02-10T13:21:17Z</time>
      </trkpt>
      <trkpt lat="45.03567" lon="5.5584">
        <ele>1271.96</ele>
        <time>2010-02-10T13:21:25Z</time>
      </trkpt>
      <trkpt lat="45.03588" lon="5.55797">
        <ele>1268.6</ele>
        <time>2010-02-10T13:21:32Z</time>
      </trkpt>
      <trkpt lat="45.03644" lon="5.55746">
        <ele>1264.75</ele>
        <time>2010-02-10T13:21:44Z</time>
      </trkpt>
      <trkpt lat="45.03668" lon="5.55749">
        <ele>1262.35</ele>
        <time>2010-02-10T13:21:50Z</time>
      </trkpt>
      <trkpt lat="45.03705" lon="5.55754">
        <ele>1258.98</ele>
        <time>2010-02-10T13:22:00Z</time>
      </trkpt>
      <trkpt lat="45.03715" lon="5.55757">
        <ele>1257.54</ele>
        <time>2010-02-10T13:22:09Z</time>
      </trkpt>
      <trkpt lat="45.03715" lon="5.55757">
        <ele>1258.98</ele>
        <time>2010-02-10T13:23:14Z</time>
      </trkpt>
      <trkpt lat="45.03738" lon="5.55748">
        <ele>1254.18</ele>
        <time>2010-02-10T13:23:23Z</time>
      </trkpt>
      <trkpt lat="45.03743" lon="5.55745">
        <ele>1250.33</ele>
        <time>2010-02-10T13:23:24Z</time>
      </trkpt>
      <trkpt lat="45.03762" lon="5.55732">
        <ele>1246.97</ele>
        <time>2010-02-10T13:23:27Z</time>
      </trkpt>
      <trkpt lat="45.03786" lon="5.55721">
        <ele>1242.16</ele>
        <time>2010-02-10T13:23:30Z</time>
      </trkpt>
      <trkpt lat="45.03811" lon="5.55716">
        <ele>1239.76</ele>
        <time>2010-02-10T13:23:33Z</time>
      </trkpt>
      <trkpt lat="45.03825" lon="5.55718">
        <ele>1238.8</ele>
        <time>2010-02-10T13:23:35Z</time>
      </trkpt>
      <trkpt lat="45.03839" lon="5.55722">
        <ele>1239.28</ele>
        <time>2010-02-10T13:23:37Z</time>
      </trkpt>
      <trkpt lat="45.03874" lon="5.55724">
        <ele>1236.87</ele>
        <time>2010-02-10T13:23:42Z</time>
      </trkpt>
      <trkpt lat="45.03895" lon="5.55723">
        <ele>1232.55</ele>
        <time>2010-02-10T13:23:45Z</time>
      </trkpt>
      <trkpt lat="45.03914" lon="5.5572">
        <ele>1231.11</ele>
        <time>2010-02-10T13:23:48Z</time>
      </trkpt>
      <trkpt lat="45.0394" lon="5.55714">
        <ele>1229.66</ele>
        <time>2010-02-10T13:23:52Z</time>
      </trkpt>
      <trkpt lat="45.03959" lon="5.55707">
        <ele>1227.74</ele>
        <time>2010-02-10T13:23:55Z</time>
      </trkpt>
      <trkpt lat="45.03965" lon="5.55704">
        <ele>1227.26</ele>
        <time>2010-02-10T13:23:56Z</time>
      </trkpt>
      <trkpt lat="45.03985" lon="5.55693">
        <ele>1221.01</ele>
        <time>2010-02-10T13:23:59Z</time>
      </trkpt>
      <trkpt lat="45.03994" lon="5.55689">
        <ele>1215.72</ele>
        <time>2010-02-10T13:24:00Z</time>
      </trkpt>
      <trkpt lat="45.04004" lon="5.55684">
        <ele>1212.84</ele>
        <time>2010-02-10T13:24:01Z</time>
      </trkpt>
      <trkpt lat="45.04014" lon="5.55678">
        <ele>1209.48</ele>
        <time>2010-02-10T13:24:02Z</time>
      </trkpt>
      <trkpt lat="45.04035" lon="5.55673">
        <ele>1203.23</ele>
        <time>2010-02-10T13:24:04Z</time>
      </trkpt>
      <trkpt lat="45.04046" lon="5.55675">
        <ele>1199.86</ele>
        <time>2010-02-10T13:24:05Z</time>
      </trkpt>
      <trkpt lat="45.04069" lon="5.55681">
        <ele>1194.58</ele>
        <time>2010-02-10T13:24:07Z</time>
      </trkpt>
      <trkpt lat="45.04095" lon="5.55691">
        <ele>1188.33</ele>
        <time>2010-02-10T13:24:09Z</time>
      </trkpt>
      <trkpt lat="45.04107" lon="5.55698">
        <ele>1188.33</ele>
        <time>2010-02-10T13:24:10Z</time>
      </trkpt>
      <trkpt lat="45.04154" lon="5.55727">
        <ele>1183.52</ele>
        <time>2010-02-10T13:24:15Z</time>
      </trkpt>
      <trkpt lat="45.04201" lon="5.55756">
        <ele>1177.75</ele>
        <time>2010-02-10T13:24:20Z</time>
      </trkpt>
      <trkpt lat="45.04219" lon="5.55766">
        <ele>1172.47</ele>
        <time>2010-02-10T13:24:22Z</time>
      </trkpt>
      <trkpt lat="45.04238" lon="5.55779">
        <ele>1169.1</ele>
        <time>2010-02-10T13:24:24Z</time>
      </trkpt>
      <trkpt lat="45.04254" lon="5.55791">
        <ele>1167.66</ele>
        <time>2010-02-10T13:24:26Z</time>
      </trkpt>
      <trkpt lat="45.04267" lon="5.55801">
        <ele>1168.62</ele>
        <time>2010-02-10T13:24:28Z</time>
      </trkpt>
      <trkpt lat="45.04284" lon="5.55818">
        <ele>1164.77</ele>
        <time>2010-02-10T13:24:31Z</time>
      </trkpt>
      <trkpt lat="45.04292" lon="5.55831">
        <ele>1163.81</ele>
        <time>2010-02-10T13:24:33Z</time>
      </trkpt>
      <trkpt lat="45.04299" lon="5.55844">
        <ele>1164.77</ele>
        <time>2010-02-10T13:24:35Z</time>
      </trkpt>
      <trkpt lat="45.04307" lon="5.55865">
        <ele>1160.93</ele>
        <time>2010-02-10T13:24:38Z</time>
      </trkpt>
      <trkpt lat="45.0431" lon="5.55873">
        <ele>1159.97</ele>
        <time>2010-02-10T13:24:39Z</time>
      </trkpt>
      <trkpt lat="45.04321" lon="5.55894">
        <ele>1156.6</ele>
        <time>2010-02-10T13:24:42Z</time>
      </trkpt>
      <trkpt lat="45.04328" lon="5.55911">
        <ele>1151.8</ele>
        <time>2010-02-10T13:24:44Z</time>
      </trkpt>
      <trkpt lat="45.04336" lon="5.55928">
        <ele>1151.8</ele>
        <time>2010-02-10T13:24:46Z</time>
      </trkpt>
      <trkpt lat="45.0436" lon="5.5596">
        <ele>1147.95</ele>
        <time>2010-02-10T13:24:51Z</time>
      </trkpt>
      <trkpt lat="45.04366" lon="5.55967">
        <ele>1143.63</ele>
        <time>2010-02-10T13:24:52Z</time>
      </trkpt>
      <trkpt lat="45.04373" lon="5.55974">
        <ele>1139.78</ele>
        <time>2010-02-10T13:24:53Z</time>
      </trkpt>
      <trkpt lat="45.04398" lon="5.55995">
        <ele>1134.49</ele>
        <time>2010-02-10T13:24:56Z</time>
      </trkpt>
      <trkpt lat="45.04405" lon="5.56002">
        <ele>1134.01</ele>
        <time>2010-02-10T13:24:57Z</time>
      </trkpt>
      <trkpt lat="45.04449" lon="5.56008">
        <ele>1136.9</ele>
        <time>2010-02-10T13:25:04Z</time>
      </trkpt>
      <trkpt lat="45.04455" lon="5.56005">
        <ele>1138.34</ele>
        <time>2010-02-10T13:25:10Z</time>
      </trkpt>
      <trkpt lat="45.04456" lon="5.56005">
        <ele>1134.49</ele>
        <time>2010-02-10T13:25:19Z</time>
      </trkpt>
      <trkpt lat="45.04456" lon="5.56005">
        <ele>1139.78</ele>
        <time>2010-02-10T13:25:20Z</time>
      </trkpt>
      <trkpt lat="45.04456" lon="5.56005">
        <ele>1122</ele>
        <time>2010-02-10T13:25:38Z</time>
      </trkpt>
      <trkpt lat="45.04456" lon="5.56004">
        <ele>1143.63</ele>
        <time>2010-02-10T13:25:39Z</time>
      </trkpt>
      <trkpt lat="45.04456" lon="5.56004">
        <ele>1141.22</ele>
        <time>2010-02-10T13:25:40Z</time>
      </trkpt>
      <trkpt lat="45.04456" lon="5.56004">
        <ele>1138.82</ele>
        <time>2010-02-10T13:25:42Z</time>
      </trkpt>
      <trkpt lat="45.04458" lon="5.55996">
        <ele>1139.78</ele>
        <time>2010-02-10T13:26:04Z</time>
      </trkpt>
      <trkpt lat="45.04453" lon="5.55994">
        <ele>1138.34</ele>
        <time>2010-02-10T13:26:45Z</time>
      </trkpt>
      <trkpt lat="45.04453" lon="5.55985">
        <ele>1138.34</ele>
        <time>2010-02-10T13:26:50Z</time>
      </trkpt>
      <trkpt lat="45.04461" lon="5.55983">
        <ele>1138.34</ele>
        <time>2010-02-10T13:26:57Z</time>
      </trkpt>
      <trkpt lat="45.04461" lon="5.55979">
        <ele>1138.34</ele>
        <time>2010-02-10T13:27:00Z</time>
      </trkpt>
      <trkpt lat="45.04444" lon="5.55975">
        <ele>1138.34</ele>
        <time>2010-02-10T13:27:16Z</time>
      </trkpt>
      <trkpt lat="45.04449" lon="5.55994">
        <ele>1138.82</ele>
        <time>2010-02-10T13:27:35Z</time>
      </trkpt>
      <trkpt lat="45.04447" lon="5.55997">
        <ele>1138.34</ele>
        <time>2010-02-10T13:27:38Z</time>
      </trkpt>
      <trkpt lat="45.04412" lon="5.55994">
        <ele>1141.7</ele>
        <time>2010-02-10T13:27:44Z</time>
      </trkpt>
      <trkpt lat="45.04409" lon="5.55997">
        <ele>1141.22</ele>
        <time>2010-02-10T13:27:45Z</time>
      </trkpt>
      <trkpt lat="45.04406" lon="5.55999">
        <ele>1144.59</ele>
        <time>2010-02-10T13:27:46Z</time>
      </trkpt>
      <trkpt lat="45.044" lon="5.56005">
        <ele>1147.95</ele>
        <time>2010-02-10T13:27:48Z</time>
      </trkpt>
      <trkpt lat="45.04393" lon="5.56011">
        <ele>1150.84</ele>
        <time>2010-02-10T13:27:50Z</time>
      </trkpt>
      <trkpt lat="45.04388" lon="5.56015">
        <ele>1155.16</ele>
        <time>2010-02-10T13:27:52Z</time>
      </trkpt>
      <trkpt lat="45.0438" lon="5.56018">
        <ele>1158.53</ele>
        <time>2010-02-10T13:27:54Z</time>
      </trkpt>
      <trkpt lat="45.04375" lon="5.56023">
        <ele>1162.37</ele>
        <time>2010-02-10T13:27:56Z</time>
      </trkpt>
      <trkpt lat="45.04369" lon="5.56026">
        <ele>1165.74</ele>
        <time>2010-02-10T13:27:58Z</time>
      </trkpt>
      <trkpt lat="45.0436" lon="5.56031">
        <ele>1170.54</ele>
        <time>2010-02-10T13:28:01Z</time>
      </trkpt>
      <trkpt lat="45.0435" lon="5.5604">
        <ele>1163.33</ele>
        <time>2010-02-10T13:28:04Z</time>
      </trkpt>
      <trkpt lat="45.04346" lon="5.56043">
        <ele>1179.67</ele>
        <time>2010-02-10T13:28:05Z</time>
      </trkpt>
      <trkpt lat="45.04343" lon="5.56046">
        <ele>1178.23</ele>
        <time>2010-02-10T13:28:06Z</time>
      </trkpt>
      <trkpt lat="45.04336" lon="5.56051">
        <ele>1182.56</ele>
        <time>2010-02-10T13:28:08Z</time>
      </trkpt>
      <trkpt lat="45.04331" lon="5.56054">
        <ele>1185.44</ele>
        <time>2010-02-10T13:28:10Z</time>
      </trkpt>
      <trkpt lat="45.04326" lon="5.56058">
        <ele>1189.29</ele>
        <time>2010-02-10T13:28:12Z</time>
      </trkpt>
      <trkpt lat="45.04316" lon="5.56063">
        <ele>1192.65</ele>
        <time>2010-02-10T13:28:15Z</time>
      </trkpt>
      <trkpt lat="45.04314" lon="5.56065">
        <ele>1192.17</ele>
        <time>2010-02-10T13:28:16Z</time>
      </trkpt>
      <trkpt lat="45.04306" lon="5.5607">
        <ele>1195.54</ele>
        <time>2010-02-10T13:28:18Z</time>
      </trkpt>
      <trkpt lat="45.04296" lon="5.56074">
        <ele>1198.9</ele>
        <time>2010-02-10T13:28:21Z</time>
      </trkpt>
      <trkpt lat="45.0429" lon="5.5608">
        <ele>1202.75</ele>
        <time>2010-02-10T13:28:24Z</time>
      </trkpt>
      <trkpt lat="45.04283" lon="5.56086">
        <ele>1206.11</ele>
        <time>2010-02-10T13:28:26Z</time>
      </trkpt>
      <trkpt lat="45.04279" lon="5.56091">
        <ele>1209</ele>
        <time>2010-02-10T13:28:28Z</time>
      </trkpt>
      <trkpt lat="45.04266" lon="5.561">
        <ele>1213.32</ele>
        <time>2010-02-10T13:28:31Z</time>
      </trkpt>
      <trkpt lat="45.04258" lon="5.56107">
        <ele>1217.17</ele>
        <time>2010-02-10T13:28:34Z</time>
      </trkpt>
      <trkpt lat="45.04251" lon="5.56113">
        <ele>1221.01</ele>
        <time>2010-02-10T13:28:36Z</time>
      </trkpt>
      <trkpt lat="45.04246" lon="5.56115">
        <ele>1216.21</ele>
        <time>2010-02-10T13:28:38Z</time>
      </trkpt>
      <trkpt lat="45.04241" lon="5.56115">
        <ele>1227.26</ele>
        <time>2010-02-10T13:28:39Z</time>
      </trkpt>
      <trkpt lat="45.04234" lon="5.56121">
        <ele>1228.7</ele>
        <time>2010-02-10T13:28:41Z</time>
      </trkpt>
      <trkpt lat="45.04227" lon="5.56126">
        <ele>1233.03</ele>
        <time>2010-02-10T13:28:43Z</time>
      </trkpt>
      <trkpt lat="45.04219" lon="5.5613">
        <ele>1236.87</ele>
        <time>2010-02-10T13:28:45Z</time>
      </trkpt>
      <trkpt lat="45.04213" lon="5.56136">
        <ele>1240.72</ele>
        <time>2010-02-10T13:28:47Z</time>
      </trkpt>
      <trkpt lat="45.04205" lon="5.56141">
        <ele>1244.56</ele>
        <time>2010-02-10T13:28:50Z</time>
      </trkpt>
      <trkpt lat="45.04203" lon="5.56143">
        <ele>1248.89</ele>
        <time>2010-02-10T13:28:51Z</time>
      </trkpt>
      <trkpt lat="45.042" lon="5.56145">
        <ele>1249.37</ele>
        <time>2010-02-10T13:28:52Z</time>
      </trkpt>
      <trkpt lat="45.04195" lon="5.5615">
        <ele>1253.22</ele>
        <time>2010-02-10T13:28:54Z</time>
      </trkpt>
      <trkpt lat="45.0419" lon="5.56154">
        <ele>1260.43</ele>
        <time>2010-02-10T13:28:56Z</time>
      </trkpt>
      <trkpt lat="45.04186" lon="5.56156">
        <ele>1259.46</ele>
        <time>2010-02-10T13:28:57Z</time>
      </trkpt>
      <trkpt lat="45.04181" lon="5.56161">
        <ele>1263.79</ele>
        <time>2010-02-10T13:28:59Z</time>
      </trkpt>
      <trkpt lat="45.04178" lon="5.56163">
        <ele>1267.16</ele>
        <time>2010-02-10T13:29:00Z</time>
      </trkpt>
      <trkpt lat="45.04172" lon="5.56167">
        <ele>1271</ele>
        <time>2010-02-10T13:29:02Z</time>
      </trkpt>
      <trkpt lat="45.04169" lon="5.56169">
        <ele>1270.52</ele>
        <time>2010-02-10T13:29:03Z</time>
      </trkpt>
      <trkpt lat="45.04166" lon="5.56171">
        <ele>1275.33</ele>
        <time>2010-02-10T13:29:04Z</time>
      </trkpt>
      <trkpt lat="45.04163" lon="5.56173">
        <ele>1275.33</ele>
        <time>2010-02-10T13:29:05Z</time>
      </trkpt>
      <trkpt lat="45.04154" lon="5.56179">
        <ele>1279.65</ele>
        <time>2010-02-10T13:29:08Z</time>
      </trkpt>
      <trkpt lat="45.04151" lon="5.56181">
        <ele>1280.13</ele>
        <time>2010-02-10T13:29:09Z</time>
      </trkpt>
      <trkpt lat="45.04148" lon="5.56183">
        <ele>1286.38</ele>
        <time>2010-02-10T13:29:10Z</time>
      </trkpt>
      <trkpt lat="45.04145" lon="5.56186">
        <ele>1284.46</ele>
        <time>2010-02-10T13:29:11Z</time>
      </trkpt>
      <trkpt lat="45.04135" lon="5.56192">
        <ele>1288.78</ele>
        <time>2010-02-10T13:29:14Z</time>
      </trkpt>
      <trkpt lat="45.04124" lon="5.56197">
        <ele>1292.63</ele>
        <time>2010-02-10T13:29:17Z</time>
      </trkpt>
      <trkpt lat="45.04118" lon="5.56203">
        <ele>1296.48</ele>
        <time>2010-02-10T13:29:19Z</time>
      </trkpt>
      <trkpt lat="45.04109" lon="5.5621">
        <ele>1301.28</ele>
        <time>2010-02-10T13:29:22Z</time>
      </trkpt>
      <trkpt lat="45.04103" lon="5.56213">
        <ele>1304.65</ele>
        <time>2010-02-10T13:29:24Z</time>
      </trkpt>
      <trkpt lat="45.04098" lon="5.56218">
        <ele>1308.01</ele>
        <time>2010-02-10T13:29:26Z</time>
      </trkpt>
      <trkpt lat="45.04092" lon="5.56221">
        <ele>1311.38</ele>
        <time>2010-02-10T13:29:28Z</time>
      </trkpt>
      <trkpt lat="45.04086" lon="5.56227">
        <ele>1315.22</ele>
        <time>2010-02-10T13:29:30Z</time>
      </trkpt>
      <trkpt lat="45.04079" lon="5.56231">
        <ele>1318.59</ele>
        <time>2010-02-10T13:29:32Z</time>
      </trkpt>
      <trkpt lat="45.04074" lon="5.56237">
        <ele>1322.43</ele>
        <time>2010-02-10T13:29:34Z</time>
      </trkpt>
      <trkpt lat="45.04068" lon="5.56241">
        <ele>1326.28</ele>
        <time>2010-02-10T13:29:36Z</time>
      </trkpt>
      <trkpt lat="45.04061" lon="5.56242">
        <ele>1330.12</ele>
        <time>2010-02-10T13:29:38Z</time>
      </trkpt>
      <trkpt lat="45.04058" lon="5.56246">
        <ele>1333.49</ele>
        <time>2010-02-10T13:29:40Z</time>
      </trkpt>
      <trkpt lat="45.04046" lon="5.56255">
        <ele>1344.06</ele>
        <time>2010-02-10T13:29:43Z</time>
      </trkpt>
      <trkpt lat="45.04044" lon="5.56257">
        <ele>1340.22</ele>
        <time>2010-02-10T13:29:44Z</time>
      </trkpt>
      <trkpt lat="45.04033" lon="5.56264">
        <ele>1343.58</ele>
        <time>2010-02-10T13:29:47Z</time>
      </trkpt>
      <trkpt lat="45.04024" lon="5.56271">
        <ele>1348.39</ele>
        <time>2010-02-10T13:29:50Z</time>
      </trkpt>
      <trkpt lat="45.04014" lon="5.56277">
        <ele>1353.19</ele>
        <time>2010-02-10T13:29:53Z</time>
      </trkpt>
      <trkpt lat="45.04008" lon="5.56282">
        <ele>1357.52</ele>
        <time>2010-02-10T13:29:55Z</time>
      </trkpt>
      <trkpt lat="45.03999" lon="5.56289">
        <ele>1362.81</ele>
        <time>2010-02-10T13:29:58Z</time>
      </trkpt>
      <trkpt lat="45.03989" lon="5.56294">
        <ele>1366.65</ele>
        <time>2010-02-10T13:30:01Z</time>
      </trkpt>
      <trkpt lat="45.03983" lon="5.56298">
        <ele>1370.02</ele>
        <time>2010-02-10T13:30:03Z</time>
      </trkpt>
      <trkpt lat="45.03977" lon="5.56301">
        <ele>1373.38</ele>
        <time>2010-02-10T13:30:05Z</time>
      </trkpt>
      <trkpt lat="45.03974" lon="5.56307">
        <ele>1377.23</ele>
        <time>2010-02-10T13:30:07Z</time>
      </trkpt>
      <trkpt lat="45.03968" lon="5.56311">
        <ele>1381.07</ele>
        <time>2010-02-10T13:30:09Z</time>
      </trkpt>
      <trkpt lat="45.03961" lon="5.56315">
        <ele>1384.92</ele>
        <time>2010-02-10T13:30:11Z</time>
      </trkpt>
      <trkpt lat="45.03954" lon="5.56317">
        <ele>1388.76</ele>
        <time>2010-02-10T13:30:13Z</time>
      </trkpt>
      <trkpt lat="45.03946" lon="5.56328">
        <ele>1391.65</ele>
        <time>2010-02-10T13:30:16Z</time>
      </trkpt>
      <trkpt lat="45.03932" lon="5.56336">
        <ele>1395.49</ele>
        <time>2010-02-10T13:30:20Z</time>
      </trkpt>
      <trkpt lat="45.03921" lon="5.56343">
        <ele>1399.34</ele>
        <time>2010-02-10T13:30:24Z</time>
      </trkpt>
      <trkpt lat="45.03913" lon="5.5635">
        <ele>1402.22</ele>
        <time>2010-02-10T13:30:27Z</time>
      </trkpt>
      <trkpt lat="45.03903" lon="5.56358">
        <ele>1406.07</ele>
        <time>2010-02-10T13:30:30Z</time>
      </trkpt>
      <trkpt lat="45.03893" lon="5.56365">
        <ele>1409.43</ele>
        <time>2010-02-10T13:30:33Z</time>
      </trkpt>
      <trkpt lat="45.03881" lon="5.56373">
        <ele>1413.76</ele>
        <time>2010-02-10T13:30:36Z</time>
      </trkpt>
      <trkpt lat="45.0387" lon="5.56378">
        <ele>1417.12</ele>
        <time>2010-02-10T13:30:39Z</time>
      </trkpt>
      <trkpt lat="45.03865" lon="5.56383">
        <ele>1420.49</ele>
        <time>2010-02-10T13:30:41Z</time>
      </trkpt>
      <trkpt lat="45.03857" lon="5.56388">
        <ele>1423.85</ele>
        <time>2010-02-10T13:30:43Z</time>
      </trkpt>
      <trkpt lat="45.03846" lon="5.56393">
        <ele>1427.7</ele>
        <time>2010-02-10T13:30:46Z</time>
      </trkpt>
      <trkpt lat="45.03838" lon="5.56397">
        <ele>1430.58</ele>
        <time>2010-02-10T13:30:48Z</time>
      </trkpt>
      <trkpt lat="45.0383" lon="5.56406">
        <ele>1434.91</ele>
        <time>2010-02-10T13:30:51Z</time>
      </trkpt>
      <trkpt lat="45.03821" lon="5.56412">
        <ele>1439.71</ele>
        <time>2010-02-10T13:30:54Z</time>
      </trkpt>
      <trkpt lat="45.03815" lon="5.56416">
        <ele>1442.6</ele>
        <time>2010-02-10T13:30:56Z</time>
      </trkpt>
      <trkpt lat="45.03809" lon="5.5642">
        <ele>1446.44</ele>
        <time>2010-02-10T13:30:58Z</time>
      </trkpt>
      <trkpt lat="45.03804" lon="5.56424">
        <ele>1449.81</ele>
        <time>2010-02-10T13:31:00Z</time>
      </trkpt>
      <trkpt lat="45.03799" lon="5.56429">
        <ele>1453.17</ele>
        <time>2010-02-10T13:31:02Z</time>
      </trkpt>
      <trkpt lat="45.03793" lon="5.56432">
        <ele>1457.02</ele>
        <time>2010-02-10T13:31:04Z</time>
      </trkpt>
      <trkpt lat="45.03782" lon="5.56438">
        <ele>1460.86</ele>
        <time>2010-02-10T13:31:07Z</time>
      </trkpt>
      <trkpt lat="45.03772" lon="5.56442">
        <ele>1463.74</ele>
        <time>2010-02-10T13:31:10Z</time>
      </trkpt>
      <trkpt lat="45.03764" lon="5.5645">
        <ele>1467.11</ele>
        <time>2010-02-10T13:31:13Z</time>
      </trkpt>
      <trkpt lat="45.03753" lon="5.56459">
        <ele>1470.95</ele>
        <time>2010-02-10T13:31:16Z</time>
      </trkpt>
      <trkpt lat="45.03745" lon="5.56467">
        <ele>1475.28</ele>
        <time>2010-02-10T13:31:19Z</time>
      </trkpt>
      <trkpt lat="45.03732" lon="5.56475">
        <ele>1479.13</ele>
        <time>2010-02-10T13:31:23Z</time>
      </trkpt>
      <trkpt lat="45.03717" lon="5.56484">
        <ele>1482.01</ele>
        <time>2010-02-10T13:31:27Z</time>
      </trkpt>
      <trkpt lat="45.03708" lon="5.56491">
        <ele>1484.89</ele>
        <time>2010-02-10T13:31:30Z</time>
      </trkpt>
      <trkpt lat="45.03695" lon="5.56501">
        <ele>1488.74</ele>
        <time>2010-02-10T13:31:34Z</time>
      </trkpt>
      <trkpt lat="45.03691" lon="5.56504">
        <ele>1492.1</ele>
        <time>2010-02-10T13:31:35Z</time>
      </trkpt>
      <trkpt lat="45.03675" lon="5.56515">
        <ele>1495.95</ele>
        <time>2010-02-10T13:31:40Z</time>
      </trkpt>
      <trkpt lat="45.03665" lon="5.56522">
        <ele>1497.87</ele>
        <time>2010-02-10T13:31:43Z</time>
      </trkpt>
      <trkpt lat="45.03662" lon="5.56524">
        <ele>1501.24</ele>
        <time>2010-02-10T13:31:44Z</time>
      </trkpt>
      <trkpt lat="45.03655" lon="5.56527">
        <ele>1504.6</ele>
        <time>2010-02-10T13:31:47Z</time>
      </trkpt>
      <trkpt lat="45.03642" lon="5.56538">
        <ele>1509.41</ele>
        <time>2010-02-10T13:31:50Z</time>
      </trkpt>
      <trkpt lat="45.03634" lon="5.56544">
        <ele>1512.29</ele>
        <time>2010-02-10T13:31:53Z</time>
      </trkpt>
      <trkpt lat="45.03624" lon="5.56551">
        <ele>1516.62</ele>
        <time>2010-02-10T13:31:56Z</time>
      </trkpt>
      <trkpt lat="45.03614" lon="5.5656">
        <ele>1521.42</ele>
        <time>2010-02-10T13:31:59Z</time>
      </trkpt>
      <trkpt lat="45.03607" lon="5.56564">
        <ele>1524.79</ele>
        <time>2010-02-10T13:32:01Z</time>
      </trkpt>
      <trkpt lat="45.03599" lon="5.56568">
        <ele>1529.11</ele>
        <time>2010-02-10T13:32:04Z</time>
      </trkpt>
      <trkpt lat="45.03587" lon="5.56576">
        <ele>1533.92</ele>
        <time>2010-02-10T13:32:08Z</time>
      </trkpt>
      <trkpt lat="45.0358" lon="5.56582">
        <ele>1537.29</ele>
        <time>2010-02-10T13:32:10Z</time>
      </trkpt>
      <trkpt lat="45.03572" lon="5.56588">
        <ele>1542.09</ele>
        <time>2010-02-10T13:32:13Z</time>
      </trkpt>
      <trkpt lat="45.03565" lon="5.56592">
        <ele>1545.46</ele>
        <time>2010-02-10T13:32:15Z</time>
      </trkpt>
      <trkpt lat="45.03556" lon="5.56599">
        <ele>1548.34</ele>
        <time>2010-02-10T13:32:18Z</time>
      </trkpt>
      <trkpt lat="45.03544" lon="5.56607">
        <ele>1551.71</ele>
        <time>2010-02-10T13:32:21Z</time>
      </trkpt>
      <trkpt lat="45.03542" lon="5.5661">
        <ele>1551.71</ele>
        <time>2010-02-10T13:32:22Z</time>
      </trkpt>
      <trkpt lat="45.03535" lon="5.56615">
        <ele>1554.59</ele>
        <time>2010-02-10T13:32:24Z</time>
      </trkpt>
      <trkpt lat="45.03523" lon="5.56622">
        <ele>1559.4</ele>
        <time>2010-02-10T13:32:28Z</time>
      </trkpt>
      <trkpt lat="45.03516" lon="5.56626">
        <ele>1563.24</ele>
        <time>2010-02-10T13:32:30Z</time>
      </trkpt>
      <trkpt lat="45.03503" lon="5.56636">
        <ele>1568.05</ele>
        <time>2010-02-10T13:32:34Z</time>
      </trkpt>
      <trkpt lat="45.03501" lon="5.56639">
        <ele>1568.05</ele>
        <time>2010-02-10T13:32:35Z</time>
      </trkpt>
      <trkpt lat="45.0349" lon="5.56644">
        <ele>1572.37</ele>
        <time>2010-02-10T13:32:38Z</time>
      </trkpt>
      <trkpt lat="45.03478" lon="5.56653">
        <ele>1577.18</ele>
        <time>2010-02-10T13:32:42Z</time>
      </trkpt>
      <trkpt lat="45.03471" lon="5.56659">
        <ele>1580.54</ele>
        <time>2010-02-10T13:32:44Z</time>
      </trkpt>
      <trkpt lat="45.03466" lon="5.56664">
        <ele>1583.91</ele>
        <time>2010-02-10T13:32:46Z</time>
      </trkpt>
      <trkpt lat="45.03462" lon="5.56666">
        <ele>1583.91</ele>
        <time>2010-02-10T13:32:47Z</time>
      </trkpt>
      <trkpt lat="45.03455" lon="5.56671">
        <ele>1587.27</ele>
        <time>2010-02-10T13:32:49Z</time>
      </trkpt>
      <trkpt lat="45.03445" lon="5.56675">
        <ele>1591.6</ele>
        <time>2010-02-10T13:32:52Z</time>
      </trkpt>
      <trkpt lat="45.03443" lon="5.56679">
        <ele>1591.6</ele>
        <time>2010-02-10T13:32:53Z</time>
      </trkpt>
      <trkpt lat="45.03436" lon="5.56683">
        <ele>1596.41</ele>
        <time>2010-02-10T13:32:55Z</time>
      </trkpt>
      <trkpt lat="45.03429" lon="5.56689">
        <ele>1598.33</ele>
        <time>2010-02-10T13:32:57Z</time>
      </trkpt>
      <trkpt lat="45.03424" lon="5.56691">
        <ele>1603.14</ele>
        <time>2010-02-10T13:32:59Z</time>
      </trkpt>
      <trkpt lat="45.03418" lon="5.56695">
        <ele>1606.5</ele>
        <time>2010-02-10T13:33:01Z</time>
      </trkpt>
      <trkpt lat="45.03412" lon="5.56697">
        <ele>1609.86</ele>
        <time>2010-02-10T13:33:03Z</time>
      </trkpt>
      <trkpt lat="45.03398" lon="5.56707">
        <ele>1613.23</ele>
        <time>2010-02-10T13:33:07Z</time>
      </trkpt>
      <trkpt lat="45.03386" lon="5.56715">
        <ele>1616.59</ele>
        <time>2010-02-10T13:33:11Z</time>
      </trkpt>
      <trkpt lat="45.03374" lon="5.56721">
        <ele>1619.48</ele>
        <time>2010-02-10T13:33:14Z</time>
      </trkpt>
      <trkpt lat="45.03367" lon="5.56728">
        <ele>1622.84</ele>
        <time>2010-02-10T13:33:16Z</time>
      </trkpt>
      <trkpt lat="45.03352" lon="5.56735">
        <ele>1626.69</ele>
        <time>2010-02-10T13:33:20Z</time>
      </trkpt>
      <trkpt lat="45.03347" lon="5.5674">
        <ele>1629.09</ele>
        <time>2010-02-10T13:33:22Z</time>
      </trkpt>
      <trkpt lat="45.03337" lon="5.56745">
        <ele>1632.46</ele>
        <time>2010-02-10T13:33:25Z</time>
      </trkpt>
      <trkpt lat="45.03329" lon="5.56749">
        <ele>1635.82</ele>
        <time>2010-02-10T13:33:27Z</time>
      </trkpt>
      <trkpt lat="45.03321" lon="5.56757">
        <ele>1639.19</ele>
        <time>2010-02-10T13:33:30Z</time>
      </trkpt>
      <trkpt lat="45.03314" lon="5.56766">
        <ele>1643.03</ele>
        <time>2010-02-10T13:33:33Z</time>
      </trkpt>
      <trkpt lat="45.03303" lon="5.56774">
        <ele>1646.4</ele>
        <time>2010-02-10T13:33:36Z</time>
      </trkpt>
      <trkpt lat="45.03298" lon="5.56779">
        <ele>1650.72</ele>
        <time>2010-02-10T13:33:38Z</time>
      </trkpt>
      <trkpt lat="45.03295" lon="5.56782">
        <ele>1651.2</ele>
        <time>2010-02-10T13:33:39Z</time>
      </trkpt>
      <trkpt lat="45.03281" lon="5.56789">
        <ele>1654.57</ele>
        <time>2010-02-10T13:33:43Z</time>
      </trkpt>
      <trkpt lat="45.03275" lon="5.56794">
        <ele>1656.49</ele>
        <time>2010-02-10T13:33:45Z</time>
      </trkpt>
      <trkpt lat="45.03262" lon="5.56803">
        <ele>1660.33</ele>
        <time>2010-02-10T13:33:49Z</time>
      </trkpt>
      <trkpt lat="45.03253" lon="5.56808">
        <ele>1663.22</ele>
        <time>2010-02-10T13:33:52Z</time>
      </trkpt>
      <trkpt lat="45.03243" lon="5.56814">
        <ele>1666.58</ele>
        <time>2010-02-10T13:33:55Z</time>
      </trkpt>
      <trkpt lat="45.03234" lon="5.56825">
        <ele>1669.95</ele>
        <time>2010-02-10T13:33:58Z</time>
      </trkpt>
      <trkpt lat="45.03221" lon="5.56831">
        <ele>1673.79</ele>
        <time>2010-02-10T13:34:02Z</time>
      </trkpt>
      <trkpt lat="45.03208" lon="5.56839">
        <ele>1677.64</ele>
        <time>2010-02-10T13:34:06Z</time>
      </trkpt>
      <trkpt lat="45.03201" lon="5.56845">
        <ele>1681</ele>
        <time>2010-02-10T13:34:08Z</time>
      </trkpt>
      <trkpt lat="45.03191" lon="5.56852">
        <ele>1684.37</ele>
        <time>2010-02-10T13:34:11Z</time>
      </trkpt>
      <trkpt lat="45.03182" lon="5.56858">
        <ele>1688.21</ele>
        <time>2010-02-10T13:34:14Z</time>
      </trkpt>
      <trkpt lat="45.03172" lon="5.56863">
        <ele>1692.06</ele>
        <time>2010-02-10T13:34:17Z</time>
      </trkpt>
      <trkpt lat="45.03155" lon="5.56879">
        <ele>1695.42</ele>
        <time>2010-02-10T13:34:22Z</time>
      </trkpt>
      <trkpt lat="45.03141" lon="5.56886">
        <ele>1698.79</ele>
        <time>2010-02-10T13:34:26Z</time>
      </trkpt>
      <trkpt lat="45.03132" lon="5.56894">
        <ele>1702.15</ele>
        <time>2010-02-10T13:34:29Z</time>
      </trkpt>
      <trkpt lat="45.03122" lon="5.56899">
        <ele>1705.04</ele>
        <time>2010-02-10T13:34:32Z</time>
      </trkpt>
      <trkpt lat="45.03112" lon="5.56906">
        <ele>1708.88</ele>
        <time>2010-02-10T13:34:35Z</time>
      </trkpt>
      <trkpt lat="45.03102" lon="5.56914">
        <ele>1711.76</ele>
        <time>2010-02-10T13:34:38Z</time>
      </trkpt>
      <trkpt lat="45.03093" lon="5.56922">
        <ele>1715.61</ele>
        <time>2010-02-10T13:34:41Z</time>
      </trkpt>
      <trkpt lat="45.03083" lon="5.56929">
        <ele>1719.46</ele>
        <time>2010-02-10T13:34:44Z</time>
      </trkpt>
      <trkpt lat="45.03075" lon="5.56939">
        <ele>1722.82</ele>
        <time>2010-02-10T13:34:47Z</time>
      </trkpt>
      <trkpt lat="45.03064" lon="5.56944">
        <ele>1726.67</ele>
        <time>2010-02-10T13:34:50Z</time>
      </trkpt>
      <trkpt lat="45.03055" lon="5.56951">
        <ele>1730.51</ele>
        <time>2010-02-10T13:34:53Z</time>
      </trkpt>
      <trkpt lat="45.03045" lon="5.56955">
        <ele>1734.84</ele>
        <time>2010-02-10T13:34:56Z</time>
      </trkpt>
      <trkpt lat="45.03017" lon="5.56973">
        <ele>1736.76</ele>
        <time>2010-02-10T13:35:10Z</time>
      </trkpt>
      <trkpt lat="45.03023" lon="5.56974">
        <ele>1736.76</ele>
        <time>2010-02-10T13:35:29Z</time>
      </trkpt>
      <trkpt lat="45.02978" lon="5.56991">
        <ele>1738.2</ele>
        <time>2010-02-10T13:39:03Z</time>
      </trkpt>
      <trkpt lat="45.02983" lon="5.56974">
        <ele>1738.68</ele>
        <time>2010-02-10T13:39:16Z</time>
      </trkpt>
      <trkpt lat="45.02999" lon="5.56965">
        <ele>1739.64</ele>
        <time>2010-02-10T13:39:32Z</time>
      </trkpt>
      <trkpt lat="45.03001" lon="5.56953">
        <ele>1739.64</ele>
        <time>2010-02-10T13:40:04Z</time>
      </trkpt>
      <trkpt lat="45.03001" lon="5.56953">
        <ele>1739.64</ele>
        <time>2010-02-10T13:43:17Z</time>
      </trkpt>
      <trkpt lat="45.03001" lon="5.56953">
        <ele>1739.16</ele>
        <time>2010-02-10T13:51:01Z</time>
      </trkpt>
      <trkpt lat="45.03001" lon="5.56953">
        <ele>1736.28</ele>
        <time>2010-02-10T13:56:19Z</time>
      </trkpt>
      <trkpt lat="45.03001" lon="5.56953">
        <ele>1736.28</ele>
        <time>2010-02-10T13:56:20Z</time>
      </trkpt>
      <trkpt lat="45.03001" lon="5.56953">
        <ele>1742.05</ele>
        <time>2010-02-10T13:56:21Z</time>
      </trkpt>
      <trkpt lat="45.03001" lon="5.56953">
        <ele>1738.68</ele>
        <time>2010-02-10T13:56:27Z</time>
      </trkpt>
      <trkpt lat="45.03001" lon="5.56953">
        <ele>1743.97</ele>
        <time>2010-02-10T13:56:28Z</time>
      </trkpt>
      <trkpt lat="45.03001" lon="5.56953">
        <ele>1743.97</ele>
        <time>2010-02-10T13:56:29Z</time>
      </trkpt>
      <trkpt lat="45.03001" lon="5.56953">
        <ele>1740.6</ele>
        <time>2010-02-10T13:56:30Z</time>
      </trkpt>
      <trkpt lat="45.03001" lon="5.56953">
        <ele>1737.24</ele>
        <time>2010-02-10T13:56:55Z</time>
      </trkpt>
      <trkpt lat="45.03001" lon="5.56953">
        <ele>1739.64</ele>
        <time>2010-02-10T13:56:57Z</time>
      </trkpt>
      <trkpt lat="45.03001" lon="5.56953">
        <ele>1738.2</ele>
        <time>2010-02-10T13:57:18Z</time>
      </trkpt>
      <trkpt lat="45.03001" lon="5.56953">
        <ele>1742.05</ele>
        <time>2010-02-10T13:57:20Z</time>
      </trkpt>
      <trkpt lat="45.03001" lon="5.56953">
        <ele>1738.68</ele>
        <time>2010-02-10T13:57:57Z</time>
      </trkpt>
      <trkpt lat="45.03001" lon="5.56953">
        <ele>1741.57</ele>
        <time>2010-02-10T13:58:39Z</time>
      </trkpt>
      <trkpt lat="45.03001" lon="5.56953">
        <ele>1741.08</ele>
        <time>2010-02-10T13:58:41Z</time>
      </trkpt>
      <trkpt lat="45.03001" lon="5.56953">
        <ele>1738.2</ele>
        <time>2010-02-10T13:58:42Z</time>
      </trkpt>
      <trkpt lat="45.02984" lon="5.56968">
        <ele>1739.64</ele>
        <time>2010-02-10T13:58:47Z</time>
      </trkpt>
      <trkpt lat="45.02986" lon="5.56985">
        <ele>1740.6</ele>
        <time>2010-02-10T13:58:59Z</time>
      </trkpt>
      <trkpt lat="45.02979" lon="5.56987">
        <ele>1739.64</ele>
        <time>2010-02-10T13:59:02Z</time>
      </trkpt>
      <trkpt lat="45.02978" lon="5.56992">
        <ele>1740.12</ele>
        <time>2010-02-10T13:59:06Z</time>
      </trkpt>
      <trkpt lat="45.02982" lon="5.57009">
        <ele>1737.72</ele>
        <time>2010-02-10T13:59:18Z</time>
      </trkpt>
      <trkpt lat="45.02977" lon="5.57009">
        <ele>1737.72</ele>
        <time>2010-02-10T13:59:51Z</time>
      </trkpt>
      <trkpt lat="45.02977" lon="5.57009">
        <ele>1736.28</ele>
        <time>2010-02-10T14:00:07Z</time>
      </trkpt>
      <trkpt lat="45.02977" lon="5.57009">
        <ele>1736.76</ele>
        <time>2010-02-10T14:00:26Z</time>
      </trkpt>
      <trkpt lat="45.02977" lon="5.57009">
        <ele>1736.28</ele>
        <time>2010-02-10T14:00:31Z</time>
      </trkpt>
      <trkpt lat="45.02977" lon="5.57009">
        <ele>1739.16</ele>
        <time>2010-02-10T14:00:32Z</time>
      </trkpt>
      <trkpt lat="45.02977" lon="5.57009">
        <ele>1736.28</ele>
        <time>2010-02-10T14:00:38Z</time>
      </trkpt>
      <trkpt lat="45.02977" lon="5.57009">
        <ele>1739.16</ele>
        <time>2010-02-10T14:00:39Z</time>
      </trkpt>
      <trkpt lat="45.02977" lon="5.57009">
        <ele>1738.68</ele>
        <time>2010-02-10T14:00:43Z</time>
      </trkpt>
      <trkpt lat="45.02977" lon="5.57009">
        <ele>1738.2</ele>
        <time>2010-02-10T14:01:13Z</time>
      </trkpt>
      <trkpt lat="45.02977" lon="5.57009">
        <ele>1738.2</ele>
        <time>2010-02-10T14:01:17Z</time>
      </trkpt>
      <trkpt lat="45.02977" lon="5.57009">
        <ele>1735.8</ele>
        <time>2010-02-10T14:01:18Z</time>
      </trkpt>
      <trkpt lat="45.02977" lon="5.57009">
        <ele>1735.8</ele>
        <time>2010-02-10T14:01:19Z</time>
      </trkpt>
      <trkpt lat="45.02977" lon="5.57009">
        <ele>1737.72</ele>
        <time>2010-02-10T14:01:21Z</time>
      </trkpt>
      <trkpt lat="45.02977" lon="5.57009">
        <ele>1738.2</ele>
        <time>2010-02-10T14:01:22Z</time>
      </trkpt>
      <trkpt lat="45.02977" lon="5.57009">
        <ele>1736.28</ele>
        <time>2010-02-10T14:01:23Z</time>
      </trkpt>
      <trkpt lat="45.02977" lon="5.57009">
        <ele>1738.2</ele>
        <time>2010-02-10T14:01:24Z</time>
      </trkpt>
      <trkpt lat="45.02977" lon="5.57009">
        <ele>1735.8</ele>
        <time>2010-02-10T14:01:26Z</time>
      </trkpt>
      <trkpt lat="45.02977" lon="5.57009">
        <ele>1738.2</ele>
        <time>2010-02-10T14:01:28Z</time>
      </trkpt>
      <trkpt lat="45.02977" lon="5.57009">
        <ele>1736.28</ele>
        <time>2010-02-10T14:01:29Z</time>
      </trkpt>
      <trkpt lat="45.02977" lon="5.57009">
        <ele>1738.2</ele>
        <time>2010-02-10T14:01:31Z</time>
      </trkpt>
      <trkpt lat="45.02977" lon="5.57009">
        <ele>1737.24</ele>
        <time>2010-02-10T14:01:32Z</time>
      </trkpt>
      <trkpt lat="45.02977" lon="5.57009">
        <ele>1736.28</ele>
        <time>2010-02-10T14:01:36Z</time>
      </trkpt>
      <trkpt lat="45.02977" lon="5.57009">
        <ele>1738.2</ele>
        <time>2010-02-10T14:01:37Z</time>
      </trkpt>
      <trkpt lat="45.02977" lon="5.57009">
        <ele>1738.2</ele>
        <time>2010-02-10T14:01:40Z</time>
      </trkpt>
      <trkpt lat="45.02977" lon="5.57009">
        <ele>1738.2</ele>
        <time>2010-02-10T14:01:42Z</time>
      </trkpt>
      <trkpt lat="45.02977" lon="5.57009">
        <ele>1738.2</ele>
        <time>2010-02-10T14:01:43Z</time>
      </trkpt>
      <trkpt lat="45.02977" lon="5.57009">
        <ele>1736.28</ele>
        <time>2010-02-10T14:01:47Z</time>
      </trkpt>
      <trkpt lat="45.02977" lon="5.57009">
        <ele>1737.72</ele>
        <time>2010-02-10T14:01:48Z</time>
      </trkpt>
      <trkpt lat="45.02977" lon="5.57009">
        <ele>1736.28</ele>
        <time>2010-02-10T14:01:50Z</time>
      </trkpt>
      <trkpt lat="45.02977" lon="5.57009">
        <ele>1736.28</ele>
        <time>2010-02-10T14:01:52Z</time>
      </trkpt>
      <trkpt lat="45.02977" lon="5.57009">
        <ele>1735.8</ele>
        <time>2010-02-10T14:02:19Z</time>
      </trkpt>
      <trkpt lat="45.02977" lon="5.57009">
        <ele>1738.2</ele>
        <time>2010-02-10T14:02:33Z</time>
      </trkpt>
      <trkpt lat="45.02973" lon="5.57007">
        <ele>1738.2</ele>
        <time>2010-02-10T14:02:40Z</time>
      </trkpt>
      <trkpt lat="45.02984" lon="5.57014">
        <ele>1737.72</ele>
        <time>2010-02-10T14:02:51Z</time>
      </trkpt>
      <trkpt lat="45.02995" lon="5.57026">
        <ele>1735.8</ele>
        <time>2010-02-10T14:03:00Z</time>
      </trkpt>
      <trkpt lat="45.03008" lon="5.5703">
        <ele>1730.51</ele>
        <time>2010-02-10T14:03:03Z</time>
      </trkpt>
      <trkpt lat="45.03014" lon="5.57028">
        <ele>1727.63</ele>
        <time>2010-02-10T14:03:04Z</time>
      </trkpt>
      <trkpt lat="45.03044" lon="5.5701">
        <ele>1721.86</ele>
        <time>2010-02-10T14:03:08Z</time>
      </trkpt>
      <trkpt lat="45.03063" lon="5.56997">
        <ele>1717.53</ele>
        <time>2010-02-10T14:03:14Z</time>
      </trkpt>
      <trkpt lat="45.03069" lon="5.56997">
        <ele>1713.69</ele>
        <time>2010-02-10T14:03:15Z</time>
      </trkpt>
      <trkpt lat="45.03076" lon="5.56996">
        <ele>1710.32</ele>
        <time>2010-02-10T14:03:16Z</time>
      </trkpt>
      <trkpt lat="45.03092" lon="5.56994">
        <ele>1703.59</ele>
        <time>2010-02-10T14:03:18Z</time>
      </trkpt>
      <trkpt lat="45.03109" lon="5.56996">
        <ele>1696.38</ele>
        <time>2010-02-10T14:03:20Z</time>
      </trkpt>
      <trkpt lat="45.03118" lon="5.56998">
        <ele>1693.02</ele>
        <time>2010-02-10T14:03:21Z</time>
      </trkpt>
      <trkpt lat="45.03127" lon="5.57">
        <ele>1689.65</ele>
        <time>2010-02-10T14:03:22Z</time>
      </trkpt>
      <trkpt lat="45.03136" lon="5.57001">
        <ele>1685.33</ele>
        <time>2010-02-10T14:03:23Z</time>
      </trkpt>
      <trkpt lat="45.03168" lon="5.57007">
        <ele>1671.39</ele>
        <time>2010-02-10T14:03:26Z</time>
      </trkpt>
      <trkpt lat="45.03179" lon="5.57007">
        <ele>1668.02</ele>
        <time>2010-02-10T14:03:27Z</time>
      </trkpt>
      <trkpt lat="45.0319" lon="5.57008">
        <ele>1664.18</ele>
        <time>2010-02-10T14:03:28Z</time>
      </trkpt>
      <trkpt lat="45.03201" lon="5.57012">
        <ele>1657.93</ele>
        <time>2010-02-10T14:03:29Z</time>
      </trkpt>
      <trkpt lat="45.03211" lon="5.57012">
        <ele>1653.6</ele>
        <time>2010-02-10T14:03:30Z</time>
      </trkpt>
      <trkpt lat="45.03222" lon="5.57013">
        <ele>1649.28</ele>
        <time>2010-02-10T14:03:31Z</time>
      </trkpt>
      <trkpt lat="45.03233" lon="5.57016">
        <ele>1644.47</ele>
        <time>2010-02-10T14:03:32Z</time>
      </trkpt>
      <trkpt lat="45.03257" lon="5.57017">
        <ele>1635.82</ele>
        <time>2010-02-10T14:03:34Z</time>
      </trkpt>
      <trkpt lat="45.03268" lon="5.57024">
        <ele>1631.98</ele>
        <time>2010-02-10T14:03:35Z</time>
      </trkpt>
      <trkpt lat="45.03278" lon="5.57029">
        <ele>1628.13</ele>
        <time>2010-02-10T14:03:36Z</time>
      </trkpt>
      <trkpt lat="45.03337" lon="5.57042">
        <ele>1623.8</ele>
        <time>2010-02-10T14:03:43Z</time>
      </trkpt>
      <trkpt lat="45.03358" lon="5.57046">
        <ele>1621.88</ele>
        <time>2010-02-10T14:03:46Z</time>
      </trkpt>
      <trkpt lat="45.03379" lon="5.57049">
        <ele>1619</ele>
        <time>2010-02-10T14:03:49Z</time>
      </trkpt>
      <trkpt lat="45.03395" lon="5.5705">
        <ele>1615.15</ele>
        <time>2010-02-10T14:03:51Z</time>
      </trkpt>
      <trkpt lat="45.03412" lon="5.57052">
        <ele>1610.35</ele>
        <time>2010-02-10T14:03:53Z</time>
      </trkpt>
      <trkpt lat="45.03431" lon="5.57053">
        <ele>1606.98</ele>
        <time>2010-02-10T14:03:55Z</time>
      </trkpt>
      <trkpt lat="45.0345" lon="5.57054">
        <ele>1603.14</ele>
        <time>2010-02-10T14:03:57Z</time>
      </trkpt>
      <trkpt lat="45.03477" lon="5.5705">
        <ele>1598.81</ele>
        <time>2010-02-10T14:04:00Z</time>
      </trkpt>
      <trkpt lat="45.03495" lon="5.57049">
        <ele>1594.96</ele>
        <time>2010-02-10T14:04:02Z</time>
      </trkpt>
      <trkpt lat="45.03503" lon="5.57049">
        <ele>1594.96</ele>
        <time>2010-02-10T14:04:03Z</time>
      </trkpt>
      <trkpt lat="45.03521" lon="5.57049">
        <ele>1591.12</ele>
        <time>2010-02-10T14:04:05Z</time>
      </trkpt>
      <trkpt lat="45.03547" lon="5.57046">
        <ele>1586.79</ele>
        <time>2010-02-10T14:04:08Z</time>
      </trkpt>
      <trkpt lat="45.03564" lon="5.57049">
        <ele>1585.35</ele>
        <time>2010-02-10T14:04:10Z</time>
      </trkpt>
      <trkpt lat="45.03594" lon="5.57059">
        <ele>1581.03</ele>
        <time>2010-02-10T14:04:14Z</time>
      </trkpt>
      <trkpt lat="45.03602" lon="5.57061">
        <ele>1579.58</ele>
        <time>2010-02-10T14:04:15Z</time>
      </trkpt>
      <trkpt lat="45.03628" lon="5.57061">
        <ele>1573.82</ele>
        <time>2010-02-10T14:04:18Z</time>
      </trkpt>
      <trkpt lat="45.03637" lon="5.57062">
        <ele>1570.45</ele>
        <time>2010-02-10T14:04:19Z</time>
      </trkpt>
      <trkpt lat="45.03669" lon="5.57056">
        <ele>1561.8</ele>
        <time>2010-02-10T14:04:22Z</time>
      </trkpt>
      <trkpt lat="45.03701" lon="5.57046">
        <ele>1553.15</ele>
        <time>2010-02-10T14:04:25Z</time>
      </trkpt>
      <trkpt lat="45.03722" lon="5.57044">
        <ele>1548.34</ele>
        <time>2010-02-10T14:04:27Z</time>
      </trkpt>
      <trkpt lat="45.03755" lon="5.57057">
        <ele>1531.52</ele>
        <time>2010-02-10T14:04:30Z</time>
      </trkpt>
      <trkpt lat="45.03767" lon="5.57057">
        <ele>1532</ele>
        <time>2010-02-10T14:04:31Z</time>
      </trkpt>
      <trkpt lat="45.03779" lon="5.57056">
        <ele>1528.15</ele>
        <time>2010-02-10T14:04:32Z</time>
      </trkpt>
      <trkpt lat="45.03818" lon="5.57063">
        <ele>1524.31</ele>
        <time>2010-02-10T14:04:36Z</time>
      </trkpt>
      <trkpt lat="45.03826" lon="5.57065">
        <ele>1524.79</ele>
        <time>2010-02-10T14:04:37Z</time>
      </trkpt>
      <trkpt lat="45.03856" lon="5.57058">
        <ele>1521.9</ele>
        <time>2010-02-10T14:04:41Z</time>
      </trkpt>
      <trkpt lat="45.03871" lon="5.5705">
        <ele>1520.46</ele>
        <time>2010-02-10T14:04:43Z</time>
      </trkpt>
      <trkpt lat="45.03893" lon="5.57044">
        <ele>1519.02</ele>
        <time>2010-02-10T14:04:47Z</time>
      </trkpt>
      <trkpt lat="45.03908" lon="5.57057">
        <ele>1519.02</ele>
        <time>2010-02-10T14:04:54Z</time>
      </trkpt>
      <trkpt lat="45.03907" lon="5.57058">
        <ele>1519.02</ele>
        <time>2010-02-10T14:04:55Z</time>
      </trkpt>
      <trkpt lat="45.03903" lon="5.57063">
        <ele>1519.02</ele>
        <time>2010-02-10T14:05:16Z</time>
      </trkpt>
      <trkpt lat="45.03901" lon="5.57064">
        <ele>1518.54</ele>
        <time>2010-02-10T14:05:24Z</time>
      </trkpt>
      <trkpt lat="45.03863" lon="5.57064">
        <ele>1520.94</ele>
        <time>2010-02-10T14:05:35Z</time>
      </trkpt>
      <trkpt lat="45.03856" lon="5.57063">
        <ele>1524.79</ele>
        <time>2010-02-10T14:05:37Z</time>
      </trkpt>
      <trkpt lat="45.03846" lon="5.57062">
        <ele>1528.63</ele>
        <time>2010-02-10T14:05:40Z</time>
      </trkpt>
      <trkpt lat="45.03842" lon="5.57063">
        <ele>1528.63</ele>
        <time>2010-02-10T14:05:41Z</time>
      </trkpt>
      <trkpt lat="45.03827" lon="5.57062">
        <ele>1531.52</ele>
        <time>2010-02-10T14:05:45Z</time>
      </trkpt>
      <trkpt lat="45.03812" lon="5.57061">
        <ele>1535.84</ele>
        <time>2010-02-10T14:05:49Z</time>
      </trkpt>
      <trkpt lat="45.03797" lon="5.57061">
        <ele>1539.69</ele>
        <time>2010-02-10T14:05:54Z</time>
      </trkpt>
      <trkpt lat="45.03784" lon="5.5706">
        <ele>1543.05</ele>
        <time>2010-02-10T14:05:57Z</time>
      </trkpt>
      <trkpt lat="45.0377" lon="5.57061">
        <ele>1546.42</ele>
        <time>2010-02-10T14:06:01Z</time>
      </trkpt>
      <trkpt lat="45.03768" lon="5.57063">
        <ele>1546.42</ele>
        <time>2010-02-10T14:06:02Z</time>
      </trkpt>
      <trkpt lat="45.03747" lon="5.57061">
        <ele>1551.71</ele>
        <time>2010-02-10T14:06:08Z</time>
      </trkpt>
      <trkpt lat="45.03745" lon="5.5706">
        <ele>1551.22</ele>
        <time>2010-02-10T14:06:09Z</time>
      </trkpt>
      <trkpt lat="45.03727" lon="5.57063">
        <ele>1554.59</ele>
        <time>2010-02-10T14:06:14Z</time>
      </trkpt>
      <trkpt lat="45.03716" lon="5.57063">
        <ele>1557.47</ele>
        <time>2010-02-10T14:06:17Z</time>
      </trkpt>
      <trkpt lat="45.03701" lon="5.57063">
        <ele>1561.32</ele>
        <time>2010-02-10T14:06:21Z</time>
      </trkpt>
      <trkpt lat="45.03687" lon="5.57063">
        <ele>1564.68</ele>
        <time>2010-02-10T14:06:25Z</time>
      </trkpt>
      <trkpt lat="45.03678" lon="5.57063">
        <ele>1568.53</ele>
        <time>2010-02-10T14:06:28Z</time>
      </trkpt>
      <trkpt lat="45.03665" lon="5.57063">
        <ele>1572.37</ele>
        <time>2010-02-10T14:06:31Z</time>
      </trkpt>
      <trkpt lat="45.03648" lon="5.57063">
        <ele>1575.74</ele>
        <time>2010-02-10T14:06:36Z</time>
      </trkpt>
      <trkpt lat="45.03634" lon="5.57063">
        <ele>1579.1</ele>
        <time>2010-02-10T14:06:40Z</time>
      </trkpt>
      <trkpt lat="45.03631" lon="5.57064">
        <ele>1579.1</ele>
        <time>2010-02-10T14:06:41Z</time>
      </trkpt>
      <trkpt lat="45.03619" lon="5.57062">
        <ele>1581.99</ele>
        <time>2010-02-10T14:06:44Z</time>
      </trkpt>
      <trkpt lat="45.03606" lon="5.57062">
        <ele>1585.83</ele>
        <time>2010-02-10T14:06:48Z</time>
      </trkpt>
      <trkpt lat="45.03593" lon="5.57065">
        <ele>1589.68</ele>
        <time>2010-02-10T14:06:52Z</time>
      </trkpt>
      <trkpt lat="45.03583" lon="5.57067">
        <ele>1592.56</ele>
        <time>2010-02-10T14:06:55Z</time>
      </trkpt>
      <trkpt lat="45.03574" lon="5.57063">
        <ele>1593.52</ele>
        <time>2010-02-10T14:06:57Z</time>
      </trkpt>
      <trkpt lat="45.03554" lon="5.57061">
        <ele>1595.93</ele>
        <time>2010-02-10T14:07:03Z</time>
      </trkpt>
      <trkpt lat="45.03532" lon="5.57062">
        <ele>1599.29</ele>
        <time>2010-02-10T14:07:09Z</time>
      </trkpt>
      <trkpt lat="45.03528" lon="5.57065">
        <ele>1599.29</ele>
        <time>2010-02-10T14:07:10Z</time>
      </trkpt>
      <trkpt lat="45.03516" lon="5.57063">
        <ele>1602.66</ele>
        <time>2010-02-10T14:07:14Z</time>
      </trkpt>
      <trkpt lat="45.03508" lon="5.57069">
        <ele>1603.14</ele>
        <time>2010-02-10T14:07:16Z</time>
      </trkpt>
      <trkpt lat="45.03492" lon="5.57064">
        <ele>1606.98</ele>
        <time>2010-02-10T14:07:20Z</time>
      </trkpt>
      <trkpt lat="45.03472" lon="5.57064">
        <ele>1609.86</ele>
        <time>2010-02-10T14:07:26Z</time>
      </trkpt>
      <trkpt lat="45.03449" lon="5.57064">
        <ele>1612.75</ele>
        <time>2010-02-10T14:07:32Z</time>
      </trkpt>
      <trkpt lat="45.03429" lon="5.57064">
        <ele>1615.63</ele>
        <time>2010-02-10T14:07:38Z</time>
      </trkpt>
      <trkpt lat="45.03415" lon="5.57064">
        <ele>1619</ele>
        <time>2010-02-10T14:07:42Z</time>
      </trkpt>
      <trkpt lat="45.03399" lon="5.57063">
        <ele>1624.77</ele>
        <time>2010-02-10T14:07:46Z</time>
      </trkpt>
      <trkpt lat="45.03397" lon="5.57065">
        <ele>1623.32</ele>
        <time>2010-02-10T14:07:47Z</time>
      </trkpt>
      <trkpt lat="45.03384" lon="5.57066">
        <ele>1625.73</ele>
        <time>2010-02-10T14:07:51Z</time>
      </trkpt>
      <trkpt lat="45.03364" lon="5.57063">
        <ele>1629.09</ele>
        <time>2010-02-10T14:07:56Z</time>
      </trkpt>
      <trkpt lat="45.03361" lon="5.57063">
        <ele>1629.09</ele>
        <time>2010-02-10T14:07:57Z</time>
      </trkpt>
      <trkpt lat="45.03344" lon="5.57069">
        <ele>1632.46</ele>
        <time>2010-02-10T14:08:03Z</time>
      </trkpt>
      <trkpt lat="45.03323" lon="5.57064">
        <ele>1636.3</ele>
        <time>2010-02-10T14:08:08Z</time>
      </trkpt>
      <trkpt lat="45.03308" lon="5.57064">
        <ele>1639.67</ele>
        <time>2010-02-10T14:08:12Z</time>
      </trkpt>
      <trkpt lat="45.03306" lon="5.57063">
        <ele>1640.15</ele>
        <time>2010-02-10T14:08:13Z</time>
      </trkpt>
      <trkpt lat="45.03288" lon="5.57064">
        <ele>1644.47</ele>
        <time>2010-02-10T14:08:18Z</time>
      </trkpt>
      <trkpt lat="45.03285" lon="5.57063">
        <ele>1644.47</ele>
        <time>2010-02-10T14:08:19Z</time>
      </trkpt>
      <trkpt lat="45.03274" lon="5.57064">
        <ele>1646.88</ele>
        <time>2010-02-10T14:08:22Z</time>
      </trkpt>
      <trkpt lat="45.03253" lon="5.57063">
        <ele>1649.76</ele>
        <time>2010-02-10T14:08:28Z</time>
      </trkpt>
      <trkpt lat="45.0323" lon="5.57065">
        <ele>1654.57</ele>
        <time>2010-02-10T14:08:34Z</time>
      </trkpt>
      <trkpt lat="45.03224" lon="5.57064">
        <ele>1655.53</ele>
        <time>2010-02-10T14:08:36Z</time>
      </trkpt>
      <trkpt lat="45.03217" lon="5.57066">
        <ele>1656.49</ele>
        <time>2010-02-10T14:08:38Z</time>
      </trkpt>
      <trkpt lat="45.03201" lon="5.57063">
        <ele>1660.33</ele>
        <time>2010-02-10T14:08:42Z</time>
      </trkpt>
      <trkpt lat="45.03194" lon="5.57063">
        <ele>1661.78</ele>
        <time>2010-02-10T14:08:44Z</time>
      </trkpt>
      <trkpt lat="45.03187" lon="5.57063">
        <ele>1664.18</ele>
        <time>2010-02-10T14:08:46Z</time>
      </trkpt>
      <trkpt lat="45.03173" lon="5.57061">
        <ele>1668.02</ele>
        <time>2010-02-10T14:08:50Z</time>
      </trkpt>
      <trkpt lat="45.03162" lon="5.57061">
        <ele>1671.39</ele>
        <time>2010-02-10T14:08:53Z</time>
      </trkpt>
      <trkpt lat="45.03148" lon="5.57062">
        <ele>1675.23</ele>
        <time>2010-02-10T14:08:57Z</time>
      </trkpt>
      <trkpt lat="45.03139" lon="5.57063">
        <ele>1679.08</ele>
        <time>2010-02-10T14:09:00Z</time>
      </trkpt>
      <trkpt lat="45.03125" lon="5.57064">
        <ele>1683.41</ele>
        <time>2010-02-10T14:09:04Z</time>
      </trkpt>
      <trkpt lat="45.03113" lon="5.57063">
        <ele>1687.25</ele>
        <time>2010-02-10T14:09:07Z</time>
      </trkpt>
      <trkpt lat="45.03107" lon="5.57064">
        <ele>1690.14</ele>
        <time>2010-02-10T14:09:09Z</time>
      </trkpt>
      <trkpt lat="45.03098" lon="5.57063">
        <ele>1693.98</ele>
        <time>2010-02-10T14:09:12Z</time>
      </trkpt>
      <trkpt lat="45.03093" lon="5.57061">
        <ele>1697.34</ele>
        <time>2010-02-10T14:09:14Z</time>
      </trkpt>
      <trkpt lat="45.03086" lon="5.57062">
        <ele>1700.23</ele>
        <time>2010-02-10T14:09:16Z</time>
      </trkpt>
      <trkpt lat="45.03079" lon="5.57062">
        <ele>1701.67</ele>
        <time>2010-02-10T14:09:18Z</time>
      </trkpt>
      <trkpt lat="45.03068" lon="5.57062">
        <ele>1705.04</ele>
        <time>2010-02-10T14:09:21Z</time>
      </trkpt>
      <trkpt lat="45.03054" lon="5.57063">
        <ele>1708.4</ele>
        <time>2010-02-10T14:09:25Z</time>
      </trkpt>
      <trkpt lat="45.0304" lon="5.57063">
        <ele>1711.76</ele>
        <time>2010-02-10T14:09:29Z</time>
      </trkpt>
      <trkpt lat="45.03029" lon="5.57063">
        <ele>1715.13</ele>
        <time>2010-02-10T14:09:32Z</time>
      </trkpt>
      <trkpt lat="45.03019" lon="5.57063">
        <ele>1718.49</ele>
        <time>2010-02-10T14:09:35Z</time>
      </trkpt>
      <trkpt lat="45.03012" lon="5.57063">
        <ele>1720.42</ele>
        <time>2010-02-10T14:09:37Z</time>
      </trkpt>
      <trkpt lat="45.03001" lon="5.57063">
        <ele>1724.74</ele>
        <time>2010-02-10T14:09:40Z</time>
      </trkpt>
      <trkpt lat="45.0299" lon="5.57063">
        <ele>1728.59</ele>
        <time>2010-02-10T14:09:43Z</time>
      </trkpt>
      <trkpt lat="45.02987" lon="5.57063">
        <ele>1728.11</ele>
        <time>2010-02-10T14:09:44Z</time>
      </trkpt>
      <trkpt lat="45.0298" lon="5.57063">
        <ele>1730.99</ele>
        <time>2010-02-10T14:09:46Z</time>
      </trkpt>
      <trkpt lat="45.02963" lon="5.57065">
        <ele>1733.88</ele>
        <time>2010-02-10T14:09:51Z</time>
      </trkpt>
      <trkpt lat="45.02954" lon="5.57064">
        <ele>1737.24</ele>
        <time>2010-02-10T14:09:53Z</time>
      </trkpt>
      <trkpt lat="45.0294" lon="5.57063">
        <ele>1740.6</ele>
        <time>2010-02-10T14:09:57Z</time>
      </trkpt>
      <trkpt lat="45.02933" lon="5.57069">
        <ele>1743.97</ele>
        <time>2010-02-10T14:10:00Z</time>
      </trkpt>
      <trkpt lat="45.02917" lon="5.57067">
        <ele>1747.81</ele>
        <time>2010-02-10T14:10:04Z</time>
      </trkpt>
      <trkpt lat="45.02904" lon="5.57064">
        <ele>1751.18</ele>
        <time>2010-02-10T14:10:07Z</time>
      </trkpt>
      <trkpt lat="45.02896" lon="5.57065">
        <ele>1754.54</ele>
        <time>2010-02-10T14:10:10Z</time>
      </trkpt>
      <trkpt lat="45.02886" lon="5.57067">
        <ele>1759.35</ele>
        <time>2010-02-10T14:10:13Z</time>
      </trkpt>
      <trkpt lat="45.02882" lon="5.57064">
        <ele>1759.83</ele>
        <time>2010-02-10T14:10:14Z</time>
      </trkpt>
      <trkpt lat="45.02871" lon="5.57063">
        <ele>1763.2</ele>
        <time>2010-02-10T14:10:17Z</time>
      </trkpt>
      <trkpt lat="45.02854" lon="5.57065">
        <ele>1767.52</ele>
        <time>2010-02-10T14:10:22Z</time>
      </trkpt>
      <trkpt lat="45.0284" lon="5.57064">
        <ele>1770.89</ele>
        <time>2010-02-10T14:10:26Z</time>
      </trkpt>
      <trkpt lat="45.02824" lon="5.57062">
        <ele>1774.25</ele>
        <time>2010-02-10T14:10:30Z</time>
      </trkpt>
      <trkpt lat="45.02815" lon="5.57065">
        <ele>1778.58</ele>
        <time>2010-02-10T14:10:33Z</time>
      </trkpt>
      <trkpt lat="45.02806" lon="5.57066">
        <ele>1781.94</ele>
        <time>2010-02-10T14:10:36Z</time>
      </trkpt>
      <trkpt lat="45.02791" lon="5.57064">
        <ele>1786.75</ele>
        <time>2010-02-10T14:10:40Z</time>
      </trkpt>
      <trkpt lat="45.0278" lon="5.57066">
        <ele>1790.11</ele>
        <time>2010-02-10T14:10:43Z</time>
      </trkpt>
      <trkpt lat="45.02771" lon="5.57067">
        <ele>1793</ele>
        <time>2010-02-10T14:10:46Z</time>
      </trkpt>
      <trkpt lat="45.02761" lon="5.57065">
        <ele>1796.36</ele>
        <time>2010-02-10T14:10:49Z</time>
      </trkpt>
      <trkpt lat="45.0275" lon="5.57067">
        <ele>1799.24</ele>
        <time>2010-02-10T14:10:52Z</time>
      </trkpt>
      <trkpt lat="45.02736" lon="5.57066">
        <ele>1803.57</ele>
        <time>2010-02-10T14:10:56Z</time>
      </trkpt>
      <trkpt lat="45.02726" lon="5.57065">
        <ele>1806.94</ele>
        <time>2010-02-10T14:10:59Z</time>
      </trkpt>
      <trkpt lat="45.02712" lon="5.57068">
        <ele>1810.3</ele>
        <time>2010-02-10T14:11:03Z</time>
      </trkpt>
      <trkpt lat="45.02699" lon="5.57064">
        <ele>1813.66</ele>
        <time>2010-02-10T14:11:06Z</time>
      </trkpt>
      <trkpt lat="45.02695" lon="5.57064">
        <ele>1817.51</ele>
        <time>2010-02-10T14:11:08Z</time>
      </trkpt>
      <trkpt lat="45.02692" lon="5.57066">
        <ele>1817.51</ele>
        <time>2010-02-10T14:11:09Z</time>
      </trkpt>
      <trkpt lat="45.02683" lon="5.57065">
        <ele>1820.87</ele>
        <time>2010-02-10T14:11:11Z</time>
      </trkpt>
      <trkpt lat="45.02681" lon="5.57067">
        <ele>1820.87</ele>
        <time>2010-02-10T14:11:12Z</time>
      </trkpt>
      <trkpt lat="45.02674" lon="5.57067">
        <ele>1824.24</ele>
        <time>2010-02-10T14:11:14Z</time>
      </trkpt>
      <trkpt lat="45.02663" lon="5.57066">
        <ele>1828.56</ele>
        <time>2010-02-10T14:11:17Z</time>
      </trkpt>
      <trkpt lat="45.02654" lon="5.57065">
        <ele>1832.41</ele>
        <time>2010-02-10T14:11:20Z</time>
      </trkpt>
      <trkpt lat="45.02644" lon="5.57066">
        <ele>1835.77</ele>
        <time>2010-02-10T14:11:23Z</time>
      </trkpt>
      <trkpt lat="45.02629" lon="5.57068">
        <ele>1840.1</ele>
        <time>2010-02-10T14:11:27Z</time>
      </trkpt>
      <trkpt lat="45.02615" lon="5.57067">
        <ele>1843.47</ele>
        <time>2010-02-10T14:11:31Z</time>
      </trkpt>
      <trkpt lat="45.02607" lon="5.57066">
        <ele>1847.31</ele>
        <time>2010-02-10T14:11:33Z</time>
      </trkpt>
      <trkpt lat="45.02605" lon="5.57069">
        <ele>1846.83</ele>
        <time>2010-02-10T14:11:34Z</time>
      </trkpt>
      <trkpt lat="45.02595" lon="5.57066">
        <ele>1851.16</ele>
        <time>2010-02-10T14:11:37Z</time>
      </trkpt>
      <trkpt lat="45.02582" lon="5.57064">
        <ele>1854.04</ele>
        <time>2010-02-10T14:11:40Z</time>
      </trkpt>
      <trkpt lat="45.02575" lon="5.57063">
        <ele>1857.89</ele>
        <time>2010-02-10T14:11:42Z</time>
      </trkpt>
      <trkpt lat="45.02571" lon="5.57064">
        <ele>1857.89</ele>
        <time>2010-02-10T14:11:43Z</time>
      </trkpt>
      <trkpt lat="45.02565" lon="5.57066">
        <ele>1862.21</ele>
        <time>2010-02-10T14:11:46Z</time>
      </trkpt>
      <trkpt lat="45.02553" lon="5.57067">
        <ele>1866.06</ele>
        <time>2010-02-10T14:11:49Z</time>
      </trkpt>
      <trkpt lat="45.02545" lon="5.57066">
        <ele>1868.94</ele>
        <time>2010-02-10T14:11:51Z</time>
      </trkpt>
      <trkpt lat="45.02534" lon="5.57065">
        <ele>1872.79</ele>
        <time>2010-02-10T14:11:54Z</time>
      </trkpt>
      <trkpt lat="45.02517" lon="5.57066">
        <ele>1877.11</ele>
        <time>2010-02-10T14:12:00Z</time>
      </trkpt>
      <trkpt lat="45.02503" lon="5.57066">
        <ele>1880.48</ele>
        <time>2010-02-10T14:12:03Z</time>
      </trkpt>
      <trkpt lat="45.0249" lon="5.57068">
        <ele>1884.8</ele>
        <time>2010-02-10T14:12:07Z</time>
      </trkpt>
      <trkpt lat="45.0248" lon="5.57068">
        <ele>1888.17</ele>
        <time>2010-02-10T14:12:10Z</time>
      </trkpt>
      <trkpt lat="45.02465" lon="5.57066">
        <ele>1892.49</ele>
        <time>2010-02-10T14:12:14Z</time>
      </trkpt>
      <trkpt lat="45.02455" lon="5.57066">
        <ele>1896.34</ele>
        <time>2010-02-10T14:12:17Z</time>
      </trkpt>
      <trkpt lat="45.02451" lon="5.57066">
        <ele>1895.38</ele>
        <time>2010-02-10T14:12:18Z</time>
      </trkpt>
      <trkpt lat="45.02442" lon="5.57068">
        <ele>1899.22</ele>
        <time>2010-02-10T14:12:21Z</time>
      </trkpt>
      <trkpt lat="45.02428" lon="5.57068">
        <ele>1902.11</ele>
        <time>2010-02-10T14:12:25Z</time>
      </trkpt>
      <trkpt lat="45.02422" lon="5.57066">
        <ele>1902.11</ele>
        <time>2010-02-10T14:12:26Z</time>
      </trkpt>
      <trkpt lat="45.02414" lon="5.57068">
        <ele>1905.47</ele>
        <time>2010-02-10T14:12:29Z</time>
      </trkpt>
      <trkpt lat="45.02404" lon="5.57067">
        <ele>1907.39</ele>
        <time>2010-02-10T14:12:32Z</time>
      </trkpt>
      <trkpt lat="45.02395" lon="5.57066">
        <ele>1910.76</ele>
        <time>2010-02-10T14:12:34Z</time>
      </trkpt>
      <trkpt lat="45.02381" lon="5.57066">
        <ele>1914.12</ele>
        <time>2010-02-10T14:12:38Z</time>
      </trkpt>
      <trkpt lat="45.02371" lon="5.57067">
        <ele>1917.01</ele>
        <time>2010-02-10T14:12:41Z</time>
      </trkpt>
      <trkpt lat="45.02361" lon="5.57068">
        <ele>1920.85</ele>
        <time>2010-02-10T14:12:44Z</time>
      </trkpt>
      <trkpt lat="45.02347" lon="5.57065">
        <ele>1924.7</ele>
        <time>2010-02-10T14:12:48Z</time>
      </trkpt>
      <trkpt lat="45.02335" lon="5.57068">
        <ele>1927.58</ele>
        <time>2010-02-10T14:12:51Z</time>
      </trkpt>
      <trkpt lat="45.02329" lon="5.57067">
        <ele>1931.43</ele>
        <time>2010-02-10T14:12:53Z</time>
      </trkpt>
      <trkpt lat="45.02319" lon="5.57068">
        <ele>1932.39</ele>
        <time>2010-02-10T14:12:56Z</time>
      </trkpt>
      <trkpt lat="45.02301" lon="5.57068">
        <ele>1935.75</ele>
        <time>2010-02-10T14:13:01Z</time>
      </trkpt>
      <trkpt lat="45.02283" lon="5.57069">
        <ele>1939.12</ele>
        <time>2010-02-10T14:13:06Z</time>
      </trkpt>
      <trkpt lat="45.02266" lon="5.5707">
        <ele>1942</ele>
        <time>2010-02-10T14:13:11Z</time>
      </trkpt>
      <trkpt lat="45.02246" lon="5.57066">
        <ele>1941.52</ele>
        <time>2010-02-10T14:13:19Z</time>
      </trkpt>
      <trkpt lat="45.02244" lon="5.57065">
        <ele>1939.6</ele>
        <time>2010-02-10T14:13:21Z</time>
      </trkpt>
      <trkpt lat="45.02245" lon="5.57067">
        <ele>1946.33</ele>
        <time>2010-02-10T14:13:22Z</time>
      </trkpt>
      <trkpt lat="45.02244" lon="5.57066">
        <ele>1942</ele>
        <time>2010-02-10T14:13:23Z</time>
      </trkpt>
      <trkpt lat="45.02239" lon="5.57067">
        <ele>1941.52</ele>
        <time>2010-02-10T14:13:49Z</time>
      </trkpt>
      <trkpt lat="45.02237" lon="5.57065">
        <ele>1939.6</ele>
        <time>2010-02-10T14:14:19Z</time>
      </trkpt>
      <trkpt lat="45.02239" lon="5.57064">
        <ele>1943.44</ele>
        <time>2010-02-10T14:14:31Z</time>
      </trkpt>
      <trkpt lat="45.02239" lon="5.57064">
        <ele>1937.19</ele>
        <time>2010-02-10T14:14:39Z</time>
      </trkpt>
      <trkpt lat="45.02239" lon="5.57064">
        <ele>1942.96</ele>
        <time>2010-02-10T14:14:40Z</time>
      </trkpt>
      <trkpt lat="45.02239" lon="5.57064">
        <ele>1939.12</ele>
        <time>2010-02-10T14:14:43Z</time>
      </trkpt>
      <trkpt lat="45.02239" lon="5.57064">
        <ele>1943.44</ele>
        <time>2010-02-10T14:14:45Z</time>
      </trkpt>
      <trkpt lat="45.02239" lon="5.57064">
        <ele>1941.04</ele>
        <time>2010-02-10T14:14:46Z</time>
      </trkpt>
      <trkpt lat="45.02242" lon="5.57061">
        <ele>1940.08</ele>
        <time>2010-02-10T14:15:30Z</time>
      </trkpt>
      <trkpt lat="45.02246" lon="5.57055">
        <ele>1937.19</ele>
        <time>2010-02-10T14:15:33Z</time>
      </trkpt>
      <trkpt lat="45.02278" lon="5.5705">
        <ele>1933.83</ele>
        <time>2010-02-10T14:15:43Z</time>
      </trkpt>
      <trkpt lat="45.02291" lon="5.57051">
        <ele>1930.46</ele>
        <time>2010-02-10T14:15:45Z</time>
      </trkpt>
      <trkpt lat="45.02308" lon="5.5705">
        <ele>1922.29</ele>
        <time>2010-02-10T14:15:47Z</time>
      </trkpt>
      <trkpt lat="45.02338" lon="5.57047">
        <ele>1915.08</ele>
        <time>2010-02-10T14:15:50Z</time>
      </trkpt>
      <trkpt lat="45.02347" lon="5.57044">
        <ele>1911.24</ele>
        <time>2010-02-10T14:15:51Z</time>
      </trkpt>
      <trkpt lat="45.02385" lon="5.57031">
        <ele>1901.63</ele>
        <time>2010-02-10T14:15:55Z</time>
      </trkpt>
      <trkpt lat="45.02397" lon="5.57029">
        <ele>1895.38</ele>
        <time>2010-02-10T14:15:56Z</time>
      </trkpt>
      <trkpt lat="45.02425" lon="5.57014">
        <ele>1886.24</ele>
        <time>2010-02-10T14:15:59Z</time>
      </trkpt>
      <trkpt lat="45.02433" lon="5.57007">
        <ele>1886.24</ele>
        <time>2010-02-10T14:16:00Z</time>
      </trkpt>
      <trkpt lat="45.02438" lon="5.56997">
        <ele>1882.88</ele>
        <time>2010-02-10T14:16:01Z</time>
      </trkpt>
      <trkpt lat="45.02442" lon="5.56987">
        <ele>1879.03</ele>
        <time>2010-02-10T14:16:02Z</time>
      </trkpt>
      <trkpt lat="45.02449" lon="5.56979">
        <ele>1875.19</ele>
        <time>2010-02-10T14:16:03Z</time>
      </trkpt>
      <trkpt lat="45.02455" lon="5.56959">
        <ele>1870.86</ele>
        <time>2010-02-10T14:16:05Z</time>
      </trkpt>
      <trkpt lat="45.02453" lon="5.56945">
        <ele>1867.02</ele>
        <time>2010-02-10T14:16:06Z</time>
      </trkpt>
      <trkpt lat="45.0243" lon="5.56924">
        <ele>1863.65</ele>
        <time>2010-02-10T14:16:09Z</time>
      </trkpt>
      <trkpt lat="45.02416" lon="5.56915">
        <ele>1861.73</ele>
        <time>2010-02-10T14:16:11Z</time>
      </trkpt>
      <trkpt lat="45.02388" lon="5.56904">
        <ele>1859.33</ele>
        <time>2010-02-10T14:16:16Z</time>
      </trkpt>
      <trkpt lat="45.02377" lon="5.56901">
        <ele>1858.85</ele>
        <time>2010-02-10T14:16:20Z</time>
      </trkpt>
      <trkpt lat="45.02374" lon="5.569">
        <ele>1858.37</ele>
        <time>2010-02-10T14:16:28Z</time>
      </trkpt>
      <trkpt lat="45.02365" lon="5.56896">
        <ele>1856.44</ele>
        <time>2010-02-10T14:16:35Z</time>
      </trkpt>
      <trkpt lat="45.02361" lon="5.56892">
        <ele>1853.08</ele>
        <time>2010-02-10T14:16:47Z</time>
      </trkpt>
      <trkpt lat="45.02361" lon="5.5689">
        <ele>1849.71</ele>
        <time>2010-02-10T14:17:06Z</time>
      </trkpt>
      <trkpt lat="45.02366" lon="5.56881">
        <ele>1846.83</ele>
        <time>2010-02-10T14:17:31Z</time>
      </trkpt>
      <trkpt lat="45.02373" lon="5.56873">
        <ele>1843.47</ele>
        <time>2010-02-10T14:17:36Z</time>
      </trkpt>
      <trkpt lat="45.02373" lon="5.56872">
        <ele>1842.98</ele>
        <time>2010-02-10T14:17:37Z</time>
      </trkpt>
      <trkpt lat="45.02383" lon="5.5687">
        <ele>1841.54</ele>
        <time>2010-02-10T14:17:41Z</time>
      </trkpt>
      <trkpt lat="45.02385" lon="5.56861">
        <ele>1838.18</ele>
        <time>2010-02-10T14:17:51Z</time>
      </trkpt>
      <trkpt lat="45.02385" lon="5.56862">
        <ele>1837.7</ele>
        <time>2010-02-10T14:17:52Z</time>
      </trkpt>
      <trkpt lat="45.02385" lon="5.56863">
        <ele>1837.7</ele>
        <time>2010-02-10T14:17:53Z</time>
      </trkpt>
      <trkpt lat="45.02385" lon="5.56852">
        <ele>1832.89</ele>
        <time>2010-02-10T14:17:57Z</time>
      </trkpt>
      <trkpt lat="45.02386" lon="5.5685">
        <ele>1834.33</ele>
        <time>2010-02-10T14:17:58Z</time>
      </trkpt>
      <trkpt lat="45.02389" lon="5.56851">
        <ele>1832.41</ele>
        <time>2010-02-10T14:18:31Z</time>
      </trkpt>
      <trkpt lat="45.02386" lon="5.5685">
        <ele>1831.93</ele>
        <time>2010-02-10T14:18:34Z</time>
      </trkpt>
      <trkpt lat="45.02395" lon="5.5684">
        <ele>1826.16</ele>
        <time>2010-02-10T14:18:37Z</time>
      </trkpt>
      <trkpt lat="45.02399" lon="5.56834">
        <ele>1824.24</ele>
        <time>2010-02-10T14:18:38Z</time>
      </trkpt>
      <trkpt lat="45.02416" lon="5.56818">
        <ele>1812.7</ele>
        <time>2010-02-10T14:18:41Z</time>
      </trkpt>
      <trkpt lat="45.02421" lon="5.56812">
        <ele>1807.9</ele>
        <time>2010-02-10T14:18:42Z</time>
      </trkpt>
      <trkpt lat="45.02435" lon="5.56803">
        <ele>1803.57</ele>
        <time>2010-02-10T14:18:44Z</time>
      </trkpt>
      <trkpt lat="45.02459" lon="5.56788">
        <ele>1796.36</ele>
        <time>2010-02-10T14:18:48Z</time>
      </trkpt>
      <trkpt lat="45.02468" lon="5.5678">
        <ele>1793.48</ele>
        <time>2010-02-10T14:18:50Z</time>
      </trkpt>
      <trkpt lat="45.02472" lon="5.56774">
        <ele>1789.15</ele>
        <time>2010-02-10T14:18:51Z</time>
      </trkpt>
      <trkpt lat="45.02492" lon="5.56754">
        <ele>1777.61</ele>
        <time>2010-02-10T14:18:55Z</time>
      </trkpt>
      <trkpt lat="45.02496" lon="5.56749">
        <ele>1775.69</ele>
        <time>2010-02-10T14:18:56Z</time>
      </trkpt>
      <trkpt lat="45.02509" lon="5.56738">
        <ele>1768</ele>
        <time>2010-02-10T14:18:58Z</time>
      </trkpt>
      <trkpt lat="45.02528" lon="5.56731">
        <ele>1766.08</ele>
        <time>2010-02-10T14:19:01Z</time>
      </trkpt>
      <trkpt lat="45.02536" lon="5.56729">
        <ele>1763.68</ele>
        <time>2010-02-10T14:19:02Z</time>
      </trkpt>
      <trkpt lat="45.02549" lon="5.5672">
        <ele>1757.43</ele>
        <time>2010-02-10T14:19:04Z</time>
      </trkpt>
      <trkpt lat="45.02556" lon="5.56715">
        <ele>1754.54</ele>
        <time>2010-02-10T14:19:05Z</time>
      </trkpt>
      <trkpt lat="45.02565" lon="5.56712">
        <ele>1752.62</ele>
        <time>2010-02-10T14:19:06Z</time>
      </trkpt>
      <trkpt lat="45.02588" lon="5.56708">
        <ele>1745.89</ele>
        <time>2010-02-10T14:19:09Z</time>
      </trkpt>
      <trkpt lat="45.02607" lon="5.56699">
        <ele>1739.16</ele>
        <time>2010-02-10T14:19:12Z</time>
      </trkpt>
      <trkpt lat="45.02606" lon="5.56688">
        <ele>1738.2</ele>
        <time>2010-02-10T14:19:14Z</time>
      </trkpt>
      <trkpt lat="45.02601" lon="5.56688">
        <ele>1738.2</ele>
        <time>2010-02-10T14:19:22Z</time>
      </trkpt>
      <trkpt lat="45.02596" lon="5.56683">
        <ele>1734.36</ele>
        <time>2010-02-10T14:19:25Z</time>
      </trkpt>
      <trkpt lat="45.02593" lon="5.56682">
        <ele>1733.88</ele>
        <time>2010-02-10T14:19:30Z</time>
      </trkpt>
      <trkpt lat="45.02591" lon="5.56678">
        <ele>1722.34</ele>
        <time>2010-02-10T14:19:32Z</time>
      </trkpt>
      <trkpt lat="45.02591" lon="5.56676">
        <ele>1730.03</ele>
        <time>2010-02-10T14:19:33Z</time>
      </trkpt>
      <trkpt lat="45.02591" lon="5.56674">
        <ele>1729.55</ele>
        <time>2010-02-10T14:19:57Z</time>
      </trkpt>
      <trkpt lat="45.02589" lon="5.56672">
        <ele>1730.51</ele>
        <time>2010-02-10T14:20:15Z</time>
      </trkpt>
      <trkpt lat="45.02586" lon="5.56675">
        <ele>1732.91</ele>
        <time>2010-02-10T14:20:48Z</time>
      </trkpt>
      <trkpt lat="45.02593" lon="5.56672">
        <ele>1729.55</ele>
        <time>2010-02-10T14:20:55Z</time>
      </trkpt>
      <trkpt lat="45.02596" lon="5.56669">
        <ele>1726.67</ele>
        <time>2010-02-10T14:20:59Z</time>
      </trkpt>
      <trkpt lat="45.02596" lon="5.56669">
        <ele>1732.91</ele>
        <time>2010-02-10T14:21:02Z</time>
      </trkpt>
      <trkpt lat="45.02596" lon="5.56669">
        <ele>1729.07</ele>
        <time>2010-02-10T14:21:03Z</time>
      </trkpt>
      <trkpt lat="45.02596" lon="5.56669">
        <ele>1724.74</ele>
        <time>2010-02-10T14:21:06Z</time>
      </trkpt>
      <trkpt lat="45.02596" lon="5.56669">
        <ele>1729.07</ele>
        <time>2010-02-10T14:21:07Z</time>
      </trkpt>
      <trkpt lat="45.02585" lon="5.56666">
        <ele>1727.63</ele>
        <time>2010-02-10T14:21:37Z</time>
      </trkpt>
      <trkpt lat="45.02588" lon="5.56668">
        <ele>1728.11</ele>
        <time>2010-02-10T14:21:41Z</time>
      </trkpt>
      <trkpt lat="45.02598" lon="5.56667">
        <ele>1723.78</ele>
        <time>2010-02-10T14:21:44Z</time>
      </trkpt>
      <trkpt lat="45.02603" lon="5.56655">
        <ele>1721.38</ele>
        <time>2010-02-10T14:21:50Z</time>
      </trkpt>
      <trkpt lat="45.02598" lon="5.56648">
        <ele>1718.97</ele>
        <time>2010-02-10T14:22:19Z</time>
      </trkpt>
      <trkpt lat="45.02595" lon="5.56644">
        <ele>1718.97</ele>
        <time>2010-02-10T14:22:38Z</time>
      </trkpt>
      <trkpt lat="45.0259" lon="5.56642">
        <ele>1707.44</ele>
        <time>2010-02-10T14:22:41Z</time>
      </trkpt>
      <trkpt lat="45.0259" lon="5.56633">
        <ele>1702.63</ele>
        <time>2010-02-10T14:22:43Z</time>
      </trkpt>
      <trkpt lat="45.0259" lon="5.56629">
        <ele>1693.02</ele>
        <time>2010-02-10T14:22:44Z</time>
      </trkpt>
      <trkpt lat="45.02591" lon="5.56631">
        <ele>1715.13</ele>
        <time>2010-02-10T14:22:45Z</time>
      </trkpt>
      <trkpt lat="45.02592" lon="5.56635">
        <ele>1706</ele>
        <time>2010-02-10T14:22:46Z</time>
      </trkpt>
      <trkpt lat="45.02592" lon="5.56635">
        <ele>1705.04</ele>
        <time>2010-02-10T14:22:48Z</time>
      </trkpt>
      <trkpt lat="45.02593" lon="5.56636">
        <ele>1705.04</ele>
        <time>2010-02-10T14:22:51Z</time>
      </trkpt>
      <trkpt lat="45.02606" lon="5.56617">
        <ele>1698.79</ele>
        <time>2010-02-10T14:22:55Z</time>
      </trkpt>
      <trkpt lat="45.02618" lon="5.56599">
        <ele>1693.02</ele>
        <time>2010-02-10T14:22:58Z</time>
      </trkpt>
      <trkpt lat="45.02619" lon="5.5659">
        <ele>1689.17</ele>
        <time>2010-02-10T14:22:59Z</time>
      </trkpt>
      <trkpt lat="45.02618" lon="5.5658">
        <ele>1684.37</ele>
        <time>2010-02-10T14:23:00Z</time>
      </trkpt>
      <trkpt lat="45.02614" lon="5.56571">
        <ele>1682.93</ele>
        <time>2010-02-10T14:23:01Z</time>
      </trkpt>
      <trkpt lat="45.02606" lon="5.5655">
        <ele>1674.75</ele>
        <time>2010-02-10T14:23:03Z</time>
      </trkpt>
      <trkpt lat="45.0259" lon="5.56522">
        <ele>1673.79</ele>
        <time>2010-02-10T14:23:07Z</time>
      </trkpt>
      <trkpt lat="45.0259" lon="5.565">
        <ele>1668.02</ele>
        <time>2010-02-10T14:23:12Z</time>
      </trkpt>
      <trkpt lat="45.02596" lon="5.5648">
        <ele>1659.85</ele>
        <time>2010-02-10T14:23:15Z</time>
      </trkpt>
      <trkpt lat="45.02604" lon="5.56463">
        <ele>1655.53</ele>
        <time>2010-02-10T14:23:18Z</time>
      </trkpt>
      <trkpt lat="45.02608" lon="5.56459">
        <ele>1652.64</ele>
        <time>2010-02-10T14:23:19Z</time>
      </trkpt>
      <trkpt lat="45.02615" lon="5.56445">
        <ele>1648.32</ele>
        <time>2010-02-10T14:23:21Z</time>
      </trkpt>
      <trkpt lat="45.02619" lon="5.56428">
        <ele>1643.03</ele>
        <time>2010-02-10T14:23:23Z</time>
      </trkpt>
      <trkpt lat="45.02622" lon="5.56419">
        <ele>1639.19</ele>
        <time>2010-02-10T14:23:24Z</time>
      </trkpt>
      <trkpt lat="45.02625" lon="5.56407">
        <ele>1636.78</ele>
        <time>2010-02-10T14:23:26Z</time>
      </trkpt>
      <trkpt lat="45.02626" lon="5.56397">
        <ele>1635.82</ele>
        <time>2010-02-10T14:23:28Z</time>
      </trkpt>
      <trkpt lat="45.02632" lon="5.5638">
        <ele>1629.57</ele>
        <time>2010-02-10T14:23:31Z</time>
      </trkpt>
      <trkpt lat="45.02643" lon="5.56367">
        <ele>1620.92</ele>
        <time>2010-02-10T14:23:33Z</time>
      </trkpt>
      <trkpt lat="45.02648" lon="5.5636">
        <ele>1621.4</ele>
        <time>2010-02-10T14:23:34Z</time>
      </trkpt>
      <trkpt lat="45.02654" lon="5.5635">
        <ele>1618.52</ele>
        <time>2010-02-10T14:23:36Z</time>
      </trkpt>
      <trkpt lat="45.02664" lon="5.56336">
        <ele>1611.31</ele>
        <time>2010-02-10T14:23:39Z</time>
      </trkpt>
      <trkpt lat="45.02665" lon="5.5633">
        <ele>1607.94</ele>
        <time>2010-02-10T14:23:40Z</time>
      </trkpt>
      <trkpt lat="45.02671" lon="5.5632">
        <ele>1604.1</ele>
        <time>2010-02-10T14:23:42Z</time>
      </trkpt>
      <trkpt lat="45.02674" lon="5.56316">
        <ele>1587.75</ele>
        <time>2010-02-10T14:23:43Z</time>
      </trkpt>
      <trkpt lat="45.02676" lon="5.56312">
        <ele>1603.14</ele>
        <time>2010-02-10T14:23:44Z</time>
      </trkpt>
      <trkpt lat="45.02681" lon="5.5631">
        <ele>1598.81</ele>
        <time>2010-02-10T14:23:46Z</time>
      </trkpt>
      <trkpt lat="45.02684" lon="5.56307">
        <ele>1596.89</ele>
        <time>2010-02-10T14:23:47Z</time>
      </trkpt>
      <trkpt lat="45.02701" lon="5.56279">
        <ele>1582.47</ele>
        <time>2010-02-10T14:23:51Z</time>
      </trkpt>
      <trkpt lat="45.0271" lon="5.56259">
        <ele>1580.54</ele>
        <time>2010-02-10T14:23:53Z</time>
      </trkpt>
      <trkpt lat="45.02714" lon="5.56247">
        <ele>1576.22</ele>
        <time>2010-02-10T14:23:54Z</time>
      </trkpt>
      <trkpt lat="45.0272" lon="5.56233">
        <ele>1571.41</ele>
        <time>2010-02-10T14:23:55Z</time>
      </trkpt>
      <trkpt lat="45.02727" lon="5.56219">
        <ele>1564.68</ele>
        <time>2010-02-10T14:23:56Z</time>
      </trkpt>
      <trkpt lat="45.02734" lon="5.56174">
        <ele>1564.68</ele>
        <time>2010-02-10T14:24:00Z</time>
      </trkpt>
      <trkpt lat="45.02735" lon="5.56171">
        <ele>1564.68</ele>
        <time>2010-02-10T14:24:10Z</time>
      </trkpt>
      <trkpt lat="45.02733" lon="5.56173">
        <ele>1565.16</ele>
        <time>2010-02-10T14:24:52Z</time>
      </trkpt>
      <trkpt lat="45.02719" lon="5.56136">
        <ele>1561.8</ele>
        <time>2010-02-10T14:25:03Z</time>
      </trkpt>
      <trkpt lat="45.02706" lon="5.561">
        <ele>1559.4</ele>
        <time>2010-02-10T14:25:10Z</time>
      </trkpt>
      <trkpt lat="45.02722" lon="5.56092">
        <ele>1556.99</ele>
        <time>2010-02-10T14:25:17Z</time>
      </trkpt>
      <trkpt lat="45.0273" lon="5.56091">
        <ele>1557.47</ele>
        <time>2010-02-10T14:25:31Z</time>
      </trkpt>
      <trkpt lat="45.0274" lon="5.56092">
        <ele>1552.67</ele>
        <time>2010-02-10T14:26:14Z</time>
      </trkpt>
      <trkpt lat="45.02751" lon="5.56089">
        <ele>1547.38</ele>
        <time>2010-02-10T14:26:16Z</time>
      </trkpt>
      <trkpt lat="45.02762" lon="5.5608">
        <ele>1547.86</ele>
        <time>2010-02-10T14:26:18Z</time>
      </trkpt>
      <trkpt lat="45.02768" lon="5.56077">
        <ele>1541.13</ele>
        <time>2010-02-10T14:26:19Z</time>
      </trkpt>
      <trkpt lat="45.0278" lon="5.56076">
        <ele>1539.69</ele>
        <time>2010-02-10T14:26:21Z</time>
      </trkpt>
      <trkpt lat="45.02803" lon="5.56071">
        <ele>1537.29</ele>
        <time>2010-02-10T14:26:25Z</time>
      </trkpt>
      <trkpt lat="45.02811" lon="5.56071">
        <ele>1546.9</ele>
        <time>2010-02-10T14:26:27Z</time>
      </trkpt>
      <trkpt lat="45.02813" lon="5.56072">
        <ele>1536.32</ele>
        <time>2010-02-10T14:26:28Z</time>
      </trkpt>
      <trkpt lat="45.02825" lon="5.56076">
        <ele>1532</ele>
        <time>2010-02-10T14:26:33Z</time>
      </trkpt>
      <trkpt lat="45.02831" lon="5.5607">
        <ele>1525.75</ele>
        <time>2010-02-10T14:26:35Z</time>
      </trkpt>
      <trkpt lat="45.02834" lon="5.56057">
        <ele>1522.39</ele>
        <time>2010-02-10T14:26:37Z</time>
      </trkpt>
      <trkpt lat="45.02835" lon="5.5605">
        <ele>1518.06</ele>
        <time>2010-02-10T14:26:38Z</time>
      </trkpt>
      <trkpt lat="45.02836" lon="5.56043">
        <ele>1519.02</ele>
        <time>2010-02-10T14:26:39Z</time>
      </trkpt>
      <trkpt lat="45.02838" lon="5.56035">
        <ele>1517.1</ele>
        <time>2010-02-10T14:26:40Z</time>
      </trkpt>
      <trkpt lat="45.02852" lon="5.56019">
        <ele>1512.77</ele>
        <time>2010-02-10T14:26:44Z</time>
      </trkpt>
      <trkpt lat="45.02864" lon="5.56019">
        <ele>1508.45</ele>
        <time>2010-02-10T14:26:47Z</time>
      </trkpt>
      <trkpt lat="45.02871" lon="5.56007">
        <ele>1505.08</ele>
        <time>2010-02-10T14:26:50Z</time>
      </trkpt>
      <trkpt lat="45.02876" lon="5.56002">
        <ele>1501.24</ele>
        <time>2010-02-10T14:26:52Z</time>
      </trkpt>
      <trkpt lat="45.0288" lon="5.55994">
        <ele>1497.87</ele>
        <time>2010-02-10T14:26:54Z</time>
      </trkpt>
      <trkpt lat="45.02886" lon="5.55987">
        <ele>1496.91</ele>
        <time>2010-02-10T14:26:56Z</time>
      </trkpt>
      <trkpt lat="45.02891" lon="5.55986">
        <ele>1495.95</ele>
        <time>2010-02-10T14:27:09Z</time>
      </trkpt>
      <trkpt lat="45.02899" lon="5.55987">
        <ele>1491.62</ele>
        <time>2010-02-10T14:27:11Z</time>
      </trkpt>
      <trkpt lat="45.02905" lon="5.55988">
        <ele>1489.22</ele>
        <time>2010-02-10T14:27:12Z</time>
      </trkpt>
      <trkpt lat="45.0292" lon="5.55989">
        <ele>1482.97</ele>
        <time>2010-02-10T14:27:15Z</time>
      </trkpt>
      <trkpt lat="45.02923" lon="5.5599">
        <ele>1482.49</ele>
        <time>2010-02-10T14:27:16Z</time>
      </trkpt>
      <trkpt lat="45.02931" lon="5.55992">
        <ele>1478.65</ele>
        <time>2010-02-10T14:27:18Z</time>
      </trkpt>
      <trkpt lat="45.02934" lon="5.55992">
        <ele>1476.72</ele>
        <time>2010-02-10T14:27:25Z</time>
      </trkpt>
      <trkpt lat="45.02934" lon="5.55991">
        <ele>1477.2</ele>
        <time>2010-02-10T14:27:31Z</time>
      </trkpt>
      <trkpt lat="45.02943" lon="5.55989">
        <ele>1470.95</ele>
        <time>2010-02-10T14:27:34Z</time>
      </trkpt>
      <trkpt lat="45.02948" lon="5.5599">
        <ele>1469.99</ele>
        <time>2010-02-10T14:27:35Z</time>
      </trkpt>
      <trkpt lat="45.02956" lon="5.55992">
        <ele>1467.11</ele>
        <time>2010-02-10T14:27:37Z</time>
      </trkpt>
      <trkpt lat="45.02967" lon="5.55991">
        <ele>1462.78</ele>
        <time>2010-02-10T14:27:39Z</time>
      </trkpt>
      <trkpt lat="45.02978" lon="5.55986">
        <ele>1457.5</ele>
        <time>2010-02-10T14:27:41Z</time>
      </trkpt>
      <trkpt lat="45.02984" lon="5.55977">
        <ele>1453.17</ele>
        <time>2010-02-10T14:27:43Z</time>
      </trkpt>
      <trkpt lat="45.0299" lon="5.55973">
        <ele>1449.81</ele>
        <time>2010-02-10T14:27:45Z</time>
      </trkpt>
      <trkpt lat="45.03" lon="5.5597">
        <ele>1446.44</ele>
        <time>2010-02-10T14:27:48Z</time>
      </trkpt>
      <trkpt lat="45.03013" lon="5.55975">
        <ele>1436.83</ele>
        <time>2010-02-10T14:27:51Z</time>
      </trkpt>
      <trkpt lat="45.03017" lon="5.55973">
        <ele>1438.75</ele>
        <time>2010-02-10T14:27:52Z</time>
      </trkpt>
      <trkpt lat="45.03021" lon="5.55971">
        <ele>1428.18</ele>
        <time>2010-02-10T14:27:53Z</time>
      </trkpt>
      <trkpt lat="45.03025" lon="5.5597">
        <ele>1437.31</ele>
        <time>2010-02-10T14:27:54Z</time>
      </trkpt>
      <trkpt lat="45.03029" lon="5.55968">
        <ele>1433.46</ele>
        <time>2010-02-10T14:27:55Z</time>
      </trkpt>
      <trkpt lat="45.03036" lon="5.55965">
        <ele>1430.1</ele>
        <time>2010-02-10T14:27:57Z</time>
      </trkpt>
      <trkpt lat="45.03045" lon="5.55962">
        <ele>1427.7</ele>
        <time>2010-02-10T14:27:59Z</time>
      </trkpt>
      <trkpt lat="45.0305" lon="5.55959">
        <ele>1423.37</ele>
        <time>2010-02-10T14:28:00Z</time>
      </trkpt>
      <trkpt lat="45.03059" lon="5.5596">
        <ele>1423.37</ele>
        <time>2010-02-10T14:28:06Z</time>
      </trkpt>
      <trkpt lat="45.03055" lon="5.55967">
        <ele>1422.41</ele>
        <time>2010-02-10T14:28:18Z</time>
      </trkpt>
      <trkpt lat="45.03051" lon="5.55966">
        <ele>1420.49</ele>
        <time>2010-02-10T14:28:57Z</time>
      </trkpt>
      <trkpt lat="45.03061" lon="5.55965">
        <ele>1412.31</ele>
        <time>2010-02-10T14:29:01Z</time>
      </trkpt>
      <trkpt lat="45.03076" lon="5.55965">
        <ele>1409.43</ele>
        <time>2010-02-10T14:29:02Z</time>
      </trkpt>
      <trkpt lat="45.0309" lon="5.5597">
        <ele>1409.43</ele>
        <time>2010-02-10T14:29:03Z</time>
      </trkpt>
      <trkpt lat="45.03092" lon="5.55973">
        <ele>1406.55</ele>
        <time>2010-02-10T14:29:11Z</time>
      </trkpt>
      <trkpt lat="45.03092" lon="5.55971">
        <ele>1410.87</ele>
        <time>2010-02-10T14:29:19Z</time>
      </trkpt>
      <trkpt lat="45.0309" lon="5.55972">
        <ele>1405.1</ele>
        <time>2010-02-10T14:29:28Z</time>
      </trkpt>
      <trkpt lat="45.0309" lon="5.55972">
        <ele>1408.95</ele>
        <time>2010-02-10T14:29:29Z</time>
      </trkpt>
      <trkpt lat="45.03092" lon="5.5597">
        <ele>1405.1</ele>
        <time>2010-02-10T14:29:45Z</time>
      </trkpt>
      <trkpt lat="45.03108" lon="5.55968">
        <ele>1396.45</ele>
        <time>2010-02-10T14:29:48Z</time>
      </trkpt>
      <trkpt lat="45.03118" lon="5.55967">
        <ele>1393.09</ele>
        <time>2010-02-10T14:29:50Z</time>
      </trkpt>
      <trkpt lat="45.03127" lon="5.55949">
        <ele>1383.47</ele>
        <time>2010-02-10T14:29:55Z</time>
      </trkpt>
      <trkpt lat="45.0313" lon="5.55941">
        <ele>1380.11</ele>
        <time>2010-02-10T14:29:57Z</time>
      </trkpt>
      <trkpt lat="45.03135" lon="5.55938">
        <ele>1377.71</ele>
        <time>2010-02-10T14:29:59Z</time>
      </trkpt>
      <trkpt lat="45.03142" lon="5.55932">
        <ele>1373.86</ele>
        <time>2010-02-10T14:30:02Z</time>
      </trkpt>
      <trkpt lat="45.03143" lon="5.5593">
        <ele>1374.34</ele>
        <time>2010-02-10T14:30:03Z</time>
      </trkpt>
      <trkpt lat="45.03147" lon="5.55927">
        <ele>1371.94</ele>
        <time>2010-02-10T14:30:06Z</time>
      </trkpt>
      <trkpt lat="45.03154" lon="5.55927">
        <ele>1369.54</ele>
        <time>2010-02-10T14:30:16Z</time>
      </trkpt>
      <trkpt lat="45.03158" lon="5.55926">
        <ele>1369.54</ele>
        <time>2010-02-10T14:30:18Z</time>
      </trkpt>
      <trkpt lat="45.0316" lon="5.55927">
        <ele>1368.09</ele>
        <time>2010-02-10T14:30:20Z</time>
      </trkpt>
      <trkpt lat="45.03162" lon="5.55926">
        <ele>1367.13</ele>
        <time>2010-02-10T14:30:23Z</time>
      </trkpt>
      <trkpt lat="45.0317" lon="5.55922">
        <ele>1362.33</ele>
        <time>2010-02-10T14:30:26Z</time>
      </trkpt>
      <trkpt lat="45.03179" lon="5.55924">
        <ele>1360.4</ele>
        <time>2010-02-10T14:30:29Z</time>
      </trkpt>
      <trkpt lat="45.03186" lon="5.55928">
        <ele>1359.44</ele>
        <time>2010-02-10T14:30:41Z</time>
      </trkpt>
      <trkpt lat="45.03191" lon="5.55921">
        <ele>1354.15</ele>
        <time>2010-02-10T14:30:45Z</time>
      </trkpt>
      <trkpt lat="45.03195" lon="5.55919">
        <ele>1350.79</ele>
        <time>2010-02-10T14:30:47Z</time>
      </trkpt>
      <trkpt lat="45.03197" lon="5.5592">
        <ele>1350.31</ele>
        <time>2010-02-10T14:30:48Z</time>
      </trkpt>
      <trkpt lat="45.03199" lon="5.5592">
        <ele>1349.35</ele>
        <time>2010-02-10T14:30:52Z</time>
      </trkpt>
      <trkpt lat="45.03224" lon="5.55907">
        <ele>1344.54</ele>
        <time>2010-02-10T14:30:55Z</time>
      </trkpt>
      <trkpt lat="45.03225" lon="5.55905">
        <ele>1344.06</ele>
        <time>2010-02-10T14:30:56Z</time>
      </trkpt>
      <trkpt lat="45.03228" lon="5.55902">
        <ele>1341.66</ele>
        <time>2010-02-10T14:31:04Z</time>
      </trkpt>
      <trkpt lat="45.03226" lon="5.55886">
        <ele>1338.77</ele>
        <time>2010-02-10T14:31:19Z</time>
      </trkpt>
      <trkpt lat="45.03239" lon="5.5587">
        <ele>1332.52</ele>
        <time>2010-02-10T14:31:24Z</time>
      </trkpt>
      <trkpt lat="45.03245" lon="5.5587">
        <ele>1329.16</ele>
        <time>2010-02-10T14:31:25Z</time>
      </trkpt>
      <trkpt lat="45.03257" lon="5.55865">
        <ele>1322.43</ele>
        <time>2010-02-10T14:31:27Z</time>
      </trkpt>
      <trkpt lat="45.03271" lon="5.55853">
        <ele>1312.82</ele>
        <time>2010-02-10T14:31:30Z</time>
      </trkpt>
      <trkpt lat="45.03276" lon="5.55849">
        <ele>1311.86</ele>
        <time>2010-02-10T14:31:31Z</time>
      </trkpt>
      <trkpt lat="45.03295" lon="5.55836">
        <ele>1299.84</ele>
        <time>2010-02-10T14:31:34Z</time>
      </trkpt>
      <trkpt lat="45.03303" lon="5.55833">
        <ele>1295.51</ele>
        <time>2010-02-10T14:31:35Z</time>
      </trkpt>
      <trkpt lat="45.03313" lon="5.55831">
        <ele>1291.67</ele>
        <time>2010-02-10T14:31:36Z</time>
      </trkpt>
      <trkpt lat="45.03325" lon="5.5583">
        <ele>1284.94</ele>
        <time>2010-02-10T14:31:37Z</time>
      </trkpt>
      <trkpt lat="45.03349" lon="5.5584">
        <ele>1289.75</ele>
        <time>2010-02-10T14:31:40Z</time>
      </trkpt>
      <trkpt lat="45.0335" lon="5.55841">
        <ele>1289.27</ele>
        <time>2010-02-10T14:31:41Z</time>
      </trkpt>
      <trkpt lat="45.03343" lon="5.55845">
        <ele>1289.27</ele>
        <time>2010-02-10T14:31:55Z</time>
      </trkpt>
      <trkpt lat="45.03343" lon="5.55845">
        <ele>1289.27</ele>
        <time>2010-02-10T14:32:26Z</time>
      </trkpt>
      <trkpt lat="45.03369" lon="5.55865">
        <ele>1286.86</ele>
        <time>2010-02-10T14:33:15Z</time>
      </trkpt>
      <trkpt lat="45.03371" lon="5.55866">
        <ele>1286.86</ele>
        <time>2010-02-10T14:33:16Z</time>
      </trkpt>
      <trkpt lat="45.03382" lon="5.55877">
        <ele>1285.9</ele>
        <time>2010-02-10T14:33:19Z</time>
      </trkpt>
      <trkpt lat="45.03405" lon="5.55903">
        <ele>1282.06</ele>
        <time>2010-02-10T14:33:25Z</time>
      </trkpt>
      <trkpt lat="45.03409" lon="5.55908">
        <ele>1282.06</ele>
        <time>2010-02-10T14:33:26Z</time>
      </trkpt>
      <trkpt lat="45.03423" lon="5.55919">
        <ele>1281.57</ele>
        <time>2010-02-10T14:33:29Z</time>
      </trkpt>
      <trkpt lat="45.03475" lon="5.55932">
        <ele>1278.21</ele>
        <time>2010-02-10T14:33:40Z</time>
      </trkpt>
      <trkpt lat="45.03525" lon="5.55928">
        <ele>1275.81</ele>
        <time>2010-02-10T14:33:53Z</time>
      </trkpt>
      <trkpt lat="45.03532" lon="5.55923">
        <ele>1274.85</ele>
        <time>2010-02-10T14:33:55Z</time>
      </trkpt>
      <trkpt lat="45.03546" lon="5.5591">
        <ele>1273.88</ele>
        <time>2010-02-10T14:33:59Z</time>
      </trkpt>
      <trkpt lat="45.03574" lon="5.55851">
        <ele>1269.56</ele>
        <time>2010-02-10T14:34:12Z</time>
      </trkpt>
      <trkpt lat="45.03576" lon="5.55846">
        <ele>1270.04</ele>
        <time>2010-02-10T14:34:13Z</time>
      </trkpt>
      <trkpt lat="45.03581" lon="5.55833">
        <ele>1268.6</ele>
        <time>2010-02-10T14:34:15Z</time>
      </trkpt>
      <trkpt lat="45.03586" lon="5.55821">
        <ele>1267.64</ele>
        <time>2010-02-10T14:34:17Z</time>
      </trkpt>
      <trkpt lat="45.03609" lon="5.55787">
        <ele>1264.27</ele>
        <time>2010-02-10T14:34:23Z</time>
      </trkpt>
      <trkpt lat="45.03613" lon="5.55782">
        <ele>1264.27</ele>
        <time>2010-02-10T14:34:24Z</time>
      </trkpt>
      <trkpt lat="45.03624" lon="5.55766">
        <ele>1262.35</ele>
        <time>2010-02-10T14:34:27Z</time>
      </trkpt>
      <trkpt lat="45.03632" lon="5.55756">
        <ele>1261.87</ele>
        <time>2010-02-10T14:34:29Z</time>
      </trkpt>
      <trkpt lat="45.03651" lon="5.55748">
        <ele>1259.94</ele>
        <time>2010-02-10T14:34:33Z</time>
      </trkpt>
      <trkpt lat="45.0367" lon="5.55747">
        <ele>1256.58</ele>
        <time>2010-02-10T14:34:37Z</time>
      </trkpt>
      <trkpt lat="45.03675" lon="5.55747">
        <ele>1256.1</ele>
        <time>2010-02-10T14:34:38Z</time>
      </trkpt>
      <trkpt lat="45.037" lon="5.55748">
        <ele>1253.22</ele>
        <time>2010-02-10T14:34:43Z</time>
      </trkpt>
      <trkpt lat="45.03721" lon="5.55747">
        <ele>1250.81</ele>
        <time>2010-02-10T14:34:46Z</time>
      </trkpt>
      <trkpt lat="45.03744" lon="5.55738">
        <ele>1246.49</ele>
        <time>2010-02-10T14:34:49Z</time>
      </trkpt>
      <trkpt lat="45.03762" lon="5.55727">
        <ele>1240.72</ele>
        <time>2010-02-10T14:34:51Z</time>
      </trkpt>
      <trkpt lat="45.0378" lon="5.55717">
        <ele>1236.39</ele>
        <time>2010-02-10T14:34:53Z</time>
      </trkpt>
      <trkpt lat="45.03788" lon="5.55714">
        <ele>1236.39</ele>
        <time>2010-02-10T14:34:54Z</time>
      </trkpt>
      <trkpt lat="45.0382" lon="5.55714">
        <ele>1235.91</ele>
        <time>2010-02-10T14:34:58Z</time>
      </trkpt>
      <trkpt lat="45.03856" lon="5.55729">
        <ele>1233.03</ele>
        <time>2010-02-10T14:35:03Z</time>
      </trkpt>
      <trkpt lat="45.03885" lon="5.55733">
        <ele>1230.62</ele>
        <time>2010-02-10T14:35:07Z</time>
      </trkpt>
      <trkpt lat="45.03906" lon="5.55731">
        <ele>1226.78</ele>
        <time>2010-02-10T14:35:10Z</time>
      </trkpt>
      <trkpt lat="45.03942" lon="5.55718">
        <ele>1224.38</ele>
        <time>2010-02-10T14:35:15Z</time>
      </trkpt>
      <trkpt lat="45.03964" lon="5.55707">
        <ele>1221.49</ele>
        <time>2010-02-10T14:35:18Z</time>
      </trkpt>
      <trkpt lat="45.03988" lon="5.55699">
        <ele>1215.24</ele>
        <time>2010-02-10T14:35:21Z</time>
      </trkpt>
      <trkpt lat="45.04009" lon="5.55692">
        <ele>1207.07</ele>
        <time>2010-02-10T14:35:23Z</time>
      </trkpt>
      <trkpt lat="45.0402" lon="5.55688">
        <ele>1207.07</ele>
        <time>2010-02-10T14:35:24Z</time>
      </trkpt>
      <trkpt lat="45.04043" lon="5.55683">
        <ele>1195.54</ele>
        <time>2010-02-10T14:35:26Z</time>
      </trkpt>
      <trkpt lat="45.04056" lon="5.55684">
        <ele>1187.37</ele>
        <time>2010-02-10T14:35:27Z</time>
      </trkpt>
      <trkpt lat="45.04069" lon="5.55688">
        <ele>1185.44</ele>
        <time>2010-02-10T14:35:28Z</time>
      </trkpt>
      <trkpt lat="45.04126" lon="5.55725">
        <ele>1184</ele>
        <time>2010-02-10T14:35:33Z</time>
      </trkpt>
      <trkpt lat="45.04168" lon="5.55745">
        <ele>1178.71</ele>
        <time>2010-02-10T14:35:37Z</time>
      </trkpt>
      <trkpt lat="45.04187" lon="5.55751">
        <ele>1174.39</ele>
        <time>2010-02-10T14:35:39Z</time>
      </trkpt>
      <trkpt lat="45.04197" lon="5.55754">
        <ele>1172.95</ele>
        <time>2010-02-10T14:35:40Z</time>
      </trkpt>
      <trkpt lat="45.04231" lon="5.55755">
        <ele>1163.81</ele>
        <time>2010-02-10T14:35:43Z</time>
      </trkpt>
      <trkpt lat="45.04244" lon="5.55756">
        <ele>1158.05</ele>
        <time>2010-02-10T14:35:44Z</time>
      </trkpt>
      <trkpt lat="45.04267" lon="5.5576">
        <ele>1155.16</ele>
        <time>2010-02-10T14:35:46Z</time>
      </trkpt>
      <trkpt lat="45.04278" lon="5.55763">
        <ele>1155.16</ele>
        <time>2010-02-10T14:35:47Z</time>
      </trkpt>
      <trkpt lat="45.04305" lon="5.5578">
        <ele>1149.87</ele>
        <time>2010-02-10T14:35:50Z</time>
      </trkpt>
      <trkpt lat="45.04323" lon="5.55813">
        <ele>1146.99</ele>
        <time>2010-02-10T14:35:53Z</time>
      </trkpt>
      <trkpt lat="45.04328" lon="5.55824">
        <ele>1146.03</ele>
        <time>2010-02-10T14:35:54Z</time>
      </trkpt>
      <trkpt lat="45.04341" lon="5.55859">
        <ele>1140.26</ele>
        <time>2010-02-10T14:35:57Z</time>
      </trkpt>
      <trkpt lat="45.04362" lon="5.55925">
        <ele>1137.38</ele>
        <time>2010-02-10T14:36:03Z</time>
      </trkpt>
      <trkpt lat="45.04387" lon="5.55978">
        <ele>1133.53</ele>
        <time>2010-02-10T14:36:09Z</time>
      </trkpt>
      <trkpt lat="45.04396" lon="5.55993">
        <ele>1133.53</ele>
        <time>2010-02-10T14:36:11Z</time>
      </trkpt>
      <trkpt lat="45.04439" lon="5.56011">
        <ele>1134.01</ele>
        <time>2010-02-10T14:36:20Z</time>
      </trkpt>
      <trkpt lat="45.04453" lon="5.56004">
        <ele>1134.01</ele>
        <time>2010-02-10T14:36:29Z</time>
      </trkpt>
      <trkpt lat="45.0444" lon="5.56003">
        <ele>1134.01</ele>
        <time>2010-02-10T14:38:17Z</time>
      </trkpt>
      <trkpt lat="45.0444" lon="5.56003">
        <ele>1133.53</ele>
        <time>2010-02-10T14:39:54Z</time>
      </trkpt>
      <trkpt lat="45.04414" lon="5.55996">
        <ele>1136.9</ele>
        <time>2010-02-10T14:39:59Z</time>
      </trkpt>
      <trkpt lat="45.04405" lon="5.56003">
        <ele>1140.74</ele>
        <time>2010-02-10T14:40:01Z</time>
      </trkpt>
      <trkpt lat="45.04399" lon="5.56008">
        <ele>1143.63</ele>
        <time>2010-02-10T14:40:03Z</time>
      </trkpt>
      <trkpt lat="45.04394" lon="5.56011">
        <ele>1147.95</ele>
        <time>2010-02-10T14:40:05Z</time>
      </trkpt>
      <trkpt lat="45.04389" lon="5.56012">
        <ele>1152.76</ele>
        <time>2010-02-10T14:40:07Z</time>
      </trkpt>
      <trkpt lat="45.0438" lon="5.56018">
        <ele>1157.56</ele>
        <time>2010-02-10T14:40:10Z</time>
      </trkpt>
      <trkpt lat="45.04371" lon="5.56022">
        <ele>1160.93</ele>
        <time>2010-02-10T14:40:12Z</time>
      </trkpt>
      <trkpt lat="45.04361" lon="5.5603">
        <ele>1165.74</ele>
        <time>2010-02-10T14:40:15Z</time>
      </trkpt>
      <trkpt lat="45.04354" lon="5.56034">
        <ele>1167.18</ele>
        <time>2010-02-10T14:40:17Z</time>
      </trkpt>
      <trkpt lat="45.04352" lon="5.56036">
        <ele>1171.02</ele>
        <time>2010-02-10T14:40:18Z</time>
      </trkpt>
      <trkpt lat="45.04347" lon="5.56039">
        <ele>1174.39</ele>
        <time>2010-02-10T14:40:20Z</time>
      </trkpt>
      <trkpt lat="45.04341" lon="5.56043">
        <ele>1177.27</ele>
        <time>2010-02-10T14:40:22Z</time>
      </trkpt>
      <trkpt lat="45.04336" lon="5.56049">
        <ele>1181.6</ele>
        <time>2010-02-10T14:40:24Z</time>
      </trkpt>
      <trkpt lat="45.0433" lon="5.56053">
        <ele>1185.44</ele>
        <time>2010-02-10T14:40:26Z</time>
      </trkpt>
      <trkpt lat="45.04323" lon="5.56058">
        <ele>1189.77</ele>
        <time>2010-02-10T14:40:28Z</time>
      </trkpt>
      <trkpt lat="45.04319" lon="5.5606">
        <ele>1189.29</ele>
        <time>2010-02-10T14:40:29Z</time>
      </trkpt>
      <trkpt lat="45.04301" lon="5.56074">
        <ele>1196.98</ele>
        <time>2010-02-10T14:40:34Z</time>
      </trkpt>
      <trkpt lat="45.04297" lon="5.56078">
        <ele>1195.54</ele>
        <time>2010-02-10T14:40:35Z</time>
      </trkpt>
      <trkpt lat="45.04291" lon="5.56081">
        <ele>1199.38</ele>
        <time>2010-02-10T14:40:37Z</time>
      </trkpt>
      <trkpt lat="45.04281" lon="5.56088">
        <ele>1204.19</ele>
        <time>2010-02-10T14:40:41Z</time>
      </trkpt>
      <trkpt lat="45.04267" lon="5.56098">
        <ele>1208.51</ele>
        <time>2010-02-10T14:40:45Z</time>
      </trkpt>
      <trkpt lat="45.04261" lon="5.56103">
        <ele>1212.36</ele>
        <time>2010-02-10T14:40:47Z</time>
      </trkpt>
      <trkpt lat="45.04253" lon="5.56105">
        <ele>1215.24</ele>
        <time>2010-02-10T14:40:49Z</time>
      </trkpt>
      <trkpt lat="45.04243" lon="5.56113">
        <ele>1220.05</ele>
        <time>2010-02-10T14:40:52Z</time>
      </trkpt>
      <trkpt lat="45.04234" lon="5.56119">
        <ele>1224.38</ele>
        <time>2010-02-10T14:40:55Z</time>
      </trkpt>
      <trkpt lat="45.0423" lon="5.56121">
        <ele>1227.74</ele>
        <time>2010-02-10T14:40:56Z</time>
      </trkpt>
      <trkpt lat="45.04221" lon="5.5613">
        <ele>1230.62</ele>
        <time>2010-02-10T14:40:59Z</time>
      </trkpt>
      <trkpt lat="45.04218" lon="5.56133">
        <ele>1235.43</ele>
        <time>2010-02-10T14:41:00Z</time>
      </trkpt>
      <trkpt lat="45.0421" lon="5.56136">
        <ele>1240.24</ele>
        <time>2010-02-10T14:41:03Z</time>
      </trkpt>
      <trkpt lat="45.04204" lon="5.56141">
        <ele>1243.6</ele>
        <time>2010-02-10T14:41:05Z</time>
      </trkpt>
      <trkpt lat="45.04195" lon="5.56145">
        <ele>1246.97</ele>
        <time>2010-02-10T14:41:07Z</time>
      </trkpt>
      <trkpt lat="45.04191" lon="5.5615">
        <ele>1250.81</ele>
        <time>2010-02-10T14:41:09Z</time>
      </trkpt>
      <trkpt lat="45.04185" lon="5.56154">
        <ele>1255.62</ele>
        <time>2010-02-10T14:41:11Z</time>
      </trkpt>
      <trkpt lat="45.04178" lon="5.56156">
        <ele>1258.5</ele>
        <time>2010-02-10T14:41:13Z</time>
      </trkpt>
      <trkpt lat="45.04172" lon="5.5616">
        <ele>1262.83</ele>
        <time>2010-02-10T14:41:15Z</time>
      </trkpt>
      <trkpt lat="45.04166" lon="5.56165">
        <ele>1268.12</ele>
        <time>2010-02-10T14:41:17Z</time>
      </trkpt>
      <trkpt lat="45.04161" lon="5.56172">
        <ele>1271.48</ele>
        <time>2010-02-10T14:41:19Z</time>
      </trkpt>
      <trkpt lat="45.04152" lon="5.56177">
        <ele>1274.85</ele>
        <time>2010-02-10T14:41:22Z</time>
      </trkpt>
      <trkpt lat="45.04145" lon="5.56182">
        <ele>1278.21</ele>
        <time>2010-02-10T14:41:24Z</time>
      </trkpt>
      <trkpt lat="45.04135" lon="5.56188">
        <ele>1282.54</ele>
        <time>2010-02-10T14:41:27Z</time>
      </trkpt>
      <trkpt lat="45.0413" lon="5.56191">
        <ele>1285.42</ele>
        <time>2010-02-10T14:41:29Z</time>
      </trkpt>
      <trkpt lat="45.04125" lon="5.56195">
        <ele>1289.27</ele>
        <time>2010-02-10T14:41:31Z</time>
      </trkpt>
      <trkpt lat="45.04118" lon="5.562">
        <ele>1293.11</ele>
        <time>2010-02-10T14:41:33Z</time>
      </trkpt>
      <trkpt lat="45.04108" lon="5.56208">
        <ele>1297.44</ele>
        <time>2010-02-10T14:41:36Z</time>
      </trkpt>
      <trkpt lat="45.04097" lon="5.56214">
        <ele>1302.72</ele>
        <time>2010-02-10T14:41:39Z</time>
      </trkpt>
      <trkpt lat="45.04094" lon="5.56218">
        <ele>1306.09</ele>
        <time>2010-02-10T14:41:41Z</time>
      </trkpt>
      <trkpt lat="45.04089" lon="5.56222">
        <ele>1309.93</ele>
        <time>2010-02-10T14:41:43Z</time>
      </trkpt>
      <trkpt lat="45.04086" lon="5.56224">
        <ele>1309.45</ele>
        <time>2010-02-10T14:41:44Z</time>
      </trkpt>
      <trkpt lat="45.04082" lon="5.56226">
        <ele>1313.78</ele>
        <time>2010-02-10T14:41:45Z</time>
      </trkpt>
      <trkpt lat="45.04076" lon="5.56231">
        <ele>1317.62</ele>
        <time>2010-02-10T14:41:47Z</time>
      </trkpt>
      <trkpt lat="45.0407" lon="5.56236">
        <ele>1320.51</ele>
        <time>2010-02-10T14:41:49Z</time>
      </trkpt>
      <trkpt lat="45.04064" lon="5.56242">
        <ele>1324.83</ele>
        <time>2010-02-10T14:41:51Z</time>
      </trkpt>
      <trkpt lat="45.04057" lon="5.56244">
        <ele>1328.68</ele>
        <time>2010-02-10T14:41:53Z</time>
      </trkpt>
      <trkpt lat="45.04052" lon="5.56248">
        <ele>1333.01</ele>
        <time>2010-02-10T14:41:55Z</time>
      </trkpt>
      <trkpt lat="45.04039" lon="5.56258">
        <ele>1337.81</ele>
        <time>2010-02-10T14:41:59Z</time>
      </trkpt>
      <trkpt lat="45.04033" lon="5.56263">
        <ele>1341.18</ele>
        <time>2010-02-10T14:42:01Z</time>
      </trkpt>
      <trkpt lat="45.0403" lon="5.56265">
        <ele>1344.06</ele>
        <time>2010-02-10T14:42:02Z</time>
      </trkpt>
      <trkpt lat="45.04018" lon="5.56274">
        <ele>1348.87</ele>
        <time>2010-02-10T14:42:06Z</time>
      </trkpt>
      <trkpt lat="45.04014" lon="5.56276">
        <ele>1346.94</ele>
        <time>2010-02-10T14:42:07Z</time>
      </trkpt>
      <trkpt lat="45.04011" lon="5.56276">
        <ele>1352.23</ele>
        <time>2010-02-10T14:42:08Z</time>
      </trkpt>
      <trkpt lat="45.04008" lon="5.56278">
        <ele>1351.75</ele>
        <time>2010-02-10T14:42:09Z</time>
      </trkpt>
      <trkpt lat="45.04003" lon="5.56283">
        <ele>1356.56</ele>
        <time>2010-02-10T14:42:11Z</time>
      </trkpt>
      <trkpt lat="45.03999" lon="5.56286">
        <ele>1360.4</ele>
        <time>2010-02-10T14:42:12Z</time>
      </trkpt>
      <trkpt lat="45.03989" lon="5.56293">
        <ele>1363.77</ele>
        <time>2010-02-10T14:42:15Z</time>
      </trkpt>
      <trkpt lat="45.03982" lon="5.56299">
        <ele>1368.09</ele>
        <time>2010-02-10T14:42:18Z</time>
      </trkpt>
      <trkpt lat="45.03974" lon="5.56304">
        <ele>1371.94</ele>
        <time>2010-02-10T14:42:20Z</time>
      </trkpt>
      <trkpt lat="45.03968" lon="5.56308">
        <ele>1374.82</ele>
        <time>2010-02-10T14:42:22Z</time>
      </trkpt>
      <trkpt lat="45.03962" lon="5.56309">
        <ele>1378.67</ele>
        <time>2010-02-10T14:42:24Z</time>
      </trkpt>
      <trkpt lat="45.03957" lon="5.56312">
        <ele>1382.99</ele>
        <time>2010-02-10T14:42:26Z</time>
      </trkpt>
      <trkpt lat="45.03946" lon="5.5632">
        <ele>1387.8</ele>
        <time>2010-02-10T14:42:29Z</time>
      </trkpt>
      <trkpt lat="45.03943" lon="5.56323">
        <ele>1386.84</ele>
        <time>2010-02-10T14:42:30Z</time>
      </trkpt>
      <trkpt lat="45.03936" lon="5.56331">
        <ele>1390.68</ele>
        <time>2010-02-10T14:42:33Z</time>
      </trkpt>
      <trkpt lat="45.03922" lon="5.5634">
        <ele>1394.53</ele>
        <time>2010-02-10T14:42:37Z</time>
      </trkpt>
      <trkpt lat="45.03914" lon="5.56345">
        <ele>1398.86</ele>
        <time>2010-02-10T14:42:39Z</time>
      </trkpt>
      <trkpt lat="45.03912" lon="5.56346">
        <ele>1398.37</ele>
        <time>2010-02-10T14:42:40Z</time>
      </trkpt>
      <trkpt lat="45.03902" lon="5.56353">
        <ele>1401.74</ele>
        <time>2010-02-10T14:42:43Z</time>
      </trkpt>
      <trkpt lat="45.0389" lon="5.56357">
        <ele>1405.1</ele>
        <time>2010-02-10T14:42:46Z</time>
      </trkpt>
      <trkpt lat="45.03879" lon="5.56363">
        <ele>1408.47</ele>
        <time>2010-02-10T14:42:49Z</time>
      </trkpt>
      <trkpt lat="45.03871" lon="5.56371">
        <ele>1413.28</ele>
        <time>2010-02-10T14:42:52Z</time>
      </trkpt>
      <trkpt lat="45.03865" lon="5.56376">
        <ele>1415.2</ele>
        <time>2010-02-10T14:42:54Z</time>
      </trkpt>
      <trkpt lat="45.03854" lon="5.56383">
        <ele>1421.45</ele>
        <time>2010-02-10T14:42:57Z</time>
      </trkpt>
      <trkpt lat="45.03844" lon="5.56394">
        <ele>1424.81</ele>
        <time>2010-02-10T14:43:00Z</time>
      </trkpt>
      <trkpt lat="45.03838" lon="5.56396">
        <ele>1426.73</ele>
        <time>2010-02-10T14:43:02Z</time>
      </trkpt>
      <trkpt lat="45.03833" lon="5.56399">
        <ele>1429.62</ele>
        <time>2010-02-10T14:43:04Z</time>
      </trkpt>
      <trkpt lat="45.03827" lon="5.56403">
        <ele>1432.98</ele>
        <time>2010-02-10T14:43:06Z</time>
      </trkpt>
      <trkpt lat="45.03815" lon="5.5641">
        <ele>1437.31</ele>
        <time>2010-02-10T14:43:09Z</time>
      </trkpt>
      <trkpt lat="45.03807" lon="5.56419">
        <ele>1441.63</ele>
        <time>2010-02-10T14:43:12Z</time>
      </trkpt>
      <trkpt lat="45.038" lon="5.56423">
        <ele>1445.48</ele>
        <time>2010-02-10T14:43:14Z</time>
      </trkpt>
      <trkpt lat="45.03793" lon="5.56427">
        <ele>1449.81</ele>
        <time>2010-02-10T14:43:17Z</time>
      </trkpt>
      <trkpt lat="45.03787" lon="5.5643">
        <ele>1454.61</ele>
        <time>2010-02-10T14:43:19Z</time>
      </trkpt>
      <trkpt lat="45.03779" lon="5.5644">
        <ele>1457.98</ele>
        <time>2010-02-10T14:43:22Z</time>
      </trkpt>
      <trkpt lat="45.03769" lon="5.56446">
        <ele>1461.34</ele>
        <time>2010-02-10T14:43:25Z</time>
      </trkpt>
      <trkpt lat="45.0376" lon="5.56452">
        <ele>1464.71</ele>
        <time>2010-02-10T14:43:28Z</time>
      </trkpt>
      <trkpt lat="45.03753" lon="5.56455">
        <ele>1468.07</ele>
        <time>2010-02-10T14:43:30Z</time>
      </trkpt>
      <trkpt lat="45.03741" lon="5.56463">
        <ele>1470.95</ele>
        <time>2010-02-10T14:43:33Z</time>
      </trkpt>
      <trkpt lat="45.03733" lon="5.56471">
        <ele>1474.32</ele>
        <time>2010-02-10T14:43:36Z</time>
      </trkpt>
      <trkpt lat="45.03724" lon="5.5648">
        <ele>1477.2</ele>
        <time>2010-02-10T14:43:40Z</time>
      </trkpt>
      <trkpt lat="45.03721" lon="5.56483">
        <ele>1478.16</ele>
        <time>2010-02-10T14:43:55Z</time>
      </trkpt>
      <trkpt lat="45.03713" lon="5.56489">
        <ele>1481.53</ele>
        <time>2010-02-10T14:44:36Z</time>
      </trkpt>
      <trkpt lat="45.03699" lon="5.56498">
        <ele>1484.41</ele>
        <time>2010-02-10T14:44:41Z</time>
      </trkpt>
      <trkpt lat="45.03695" lon="5.56501">
        <ele>1485.85</ele>
        <time>2010-02-10T14:44:43Z</time>
      </trkpt>
      <trkpt lat="45.03686" lon="5.56505">
        <ele>1489.22</ele>
        <time>2010-02-10T14:44:46Z</time>
      </trkpt>
      <trkpt lat="45.03678" lon="5.56513">
        <ele>1492.1</ele>
        <time>2010-02-10T14:44:49Z</time>
      </trkpt>
      <trkpt lat="45.03667" lon="5.5652">
        <ele>1496.43</ele>
        <time>2010-02-10T14:44:52Z</time>
      </trkpt>
      <trkpt lat="45.03652" lon="5.56528">
        <ele>1500.76</ele>
        <time>2010-02-10T14:44:56Z</time>
      </trkpt>
      <trkpt lat="45.03643" lon="5.56535">
        <ele>1505.08</ele>
        <time>2010-02-10T14:44:59Z</time>
      </trkpt>
      <trkpt lat="45.03638" lon="5.56544">
        <ele>1508.45</ele>
        <time>2010-02-10T14:45:02Z</time>
      </trkpt>
      <trkpt lat="45.03627" lon="5.5655">
        <ele>1512.29</ele>
        <time>2010-02-10T14:45:05Z</time>
      </trkpt>
      <trkpt lat="45.03619" lon="5.56554">
        <ele>1515.66</ele>
        <time>2010-02-10T14:45:07Z</time>
      </trkpt>
      <trkpt lat="45.03608" lon="5.56559">
        <ele>1519.98</ele>
        <time>2010-02-10T14:45:10Z</time>
      </trkpt>
      <trkpt lat="45.03602" lon="5.56568">
        <ele>1524.31</ele>
        <time>2010-02-10T14:45:13Z</time>
      </trkpt>
      <trkpt lat="45.03593" lon="5.56572">
        <ele>1528.15</ele>
        <time>2010-02-10T14:45:16Z</time>
      </trkpt>
      <trkpt lat="45.03586" lon="5.56579">
        <ele>1533.44</ele>
        <time>2010-02-10T14:45:19Z</time>
      </trkpt>
      <trkpt lat="45.03576" lon="5.56583">
        <ele>1537.29</ele>
        <time>2010-02-10T14:45:21Z</time>
      </trkpt>
      <trkpt lat="45.0357" lon="5.56586">
        <ele>1540.17</ele>
        <time>2010-02-10T14:45:23Z</time>
      </trkpt>
      <trkpt lat="45.03562" lon="5.56594">
        <ele>1543.53</ele>
        <time>2010-02-10T14:45:26Z</time>
      </trkpt>
      <trkpt lat="45.03553" lon="5.56599">
        <ele>1545.94</ele>
        <time>2010-02-10T14:45:29Z</time>
      </trkpt>
      <trkpt lat="45.03545" lon="5.56611">
        <ele>1549.3</ele>
        <time>2010-02-10T14:45:32Z</time>
      </trkpt>
      <trkpt lat="45.03536" lon="5.56614">
        <ele>1552.67</ele>
        <time>2010-02-10T14:45:34Z</time>
      </trkpt>
      <trkpt lat="45.03524" lon="5.56622">
        <ele>1556.99</ele>
        <time>2010-02-10T14:45:38Z</time>
      </trkpt>
      <trkpt lat="45.03513" lon="5.56629">
        <ele>1559.88</ele>
        <time>2010-02-10T14:45:41Z</time>
      </trkpt>
      <trkpt lat="45.03501" lon="5.56635">
        <ele>1564.2</ele>
        <time>2010-02-10T14:45:44Z</time>
      </trkpt>
      <trkpt lat="45.03493" lon="5.56642">
        <ele>1566.61</ele>
        <time>2010-02-10T14:45:47Z</time>
      </trkpt>
      <trkpt lat="45.0349" lon="5.56644">
        <ele>1570.93</ele>
        <time>2010-02-10T14:45:48Z</time>
      </trkpt>
      <trkpt lat="45.03486" lon="5.56647">
        <ele>1571.41</ele>
        <time>2010-02-10T14:45:49Z</time>
      </trkpt>
      <trkpt lat="45.03475" lon="5.56655">
        <ele>1574.3</ele>
        <time>2010-02-10T14:45:52Z</time>
      </trkpt>
      <trkpt lat="45.03468" lon="5.56659">
        <ele>1577.66</ele>
        <time>2010-02-10T14:45:54Z</time>
      </trkpt>
      <trkpt lat="45.03458" lon="5.56665">
        <ele>1581.51</ele>
        <time>2010-02-10T14:45:57Z</time>
      </trkpt>
      <trkpt lat="45.03453" lon="5.56671">
        <ele>1584.39</ele>
        <time>2010-02-10T14:45:59Z</time>
      </trkpt>
      <trkpt lat="45.03447" lon="5.56677">
        <ele>1588.24</ele>
        <time>2010-02-10T14:46:01Z</time>
      </trkpt>
      <trkpt lat="45.03436" lon="5.56681">
        <ele>1592.08</ele>
        <time>2010-02-10T14:46:04Z</time>
      </trkpt>
      <trkpt lat="45.0343" lon="5.56686">
        <ele>1595.45</ele>
        <time>2010-02-10T14:46:06Z</time>
      </trkpt>
      <trkpt lat="45.03422" lon="5.56693">
        <ele>1599.77</ele>
        <time>2010-02-10T14:46:09Z</time>
      </trkpt>
      <trkpt lat="45.03415" lon="5.56695">
        <ele>1603.14</ele>
        <time>2010-02-10T14:46:11Z</time>
      </trkpt>
      <trkpt lat="45.03408" lon="5.56699">
        <ele>1606.5</ele>
        <time>2010-02-10T14:46:13Z</time>
      </trkpt>
      <trkpt lat="45.03399" lon="5.56706">
        <ele>1610.35</ele>
        <time>2010-02-10T14:46:16Z</time>
      </trkpt>
      <trkpt lat="45.03398" lon="5.56708">
        <ele>1610.35</ele>
        <time>2010-02-10T14:46:17Z</time>
      </trkpt>
      <trkpt lat="45.03388" lon="5.56716">
        <ele>1614.19</ele>
        <time>2010-02-10T14:46:21Z</time>
      </trkpt>
      <trkpt lat="45.03375" lon="5.56727">
        <ele>1619</ele>
        <time>2010-02-10T14:46:25Z</time>
      </trkpt>
      <trkpt lat="45.03364" lon="5.56732">
        <ele>1622.36</ele>
        <time>2010-02-10T14:46:28Z</time>
      </trkpt>
      <trkpt lat="45.03352" lon="5.56738">
        <ele>1626.21</ele>
        <time>2010-02-10T14:46:31Z</time>
      </trkpt>
      <trkpt lat="45.03343" lon="5.56746">
        <ele>1629.09</ele>
        <time>2010-02-10T14:46:34Z</time>
      </trkpt>
      <trkpt lat="45.0333" lon="5.56755">
        <ele>1632.94</ele>
        <time>2010-02-10T14:46:37Z</time>
      </trkpt>
      <trkpt lat="45.0332" lon="5.5676">
        <ele>1636.3</ele>
        <time>2010-02-10T14:46:40Z</time>
      </trkpt>
      <trkpt lat="45.03314" lon="5.56764">
        <ele>1640.15</ele>
        <time>2010-02-10T14:46:43Z</time>
      </trkpt>
      <trkpt lat="45.0331" lon="5.5677">
        <ele>1643.51</ele>
        <time>2010-02-10T14:46:45Z</time>
      </trkpt>
      <trkpt lat="45.03299" lon="5.5678">
        <ele>1647.84</ele>
        <time>2010-02-10T14:46:48Z</time>
      </trkpt>
      <trkpt lat="45.03289" lon="5.5679">
        <ele>1651.68</ele>
        <time>2010-02-10T14:46:53Z</time>
      </trkpt>
      <trkpt lat="45.03276" lon="5.568">
        <ele>1655.53</ele>
        <time>2010-02-10T14:46:57Z</time>
      </trkpt>
      <trkpt lat="45.03259" lon="5.5681">
        <ele>1659.85</ele>
        <time>2010-02-10T14:47:01Z</time>
      </trkpt>
      <trkpt lat="45.03244" lon="5.56815">
        <ele>1663.22</ele>
        <time>2010-02-10T14:47:05Z</time>
      </trkpt>
      <trkpt lat="45.03234" lon="5.56826">
        <ele>1667.06</ele>
        <time>2010-02-10T14:47:09Z</time>
      </trkpt>
      <trkpt lat="45.03223" lon="5.56833">
        <ele>1670.91</ele>
        <time>2010-02-10T14:47:12Z</time>
      </trkpt>
      <trkpt lat="45.03212" lon="5.5684">
        <ele>1674.27</ele>
        <time>2010-02-10T14:47:15Z</time>
      </trkpt>
      <trkpt lat="45.03202" lon="5.56846">
        <ele>1677.64</ele>
        <time>2010-02-10T14:47:18Z</time>
      </trkpt>
      <trkpt lat="45.03193" lon="5.56855">
        <ele>1681</ele>
        <time>2010-02-10T14:47:21Z</time>
      </trkpt>
      <trkpt lat="45.03185" lon="5.56859">
        <ele>1684.37</ele>
        <time>2010-02-10T14:47:23Z</time>
      </trkpt>
      <trkpt lat="45.0317" lon="5.56865">
        <ele>1687.73</ele>
        <time>2010-02-10T14:47:26Z</time>
      </trkpt>
      <trkpt lat="45.03166" lon="5.5687">
        <ele>1689.17</ele>
        <time>2010-02-10T14:47:28Z</time>
      </trkpt>
      <trkpt lat="45.03156" lon="5.56879">
        <ele>1692.54</ele>
        <time>2010-02-10T14:47:32Z</time>
      </trkpt>
      <trkpt lat="45.03144" lon="5.56886">
        <ele>1695.9</ele>
        <time>2010-02-10T14:47:35Z</time>
      </trkpt>
      <trkpt lat="45.0313" lon="5.56895">
        <ele>1699.27</ele>
        <time>2010-02-10T14:47:39Z</time>
      </trkpt>
      <trkpt lat="45.03122" lon="5.569">
        <ele>1702.15</ele>
        <time>2010-02-10T14:47:42Z</time>
      </trkpt>
      <trkpt lat="45.03111" lon="5.56909">
        <ele>1706.48</ele>
        <time>2010-02-10T14:47:46Z</time>
      </trkpt>
      <trkpt lat="45.031" lon="5.56918">
        <ele>1709.36</ele>
        <time>2010-02-10T14:47:49Z</time>
      </trkpt>
      <trkpt lat="45.03089" lon="5.56925">
        <ele>1713.21</ele>
        <time>2010-02-10T14:47:52Z</time>
      </trkpt>
      <trkpt lat="45.03082" lon="5.56932">
        <ele>1717.05</ele>
        <time>2010-02-10T14:47:55Z</time>
      </trkpt>
      <trkpt lat="45.03072" lon="5.56937">
        <ele>1720.42</ele>
        <time>2010-02-10T14:47:58Z</time>
      </trkpt>
      <trkpt lat="45.03059" lon="5.56944">
        <ele>1724.26</ele>
        <time>2010-02-10T14:48:01Z</time>
      </trkpt>
      <trkpt lat="45.0305" lon="5.56951">
        <ele>1728.11</ele>
        <time>2010-02-10T14:48:04Z</time>
      </trkpt>
      <trkpt lat="45.03041" lon="5.5696">
        <ele>1731.47</ele>
        <time>2010-02-10T14:48:07Z</time>
      </trkpt>
      <trkpt lat="45.03019" lon="5.56977">
        <ele>1731.95</ele>
        <time>2010-02-10T14:48:19Z</time>
      </trkpt>
      <trkpt lat="45.03005" lon="5.56986">
        <ele>1732.43</ele>
        <time>2010-02-10T14:48:39Z</time>
      </trkpt>
      <trkpt lat="45.02991" lon="5.57012">
        <ele>1732.43</ele>
        <time>2010-02-10T14:49:17Z</time>
      </trkpt>
      <trkpt lat="45.02997" lon="5.5702">
        <ele>1731.95</ele>
        <time>2010-02-10T14:49:49Z</time>
      </trkpt>
      <trkpt lat="45.03004" lon="5.57026">
        <ele>1726.67</ele>
        <time>2010-02-10T14:49:52Z</time>
      </trkpt>
      <trkpt lat="45.03029" lon="5.57013">
        <ele>1720.42</ele>
        <time>2010-02-10T14:49:56Z</time>
      </trkpt>
      <trkpt lat="45.03043" lon="5.57003">
        <ele>1717.53</ele>
        <time>2010-02-10T14:49:58Z</time>
      </trkpt>
      <trkpt lat="45.03058" lon="5.56994">
        <ele>1714.17</ele>
        <time>2010-02-10T14:50:00Z</time>
      </trkpt>
      <trkpt lat="45.03064" lon="5.56992">
        <ele>1713.69</ele>
        <time>2010-02-10T14:50:01Z</time>
      </trkpt>
      <trkpt lat="45.0307" lon="5.56995">
        <ele>1710.32</ele>
        <time>2010-02-10T14:50:02Z</time>
      </trkpt>
      <trkpt lat="45.03077" lon="5.56998">
        <ele>1706</ele>
        <time>2010-02-10T14:50:03Z</time>
      </trkpt>
      <trkpt lat="45.03085" lon="5.56998">
        <ele>1702.15</ele>
        <time>2010-02-10T14:50:04Z</time>
      </trkpt>
      <trkpt lat="45.031" lon="5.56998">
        <ele>1697.83</ele>
        <time>2010-02-10T14:50:06Z</time>
      </trkpt>
      <trkpt lat="45.03108" lon="5.57001">
        <ele>1691.58</ele>
        <time>2010-02-10T14:50:07Z</time>
      </trkpt>
      <trkpt lat="45.03127" lon="5.57003">
        <ele>1684.37</ele>
        <time>2010-02-10T14:50:09Z</time>
      </trkpt>
      <trkpt lat="45.03147" lon="5.57006">
        <ele>1677.16</ele>
        <time>2010-02-10T14:50:11Z</time>
      </trkpt>
      <trkpt lat="45.03157" lon="5.57011">
        <ele>1672.35</ele>
        <time>2010-02-10T14:50:12Z</time>
      </trkpt>
      <trkpt lat="45.03168" lon="5.57013">
        <ele>1668.51</ele>
        <time>2010-02-10T14:50:13Z</time>
      </trkpt>
      <trkpt lat="45.03188" lon="5.5702">
        <ele>1657.45</ele>
        <time>2010-02-10T14:50:15Z</time>
      </trkpt>
      <trkpt lat="45.03209" lon="5.57014">
        <ele>1650.72</ele>
        <time>2010-02-10T14:50:17Z</time>
      </trkpt>
      <trkpt lat="45.0322" lon="5.57016">
        <ele>1645.91</ele>
        <time>2010-02-10T14:50:18Z</time>
      </trkpt>
      <trkpt lat="45.03232" lon="5.5702">
        <ele>1640.15</ele>
        <time>2010-02-10T14:50:19Z</time>
      </trkpt>
      <trkpt lat="45.03244" lon="5.57019">
        <ele>1635.82</ele>
        <time>2010-02-10T14:50:20Z</time>
      </trkpt>
      <trkpt lat="45.03258" lon="5.57016">
        <ele>1630.53</ele>
        <time>2010-02-10T14:50:21Z</time>
      </trkpt>
      <trkpt lat="45.03271" lon="5.57019">
        <ele>1625.73</ele>
        <time>2010-02-10T14:50:22Z</time>
      </trkpt>
      <trkpt lat="45.03294" lon="5.57034">
        <ele>1621.4</ele>
        <time>2010-02-10T14:50:24Z</time>
      </trkpt>
      <trkpt lat="45.03339" lon="5.57043">
        <ele>1618.04</ele>
        <time>2010-02-10T14:50:29Z</time>
      </trkpt>
      <trkpt lat="45.03347" lon="5.57046">
        <ele>1618.04</ele>
        <time>2010-02-10T14:50:30Z</time>
      </trkpt>
      <trkpt lat="45.03384" lon="5.57057">
        <ele>1613.71</ele>
        <time>2010-02-10T14:50:35Z</time>
      </trkpt>
      <trkpt lat="45.03408" lon="5.57056">
        <ele>1610.35</ele>
        <time>2010-02-10T14:50:38Z</time>
      </trkpt>
      <trkpt lat="45.03417" lon="5.57055">
        <ele>1606.02</ele>
        <time>2010-02-10T14:50:39Z</time>
      </trkpt>
      <trkpt lat="45.03436" lon="5.57056">
        <ele>1601.21</ele>
        <time>2010-02-10T14:50:41Z</time>
      </trkpt>
      <trkpt lat="45.03456" lon="5.57057">
        <ele>1597.85</ele>
        <time>2010-02-10T14:50:43Z</time>
      </trkpt>
      <trkpt lat="45.03474" lon="5.57056">
        <ele>1594.48</ele>
        <time>2010-02-10T14:50:45Z</time>
      </trkpt>
      <trkpt lat="45.03503" lon="5.57055">
        <ele>1590.16</ele>
        <time>2010-02-10T14:50:48Z</time>
      </trkpt>
      <trkpt lat="45.03531" lon="5.57058">
        <ele>1585.83</ele>
        <time>2010-02-10T14:50:51Z</time>
      </trkpt>
      <trkpt lat="45.03558" lon="5.5706">
        <ele>1582.47</ele>
        <time>2010-02-10T14:50:54Z</time>
      </trkpt>
      <trkpt lat="45.03582" lon="5.57059">
        <ele>1579.1</ele>
        <time>2010-02-10T14:50:57Z</time>
      </trkpt>
      <trkpt lat="45.03599" lon="5.5706">
        <ele>1575.74</ele>
        <time>2010-02-10T14:50:59Z</time>
      </trkpt>
      <trkpt lat="45.03617" lon="5.57062">
        <ele>1571.89</ele>
        <time>2010-02-10T14:51:01Z</time>
      </trkpt>
      <trkpt lat="45.03636" lon="5.57063">
        <ele>1568.53</ele>
        <time>2010-02-10T14:51:03Z</time>
      </trkpt>
      <trkpt lat="45.03657" lon="5.57061">
        <ele>1563.72</ele>
        <time>2010-02-10T14:51:05Z</time>
      </trkpt>
      <trkpt lat="45.03668" lon="5.5706">
        <ele>1558.92</ele>
        <time>2010-02-10T14:51:06Z</time>
      </trkpt>
      <trkpt lat="45.03679" lon="5.5706">
        <ele>1554.11</ele>
        <time>2010-02-10T14:51:07Z</time>
      </trkpt>
      <trkpt lat="45.03691" lon="5.57059">
        <ele>1549.78</ele>
        <time>2010-02-10T14:51:08Z</time>
      </trkpt>
      <trkpt lat="45.03703" lon="5.57058">
        <ele>1544.98</ele>
        <time>2010-02-10T14:51:09Z</time>
      </trkpt>
      <trkpt lat="45.03716" lon="5.57058">
        <ele>1541.61</ele>
        <time>2010-02-10T14:51:10Z</time>
      </trkpt>
      <trkpt lat="45.0373" lon="5.57058">
        <ele>1537.29</ele>
        <time>2010-02-10T14:51:11Z</time>
      </trkpt>
      <trkpt lat="45.03745" lon="5.57055">
        <ele>1532.96</ele>
        <time>2010-02-10T14:51:12Z</time>
      </trkpt>
      <trkpt lat="45.03776" lon="5.57055">
        <ele>1521.42</ele>
        <time>2010-02-10T14:51:14Z</time>
      </trkpt>
      <trkpt lat="45.0379" lon="5.57056">
        <ele>1521.42</ele>
        <time>2010-02-10T14:51:15Z</time>
      </trkpt>
      <trkpt lat="45.03803" lon="5.57055">
        <ele>1519.98</ele>
        <time>2010-02-10T14:51:16Z</time>
      </trkpt>
      <trkpt lat="45.03825" lon="5.57057">
        <ele>1518.54</ele>
        <time>2010-02-10T14:51:18Z</time>
      </trkpt>
      <trkpt lat="45.03844" lon="5.57062">
        <ele>1518.06</ele>
        <time>2010-02-10T14:51:20Z</time>
      </trkpt>
      <trkpt lat="45.03885" lon="5.57051">
        <ele>1514.69</ele>
        <time>2010-02-10T14:51:25Z</time>
      </trkpt>
      <trkpt lat="45.03892" lon="5.57048">
        <ele>1515.18</ele>
        <time>2010-02-10T14:51:26Z</time>
      </trkpt>
      <trkpt lat="45.03908" lon="5.57044">
        <ele>1517.1</ele>
        <time>2010-02-10T14:51:29Z</time>
      </trkpt>
      <trkpt lat="45.03915" lon="5.57049">
        <ele>1515.18</ele>
        <time>2010-02-10T14:51:31Z</time>
      </trkpt>
      <trkpt lat="45.03914" lon="5.57056">
        <ele>1514.69</ele>
        <time>2010-02-10T14:51:40Z</time>
      </trkpt>
      <trkpt lat="45.03906" lon="5.57062">
        <ele>1513.25</ele>
        <time>2010-02-10T14:52:03Z</time>
      </trkpt>
      <trkpt lat="45.03877" lon="5.57062">
        <ele>1516.62</ele>
        <time>2010-02-10T14:52:13Z</time>
      </trkpt>
      <trkpt lat="45.03868" lon="5.57062">
        <ele>1520.46</ele>
        <time>2010-02-10T14:52:16Z</time>
      </trkpt>
      <trkpt lat="45.03862" lon="5.57063">
        <ele>1524.79</ele>
        <time>2010-02-10T14:52:18Z</time>
      </trkpt>
      <trkpt lat="45.0385" lon="5.57063">
        <ele>1526.23</ele>
        <time>2010-02-10T14:52:21Z</time>
      </trkpt>
      <trkpt lat="45.03831" lon="5.57062">
        <ele>1529.11</ele>
        <time>2010-02-10T14:52:26Z</time>
      </trkpt>
      <trkpt lat="45.0382" lon="5.57063">
        <ele>1532.48</ele>
        <time>2010-02-10T14:52:29Z</time>
      </trkpt>
      <trkpt lat="45.03795" lon="5.57062">
        <ele>1536.32</ele>
        <time>2010-02-10T14:52:33Z</time>
      </trkpt>
      <trkpt lat="45.03785" lon="5.57063">
        <ele>1539.69</ele>
        <time>2010-02-10T14:52:36Z</time>
      </trkpt>
      <trkpt lat="45.03771" lon="5.57064">
        <ele>1541.61</ele>
        <time>2010-02-10T14:52:40Z</time>
      </trkpt>
      <trkpt lat="45.03757" lon="5.57062">
        <ele>1544.01</ele>
        <time>2010-02-10T14:52:44Z</time>
      </trkpt>
      <trkpt lat="45.03744" lon="5.57062">
        <ele>1546.9</ele>
        <time>2010-02-10T14:52:48Z</time>
      </trkpt>
      <trkpt lat="45.03723" lon="5.57063">
        <ele>1550.74</ele>
        <time>2010-02-10T14:52:53Z</time>
      </trkpt>
      <trkpt lat="45.03707" lon="5.57064">
        <ele>1554.11</ele>
        <time>2010-02-10T14:52:57Z</time>
      </trkpt>
      <trkpt lat="45.03699" lon="5.57063">
        <ele>1557.47</ele>
        <time>2010-02-10T14:53:00Z</time>
      </trkpt>
      <trkpt lat="45.03692" lon="5.57061">
        <ele>1560.84</ele>
        <time>2010-02-10T14:53:03Z</time>
      </trkpt>
      <trkpt lat="45.03688" lon="5.57061">
        <ele>1560.84</ele>
        <time>2010-02-10T14:53:04Z</time>
      </trkpt>
      <trkpt lat="45.03679" lon="5.57064">
        <ele>1564.2</ele>
        <time>2010-02-10T14:53:06Z</time>
      </trkpt>
      <trkpt lat="45.03668" lon="5.57068">
        <ele>1567.57</ele>
        <time>2010-02-10T14:53:09Z</time>
      </trkpt>
      <trkpt lat="45.03658" lon="5.57067">
        <ele>1569.97</ele>
        <time>2010-02-10T14:53:12Z</time>
      </trkpt>
      <trkpt lat="45.03639" lon="5.57065">
        <ele>1573.82</ele>
        <time>2010-02-10T14:53:18Z</time>
      </trkpt>
      <trkpt lat="45.03626" lon="5.57067">
        <ele>1576.7</ele>
        <time>2010-02-10T14:53:21Z</time>
      </trkpt>
      <trkpt lat="45.0361" lon="5.57066">
        <ele>1580.06</ele>
        <time>2010-02-10T14:53:25Z</time>
      </trkpt>
      <trkpt lat="45.03601" lon="5.57062">
        <ele>1583.43</ele>
        <time>2010-02-10T14:53:29Z</time>
      </trkpt>
      <trkpt lat="45.03585" lon="5.57063">
        <ele>1588.24</ele>
        <time>2010-02-10T14:53:33Z</time>
      </trkpt>
      <trkpt lat="45.03578" lon="5.57064">
        <ele>1589.2</ele>
        <time>2010-02-10T14:53:35Z</time>
      </trkpt>
      <trkpt lat="45.03546" lon="5.57063">
        <ele>1592.08</ele>
        <time>2010-02-10T14:53:43Z</time>
      </trkpt>
      <trkpt lat="45.03527" lon="5.57065">
        <ele>1595.93</ele>
        <time>2010-02-10T14:53:49Z</time>
      </trkpt>
      <trkpt lat="45.03509" lon="5.57064">
        <ele>1599.29</ele>
        <time>2010-02-10T14:53:54Z</time>
      </trkpt>
      <trkpt lat="45.03496" lon="5.57065">
        <ele>1602.66</ele>
        <time>2010-02-10T14:53:58Z</time>
      </trkpt>
      <trkpt lat="45.03483" lon="5.57063">
        <ele>1604.1</ele>
        <time>2010-02-10T14:54:01Z</time>
      </trkpt>
      <trkpt lat="45.03457" lon="5.57064">
        <ele>1607.46</ele>
        <time>2010-02-10T14:54:08Z</time>
      </trkpt>
      <trkpt lat="45.03451" lon="5.57064">
        <ele>1607.94</ele>
        <time>2010-02-10T14:54:10Z</time>
      </trkpt>
      <trkpt lat="45.03441" lon="5.57064">
        <ele>1609.86</ele>
        <time>2010-02-10T14:54:13Z</time>
      </trkpt>
      <trkpt lat="45.03422" lon="5.57065">
        <ele>1613.71</ele>
        <time>2010-02-10T14:54:18Z</time>
      </trkpt>
      <trkpt lat="45.03404" lon="5.57066">
        <ele>1618.04</ele>
        <time>2010-02-10T14:54:23Z</time>
      </trkpt>
      <trkpt lat="45.03391" lon="5.57064">
        <ele>1621.4</ele>
        <time>2010-02-10T14:54:27Z</time>
      </trkpt>
      <trkpt lat="45.03379" lon="5.57065">
        <ele>1622.36</ele>
        <time>2010-02-10T14:54:30Z</time>
      </trkpt>
      <trkpt lat="45.03358" lon="5.57065">
        <ele>1625.73</ele>
        <time>2010-02-10T14:54:36Z</time>
      </trkpt>
      <trkpt lat="45.03337" lon="5.57065">
        <ele>1629.57</ele>
        <time>2010-02-10T14:54:42Z</time>
      </trkpt>
      <trkpt lat="45.03322" lon="5.57062">
        <ele>1633.42</ele>
        <time>2010-02-10T14:54:47Z</time>
      </trkpt>
      <trkpt lat="45.03306" lon="5.57067">
        <ele>1637.26</ele>
        <time>2010-02-10T14:54:52Z</time>
      </trkpt>
      <trkpt lat="45.03292" lon="5.57068">
        <ele>1641.11</ele>
        <time>2010-02-10T14:54:56Z</time>
      </trkpt>
      <trkpt lat="45.03268" lon="5.57062">
        <ele>1643.51</ele>
        <time>2010-02-10T14:55:02Z</time>
      </trkpt>
      <trkpt lat="45.03249" lon="5.57067">
        <ele>1646.88</ele>
        <time>2010-02-10T14:55:07Z</time>
      </trkpt>
      <trkpt lat="45.03233" lon="5.57063">
        <ele>1649.76</ele>
        <time>2010-02-10T14:55:12Z</time>
      </trkpt>
      <trkpt lat="45.03226" lon="5.57064">
        <ele>1651.68</ele>
        <time>2010-02-10T14:55:14Z</time>
      </trkpt>
      <trkpt lat="45.03218" lon="5.57066">
        <ele>1653.12</ele>
        <time>2010-02-10T14:55:16Z</time>
      </trkpt>
      <trkpt lat="45.03203" lon="5.57063">
        <ele>1656.49</ele>
        <time>2010-02-10T14:55:20Z</time>
      </trkpt>
      <trkpt lat="45.03191" lon="5.57063">
        <ele>1660.33</ele>
        <time>2010-02-10T14:55:24Z</time>
      </trkpt>
      <trkpt lat="45.03181" lon="5.57063">
        <ele>1663.7</ele>
        <time>2010-02-10T14:55:27Z</time>
      </trkpt>
      <trkpt lat="45.03165" lon="5.57064">
        <ele>1667.54</ele>
        <time>2010-02-10T14:55:31Z</time>
      </trkpt>
      <trkpt lat="45.03156" lon="5.57064">
        <ele>1671.39</ele>
        <time>2010-02-10T14:55:34Z</time>
      </trkpt>
      <trkpt lat="45.03142" lon="5.57064">
        <ele>1674.75</ele>
        <time>2010-02-10T14:55:38Z</time>
      </trkpt>
      <trkpt lat="45.0313" lon="5.57063">
        <ele>1678.12</ele>
        <time>2010-02-10T14:55:41Z</time>
      </trkpt>
      <trkpt lat="45.0312" lon="5.57064">
        <ele>1681.96</ele>
        <time>2010-02-10T14:55:44Z</time>
      </trkpt>
      <trkpt lat="45.03113" lon="5.57063">
        <ele>1685.81</ele>
        <time>2010-02-10T14:55:47Z</time>
      </trkpt>
      <trkpt lat="45.03104" lon="5.57062">
        <ele>1689.17</ele>
        <time>2010-02-10T14:55:49Z</time>
      </trkpt>
      <trkpt lat="45.03092" lon="5.57061">
        <ele>1693.5</ele>
        <time>2010-02-10T14:55:52Z</time>
      </trkpt>
      <trkpt lat="45.03086" lon="5.57063">
        <ele>1696.38</ele>
        <time>2010-02-10T14:55:54Z</time>
      </trkpt>
      <trkpt lat="45.03072" lon="5.57062">
        <ele>1699.75</ele>
        <time>2010-02-10T14:55:58Z</time>
      </trkpt>
      <trkpt lat="45.03057" lon="5.57061">
        <ele>1703.11</ele>
        <time>2010-02-10T14:56:02Z</time>
      </trkpt>
      <trkpt lat="45.03045" lon="5.57062">
        <ele>1706.48</ele>
        <time>2010-02-10T14:56:05Z</time>
      </trkpt>
      <trkpt lat="45.03034" lon="5.57061">
        <ele>1709.84</ele>
        <time>2010-02-10T14:56:08Z</time>
      </trkpt>
      <trkpt lat="45.0302" lon="5.57065">
        <ele>1713.21</ele>
        <time>2010-02-10T14:56:12Z</time>
      </trkpt>
      <trkpt lat="45.03012" lon="5.57063">
        <ele>1717.53</ele>
        <time>2010-02-10T14:56:15Z</time>
      </trkpt>
      <trkpt lat="45.02999" lon="5.57068">
        <ele>1721.86</ele>
        <time>2010-02-10T14:56:19Z</time>
      </trkpt>
      <trkpt lat="45.02987" lon="5.57065">
        <ele>1725.22</ele>
        <time>2010-02-10T14:56:22Z</time>
      </trkpt>
      <trkpt lat="45.02974" lon="5.57063">
        <ele>1728.11</ele>
        <time>2010-02-10T14:56:26Z</time>
      </trkpt>
      <trkpt lat="45.02959" lon="5.57065">
        <ele>1731.95</ele>
        <time>2010-02-10T14:56:30Z</time>
      </trkpt>
      <trkpt lat="45.02945" lon="5.57062">
        <ele>1735.8</ele>
        <time>2010-02-10T14:56:34Z</time>
      </trkpt>
      <trkpt lat="45.02932" lon="5.57065">
        <ele>1739.64</ele>
        <time>2010-02-10T14:56:38Z</time>
      </trkpt>
      <trkpt lat="45.0292" lon="5.57066">
        <ele>1743.01</ele>
        <time>2010-02-10T14:56:41Z</time>
      </trkpt>
      <trkpt lat="45.02909" lon="5.57065">
        <ele>1746.37</ele>
        <time>2010-02-10T14:56:44Z</time>
      </trkpt>
      <trkpt lat="45.029" lon="5.57063">
        <ele>1749.26</ele>
        <time>2010-02-10T14:56:47Z</time>
      </trkpt>
      <trkpt lat="45.02891" lon="5.57065">
        <ele>1754.06</ele>
        <time>2010-02-10T14:56:50Z</time>
      </trkpt>
      <trkpt lat="45.02878" lon="5.57065">
        <ele>1757.91</ele>
        <time>2010-02-10T14:56:53Z</time>
      </trkpt>
      <trkpt lat="45.02865" lon="5.57063">
        <ele>1761.27</ele>
        <time>2010-02-10T14:56:57Z</time>
      </trkpt>
      <trkpt lat="45.02852" lon="5.57067">
        <ele>1764.16</ele>
        <time>2010-02-10T14:57:01Z</time>
      </trkpt>
      <trkpt lat="45.0284" lon="5.57065">
        <ele>1767.52</ele>
        <time>2010-02-10T14:57:04Z</time>
      </trkpt>
      <trkpt lat="45.02829" lon="5.57065">
        <ele>1771.37</ele>
        <time>2010-02-10T14:57:08Z</time>
      </trkpt>
      <trkpt lat="45.02818" lon="5.57063">
        <ele>1774.73</ele>
        <time>2010-02-10T14:57:11Z</time>
      </trkpt>
      <trkpt lat="45.02806" lon="5.57062">
        <ele>1778.1</ele>
        <time>2010-02-10T14:57:14Z</time>
      </trkpt>
      <trkpt lat="45.02798" lon="5.57066">
        <ele>1781.46</ele>
        <time>2010-02-10T14:57:17Z</time>
      </trkpt>
      <trkpt lat="45.02787" lon="5.57068">
        <ele>1785.31</ele>
        <time>2010-02-10T14:57:20Z</time>
      </trkpt>
      <trkpt lat="45.02776" lon="5.57067">
        <ele>1788.67</ele>
        <time>2010-02-10T14:57:23Z</time>
      </trkpt>
      <trkpt lat="45.02767" lon="5.57063">
        <ele>1792.03</ele>
        <time>2010-02-10T14:57:26Z</time>
      </trkpt>
      <trkpt lat="45.02757" lon="5.57063">
        <ele>1794.44</ele>
        <time>2010-02-10T14:57:29Z</time>
      </trkpt>
      <trkpt lat="45.02745" lon="5.57069">
        <ele>1797.8</ele>
        <time>2010-02-10T14:57:32Z</time>
      </trkpt>
      <trkpt lat="45.02734" lon="5.57064">
        <ele>1801.17</ele>
        <time>2010-02-10T14:57:35Z</time>
      </trkpt>
      <trkpt lat="45.0272" lon="5.57066">
        <ele>1804.53</ele>
        <time>2010-02-10T14:57:39Z</time>
      </trkpt>
      <trkpt lat="45.02709" lon="5.57068">
        <ele>1807.9</ele>
        <time>2010-02-10T14:57:42Z</time>
      </trkpt>
      <trkpt lat="45.02699" lon="5.57068">
        <ele>1811.26</ele>
        <time>2010-02-10T14:57:45Z</time>
      </trkpt>
      <trkpt lat="45.02691" lon="5.57064">
        <ele>1814.15</ele>
        <time>2010-02-10T14:57:47Z</time>
      </trkpt>
      <trkpt lat="45.0268" lon="5.57065">
        <ele>1817.99</ele>
        <time>2010-02-10T14:57:50Z</time>
      </trkpt>
      <trkpt lat="45.02674" lon="5.57068">
        <ele>1821.84</ele>
        <time>2010-02-10T14:57:53Z</time>
      </trkpt>
      <trkpt lat="45.02662" lon="5.57066">
        <ele>1826.16</ele>
        <time>2010-02-10T14:57:56Z</time>
      </trkpt>
      <trkpt lat="45.0265" lon="5.57064">
        <ele>1830.49</ele>
        <time>2010-02-10T14:57:59Z</time>
      </trkpt>
      <trkpt lat="45.02638" lon="5.57065">
        <ele>1833.85</ele>
        <time>2010-02-10T14:58:03Z</time>
      </trkpt>
      <trkpt lat="45.02628" lon="5.57067">
        <ele>1837.22</ele>
        <time>2010-02-10T14:58:06Z</time>
      </trkpt>
      <trkpt lat="45.02616" lon="5.57066">
        <ele>1840.58</ele>
        <time>2010-02-10T14:58:09Z</time>
      </trkpt>
      <trkpt lat="45.02608" lon="5.57067">
        <ele>1843.95</ele>
        <time>2010-02-10T14:58:12Z</time>
      </trkpt>
      <trkpt lat="45.02597" lon="5.57067">
        <ele>1847.79</ele>
        <time>2010-02-10T14:58:15Z</time>
      </trkpt>
      <trkpt lat="45.02585" lon="5.57066">
        <ele>1851.64</ele>
        <time>2010-02-10T14:58:18Z</time>
      </trkpt>
      <trkpt lat="45.02575" lon="5.57065">
        <ele>1855</ele>
        <time>2010-02-10T14:58:21Z</time>
      </trkpt>
      <trkpt lat="45.02567" lon="5.57068">
        <ele>1858.37</ele>
        <time>2010-02-10T14:58:24Z</time>
      </trkpt>
      <trkpt lat="45.0256" lon="5.57069">
        <ele>1861.73</ele>
        <time>2010-02-10T14:58:26Z</time>
      </trkpt>
      <trkpt lat="45.02548" lon="5.57067">
        <ele>1866.06</ele>
        <time>2010-02-10T14:58:29Z</time>
      </trkpt>
      <trkpt lat="45.02541" lon="5.57065">
        <ele>1867.98</ele>
        <time>2010-02-10T14:58:31Z</time>
      </trkpt>
      <trkpt lat="45.02531" lon="5.57065">
        <ele>1871.34</ele>
        <time>2010-02-10T14:58:34Z</time>
      </trkpt>
      <trkpt lat="45.02517" lon="5.57066">
        <ele>1874.23</ele>
        <time>2010-02-10T14:58:38Z</time>
      </trkpt>
      <trkpt lat="45.02503" lon="5.57066">
        <ele>1878.55</ele>
        <time>2010-02-10T14:58:42Z</time>
      </trkpt>
      <trkpt lat="45.0249" lon="5.57068">
        <ele>1881.92</ele>
        <time>2010-02-10T14:58:46Z</time>
      </trkpt>
      <trkpt lat="45.02482" lon="5.57065">
        <ele>1885.28</ele>
        <time>2010-02-10T14:58:49Z</time>
      </trkpt>
      <trkpt lat="45.02474" lon="5.57067">
        <ele>1888.65</ele>
        <time>2010-02-10T14:58:51Z</time>
      </trkpt>
      <trkpt lat="45.02465" lon="5.57068">
        <ele>1892.01</ele>
        <time>2010-02-10T14:58:54Z</time>
      </trkpt>
      <trkpt lat="45.02451" lon="5.57068">
        <ele>1895.38</ele>
        <time>2010-02-10T14:58:58Z</time>
      </trkpt>
      <trkpt lat="45.02444" lon="5.57067">
        <ele>1895.86</ele>
        <time>2010-02-10T14:59:00Z</time>
      </trkpt>
      <trkpt lat="45.0243" lon="5.57067">
        <ele>1899.22</ele>
        <time>2010-02-10T14:59:04Z</time>
      </trkpt>
      <trkpt lat="45.02416" lon="5.57068">
        <ele>1903.07</ele>
        <time>2010-02-10T14:59:08Z</time>
      </trkpt>
      <trkpt lat="45.02405" lon="5.57066">
        <ele>1906.43</ele>
        <time>2010-02-10T14:59:11Z</time>
      </trkpt>
      <trkpt lat="45.02388" lon="5.57065">
        <ele>1910.28</ele>
        <time>2010-02-10T14:59:15Z</time>
      </trkpt>
      <trkpt lat="45.02379" lon="5.57066">
        <ele>1913.16</ele>
        <time>2010-02-10T14:59:18Z</time>
      </trkpt>
      <trkpt lat="45.02368" lon="5.57064">
        <ele>1916.53</ele>
        <time>2010-02-10T14:59:21Z</time>
      </trkpt>
      <trkpt lat="45.02358" lon="5.57063">
        <ele>1919.89</ele>
        <time>2010-02-10T14:59:24Z</time>
      </trkpt>
      <trkpt lat="45.02346" lon="5.57066">
        <ele>1923.25</ele>
        <time>2010-02-10T14:59:27Z</time>
      </trkpt>
      <trkpt lat="45.02335" lon="5.57066">
        <ele>1927.58</ele>
        <time>2010-02-10T14:59:30Z</time>
      </trkpt>
      <trkpt lat="45.02314" lon="5.57063">
        <ele>1931.43</ele>
        <time>2010-02-10T14:59:36Z</time>
      </trkpt>
      <trkpt lat="45.0231" lon="5.57064">
        <ele>1930.95</ele>
        <time>2010-02-10T14:59:37Z</time>
      </trkpt>
      <trkpt lat="45.02295" lon="5.57067">
        <ele>1934.31</ele>
        <time>2010-02-10T14:59:41Z</time>
      </trkpt>
      <trkpt lat="45.02287" lon="5.57067">
        <ele>1934.79</ele>
        <time>2010-02-10T14:59:43Z</time>
      </trkpt>
      <trkpt lat="45.0228" lon="5.57067">
        <ele>1938.64</ele>
        <time>2010-02-10T14:59:45Z</time>
      </trkpt>
      <trkpt lat="45.02277" lon="5.57068">
        <ele>1937.19</ele>
        <time>2010-02-10T14:59:46Z</time>
      </trkpt>
      <trkpt lat="45.0225" lon="5.57071">
        <ele>1940.08</ele>
        <time>2010-02-10T14:59:54Z</time>
      </trkpt>
      <trkpt lat="45.02248" lon="5.57071">
        <ele>1940.56</ele>
        <time>2010-02-10T14:59:55Z</time>
      </trkpt>
      <trkpt lat="45.02239" lon="5.57063">
        <ele>1940.08</ele>
        <time>2010-02-10T15:00:07Z</time>
      </trkpt>
      <trkpt lat="45.02242" lon="5.57061">
        <ele>1938.64</ele>
        <time>2010-02-10T15:00:20Z</time>
      </trkpt>
      <trkpt lat="45.02248" lon="5.57053">
        <ele>1937.19</ele>
        <time>2010-02-10T15:00:24Z</time>
      </trkpt>
      <trkpt lat="45.02274" lon="5.5705">
        <ele>1933.83</ele>
        <time>2010-02-10T15:00:34Z</time>
      </trkpt>
      <trkpt lat="45.02279" lon="5.5705">
        <ele>1931.91</ele>
        <time>2010-02-10T15:00:35Z</time>
      </trkpt>
      <trkpt lat="45.02299" lon="5.57052">
        <ele>1924.7</ele>
        <time>2010-02-10T15:00:38Z</time>
      </trkpt>
      <trkpt lat="45.02308" lon="5.57053">
        <ele>1922.29</ele>
        <time>2010-02-10T15:00:39Z</time>
      </trkpt>
      <trkpt lat="45.02328" lon="5.57056">
        <ele>1915.08</ele>
        <time>2010-02-10T15:00:41Z</time>
      </trkpt>
      <trkpt lat="45.02339" lon="5.57056">
        <ele>1911.24</ele>
        <time>2010-02-10T15:00:42Z</time>
      </trkpt>
      <trkpt lat="45.02369" lon="5.57049">
        <ele>1904.51</ele>
        <time>2010-02-10T15:00:45Z</time>
      </trkpt>
      <trkpt lat="45.02379" lon="5.57044">
        <ele>1900.66</ele>
        <time>2010-02-10T15:00:46Z</time>
      </trkpt>
      <trkpt lat="45.0239" lon="5.5704">
        <ele>1894.9</ele>
        <time>2010-02-10T15:00:47Z</time>
      </trkpt>
      <trkpt lat="45.02411" lon="5.57031">
        <ele>1889.13</ele>
        <time>2010-02-10T15:00:49Z</time>
      </trkpt>
      <trkpt lat="45.02421" lon="5.57029">
        <ele>1883.84</ele>
        <time>2010-02-10T15:00:50Z</time>
      </trkpt>
      <trkpt lat="45.02447" lon="5.57007">
        <ele>1878.07</ele>
        <time>2010-02-10T15:00:53Z</time>
      </trkpt>
      <trkpt lat="45.02457" lon="5.56982">
        <ele>1872.3</ele>
        <time>2010-02-10T15:00:55Z</time>
      </trkpt>
      <trkpt lat="45.02463" lon="5.56969">
        <ele>1867.02</ele>
        <time>2010-02-10T15:00:56Z</time>
      </trkpt>
      <trkpt lat="45.02464" lon="5.56941">
        <ele>1865.09</ele>
        <time>2010-02-10T15:00:58Z</time>
      </trkpt>
      <trkpt lat="45.0245" lon="5.56922">
        <ele>1863.65</ele>
        <time>2010-02-10T15:01:01Z</time>
      </trkpt>
      <trkpt lat="45.02436" lon="5.56915">
        <ele>1863.17</ele>
        <time>2010-02-10T15:01:06Z</time>
      </trkpt>
      <trkpt lat="45.02435" lon="5.56914">
        <ele>1861.73</ele>
        <time>2010-02-10T15:01:18Z</time>
      </trkpt>
      <trkpt lat="45.02435" lon="5.56914">
        <ele>1861.25</ele>
        <time>2010-02-10T15:01:22Z</time>
      </trkpt>
      <trkpt lat="45.02432" lon="5.56904">
        <ele>1854.04</ele>
        <time>2010-02-10T15:01:25Z</time>
      </trkpt>
      <trkpt lat="45.02433" lon="5.569">
        <ele>1850.68</ele>
        <time>2010-02-10T15:01:26Z</time>
      </trkpt>
      <trkpt lat="45.02435" lon="5.56895">
        <ele>1851.16</ele>
        <time>2010-02-10T15:01:27Z</time>
      </trkpt>
      <trkpt lat="45.02444" lon="5.56874">
        <ele>1838.66</ele>
        <time>2010-02-10T15:01:30Z</time>
      </trkpt>
      <trkpt lat="45.02452" lon="5.56862">
        <ele>1834.81</ele>
        <time>2010-02-10T15:01:32Z</time>
      </trkpt>
      <trkpt lat="45.02464" lon="5.56846">
        <ele>1825.68</ele>
        <time>2010-02-10T15:01:36Z</time>
      </trkpt>
      <trkpt lat="45.02467" lon="5.56846">
        <ele>1826.64</ele>
        <time>2010-02-10T15:01:43Z</time>
      </trkpt>
      <trkpt lat="45.02465" lon="5.56846">
        <ele>1824.72</ele>
        <time>2010-02-10T15:03:47Z</time>
      </trkpt>
      <trkpt lat="45.02465" lon="5.56846">
        <ele>1828.08</ele>
        <time>2010-02-10T15:03:48Z</time>
      </trkpt>
      <trkpt lat="45.02465" lon="5.56846">
        <ele>1827.6</ele>
        <time>2010-02-10T15:03:49Z</time>
      </trkpt>
      <trkpt lat="45.02465" lon="5.56846">
        <ele>1826.64</ele>
        <time>2010-02-10T15:03:51Z</time>
      </trkpt>
      <trkpt lat="45.02468" lon="5.56854">
        <ele>1830.49</ele>
        <time>2010-02-10T15:04:21Z</time>
      </trkpt>
      <trkpt lat="45.02468" lon="5.56854">
        <ele>1827.12</ele>
        <time>2010-02-10T15:04:22Z</time>
      </trkpt>
      <trkpt lat="45.02468" lon="5.56854">
        <ele>1827.12</ele>
        <time>2010-02-10T15:04:31Z</time>
      </trkpt>
      <trkpt lat="45.02477" lon="5.56845">
        <ele>1822.8</ele>
        <time>2010-02-10T15:04:35Z</time>
      </trkpt>
      <trkpt lat="45.02482" lon="5.56834">
        <ele>1819.91</ele>
        <time>2010-02-10T15:04:37Z</time>
      </trkpt>
      <trkpt lat="45.02481" lon="5.56831">
        <ele>1818.47</ele>
        <time>2010-02-10T15:04:42Z</time>
      </trkpt>
      <trkpt lat="45.02483" lon="5.56828">
        <ele>1814.63</ele>
        <time>2010-02-10T15:04:44Z</time>
      </trkpt>
      <trkpt lat="45.0249" lon="5.56821">
        <ele>1808.86</ele>
        <time>2010-02-10T15:04:46Z</time>
      </trkpt>
      <trkpt lat="45.02497" lon="5.5681">
        <ele>1802.61</ele>
        <time>2010-02-10T15:04:48Z</time>
      </trkpt>
      <trkpt lat="45.02505" lon="5.56801">
        <ele>1799.24</ele>
        <time>2010-02-10T15:04:50Z</time>
      </trkpt>
      <trkpt lat="45.02507" lon="5.56793">
        <ele>1795.88</ele>
        <time>2010-02-10T15:04:52Z</time>
      </trkpt>
      <trkpt lat="45.02511" lon="5.56783">
        <ele>1792.03</ele>
        <time>2010-02-10T15:04:54Z</time>
      </trkpt>
      <trkpt lat="45.02506" lon="5.56773">
        <ele>1788.67</ele>
        <time>2010-02-10T15:04:56Z</time>
      </trkpt>
      <trkpt lat="45.02509" lon="5.56762">
        <ele>1783.86</ele>
        <time>2010-02-10T15:04:58Z</time>
      </trkpt>
      <trkpt lat="45.02513" lon="5.56754">
        <ele>1779.06</ele>
        <time>2010-02-10T15:04:59Z</time>
      </trkpt>
      <trkpt lat="45.02517" lon="5.56746">
        <ele>1774.73</ele>
        <time>2010-02-10T15:05:00Z</time>
      </trkpt>
      <trkpt lat="45.02523" lon="5.56739">
        <ele>1771.85</ele>
        <time>2010-02-10T15:05:01Z</time>
      </trkpt>
      <trkpt lat="45.02535" lon="5.56728">
        <ele>1767.04</ele>
        <time>2010-02-10T15:05:03Z</time>
      </trkpt>
      <trkpt lat="45.02552" lon="5.56711">
        <ele>1757.43</ele>
        <time>2010-02-10T15:05:06Z</time>
      </trkpt>
      <trkpt lat="45.02561" lon="5.56698">
        <ele>1750.22</ele>
        <time>2010-02-10T15:05:08Z</time>
      </trkpt>
      <trkpt lat="45.02566" lon="5.56696">
        <ele>1749.74</ele>
        <time>2010-02-10T15:05:09Z</time>
      </trkpt>
      <trkpt lat="45.02578" lon="5.56698">
        <ele>1747.33</ele>
        <time>2010-02-10T15:05:13Z</time>
      </trkpt>
      <trkpt lat="45.02587" lon="5.56694">
        <ele>1743.01</ele>
        <time>2010-02-10T15:05:15Z</time>
      </trkpt>
      <trkpt lat="45.02608" lon="5.56672">
        <ele>1731.95</ele>
        <time>2010-02-10T15:05:19Z</time>
      </trkpt>
      <trkpt lat="45.02609" lon="5.56659">
        <ele>1726.67</ele>
        <time>2010-02-10T15:05:21Z</time>
      </trkpt>
      <trkpt lat="45.02607" lon="5.56646">
        <ele>1721.86</ele>
        <time>2010-02-10T15:05:23Z</time>
      </trkpt>
      <trkpt lat="45.02606" lon="5.56639">
        <ele>1719.94</ele>
        <time>2010-02-10T15:05:25Z</time>
      </trkpt>
      <trkpt lat="45.02605" lon="5.56641">
        <ele>1720.9</ele>
        <time>2010-02-10T15:05:27Z</time>
      </trkpt>
      <trkpt lat="45.02604" lon="5.56645">
        <ele>1719.94</ele>
        <time>2010-02-10T15:05:39Z</time>
      </trkpt>
      <trkpt lat="45.02606" lon="5.56646">
        <ele>1719.94</ele>
        <time>2010-02-10T15:06:13Z</time>
      </trkpt>
      <trkpt lat="45.02608" lon="5.56646">
        <ele>1719.46</ele>
        <time>2010-02-10T15:06:26Z</time>
      </trkpt>
      <trkpt lat="45.02608" lon="5.56646">
        <ele>1718.49</ele>
        <time>2010-02-10T15:06:50Z</time>
      </trkpt>
      <trkpt lat="45.02616" lon="5.56641">
        <ele>1714.65</ele>
        <time>2010-02-10T15:06:53Z</time>
      </trkpt>
      <trkpt lat="45.0262" lon="5.56638">
        <ele>1712.25</ele>
        <time>2010-02-10T15:06:54Z</time>
      </trkpt>
      <trkpt lat="45.02631" lon="5.56632">
        <ele>1706.96</ele>
        <time>2010-02-10T15:06:56Z</time>
      </trkpt>
      <trkpt lat="45.02642" lon="5.56626">
        <ele>1703.59</ele>
        <time>2010-02-10T15:06:58Z</time>
      </trkpt>
      <trkpt lat="45.02649" lon="5.56619">
        <ele>1699.27</ele>
        <time>2010-02-10T15:07:00Z</time>
      </trkpt>
      <trkpt lat="45.0265" lon="5.56612">
        <ele>1696.38</ele>
        <time>2010-02-10T15:07:03Z</time>
      </trkpt>
      <trkpt lat="45.02644" lon="5.56606">
        <ele>1692.54</ele>
        <time>2010-02-10T15:07:06Z</time>
      </trkpt>
      <trkpt lat="45.02638" lon="5.56601">
        <ele>1690.62</ele>
        <time>2010-02-10T15:07:10Z</time>
      </trkpt>
      <trkpt lat="45.02636" lon="5.56595">
        <ele>1687.25</ele>
        <time>2010-02-10T15:07:12Z</time>
      </trkpt>
      <trkpt lat="45.02637" lon="5.5659">
        <ele>1684.37</ele>
        <time>2010-02-10T15:07:13Z</time>
      </trkpt>
      <trkpt lat="45.02628" lon="5.56568">
        <ele>1678.12</ele>
        <time>2010-02-10T15:07:18Z</time>
      </trkpt>
      <trkpt lat="45.02619" lon="5.56562">
        <ele>1675.72</ele>
        <time>2010-02-10T15:07:22Z</time>
      </trkpt>
      <trkpt lat="45.02615" lon="5.56554">
        <ele>1671.87</ele>
        <time>2010-02-10T15:07:24Z</time>
      </trkpt>
      <trkpt lat="45.02615" lon="5.56547">
        <ele>1665.62</ele>
        <time>2010-02-10T15:07:25Z</time>
      </trkpt>
      <trkpt lat="45.02622" lon="5.56522">
        <ele>1660.33</ele>
        <time>2010-02-10T15:07:28Z</time>
      </trkpt>
      <trkpt lat="45.02624" lon="5.56504">
        <ele>1656.01</ele>
        <time>2010-02-10T15:07:31Z</time>
      </trkpt>
      <trkpt lat="45.02625" lon="5.56501">
        <ele>1655.53</ele>
        <time>2010-02-10T15:07:33Z</time>
      </trkpt>
      <trkpt lat="45.02626" lon="5.56493">
        <ele>1654.57</ele>
        <time>2010-02-10T15:07:43Z</time>
      </trkpt>
      <trkpt lat="45.02626" lon="5.56483">
        <ele>1652.64</ele>
        <time>2010-02-10T15:07:46Z</time>
      </trkpt>
      <trkpt lat="45.02634" lon="5.56462">
        <ele>1646.88</ele>
        <time>2010-02-10T15:07:49Z</time>
      </trkpt>
      <trkpt lat="45.02638" lon="5.56453">
        <ele>1642.55</ele>
        <time>2010-02-10T15:07:50Z</time>
      </trkpt>
      <trkpt lat="45.0264" lon="5.56438">
        <ele>1641.11</ele>
        <time>2010-02-10T15:07:52Z</time>
      </trkpt>
      <trkpt lat="45.02638" lon="5.56436">
        <ele>1640.15</ele>
        <time>2010-02-10T15:07:54Z</time>
      </trkpt>
      <trkpt lat="45.02638" lon="5.56442">
        <ele>1639.19</ele>
        <time>2010-02-10T15:08:01Z</time>
      </trkpt>
      <trkpt lat="45.02639" lon="5.56429">
        <ele>1635.34</ele>
        <time>2010-02-10T15:08:04Z</time>
      </trkpt>
      <trkpt lat="45.0264" lon="5.5641">
        <ele>1631.98</ele>
        <time>2010-02-10T15:08:09Z</time>
      </trkpt>
      <trkpt lat="45.02643" lon="5.56401">
        <ele>1629.57</ele>
        <time>2010-02-10T15:08:11Z</time>
      </trkpt>
      <trkpt lat="45.02648" lon="5.56395">
        <ele>1624.77</ele>
        <time>2010-02-10T15:08:12Z</time>
      </trkpt>
      <trkpt lat="45.02652" lon="5.5639">
        <ele>1621.88</ele>
        <time>2010-02-10T15:08:13Z</time>
      </trkpt>
      <trkpt lat="45.02662" lon="5.56374">
        <ele>1615.15</ele>
        <time>2010-02-10T15:08:15Z</time>
      </trkpt>
      <trkpt lat="45.02671" lon="5.56352">
        <ele>1611.79</ele>
        <time>2010-02-10T15:08:19Z</time>
      </trkpt>
      <trkpt lat="45.02677" lon="5.56333">
        <ele>1606.5</ele>
        <time>2010-02-10T15:08:22Z</time>
      </trkpt>
      <trkpt lat="45.02681" lon="5.56323">
        <ele>1600.73</ele>
        <time>2010-02-10T15:08:24Z</time>
      </trkpt>
      <trkpt lat="45.02683" lon="5.56321">
        <ele>1602.17</ele>
        <time>2010-02-10T15:08:25Z</time>
      </trkpt>
      <trkpt lat="45.02688" lon="5.56316">
        <ele>1598.81</ele>
        <time>2010-02-10T15:08:27Z</time>
      </trkpt>
      <trkpt lat="45.02692" lon="5.56307">
        <ele>1594.48</ele>
        <time>2010-02-10T15:08:29Z</time>
      </trkpt>
      <trkpt lat="45.02698" lon="5.56299">
        <ele>1590.16</ele>
        <time>2010-02-10T15:08:32Z</time>
      </trkpt>
      <trkpt lat="45.02706" lon="5.56287">
        <ele>1584.39</ele>
        <time>2010-02-10T15:08:34Z</time>
      </trkpt>
      <trkpt lat="45.02711" lon="5.56278">
        <ele>1583.43</ele>
        <time>2010-02-10T15:08:35Z</time>
      </trkpt>
      <trkpt lat="45.02726" lon="5.56225">
        <ele>1567.09</ele>
        <time>2010-02-10T15:08:39Z</time>
      </trkpt>
      <trkpt lat="45.02727" lon="5.56211">
        <ele>1564.2</ele>
        <time>2010-02-10T15:08:40Z</time>
      </trkpt>
      <trkpt lat="45.02727" lon="5.56188">
        <ele>1565.64</ele>
        <time>2010-02-10T15:08:42Z</time>
      </trkpt>
      <trkpt lat="45.02723" lon="5.56161">
        <ele>1562.28</ele>
        <time>2010-02-10T15:08:45Z</time>
      </trkpt>
      <trkpt lat="45.02706" lon="5.56119">
        <ele>1559.88</ele>
        <time>2010-02-10T15:08:50Z</time>
      </trkpt>
      <trkpt lat="45.02703" lon="5.56103">
        <ele>1559.4</ele>
        <time>2010-02-10T15:08:57Z</time>
      </trkpt>
      <trkpt lat="45.02704" lon="5.56102">
        <ele>1559.88</ele>
        <time>2010-02-10T15:08:58Z</time>
      </trkpt>
      <trkpt lat="45.02706" lon="5.56092">
        <ele>1558.92</ele>
        <time>2010-02-10T15:09:06Z</time>
      </trkpt>
      <trkpt lat="45.02707" lon="5.56092">
        <ele>1559.4</ele>
        <time>2010-02-10T15:09:12Z</time>
      </trkpt>
      <trkpt lat="45.02715" lon="5.56091">
        <ele>1557.47</ele>
        <time>2010-02-10T15:09:15Z</time>
      </trkpt>
      <trkpt lat="45.02722" lon="5.56091">
        <ele>1557.47</ele>
        <time>2010-02-10T15:09:26Z</time>
      </trkpt>
      <trkpt lat="45.02735" lon="5.56094">
        <ele>1555.55</ele>
        <time>2010-02-10T15:09:42Z</time>
      </trkpt>
      <trkpt lat="45.02749" lon="5.56088">
        <ele>1548.34</ele>
        <time>2010-02-10T15:09:45Z</time>
      </trkpt>
      <trkpt lat="45.02761" lon="5.56079">
        <ele>1542.09</ele>
        <time>2010-02-10T15:09:47Z</time>
      </trkpt>
      <trkpt lat="45.02773" lon="5.56066">
        <ele>1541.61</ele>
        <time>2010-02-10T15:09:49Z</time>
      </trkpt>
      <trkpt lat="45.02779" lon="5.56059">
        <ele>1541.61</ele>
        <time>2010-02-10T15:09:53Z</time>
      </trkpt>
      <trkpt lat="45.02784" lon="5.56058">
        <ele>1541.61</ele>
        <time>2010-02-10T15:10:03Z</time>
      </trkpt>
      <trkpt lat="45.02792" lon="5.56043">
        <ele>1536.32</ele>
        <time>2010-02-10T15:10:08Z</time>
      </trkpt>
      <trkpt lat="45.02795" lon="5.56038">
        <ele>1533.44</ele>
        <time>2010-02-10T15:10:09Z</time>
      </trkpt>
      <trkpt lat="45.02807" lon="5.56023">
        <ele>1526.23</ele>
        <time>2010-02-10T15:10:12Z</time>
      </trkpt>
      <trkpt lat="45.02813" lon="5.56009">
        <ele>1520.46</ele>
        <time>2010-02-10T15:10:14Z</time>
      </trkpt>
      <trkpt lat="45.02815" lon="5.55998">
        <ele>1518.06</ele>
        <time>2010-02-10T15:10:16Z</time>
      </trkpt>
      <trkpt lat="45.02816" lon="5.55993">
        <ele>1513.73</ele>
        <time>2010-02-10T15:10:17Z</time>
      </trkpt>
      <trkpt lat="45.02818" lon="5.55989">
        <ele>1514.69</ele>
        <time>2010-02-10T15:10:18Z</time>
      </trkpt>
      <trkpt lat="45.02822" lon="5.55986">
        <ele>1515.18</ele>
        <time>2010-02-10T15:10:29Z</time>
      </trkpt>
      <trkpt lat="45.02826" lon="5.55988">
        <ele>1514.21</ele>
        <time>2010-02-10T15:10:32Z</time>
      </trkpt>
      <trkpt lat="45.02829" lon="5.55979">
        <ele>1513.25</ele>
        <time>2010-02-10T15:10:49Z</time>
      </trkpt>
      <trkpt lat="45.02829" lon="5.55973">
        <ele>1512.29</ele>
        <time>2010-02-10T15:11:09Z</time>
      </trkpt>
      <trkpt lat="45.02834" lon="5.55968">
        <ele>1507.48</ele>
        <time>2010-02-10T15:11:12Z</time>
      </trkpt>
      <trkpt lat="45.02837" lon="5.55964">
        <ele>1503.64</ele>
        <time>2010-02-10T15:11:13Z</time>
      </trkpt>
      <trkpt lat="45.02843" lon="5.55951">
        <ele>1500.27</ele>
        <time>2010-02-10T15:11:16Z</time>
      </trkpt>
      <trkpt lat="45.02845" lon="5.55945">
        <ele>1499.79</ele>
        <time>2010-02-10T15:11:17Z</time>
      </trkpt>
      <trkpt lat="45.02854" lon="5.55927">
        <ele>1493.55</ele>
        <time>2010-02-10T15:11:20Z</time>
      </trkpt>
      <trkpt lat="45.02858" lon="5.55921">
        <ele>1492.1</ele>
        <time>2010-02-10T15:11:21Z</time>
      </trkpt>
      <trkpt lat="45.02868" lon="5.55898">
        <ele>1486.82</ele>
        <time>2010-02-10T15:11:25Z</time>
      </trkpt>
      <trkpt lat="45.02872" lon="5.5589">
        <ele>1482.01</ele>
        <time>2010-02-10T15:11:27Z</time>
      </trkpt>
      <trkpt lat="45.02876" lon="5.55881">
        <ele>1480.09</ele>
        <time>2010-02-10T15:11:29Z</time>
      </trkpt>
      <trkpt lat="45.02877" lon="5.55877">
        <ele>1478.16</ele>
        <time>2010-02-10T15:11:30Z</time>
      </trkpt>
      <trkpt lat="45.02885" lon="5.55869">
        <ele>1470.95</ele>
        <time>2010-02-10T15:11:33Z</time>
      </trkpt>
      <trkpt lat="45.02888" lon="5.55866">
        <ele>1467.59</ele>
        <time>2010-02-10T15:11:34Z</time>
      </trkpt>
      <trkpt lat="45.0289" lon="5.55863">
        <ele>1469.51</ele>
        <time>2010-02-10T15:11:35Z</time>
      </trkpt>
      <trkpt lat="45.02892" lon="5.55844">
        <ele>1466.15</ele>
        <time>2010-02-10T15:11:41Z</time>
      </trkpt>
      <trkpt lat="45.02894" lon="5.55838">
        <ele>1459.42</ele>
        <time>2010-02-10T15:11:42Z</time>
      </trkpt>
      <trkpt lat="45.02897" lon="5.55827">
        <ele>1457.98</ele>
        <time>2010-02-10T15:11:44Z</time>
      </trkpt>
      <trkpt lat="45.02904" lon="5.55814">
        <ele>1455.57</ele>
        <time>2010-02-10T15:11:52Z</time>
      </trkpt>
      <trkpt lat="45.02905" lon="5.55813">
        <ele>1452.21</ele>
        <time>2010-02-10T15:12:18Z</time>
      </trkpt>
      <trkpt lat="45.02906" lon="5.55814">
        <ele>1452.21</ele>
        <time>2010-02-10T15:12:19Z</time>
      </trkpt>
      <trkpt lat="45.02908" lon="5.55816">
        <ele>1450.29</ele>
        <time>2010-02-10T15:12:21Z</time>
      </trkpt>
      <trkpt lat="45.02907" lon="5.55813">
        <ele>1451.25</ele>
        <time>2010-02-10T15:12:23Z</time>
      </trkpt>
      <trkpt lat="45.02907" lon="5.5581">
        <ele>1445.48</ele>
        <time>2010-02-10T15:12:24Z</time>
      </trkpt>
      <trkpt lat="45.02908" lon="5.55806">
        <ele>1440.67</ele>
        <time>2010-02-10T15:12:25Z</time>
      </trkpt>
      <trkpt lat="45.02909" lon="5.55802">
        <ele>1442.6</ele>
        <time>2010-02-10T15:12:26Z</time>
      </trkpt>
      <trkpt lat="45.0291" lon="5.55797">
        <ele>1438.75</ele>
        <time>2010-02-10T15:12:27Z</time>
      </trkpt>
      <trkpt lat="45.02912" lon="5.55797">
        <ele>1435.39</ele>
        <time>2010-02-10T15:12:30Z</time>
      </trkpt>
      <trkpt lat="45.02913" lon="5.55792">
        <ele>1431.54</ele>
        <time>2010-02-10T15:12:33Z</time>
      </trkpt>
      <trkpt lat="45.02917" lon="5.55791">
        <ele>1431.06</ele>
        <time>2010-02-10T15:12:44Z</time>
      </trkpt>
      <trkpt lat="45.02937" lon="5.55791">
        <ele>1431.06</ele>
        <time>2010-02-10T15:13:23Z</time>
      </trkpt>
      <trkpt lat="45.02954" lon="5.55797">
        <ele>1422.41</ele>
        <time>2010-02-10T15:13:27Z</time>
      </trkpt>
      <trkpt lat="45.0296" lon="5.55782">
        <ele>1419.52</ele>
        <time>2010-02-10T15:13:30Z</time>
      </trkpt>
      <trkpt lat="45.02964" lon="5.55772">
        <ele>1414.72</ele>
        <time>2010-02-10T15:13:32Z</time>
      </trkpt>
      <trkpt lat="45.02967" lon="5.5577">
        <ele>1416.16</ele>
        <time>2010-02-10T15:13:33Z</time>
      </trkpt>
      <trkpt lat="45.02972" lon="5.55773">
        <ele>1413.28</ele>
        <time>2010-02-10T15:13:36Z</time>
      </trkpt>
      <trkpt lat="45.02975" lon="5.55771">
        <ele>1413.76</ele>
        <time>2010-02-10T15:13:37Z</time>
      </trkpt>
      <trkpt lat="45.02979" lon="5.55768">
        <ele>1409.43</ele>
        <time>2010-02-10T15:13:38Z</time>
      </trkpt>
      <trkpt lat="45.02978" lon="5.55762">
        <ele>1408.47</ele>
        <time>2010-02-10T15:13:45Z</time>
      </trkpt>
      <trkpt lat="45.02978" lon="5.55762">
        <ele>1408.47</ele>
        <time>2010-02-10T15:13:46Z</time>
      </trkpt>
      <trkpt lat="45.02979" lon="5.55754">
        <ele>1407.03</ele>
        <time>2010-02-10T15:13:56Z</time>
      </trkpt>
      <trkpt lat="45.02979" lon="5.55754">
        <ele>1407.51</ele>
        <time>2010-02-10T15:13:59Z</time>
      </trkpt>
      <trkpt lat="45.02983" lon="5.55746">
        <ele>1403.18</ele>
        <time>2010-02-10T15:14:02Z</time>
      </trkpt>
      <trkpt lat="45.02996" lon="5.55731">
        <ele>1397.89</ele>
        <time>2010-02-10T15:14:06Z</time>
      </trkpt>
      <trkpt lat="45.02999" lon="5.55727">
        <ele>1395.97</ele>
        <time>2010-02-10T15:14:07Z</time>
      </trkpt>
      <trkpt lat="45.03004" lon="5.55724">
        <ele>1390.68</ele>
        <time>2010-02-10T15:14:09Z</time>
      </trkpt>
      <trkpt lat="45.03006" lon="5.55722">
        <ele>1387.32</ele>
        <time>2010-02-10T15:14:10Z</time>
      </trkpt>
      <trkpt lat="45.03008" lon="5.55716">
        <ele>1385.4</ele>
        <time>2010-02-10T15:14:11Z</time>
      </trkpt>
      <trkpt lat="45.03011" lon="5.55707">
        <ele>1382.99</ele>
        <time>2010-02-10T15:14:13Z</time>
      </trkpt>
      <trkpt lat="45.03014" lon="5.55696">
        <ele>1377.23</ele>
        <time>2010-02-10T15:14:15Z</time>
      </trkpt>
      <trkpt lat="45.03017" lon="5.55691">
        <ele>1373.38</ele>
        <time>2010-02-10T15:14:16Z</time>
      </trkpt>
      <trkpt lat="45.03023" lon="5.55679">
        <ele>1364.73</ele>
        <time>2010-02-10T15:14:18Z</time>
      </trkpt>
      <trkpt lat="45.03037" lon="5.55657">
        <ele>1364.73</ele>
        <time>2010-02-10T15:14:22Z</time>
      </trkpt>
      <trkpt lat="45.03046" lon="5.55644">
        <ele>1360.88</ele>
        <time>2010-02-10T15:14:24Z</time>
      </trkpt>
      <trkpt lat="45.03065" lon="5.55618">
        <ele>1348.87</ele>
        <time>2010-02-10T15:14:28Z</time>
      </trkpt>
      <trkpt lat="45.03069" lon="5.55612">
        <ele>1344.54</ele>
        <time>2010-02-10T15:14:29Z</time>
      </trkpt>
      <trkpt lat="45.03072" lon="5.55608">
        <ele>1346.46</ele>
        <time>2010-02-10T15:14:30Z</time>
      </trkpt>
      <trkpt lat="45.03075" lon="5.55607">
        <ele>1350.31</ele>
        <time>2010-02-10T15:14:34Z</time>
      </trkpt>
      <trkpt lat="45.03075" lon="5.55606">
        <ele>1345.98</ele>
        <time>2010-02-10T15:14:36Z</time>
      </trkpt>
      <trkpt lat="45.03075" lon="5.55605">
        <ele>1346.46</ele>
        <time>2010-02-10T15:14:37Z</time>
      </trkpt>
      <trkpt lat="45.03073" lon="5.55604">
        <ele>1346.94</ele>
        <time>2010-02-10T15:14:52Z</time>
      </trkpt>
      <trkpt lat="45.03073" lon="5.55604">
        <ele>1343.1</ele>
        <time>2010-02-10T15:15:05Z</time>
      </trkpt>
      <trkpt lat="45.03073" lon="5.55604">
        <ele>1345.02</ele>
        <time>2010-02-10T15:15:06Z</time>
      </trkpt>
      <trkpt lat="45.03073" lon="5.55604">
        <ele>1346.46</ele>
        <time>2010-02-10T15:15:08Z</time>
      </trkpt>
      <trkpt lat="45.03073" lon="5.55604">
        <ele>1350.31</ele>
        <time>2010-02-10T15:15:11Z</time>
      </trkpt>
      <trkpt lat="45.03073" lon="5.55604">
        <ele>1346.94</ele>
        <time>2010-02-10T15:15:12Z</time>
      </trkpt>
      <trkpt lat="45.03073" lon="5.55604">
        <ele>1346.94</ele>
        <time>2010-02-10T15:15:14Z</time>
      </trkpt>
      <trkpt lat="45.03077" lon="5.55597">
        <ele>1341.66</ele>
        <time>2010-02-10T15:15:17Z</time>
      </trkpt>
      <trkpt lat="45.0308" lon="5.55592">
        <ele>1338.77</ele>
        <time>2010-02-10T15:15:18Z</time>
      </trkpt>
      <trkpt lat="45.03089" lon="5.55576">
        <ele>1333.49</ele>
        <time>2010-02-10T15:15:21Z</time>
      </trkpt>
      <trkpt lat="45.03092" lon="5.55571">
        <ele>1332.04</ele>
        <time>2010-02-10T15:15:22Z</time>
      </trkpt>
      <trkpt lat="45.03097" lon="5.55558">
        <ele>1329.64</ele>
        <time>2010-02-10T15:15:25Z</time>
      </trkpt>
      <trkpt lat="45.031" lon="5.5555">
        <ele>1326.76</ele>
        <time>2010-02-10T15:15:27Z</time>
      </trkpt>
      <trkpt lat="45.03106" lon="5.55533">
        <ele>1322.91</ele>
        <time>2010-02-10T15:15:32Z</time>
      </trkpt>
      <trkpt lat="45.03109" lon="5.55534">
        <ele>1319.55</ele>
        <time>2010-02-10T15:15:42Z</time>
      </trkpt>
      <trkpt lat="45.03116" lon="5.5554">
        <ele>1317.62</ele>
        <time>2010-02-10T15:15:44Z</time>
      </trkpt>
      <trkpt lat="45.03123" lon="5.55551">
        <ele>1315.7</ele>
        <time>2010-02-10T15:15:50Z</time>
      </trkpt>
      <trkpt lat="45.03123" lon="5.55553">
        <ele>1317.14</ele>
        <time>2010-02-10T15:16:02Z</time>
      </trkpt>
      <trkpt lat="45.03139" lon="5.55582">
        <ele>1314.26</ele>
        <time>2010-02-10T15:16:13Z</time>
      </trkpt>
      <trkpt lat="45.03151" lon="5.55598">
        <ele>1313.3</ele>
        <time>2010-02-10T15:16:18Z</time>
      </trkpt>
      <trkpt lat="45.03169" lon="5.5562">
        <ele>1309.93</ele>
        <time>2010-02-10T15:16:24Z</time>
      </trkpt>
      <trkpt lat="45.03193" lon="5.55648">
        <ele>1306.57</ele>
        <time>2010-02-10T15:16:31Z</time>
      </trkpt>
      <trkpt lat="45.03201" lon="5.55657">
        <ele>1306.09</ele>
        <time>2010-02-10T15:16:33Z</time>
      </trkpt>
      <trkpt lat="45.03216" lon="5.55677">
        <ele>1303.69</ele>
        <time>2010-02-10T15:16:37Z</time>
      </trkpt>
      <trkpt lat="45.0324" lon="5.55708">
        <ele>1300.32</ele>
        <time>2010-02-10T15:16:43Z</time>
      </trkpt>
      <trkpt lat="45.03253" lon="5.55723">
        <ele>1298.88</ele>
        <time>2010-02-10T15:16:46Z</time>
      </trkpt>
      <trkpt lat="45.03272" lon="5.55746">
        <ele>1297.44</ele>
        <time>2010-02-10T15:16:50Z</time>
      </trkpt>
      <trkpt lat="45.03298" lon="5.55782">
        <ele>1294.55</ele>
        <time>2010-02-10T15:16:57Z</time>
      </trkpt>
      <trkpt lat="45.03306" lon="5.55792">
        <ele>1293.59</ele>
        <time>2010-02-10T15:16:59Z</time>
      </trkpt>
      <trkpt lat="45.03331" lon="5.55828">
        <ele>1290.23</ele>
        <time>2010-02-10T15:17:06Z</time>
      </trkpt>
      <trkpt lat="45.03335" lon="5.55832">
        <ele>1291.19</ele>
        <time>2010-02-10T15:17:07Z</time>
      </trkpt>
      <trkpt lat="45.03358" lon="5.55854">
        <ele>1289.27</ele>
        <time>2010-02-10T15:17:13Z</time>
      </trkpt>
      <trkpt lat="45.03385" lon="5.55882">
        <ele>1284.94</ele>
        <time>2010-02-10T15:17:20Z</time>
      </trkpt>
      <trkpt lat="45.03398" lon="5.55896">
        <ele>1283.5</ele>
        <time>2010-02-10T15:17:23Z</time>
      </trkpt>
      <trkpt lat="45.03402" lon="5.559">
        <ele>1283.5</ele>
        <time>2010-02-10T15:17:24Z</time>
      </trkpt>
      <trkpt lat="45.03418" lon="5.55913">
        <ele>1282.54</ele>
        <time>2010-02-10T15:17:27Z</time>
      </trkpt>
      <trkpt lat="45.03438" lon="5.55922">
        <ele>1281.57</ele>
        <time>2010-02-10T15:17:31Z</time>
      </trkpt>
      <trkpt lat="45.03452" lon="5.55926">
        <ele>1279.65</ele>
        <time>2010-02-10T15:17:34Z</time>
      </trkpt>
      <trkpt lat="45.03499" lon="5.55936">
        <ele>1278.21</ele>
        <time>2010-02-10T15:17:45Z</time>
      </trkpt>
      <trkpt lat="45.0354" lon="5.55923">
        <ele>1275.33</ele>
        <time>2010-02-10T15:17:55Z</time>
      </trkpt>
      <trkpt lat="45.03566" lon="5.55882">
        <ele>1272.92</ele>
        <time>2010-02-10T15:18:06Z</time>
      </trkpt>
      <trkpt lat="45.03569" lon="5.5587">
        <ele>1271.96</ele>
        <time>2010-02-10T15:18:08Z</time>
      </trkpt>
      <trkpt lat="45.03585" lon="5.55824">
        <ele>1268.12</ele>
        <time>2010-02-10T15:18:15Z</time>
      </trkpt>
      <trkpt lat="45.03587" lon="5.55819">
        <ele>1267.64</ele>
        <time>2010-02-10T15:18:16Z</time>
      </trkpt>
      <trkpt lat="45.03593" lon="5.55814">
        <ele>1268.12</ele>
        <time>2010-02-10T15:18:25Z</time>
      </trkpt>
      <trkpt lat="45.036" lon="5.55803">
        <ele>1267.64</ele>
        <time>2010-02-10T15:18:30Z</time>
      </trkpt>
      <trkpt lat="45.0362" lon="5.55772">
        <ele>1263.31</ele>
        <time>2010-02-10T15:18:39Z</time>
      </trkpt>
      <trkpt lat="45.03623" lon="5.55767">
        <ele>1263.31</ele>
        <time>2010-02-10T15:18:40Z</time>
      </trkpt>
      <trkpt lat="45.03635" lon="5.55754">
        <ele>1263.31</ele>
        <time>2010-02-10T15:18:44Z</time>
      </trkpt>
      <trkpt lat="45.03655" lon="5.55753">
        <ele>1259.94</ele>
        <time>2010-02-10T15:18:49Z</time>
      </trkpt>
      <trkpt lat="45.03681" lon="5.55754">
        <ele>1257.54</ele>
        <time>2010-02-10T15:18:55Z</time>
      </trkpt>
      <trkpt lat="45.037" lon="5.55755">
        <ele>1255.14</ele>
        <time>2010-02-10T15:18:59Z</time>
      </trkpt>
      <trkpt lat="45.03713" lon="5.55753">
        <ele>1252.74</ele>
        <time>2010-02-10T15:19:01Z</time>
      </trkpt>
      <trkpt lat="45.03734" lon="5.55744">
        <ele>1246.49</ele>
        <time>2010-02-10T15:19:04Z</time>
      </trkpt>
      <trkpt lat="45.03751" lon="5.55735">
        <ele>1242.64</ele>
        <time>2010-02-10T15:19:06Z</time>
      </trkpt>
      <trkpt lat="45.03777" lon="5.55723">
        <ele>1239.76</ele>
        <time>2010-02-10T15:19:09Z</time>
      </trkpt>
      <trkpt lat="45.03794" lon="5.5572">
        <ele>1238.8</ele>
        <time>2010-02-10T15:19:11Z</time>
      </trkpt>
      <trkpt lat="45.03816" lon="5.55722">
        <ele>1236.87</ele>
        <time>2010-02-10T15:19:14Z</time>
      </trkpt>
      <trkpt lat="45.03829" lon="5.55727">
        <ele>1235.91</ele>
        <time>2010-02-10T15:19:16Z</time>
      </trkpt>
      <trkpt lat="45.03862" lon="5.5573">
        <ele>1231.59</ele>
        <time>2010-02-10T15:19:21Z</time>
      </trkpt>
      <trkpt lat="45.03874" lon="5.55731">
        <ele>1230.14</ele>
        <time>2010-02-10T15:19:23Z</time>
      </trkpt>
      <trkpt lat="45.03915" lon="5.55723">
        <ele>1225.82</ele>
        <time>2010-02-10T15:19:29Z</time>
      </trkpt>
      <trkpt lat="45.03931" lon="5.55718">
        <ele>1224.38</ele>
        <time>2010-02-10T15:19:31Z</time>
      </trkpt>
      <trkpt lat="45.03954" lon="5.5571">
        <ele>1222.93</ele>
        <time>2010-02-10T15:19:34Z</time>
      </trkpt>
      <trkpt lat="45.03973" lon="5.55702">
        <ele>1218.61</ele>
        <time>2010-02-10T15:19:37Z</time>
      </trkpt>
      <trkpt lat="45.03991" lon="5.55696">
        <ele>1213.8</ele>
        <time>2010-02-10T15:19:39Z</time>
      </trkpt>
      <trkpt lat="45.04" lon="5.55692">
        <ele>1212.36</ele>
        <time>2010-02-10T15:19:40Z</time>
      </trkpt>
      <trkpt lat="45.04034" lon="5.55685">
        <ele>1200.82</ele>
        <time>2010-02-10T15:19:43Z</time>
      </trkpt>
      <trkpt lat="45.04046" lon="5.55684">
        <ele>1197.46</ele>
        <time>2010-02-10T15:19:44Z</time>
      </trkpt>
      <trkpt lat="45.04071" lon="5.5569">
        <ele>1191.21</ele>
        <time>2010-02-10T15:19:46Z</time>
      </trkpt>
      <trkpt lat="45.04107" lon="5.55709">
        <ele>1187.37</ele>
        <time>2010-02-10T15:19:49Z</time>
      </trkpt>
      <trkpt lat="45.04117" lon="5.55716">
        <ele>1187.37</ele>
        <time>2010-02-10T15:19:50Z</time>
      </trkpt>
      <trkpt lat="45.04134" lon="5.55727">
        <ele>1184</ele>
        <time>2010-02-10T15:19:52Z</time>
      </trkpt>
      <trkpt lat="45.0417" lon="5.55743">
        <ele>1180.64</ele>
        <time>2010-02-10T15:19:56Z</time>
      </trkpt>
      <trkpt lat="45.04186" lon="5.55751">
        <ele>1177.75</ele>
        <time>2010-02-10T15:19:58Z</time>
      </trkpt>
      <trkpt lat="45.04203" lon="5.55755">
        <ele>1172.47</ele>
        <time>2010-02-10T15:20:00Z</time>
      </trkpt>
      <trkpt lat="45.04224" lon="5.55759">
        <ele>1165.74</ele>
        <time>2010-02-10T15:20:02Z</time>
      </trkpt>
      <trkpt lat="45.04259" lon="5.55768">
        <ele>1162.37</ele>
        <time>2010-02-10T15:20:05Z</time>
      </trkpt>
      <trkpt lat="45.04269" lon="5.55771">
        <ele>1161.41</ele>
        <time>2010-02-10T15:20:06Z</time>
      </trkpt>
      <trkpt lat="45.04297" lon="5.55788">
        <ele>1155.16</ele>
        <time>2010-02-10T15:20:09Z</time>
      </trkpt>
      <trkpt lat="45.04312" lon="5.55811">
        <ele>1150.35</ele>
        <time>2010-02-10T15:20:11Z</time>
      </trkpt>
      <trkpt lat="45.04318" lon="5.55824">
        <ele>1149.87</ele>
        <time>2010-02-10T15:20:12Z</time>
      </trkpt>
      <trkpt lat="45.04332" lon="5.55862">
        <ele>1145.07</ele>
        <time>2010-02-10T15:20:15Z</time>
      </trkpt>
      <trkpt lat="45.04347" lon="5.55898">
        <ele>1142.18</ele>
        <time>2010-02-10T15:20:18Z</time>
      </trkpt>
      <trkpt lat="45.04355" lon="5.55919">
        <ele>1140.74</ele>
        <time>2010-02-10T15:20:20Z</time>
      </trkpt>
      <trkpt lat="45.04374" lon="5.55957">
        <ele>1137.86</ele>
        <time>2010-02-10T15:20:24Z</time>
      </trkpt>
      <trkpt lat="45.04389" lon="5.55982">
        <ele>1135.94</ele>
        <time>2010-02-10T15:20:27Z</time>
      </trkpt>
      <trkpt lat="45.0444" lon="5.56013">
        <ele>1134.01</ele>
        <time>2010-02-10T15:20:36Z</time>
      </trkpt>
      <trkpt lat="45.04462" lon="5.56013">
        <ele>1134.97</ele>
        <time>2010-02-10T15:20:42Z</time>
      </trkpt>
      <trkpt lat="45.04481" lon="5.56005">
        <ele>1134.97</ele>
        <time>2010-02-10T15:20:55Z</time>
      </trkpt>
      <trkpt lat="45.04486" lon="5.55999">
        <ele>1134.97</ele>
        <time>2010-02-10T15:21:01Z</time>
      </trkpt>
      <trkpt lat="45.04491" lon="5.55995">
        <ele>1134.97</ele>
        <time>2010-02-10T15:21:24Z</time>
      </trkpt>
      <trkpt lat="45.04496" lon="5.55994">
        <ele>1135.45</ele>
        <time>2010-02-10T15:21:36Z</time>
      </trkpt>
      <trkpt lat="45.04496" lon="5.55994">
        <ele>1127.28</ele>
        <time>2010-02-10T15:21:44Z</time>
      </trkpt>
      <trkpt lat="45.04496" lon="5.55994">
        <ele>1136.9</ele>
        <time>2010-02-10T15:21:45Z</time>
      </trkpt>
      <trkpt lat="45.04504" lon="5.55984">
        <ele>1133.53</ele>
        <time>2010-02-10T15:22:21Z</time>
      </trkpt>
      <trkpt lat="45.045" lon="5.55974">
        <ele>1134.01</ele>
        <time>2010-02-10T15:22:36Z</time>
      </trkpt>
      <trkpt lat="45.04495" lon="5.55967">
        <ele>1134.49</ele>
        <time>2010-02-10T15:22:52Z</time>
      </trkpt>
      <trkpt lat="45.04483" lon="5.55961">
        <ele>1134.01</ele>
        <time>2010-02-10T15:23:02Z</time>
      </trkpt>
      <trkpt lat="45.04441" lon="5.55987">
        <ele>1135.45</ele>
        <time>2010-02-10T15:23:39Z</time>
      </trkpt>
      <trkpt lat="45.04441" lon="5.55987">
        <ele>1135.94</ele>
        <time>2010-02-10T15:24:12Z</time>
      </trkpt>
      <trkpt lat="45.04441" lon="5.55987">
        <ele>1134.01</ele>
        <time>2010-02-10T15:24:13Z</time>
      </trkpt>
      <trkpt lat="45.04441" lon="5.55987">
        <ele>1133.53</ele>
        <time>2010-02-10T15:24:15Z</time>
      </trkpt>
      <trkpt lat="45.04441" lon="5.55987">
        <ele>1135.94</ele>
        <time>2010-02-10T15:24:17Z</time>
      </trkpt>
      <trkpt lat="45.04441" lon="5.55987">
        <ele>1134.97</ele>
        <time>2010-02-10T15:24:18Z</time>
      </trkpt>
      <trkpt lat="45.04441" lon="5.55987">
        <ele>1136.42</ele>
        <time>2010-02-10T15:24:55Z</time>
      </trkpt>
      <trkpt lat="45.04441" lon="5.55987">
        <ele>1134.97</ele>
        <time>2010-02-10T15:24:56Z</time>
      </trkpt>
      <trkpt lat="45.04441" lon="5.55987">
        <ele>1134.01</ele>
        <time>2010-02-10T15:24:57Z</time>
      </trkpt>
      <trkpt lat="45.04441" lon="5.55987">
        <ele>1133.53</ele>
        <time>2010-02-10T15:25:15Z</time>
      </trkpt>
      <trkpt lat="45.04441" lon="5.55987">
        <ele>1134.97</ele>
        <time>2010-02-10T15:25:16Z</time>
      </trkpt>
      <trkpt lat="45.04441" lon="5.55987">
        <ele>1127.76</ele>
        <time>2010-02-10T15:25:50Z</time>
      </trkpt>
      <trkpt lat="45.04441" lon="5.55987">
        <ele>1140.74</ele>
        <time>2010-02-10T15:25:51Z</time>
      </trkpt>
      <trkpt lat="45.04441" lon="5.55987">
        <ele>1135.94</ele>
        <time>2010-02-10T15:25:52Z</time>
      </trkpt>
      <trkpt lat="45.04441" lon="5.55987">
        <ele>1134.49</ele>
        <time>2010-02-10T15:26:09Z</time>
      </trkpt>
    </trkseg>
  </trk>
</gpx>